<?xml version="1.0" encoding="UTF-8" standalone="no" ?>
<gpx xmlns="http://www.topografix.com/GPX/1/1" xmlns:xsi="http://www.w3.org/2001/XMLSchema-instance" xsi:schemaLocation="http://www.topografix.com/GPX/1/1 http://www.topografix.com/GPX/1/1/gpx.xsd" version="1.1" creator="VisuGPX - https://www.visugpx.com">
  <metadata>
    <name>une journée dans le vaucluse par Gordes et l\'abbaye de Sénanque</name>
    <desc><![CDATA[une journée au départ de Gordes en passant par l\'abbaye de Sénanque pour le pique-nique]]></desc>
  </metadata>
  <trk>
    <name><![CDATA[circuit Gordes - abbayede ]]></name>
    <trkseg>
      <trkpt lat="43.90112" lon="5.19311">
        <ele>274.2</ele>
        <time>2011-02-06T08:43:51Z</time>
      </trkpt>
      <trkpt lat="43.90112" lon="5.19311">
        <ele>274.2</ele>
        <time>2011-02-06T08:43:52Z</time>
      </trkpt>
      <trkpt lat="43.90104" lon="5.19307">
        <ele>274.1</ele>
        <time>2011-02-06T08:45:11Z</time>
      </trkpt>
      <trkpt lat="43.90114" lon="5.19302">
        <ele>273.4</ele>
        <time>2011-02-06T08:47:09Z</time>
      </trkpt>
      <trkpt lat="43.90126" lon="5.19314">
        <ele>274.2</ele>
        <time>2011-02-06T08:47:21Z</time>
      </trkpt>
      <trkpt lat="43.90129" lon="5.19326">
        <ele>275.6</ele>
        <time>2011-02-06T08:47:29Z</time>
      </trkpt>
      <trkpt lat="43.90129" lon="5.19326">
        <ele>275.6</ele>
        <time>2011-02-06T08:47:29Z</time>
      </trkpt>
      <trkpt lat="43.9013" lon="5.19328">
        <ele>276.1</ele>
        <time>2011-02-06T08:47:31Z</time>
      </trkpt>
      <trkpt lat="43.9013" lon="5.1933">
        <ele>276.2</ele>
        <time>2011-02-06T08:47:32Z</time>
      </trkpt>
      <trkpt lat="43.90134" lon="5.19339">
        <ele>276.3</ele>
        <time>2011-02-06T08:47:38Z</time>
      </trkpt>
      <trkpt lat="43.90137" lon="5.1935">
        <ele>276.7</ele>
        <time>2011-02-06T08:47:44Z</time>
      </trkpt>
      <trkpt lat="43.90144" lon="5.19359">
        <ele>277.6</ele>
        <time>2011-02-06T08:47:50Z</time>
      </trkpt>
      <trkpt lat="43.90146" lon="5.19369">
        <ele>278</ele>
        <time>2011-02-06T08:47:57Z</time>
      </trkpt>
      <trkpt lat="43.90151" lon="5.19377">
        <ele>278.6</ele>
        <time>2011-02-06T08:48:02Z</time>
      </trkpt>
      <trkpt lat="43.90158" lon="5.19383">
        <ele>278.6</ele>
        <time>2011-02-06T08:48:07Z</time>
      </trkpt>
      <trkpt lat="43.90161" lon="5.19393">
        <ele>279.3</ele>
        <time>2011-02-06T08:48:14Z</time>
      </trkpt>
      <trkpt lat="43.9016" lon="5.19396">
        <ele>279.5</ele>
        <time>2011-02-06T08:48:15Z</time>
      </trkpt>
      <trkpt lat="43.90156" lon="5.19415">
        <ele>280.3</ele>
        <time>2011-02-06T08:48:24Z</time>
      </trkpt>
      <trkpt lat="43.90151" lon="5.19424">
        <ele>280.7</ele>
        <time>2011-02-06T08:48:30Z</time>
      </trkpt>
      <trkpt lat="43.90147" lon="5.19435">
        <ele>280.6</ele>
        <time>2011-02-06T08:48:35Z</time>
      </trkpt>
      <trkpt lat="43.90143" lon="5.19445">
        <ele>280.7</ele>
        <time>2011-02-06T08:48:41Z</time>
      </trkpt>
      <trkpt lat="43.90138" lon="5.19454">
        <ele>280.6</ele>
        <time>2011-02-06T08:48:47Z</time>
      </trkpt>
      <trkpt lat="43.90134" lon="5.19464">
        <ele>280.8</ele>
        <time>2011-02-06T08:48:53Z</time>
      </trkpt>
      <trkpt lat="43.90126" lon="5.19468">
        <ele>281.6</ele>
        <time>2011-02-06T08:48:59Z</time>
      </trkpt>
      <trkpt lat="43.90119" lon="5.19475">
        <ele>281.8</ele>
        <time>2011-02-06T08:49:06Z</time>
      </trkpt>
      <trkpt lat="43.90117" lon="5.19487">
        <ele>282.9</ele>
        <time>2011-02-06T08:49:13Z</time>
      </trkpt>
      <trkpt lat="43.90112" lon="5.19496">
        <ele>283.7</ele>
        <time>2011-02-06T08:49:19Z</time>
      </trkpt>
      <trkpt lat="43.90111" lon="5.19497">
        <ele>284</ele>
        <time>2011-02-06T08:49:20Z</time>
      </trkpt>
      <trkpt lat="43.90098" lon="5.19506">
        <ele>286.5</ele>
        <time>2011-02-06T08:49:30Z</time>
      </trkpt>
      <trkpt lat="43.9009" lon="5.19503">
        <ele>287.4</ele>
        <time>2011-02-06T08:49:36Z</time>
      </trkpt>
      <trkpt lat="43.90083" lon="5.195">
        <ele>288.7</ele>
        <time>2011-02-06T08:49:43Z</time>
      </trkpt>
      <trkpt lat="43.90075" lon="5.19496">
        <ele>289</ele>
        <time>2011-02-06T08:49:49Z</time>
      </trkpt>
      <trkpt lat="43.90067" lon="5.19492">
        <ele>289.3</ele>
        <time>2011-02-06T08:49:55Z</time>
      </trkpt>
      <trkpt lat="43.90059" lon="5.19488">
        <ele>289.7</ele>
        <time>2011-02-06T08:50:01Z</time>
      </trkpt>
      <trkpt lat="43.90051" lon="5.19483">
        <ele>290.2</ele>
        <time>2011-02-06T08:50:06Z</time>
      </trkpt>
      <trkpt lat="43.90043" lon="5.1948">
        <ele>290.2</ele>
        <time>2011-02-06T08:50:12Z</time>
      </trkpt>
      <trkpt lat="43.90035" lon="5.19478">
        <ele>290.2</ele>
        <time>2011-02-06T08:50:18Z</time>
      </trkpt>
      <trkpt lat="43.90027" lon="5.19477">
        <ele>290.9</ele>
        <time>2011-02-06T08:50:25Z</time>
      </trkpt>
      <trkpt lat="43.90025" lon="5.19477">
        <ele>290.7</ele>
        <time>2011-02-06T08:50:26Z</time>
      </trkpt>
      <trkpt lat="43.90011" lon="5.19474">
        <ele>291.3</ele>
        <time>2011-02-06T08:50:37Z</time>
      </trkpt>
      <trkpt lat="43.90004" lon="5.19469">
        <ele>291</ele>
        <time>2011-02-06T08:50:42Z</time>
      </trkpt>
      <trkpt lat="43.89996" lon="5.19465">
        <ele>291.1</ele>
        <time>2011-02-06T08:50:48Z</time>
      </trkpt>
      <trkpt lat="43.89988" lon="5.19462">
        <ele>290.7</ele>
        <time>2011-02-06T08:50:55Z</time>
      </trkpt>
      <trkpt lat="43.89979" lon="5.19461">
        <ele>290.8</ele>
        <time>2011-02-06T08:51:01Z</time>
      </trkpt>
      <trkpt lat="43.89971" lon="5.1946">
        <ele>291.7</ele>
        <time>2011-02-06T08:51:07Z</time>
      </trkpt>
      <trkpt lat="43.89963" lon="5.19455">
        <ele>292.4</ele>
        <time>2011-02-06T08:52:04Z</time>
      </trkpt>
      <trkpt lat="43.89963" lon="5.19455">
        <ele>292.4</ele>
        <time>2011-02-06T08:52:05Z</time>
      </trkpt>
      <trkpt lat="43.89947" lon="5.19451">
        <ele>292.7</ele>
        <time>2011-02-06T08:52:44Z</time>
      </trkpt>
      <trkpt lat="43.8994" lon="5.19448">
        <ele>292.5</ele>
        <time>2011-02-06T08:52:49Z</time>
      </trkpt>
      <trkpt lat="43.89932" lon="5.19446">
        <ele>292.1</ele>
        <time>2011-02-06T08:52:54Z</time>
      </trkpt>
      <trkpt lat="43.89924" lon="5.19443">
        <ele>291.9</ele>
        <time>2011-02-06T08:52:59Z</time>
      </trkpt>
      <trkpt lat="43.89917" lon="5.1944">
        <ele>291.4</ele>
        <time>2011-02-06T08:53:04Z</time>
      </trkpt>
      <trkpt lat="43.8991" lon="5.19436">
        <ele>290.8</ele>
        <time>2011-02-06T08:53:09Z</time>
      </trkpt>
      <trkpt lat="43.89908" lon="5.19435">
        <ele>290.8</ele>
        <time>2011-02-06T08:53:10Z</time>
      </trkpt>
      <trkpt lat="43.89895" lon="5.1943">
        <ele>289.8</ele>
        <time>2011-02-06T08:53:19Z</time>
      </trkpt>
      <trkpt lat="43.89888" lon="5.19427">
        <ele>289.7</ele>
        <time>2011-02-06T08:53:24Z</time>
      </trkpt>
      <trkpt lat="43.89881" lon="5.19425">
        <ele>289.9</ele>
        <time>2011-02-06T08:53:28Z</time>
      </trkpt>
      <trkpt lat="43.89872" lon="5.19421">
        <ele>289.7</ele>
        <time>2011-02-06T08:53:33Z</time>
      </trkpt>
      <trkpt lat="43.89865" lon="5.19416">
        <ele>289</ele>
        <time>2011-02-06T08:53:38Z</time>
      </trkpt>
      <trkpt lat="43.89857" lon="5.19414">
        <ele>288.6</ele>
        <time>2011-02-06T08:53:43Z</time>
      </trkpt>
      <trkpt lat="43.8985" lon="5.19412">
        <ele>288.4</ele>
        <time>2011-02-06T08:53:48Z</time>
      </trkpt>
      <trkpt lat="43.89842" lon="5.19411">
        <ele>288.3</ele>
        <time>2011-02-06T08:53:53Z</time>
      </trkpt>
      <trkpt lat="43.89834" lon="5.19409">
        <ele>287.9</ele>
        <time>2011-02-06T08:53:58Z</time>
      </trkpt>
      <trkpt lat="43.89827" lon="5.19408">
        <ele>287.7</ele>
        <time>2011-02-06T08:54:02Z</time>
      </trkpt>
      <trkpt lat="43.89818" lon="5.19409">
        <ele>287.6</ele>
        <time>2011-02-06T08:54:07Z</time>
      </trkpt>
      <trkpt lat="43.8981" lon="5.19412">
        <ele>287.2</ele>
        <time>2011-02-06T08:54:12Z</time>
      </trkpt>
      <trkpt lat="43.89809" lon="5.19413">
        <ele>287</ele>
        <time>2011-02-06T08:54:13Z</time>
      </trkpt>
      <trkpt lat="43.89793" lon="5.19415">
        <ele>286.2</ele>
        <time>2011-02-06T08:54:23Z</time>
      </trkpt>
      <trkpt lat="43.89786" lon="5.19414">
        <ele>285.6</ele>
        <time>2011-02-06T08:54:28Z</time>
      </trkpt>
      <trkpt lat="43.89778" lon="5.1941">
        <ele>285.4</ele>
        <time>2011-02-06T08:54:33Z</time>
      </trkpt>
      <trkpt lat="43.8977" lon="5.19406">
        <ele>285.3</ele>
        <time>2011-02-06T08:54:38Z</time>
      </trkpt>
      <trkpt lat="43.89763" lon="5.19402">
        <ele>284.9</ele>
        <time>2011-02-06T08:54:43Z</time>
      </trkpt>
      <trkpt lat="43.89755" lon="5.19397">
        <ele>284.8</ele>
        <time>2011-02-06T08:54:48Z</time>
      </trkpt>
      <trkpt lat="43.89749" lon="5.19392">
        <ele>284.2</ele>
        <time>2011-02-06T08:54:52Z</time>
      </trkpt>
      <trkpt lat="43.89749" lon="5.19392">
        <ele>284.2</ele>
        <time>2011-02-06T08:54:52Z</time>
      </trkpt>
      <trkpt lat="43.89745" lon="5.19389">
        <ele>283.8</ele>
        <time>2011-02-06T08:54:55Z</time>
      </trkpt>
      <trkpt lat="43.89744" lon="5.19388">
        <ele>283.8</ele>
        <time>2011-02-06T08:54:56Z</time>
      </trkpt>
      <trkpt lat="43.89737" lon="5.19382">
        <ele>283.7</ele>
        <time>2011-02-06T08:55:01Z</time>
      </trkpt>
      <trkpt lat="43.89731" lon="5.19375">
        <ele>283.8</ele>
        <time>2011-02-06T08:55:06Z</time>
      </trkpt>
      <trkpt lat="43.89725" lon="5.19368">
        <ele>283.6</ele>
        <time>2011-02-06T08:55:10Z</time>
      </trkpt>
      <trkpt lat="43.89719" lon="5.19363">
        <ele>283.3</ele>
        <time>2011-02-06T08:55:14Z</time>
      </trkpt>
      <trkpt lat="43.89717" lon="5.19362">
        <ele>283</ele>
        <time>2011-02-06T08:55:15Z</time>
      </trkpt>
      <trkpt lat="43.89711" lon="5.19358">
        <ele>283</ele>
        <time>2011-02-06T08:55:18Z</time>
      </trkpt>
      <trkpt lat="43.89702" lon="5.19353">
        <ele>283.1</ele>
        <time>2011-02-06T08:55:24Z</time>
      </trkpt>
      <trkpt lat="43.89695" lon="5.19349">
        <ele>283.2</ele>
        <time>2011-02-06T08:55:28Z</time>
      </trkpt>
      <trkpt lat="43.89688" lon="5.19344">
        <ele>283.3</ele>
        <time>2011-02-06T08:55:32Z</time>
      </trkpt>
      <trkpt lat="43.89681" lon="5.19338">
        <ele>283.4</ele>
        <time>2011-02-06T08:55:37Z</time>
      </trkpt>
      <trkpt lat="43.89673" lon="5.19334">
        <ele>283.2</ele>
        <time>2011-02-06T08:55:42Z</time>
      </trkpt>
      <trkpt lat="43.89666" lon="5.19329">
        <ele>282.7</ele>
        <time>2011-02-06T08:55:47Z</time>
      </trkpt>
      <trkpt lat="43.89658" lon="5.19325">
        <ele>282.9</ele>
        <time>2011-02-06T08:55:52Z</time>
      </trkpt>
      <trkpt lat="43.8965" lon="5.19321">
        <ele>283.3</ele>
        <time>2011-02-06T08:55:57Z</time>
      </trkpt>
      <trkpt lat="43.89642" lon="5.19317">
        <ele>283</ele>
        <time>2011-02-06T08:56:02Z</time>
      </trkpt>
      <trkpt lat="43.89634" lon="5.19314">
        <ele>283.6</ele>
        <time>2011-02-06T08:56:07Z</time>
      </trkpt>
      <trkpt lat="43.89625" lon="5.1931">
        <ele>283.6</ele>
        <time>2011-02-06T08:56:12Z</time>
      </trkpt>
      <trkpt lat="43.89618" lon="5.19306">
        <ele>283.1</ele>
        <time>2011-02-06T08:56:17Z</time>
      </trkpt>
      <trkpt lat="43.89617" lon="5.19306">
        <ele>283</ele>
        <time>2011-02-06T08:56:18Z</time>
      </trkpt>
      <trkpt lat="43.89602" lon="5.19298">
        <ele>282.7</ele>
        <time>2011-02-06T08:56:29Z</time>
      </trkpt>
      <trkpt lat="43.89595" lon="5.19293">
        <ele>282.5</ele>
        <time>2011-02-06T08:56:36Z</time>
      </trkpt>
      <trkpt lat="43.89587" lon="5.19289">
        <ele>282.4</ele>
        <time>2011-02-06T08:56:42Z</time>
      </trkpt>
      <trkpt lat="43.8958" lon="5.19286">
        <ele>282</ele>
        <time>2011-02-06T08:56:48Z</time>
      </trkpt>
      <trkpt lat="43.89572" lon="5.19281">
        <ele>281.5</ele>
        <time>2011-02-06T08:56:54Z</time>
      </trkpt>
      <trkpt lat="43.89566" lon="5.19275">
        <ele>280.3</ele>
        <time>2011-02-06T08:56:59Z</time>
      </trkpt>
      <trkpt lat="43.8956" lon="5.19268">
        <ele>279.6</ele>
        <time>2011-02-06T08:57:04Z</time>
      </trkpt>
      <trkpt lat="43.89554" lon="5.1926">
        <ele>278.7</ele>
        <time>2011-02-06T08:57:09Z</time>
      </trkpt>
      <trkpt lat="43.89548" lon="5.19253">
        <ele>277.9</ele>
        <time>2011-02-06T08:57:15Z</time>
      </trkpt>
      <trkpt lat="43.89543" lon="5.19246">
        <ele>277.3</ele>
        <time>2011-02-06T08:57:20Z</time>
      </trkpt>
      <trkpt lat="43.89542" lon="5.19244">
        <ele>277.1</ele>
        <time>2011-02-06T08:57:21Z</time>
      </trkpt>
      <trkpt lat="43.89529" lon="5.19235">
        <ele>276.6</ele>
        <time>2011-02-06T08:57:30Z</time>
      </trkpt>
      <trkpt lat="43.89521" lon="5.19232">
        <ele>276.9</ele>
        <time>2011-02-06T08:57:36Z</time>
      </trkpt>
      <trkpt lat="43.89513" lon="5.19228">
        <ele>276.8</ele>
        <time>2011-02-06T08:57:41Z</time>
      </trkpt>
      <trkpt lat="43.89506" lon="5.19225">
        <ele>276.7</ele>
        <time>2011-02-06T08:57:46Z</time>
      </trkpt>
      <trkpt lat="43.89497" lon="5.19221">
        <ele>276.7</ele>
        <time>2011-02-06T08:57:52Z</time>
      </trkpt>
      <trkpt lat="43.89489" lon="5.1922">
        <ele>276</ele>
        <time>2011-02-06T08:57:57Z</time>
      </trkpt>
      <trkpt lat="43.89481" lon="5.19221">
        <ele>275.9</ele>
        <time>2011-02-06T08:58:03Z</time>
      </trkpt>
      <trkpt lat="43.89473" lon="5.19223">
        <ele>276.4</ele>
        <time>2011-02-06T08:58:08Z</time>
      </trkpt>
      <trkpt lat="43.89465" lon="5.19227">
        <ele>276.7</ele>
        <time>2011-02-06T08:58:14Z</time>
      </trkpt>
      <trkpt lat="43.89457" lon="5.19232">
        <ele>277.7</ele>
        <time>2011-02-06T08:58:20Z</time>
      </trkpt>
      <trkpt lat="43.89451" lon="5.19239">
        <ele>278.3</ele>
        <time>2011-02-06T08:58:26Z</time>
      </trkpt>
      <trkpt lat="43.8945" lon="5.1924">
        <ele>278.4</ele>
        <time>2011-02-06T08:58:27Z</time>
      </trkpt>
      <trkpt lat="43.89436" lon="5.1925">
        <ele>279.5</ele>
        <time>2011-02-06T08:58:41Z</time>
      </trkpt>
      <trkpt lat="43.8943" lon="5.19257">
        <ele>280.1</ele>
        <time>2011-02-06T08:58:48Z</time>
      </trkpt>
      <trkpt lat="43.89425" lon="5.19266">
        <ele>281.1</ele>
        <time>2011-02-06T08:58:55Z</time>
      </trkpt>
      <trkpt lat="43.89421" lon="5.19276">
        <ele>281.3</ele>
        <time>2011-02-06T08:59:02Z</time>
      </trkpt>
      <trkpt lat="43.89416" lon="5.19286">
        <ele>281.4</ele>
        <time>2011-02-06T08:59:09Z</time>
      </trkpt>
      <trkpt lat="43.89412" lon="5.19297">
        <ele>282.1</ele>
        <time>2011-02-06T08:59:16Z</time>
      </trkpt>
      <trkpt lat="43.89408" lon="5.19308">
        <ele>282.6</ele>
        <time>2011-02-06T08:59:22Z</time>
      </trkpt>
      <trkpt lat="43.89405" lon="5.19318">
        <ele>282.6</ele>
        <time>2011-02-06T08:59:28Z</time>
      </trkpt>
      <trkpt lat="43.89404" lon="5.1932">
        <ele>282.5</ele>
        <time>2011-02-06T08:59:29Z</time>
      </trkpt>
      <trkpt lat="43.89398" lon="5.19339">
        <ele>283.2</ele>
        <time>2011-02-06T08:59:40Z</time>
      </trkpt>
      <trkpt lat="43.89394" lon="5.19349">
        <ele>283</ele>
        <time>2011-02-06T08:59:46Z</time>
      </trkpt>
      <trkpt lat="43.89391" lon="5.19359">
        <ele>283.6</ele>
        <time>2011-02-06T08:59:51Z</time>
      </trkpt>
      <trkpt lat="43.89387" lon="5.19368">
        <ele>283.8</ele>
        <time>2011-02-06T08:59:56Z</time>
      </trkpt>
      <trkpt lat="43.89382" lon="5.19377">
        <ele>283.6</ele>
        <time>2011-02-06T09:00:01Z</time>
      </trkpt>
      <trkpt lat="43.89378" lon="5.19387">
        <ele>283.8</ele>
        <time>2011-02-06T09:00:06Z</time>
      </trkpt>
      <trkpt lat="43.89374" lon="5.19397">
        <ele>284</ele>
        <time>2011-02-06T09:00:11Z</time>
      </trkpt>
      <trkpt lat="43.8937" lon="5.19406">
        <ele>284.1</ele>
        <time>2011-02-06T09:00:16Z</time>
      </trkpt>
      <trkpt lat="43.89366" lon="5.19417">
        <ele>283.8</ele>
        <time>2011-02-06T09:00:21Z</time>
      </trkpt>
      <trkpt lat="43.89362" lon="5.19427">
        <ele>284</ele>
        <time>2011-02-06T09:00:26Z</time>
      </trkpt>
      <trkpt lat="43.89358" lon="5.19437">
        <ele>284.8</ele>
        <time>2011-02-06T09:00:31Z</time>
      </trkpt>
      <trkpt lat="43.89358" lon="5.19439">
        <ele>284.8</ele>
        <time>2011-02-06T09:00:32Z</time>
      </trkpt>
      <trkpt lat="43.89352" lon="5.19456">
        <ele>285.7</ele>
        <time>2011-02-06T09:00:41Z</time>
      </trkpt>
      <trkpt lat="43.89348" lon="5.19466">
        <ele>285.8</ele>
        <time>2011-02-06T09:00:46Z</time>
      </trkpt>
      <trkpt lat="43.89345" lon="5.19475">
        <ele>286.1</ele>
        <time>2011-02-06T09:00:51Z</time>
      </trkpt>
      <trkpt lat="43.89341" lon="5.19485">
        <ele>286.5</ele>
        <time>2011-02-06T09:00:56Z</time>
      </trkpt>
      <trkpt lat="43.89338" lon="5.19496">
        <ele>286.8</ele>
        <time>2011-02-06T09:01:01Z</time>
      </trkpt>
      <trkpt lat="43.89335" lon="5.19507">
        <ele>287</ele>
        <time>2011-02-06T09:01:07Z</time>
      </trkpt>
      <trkpt lat="43.89334" lon="5.19518">
        <ele>286.9</ele>
        <time>2011-02-06T09:01:12Z</time>
      </trkpt>
      <trkpt lat="43.89333" lon="5.19529">
        <ele>286.8</ele>
        <time>2011-02-06T09:01:17Z</time>
      </trkpt>
      <trkpt lat="43.89333" lon="5.1954">
        <ele>286.8</ele>
        <time>2011-02-06T09:01:22Z</time>
      </trkpt>
      <trkpt lat="43.89331" lon="5.19552">
        <ele>287.4</ele>
        <time>2011-02-06T09:01:28Z</time>
      </trkpt>
      <trkpt lat="43.89331" lon="5.19562">
        <ele>287.3</ele>
        <time>2011-02-06T09:01:33Z</time>
      </trkpt>
      <trkpt lat="43.89331" lon="5.19565">
        <ele>287.3</ele>
        <time>2011-02-06T09:01:34Z</time>
      </trkpt>
      <trkpt lat="43.89334" lon="5.19584">
        <ele>288</ele>
        <time>2011-02-06T09:01:45Z</time>
      </trkpt>
      <trkpt lat="43.89341" lon="5.19588">
        <ele>288.9</ele>
        <time>2011-02-06T09:01:50Z</time>
      </trkpt>
      <trkpt lat="43.89349" lon="5.19591">
        <ele>289.8</ele>
        <time>2011-02-06T09:01:56Z</time>
      </trkpt>
      <trkpt lat="43.89357" lon="5.19595">
        <ele>290.2</ele>
        <time>2011-02-06T09:02:02Z</time>
      </trkpt>
      <trkpt lat="43.89365" lon="5.19601">
        <ele>289.7</ele>
        <time>2011-02-06T09:02:10Z</time>
      </trkpt>
      <trkpt lat="43.89367" lon="5.19611">
        <ele>289.8</ele>
        <time>2011-02-06T09:02:16Z</time>
      </trkpt>
      <trkpt lat="43.89368" lon="5.19623">
        <ele>290.1</ele>
        <time>2011-02-06T09:02:22Z</time>
      </trkpt>
      <trkpt lat="43.8937" lon="5.19633">
        <ele>290.3</ele>
        <time>2011-02-06T09:02:28Z</time>
      </trkpt>
      <trkpt lat="43.89372" lon="5.19643">
        <ele>290.1</ele>
        <time>2011-02-06T09:02:33Z</time>
      </trkpt>
      <trkpt lat="43.89375" lon="5.19654">
        <ele>290.8</ele>
        <time>2011-02-06T09:02:39Z</time>
      </trkpt>
      <trkpt lat="43.89376" lon="5.19655">
        <ele>290.7</ele>
        <time>2011-02-06T09:02:40Z</time>
      </trkpt>
      <trkpt lat="43.89382" lon="5.19677">
        <ele>291.5</ele>
        <time>2011-02-06T09:02:53Z</time>
      </trkpt>
      <trkpt lat="43.89384" lon="5.19688">
        <ele>292.4</ele>
        <time>2011-02-06T09:02:59Z</time>
      </trkpt>
      <trkpt lat="43.89386" lon="5.197">
        <ele>292.9</ele>
        <time>2011-02-06T09:03:06Z</time>
      </trkpt>
      <trkpt lat="43.89388" lon="5.19711">
        <ele>293.5</ele>
        <time>2011-02-06T09:03:15Z</time>
      </trkpt>
      <trkpt lat="43.89391" lon="5.19722">
        <ele>294.6</ele>
        <time>2011-02-06T09:03:22Z</time>
      </trkpt>
      <trkpt lat="43.89391" lon="5.19733">
        <ele>294.2</ele>
        <time>2011-02-06T09:03:28Z</time>
      </trkpt>
      <trkpt lat="43.8939" lon="5.19744">
        <ele>294.1</ele>
        <time>2011-02-06T09:03:34Z</time>
      </trkpt>
      <trkpt lat="43.89389" lon="5.19756">
        <ele>294.2</ele>
        <time>2011-02-06T09:03:41Z</time>
      </trkpt>
      <trkpt lat="43.89389" lon="5.19758">
        <ele>294.3</ele>
        <time>2011-02-06T09:03:42Z</time>
      </trkpt>
      <trkpt lat="43.89388" lon="5.19778">
        <ele>293.8</ele>
        <time>2011-02-06T09:03:54Z</time>
      </trkpt>
      <trkpt lat="43.89386" lon="5.19789">
        <ele>293.5</ele>
        <time>2011-02-06T09:03:59Z</time>
      </trkpt>
      <trkpt lat="43.89383" lon="5.198">
        <ele>293.2</ele>
        <time>2011-02-06T09:04:05Z</time>
      </trkpt>
      <trkpt lat="43.8938" lon="5.19811">
        <ele>292.4</ele>
        <time>2011-02-06T09:04:11Z</time>
      </trkpt>
      <trkpt lat="43.89378" lon="5.19821">
        <ele>292.3</ele>
        <time>2011-02-06T09:04:16Z</time>
      </trkpt>
      <trkpt lat="43.89375" lon="5.19833">
        <ele>292</ele>
        <time>2011-02-06T09:04:20Z</time>
      </trkpt>
      <trkpt lat="43.89373" lon="5.19844">
        <ele>291.9</ele>
        <time>2011-02-06T09:04:25Z</time>
      </trkpt>
      <trkpt lat="43.89372" lon="5.19855">
        <ele>292.3</ele>
        <time>2011-02-06T09:04:30Z</time>
      </trkpt>
      <trkpt lat="43.89371" lon="5.19866">
        <ele>292.2</ele>
        <time>2011-02-06T09:04:35Z</time>
      </trkpt>
      <trkpt lat="43.8937" lon="5.19878">
        <ele>292</ele>
        <time>2011-02-06T09:04:40Z</time>
      </trkpt>
      <trkpt lat="43.89368" lon="5.1989">
        <ele>292.2</ele>
        <time>2011-02-06T09:04:46Z</time>
      </trkpt>
      <trkpt lat="43.89368" lon="5.19892">
        <ele>291.9</ele>
        <time>2011-02-06T09:04:47Z</time>
      </trkpt>
      <trkpt lat="43.8938" lon="5.19906">
        <ele>291.8</ele>
        <time>2011-02-06T09:05:03Z</time>
      </trkpt>
      <trkpt lat="43.89386" lon="5.19912">
        <ele>291.1</ele>
        <time>2011-02-06T09:05:09Z</time>
      </trkpt>
      <trkpt lat="43.89394" lon="5.19919">
        <ele>290.2</ele>
        <time>2011-02-06T09:05:18Z</time>
      </trkpt>
      <trkpt lat="43.894" lon="5.19926">
        <ele>289.2</ele>
        <time>2011-02-06T09:05:25Z</time>
      </trkpt>
      <trkpt lat="43.89406" lon="5.19932">
        <ele>288</ele>
        <time>2011-02-06T09:05:31Z</time>
      </trkpt>
      <trkpt lat="43.89413" lon="5.19939">
        <ele>286.6</ele>
        <time>2011-02-06T09:05:37Z</time>
      </trkpt>
      <trkpt lat="43.89419" lon="5.19946">
        <ele>285.2</ele>
        <time>2011-02-06T09:05:43Z</time>
      </trkpt>
      <trkpt lat="43.89424" lon="5.19955">
        <ele>283.8</ele>
        <time>2011-02-06T09:05:49Z</time>
      </trkpt>
      <trkpt lat="43.89425" lon="5.19956">
        <ele>283.7</ele>
        <time>2011-02-06T09:05:50Z</time>
      </trkpt>
      <trkpt lat="43.89434" lon="5.19973">
        <ele>281.2</ele>
        <time>2011-02-06T09:06:01Z</time>
      </trkpt>
      <trkpt lat="43.89439" lon="5.19982">
        <ele>279.7</ele>
        <time>2011-02-06T09:06:26Z</time>
      </trkpt>
      <trkpt lat="43.89445" lon="5.19991">
        <ele>278.3</ele>
        <time>2011-02-06T09:06:32Z</time>
      </trkpt>
      <trkpt lat="43.89451" lon="5.2">
        <ele>277.1</ele>
        <time>2011-02-06T09:06:39Z</time>
      </trkpt>
      <trkpt lat="43.89457" lon="5.20007">
        <ele>275.4</ele>
        <time>2011-02-06T09:06:45Z</time>
      </trkpt>
      <trkpt lat="43.89464" lon="5.20013">
        <ele>273.3</ele>
        <time>2011-02-06T09:06:50Z</time>
      </trkpt>
      <trkpt lat="43.89465" lon="5.20015">
        <ele>272.8</ele>
        <time>2011-02-06T09:06:51Z</time>
      </trkpt>
      <trkpt lat="43.89475" lon="5.20031">
        <ele>270.9</ele>
        <time>2011-02-06T09:07:04Z</time>
      </trkpt>
      <trkpt lat="43.89482" lon="5.20039">
        <ele>269.5</ele>
        <time>2011-02-06T09:07:13Z</time>
      </trkpt>
      <trkpt lat="43.89488" lon="5.20047">
        <ele>268</ele>
        <time>2011-02-06T09:07:20Z</time>
      </trkpt>
      <trkpt lat="43.89496" lon="5.20052">
        <ele>266</ele>
        <time>2011-02-06T09:07:27Z</time>
      </trkpt>
      <trkpt lat="43.89503" lon="5.20058">
        <ele>264</ele>
        <time>2011-02-06T09:07:33Z</time>
      </trkpt>
      <trkpt lat="43.89511" lon="5.2006">
        <ele>263.5</ele>
        <time>2011-02-06T09:07:38Z</time>
      </trkpt>
      <trkpt lat="43.89519" lon="5.20063">
        <ele>261.5</ele>
        <time>2011-02-06T09:07:46Z</time>
      </trkpt>
      <trkpt lat="43.89528" lon="5.20066">
        <ele>259.7</ele>
        <time>2011-02-06T09:07:59Z</time>
      </trkpt>
      <trkpt lat="43.89529" lon="5.20066">
        <ele>259.6</ele>
        <time>2011-02-06T09:08:00Z</time>
      </trkpt>
      <trkpt lat="43.89544" lon="5.20073">
        <ele>256.5</ele>
        <time>2011-02-06T09:08:17Z</time>
      </trkpt>
      <trkpt lat="43.89553" lon="5.20075">
        <ele>255.5</ele>
        <time>2011-02-06T09:08:25Z</time>
      </trkpt>
      <trkpt lat="43.89561" lon="5.20078">
        <ele>253.7</ele>
        <time>2011-02-06T09:08:33Z</time>
      </trkpt>
      <trkpt lat="43.89569" lon="5.20082">
        <ele>251.8</ele>
        <time>2011-02-06T09:08:40Z</time>
      </trkpt>
      <trkpt lat="43.89577" lon="5.20084">
        <ele>250.1</ele>
        <time>2011-02-06T09:08:46Z</time>
      </trkpt>
      <trkpt lat="43.89585" lon="5.20085">
        <ele>248.8</ele>
        <time>2011-02-06T09:08:52Z</time>
      </trkpt>
      <trkpt lat="43.89593" lon="5.2009">
        <ele>247.1</ele>
        <time>2011-02-06T09:09:00Z</time>
      </trkpt>
      <trkpt lat="43.89594" lon="5.20091">
        <ele>246.9</ele>
        <time>2011-02-06T09:09:01Z</time>
      </trkpt>
      <trkpt lat="43.8961" lon="5.20091">
        <ele>243</ele>
        <time>2011-02-06T09:09:14Z</time>
      </trkpt>
      <trkpt lat="43.89619" lon="5.20093">
        <ele>242.1</ele>
        <time>2011-02-06T09:09:20Z</time>
      </trkpt>
      <trkpt lat="43.89627" lon="5.20097">
        <ele>239.8</ele>
        <time>2011-02-06T09:09:28Z</time>
      </trkpt>
      <trkpt lat="43.89635" lon="5.20099">
        <ele>238.1</ele>
        <time>2011-02-06T09:09:36Z</time>
      </trkpt>
      <trkpt lat="43.89643" lon="5.20098">
        <ele>237.4</ele>
        <time>2011-02-06T09:09:43Z</time>
      </trkpt>
      <trkpt lat="43.89651" lon="5.20099">
        <ele>235.6</ele>
        <time>2011-02-06T09:09:48Z</time>
      </trkpt>
      <trkpt lat="43.89659" lon="5.20103">
        <ele>234.6</ele>
        <time>2011-02-06T09:09:54Z</time>
      </trkpt>
      <trkpt lat="43.89667" lon="5.20107">
        <ele>233.6</ele>
        <time>2011-02-06T09:10:00Z</time>
      </trkpt>
      <trkpt lat="43.89674" lon="5.20112">
        <ele>232.4</ele>
        <time>2011-02-06T09:10:05Z</time>
      </trkpt>
      <trkpt lat="43.89676" lon="5.20114">
        <ele>232.3</ele>
        <time>2011-02-06T09:10:06Z</time>
      </trkpt>
      <trkpt lat="43.89686" lon="5.2013">
        <ele>230.6</ele>
        <time>2011-02-06T09:10:24Z</time>
      </trkpt>
      <trkpt lat="43.89693" lon="5.20136">
        <ele>229</ele>
        <time>2011-02-06T09:10:30Z</time>
      </trkpt>
      <trkpt lat="43.897" lon="5.20144">
        <ele>228.2</ele>
        <time>2011-02-06T09:10:36Z</time>
      </trkpt>
      <trkpt lat="43.89706" lon="5.20148">
        <ele>227.9</ele>
        <time>2011-02-06T09:10:40Z</time>
      </trkpt>
      <trkpt lat="43.89715" lon="5.2015">
        <ele>227.3</ele>
        <time>2011-02-06T09:10:45Z</time>
      </trkpt>
      <trkpt lat="43.89723" lon="5.20152">
        <ele>226.3</ele>
        <time>2011-02-06T09:10:50Z</time>
      </trkpt>
      <trkpt lat="43.89731" lon="5.20153">
        <ele>225.1</ele>
        <time>2011-02-06T09:10:55Z</time>
      </trkpt>
      <trkpt lat="43.8974" lon="5.20151">
        <ele>224.5</ele>
        <time>2011-02-06T09:11:00Z</time>
      </trkpt>
      <trkpt lat="43.89748" lon="5.20149">
        <ele>223.6</ele>
        <time>2011-02-06T09:11:06Z</time>
      </trkpt>
      <trkpt lat="43.8975" lon="5.20149">
        <ele>223.6</ele>
        <time>2011-02-06T09:11:07Z</time>
      </trkpt>
      <trkpt lat="43.89765" lon="5.20147">
        <ele>222.8</ele>
        <time>2011-02-06T09:11:14Z</time>
      </trkpt>
      <trkpt lat="43.89774" lon="5.20146">
        <ele>223.1</ele>
        <time>2011-02-06T09:11:19Z</time>
      </trkpt>
      <trkpt lat="43.89782" lon="5.20142">
        <ele>222.3</ele>
        <time>2011-02-06T09:11:24Z</time>
      </trkpt>
      <trkpt lat="43.8979" lon="5.20141">
        <ele>221.1</ele>
        <time>2011-02-06T09:11:29Z</time>
      </trkpt>
      <trkpt lat="43.89798" lon="5.20141">
        <ele>220.2</ele>
        <time>2011-02-06T09:11:33Z</time>
      </trkpt>
      <trkpt lat="43.89807" lon="5.20141">
        <ele>219.3</ele>
        <time>2011-02-06T09:11:42Z</time>
      </trkpt>
      <trkpt lat="43.89815" lon="5.20137">
        <ele>219</ele>
        <time>2011-02-06T09:12:43Z</time>
      </trkpt>
      <trkpt lat="43.89816" lon="5.20137">
        <ele>218.9</ele>
        <time>2011-02-06T09:12:44Z</time>
      </trkpt>
      <trkpt lat="43.89821" lon="5.20127">
        <ele>216.9</ele>
        <time>2011-02-06T09:14:27Z</time>
      </trkpt>
      <trkpt lat="43.89827" lon="5.2011">
        <ele>217.4</ele>
        <time>2011-02-06T09:14:39Z</time>
      </trkpt>
      <trkpt lat="43.89833" lon="5.20105">
        <ele>218</ele>
        <time>2011-02-06T09:14:44Z</time>
      </trkpt>
      <trkpt lat="43.89841" lon="5.20099">
        <ele>218.2</ele>
        <time>2011-02-06T09:14:50Z</time>
      </trkpt>
      <trkpt lat="43.89847" lon="5.2009">
        <ele>218</ele>
        <time>2011-02-06T09:14:58Z</time>
      </trkpt>
      <trkpt lat="43.89855" lon="5.20084">
        <ele>217.7</ele>
        <time>2011-02-06T09:15:04Z</time>
      </trkpt>
      <trkpt lat="43.89861" lon="5.20078">
        <ele>217.9</ele>
        <time>2011-02-06T09:15:09Z</time>
      </trkpt>
      <trkpt lat="43.89867" lon="5.20069">
        <ele>217.3</ele>
        <time>2011-02-06T09:15:15Z</time>
      </trkpt>
      <trkpt lat="43.89872" lon="5.20061">
        <ele>217.5</ele>
        <time>2011-02-06T09:15:20Z</time>
      </trkpt>
      <trkpt lat="43.89877" lon="5.20053">
        <ele>217.5</ele>
        <time>2011-02-06T09:15:25Z</time>
      </trkpt>
      <trkpt lat="43.89883" lon="5.20045">
        <ele>217.1</ele>
        <time>2011-02-06T09:15:30Z</time>
      </trkpt>
      <trkpt lat="43.89884" lon="5.20044">
        <ele>217.2</ele>
        <time>2011-02-06T09:15:31Z</time>
      </trkpt>
      <trkpt lat="43.89896" lon="5.20033">
        <ele>216.8</ele>
        <time>2011-02-06T09:15:40Z</time>
      </trkpt>
      <trkpt lat="43.89904" lon="5.20029">
        <ele>217.3</ele>
        <time>2011-02-06T09:15:46Z</time>
      </trkpt>
      <trkpt lat="43.89912" lon="5.20026">
        <ele>217.3</ele>
        <time>2011-02-06T09:15:52Z</time>
      </trkpt>
      <trkpt lat="43.8992" lon="5.20021">
        <ele>217.7</ele>
        <time>2011-02-06T09:15:59Z</time>
      </trkpt>
      <trkpt lat="43.89928" lon="5.20018">
        <ele>217.5</ele>
        <time>2011-02-06T09:16:05Z</time>
      </trkpt>
      <trkpt lat="43.89936" lon="5.20014">
        <ele>217.7</ele>
        <time>2011-02-06T09:16:11Z</time>
      </trkpt>
      <trkpt lat="43.89943" lon="5.2001">
        <ele>218</ele>
        <time>2011-02-06T09:16:16Z</time>
      </trkpt>
      <trkpt lat="43.89951" lon="5.20006">
        <ele>218.4</ele>
        <time>2011-02-06T09:16:22Z</time>
      </trkpt>
      <trkpt lat="43.89959" lon="5.20002">
        <ele>218.7</ele>
        <time>2011-02-06T09:16:28Z</time>
      </trkpt>
      <trkpt lat="43.89966" lon="5.19999">
        <ele>218.9</ele>
        <time>2011-02-06T09:16:33Z</time>
      </trkpt>
      <trkpt lat="43.89968" lon="5.19998">
        <ele>219.1</ele>
        <time>2011-02-06T09:16:34Z</time>
      </trkpt>
      <trkpt lat="43.89984" lon="5.19995">
        <ele>219.6</ele>
        <time>2011-02-06T09:16:43Z</time>
      </trkpt>
      <trkpt lat="43.89991" lon="5.19995">
        <ele>220.4</ele>
        <time>2011-02-06T09:16:48Z</time>
      </trkpt>
      <trkpt lat="43.89999" lon="5.19994">
        <ele>220.5</ele>
        <time>2011-02-06T09:16:53Z</time>
      </trkpt>
      <trkpt lat="43.90007" lon="5.19994">
        <ele>220.5</ele>
        <time>2011-02-06T09:16:57Z</time>
      </trkpt>
      <trkpt lat="43.90015" lon="5.19994">
        <ele>220.8</ele>
        <time>2011-02-06T09:17:01Z</time>
      </trkpt>
      <trkpt lat="43.90023" lon="5.19995">
        <ele>221.2</ele>
        <time>2011-02-06T09:17:06Z</time>
      </trkpt>
      <trkpt lat="43.90031" lon="5.19996">
        <ele>221.3</ele>
        <time>2011-02-06T09:17:11Z</time>
      </trkpt>
      <trkpt lat="43.90039" lon="5.19995">
        <ele>221.5</ele>
        <time>2011-02-06T09:17:16Z</time>
      </trkpt>
      <trkpt lat="43.90047" lon="5.19994">
        <ele>222.1</ele>
        <time>2011-02-06T09:17:21Z</time>
      </trkpt>
      <trkpt lat="43.90056" lon="5.19996">
        <ele>222.5</ele>
        <time>2011-02-06T09:17:26Z</time>
      </trkpt>
      <trkpt lat="43.90063" lon="5.2">
        <ele>223</ele>
        <time>2011-02-06T09:17:31Z</time>
      </trkpt>
      <trkpt lat="43.90072" lon="5.20002">
        <ele>223.7</ele>
        <time>2011-02-06T09:17:37Z</time>
      </trkpt>
      <trkpt lat="43.90073" lon="5.20003">
        <ele>223.7</ele>
        <time>2011-02-06T09:17:38Z</time>
      </trkpt>
      <trkpt lat="43.90089" lon="5.20007">
        <ele>224.8</ele>
        <time>2011-02-06T09:17:49Z</time>
      </trkpt>
      <trkpt lat="43.90097" lon="5.20009">
        <ele>225.4</ele>
        <time>2011-02-06T09:17:54Z</time>
      </trkpt>
      <trkpt lat="43.90105" lon="5.20012">
        <ele>226.1</ele>
        <time>2011-02-06T09:17:59Z</time>
      </trkpt>
      <trkpt lat="43.90114" lon="5.20013">
        <ele>227.1</ele>
        <time>2011-02-06T09:18:04Z</time>
      </trkpt>
      <trkpt lat="43.90122" lon="5.20016">
        <ele>227.6</ele>
        <time>2011-02-06T09:18:09Z</time>
      </trkpt>
      <trkpt lat="43.9013" lon="5.20017">
        <ele>228.2</ele>
        <time>2011-02-06T09:18:14Z</time>
      </trkpt>
      <trkpt lat="43.90139" lon="5.20019">
        <ele>229</ele>
        <time>2011-02-06T09:18:20Z</time>
      </trkpt>
      <trkpt lat="43.90148" lon="5.20022">
        <ele>229.3</ele>
        <time>2011-02-06T09:18:26Z</time>
      </trkpt>
      <trkpt lat="43.90156" lon="5.20021">
        <ele>229.5</ele>
        <time>2011-02-06T09:18:31Z</time>
      </trkpt>
      <trkpt lat="43.90164" lon="5.2002">
        <ele>230</ele>
        <time>2011-02-06T09:18:36Z</time>
      </trkpt>
      <trkpt lat="43.90172" lon="5.20019">
        <ele>230.3</ele>
        <time>2011-02-06T09:18:42Z</time>
      </trkpt>
      <trkpt lat="43.90174" lon="5.20019">
        <ele>230.3</ele>
        <time>2011-02-06T09:18:43Z</time>
      </trkpt>
      <trkpt lat="43.90189" lon="5.20018">
        <ele>231.2</ele>
        <time>2011-02-06T09:18:52Z</time>
      </trkpt>
      <trkpt lat="43.90196" lon="5.20019">
        <ele>231.7</ele>
        <time>2011-02-06T09:18:57Z</time>
      </trkpt>
      <trkpt lat="43.90204" lon="5.2002">
        <ele>231.9</ele>
        <time>2011-02-06T09:19:02Z</time>
      </trkpt>
      <trkpt lat="43.90212" lon="5.2002">
        <ele>232.7</ele>
        <time>2011-02-06T09:19:08Z</time>
      </trkpt>
      <trkpt lat="43.9022" lon="5.2002">
        <ele>233.3</ele>
        <time>2011-02-06T09:19:14Z</time>
      </trkpt>
      <trkpt lat="43.90228" lon="5.2002">
        <ele>234.7</ele>
        <time>2011-02-06T09:19:20Z</time>
      </trkpt>
      <trkpt lat="43.90236" lon="5.2002">
        <ele>235.2</ele>
        <time>2011-02-06T09:19:25Z</time>
      </trkpt>
      <trkpt lat="43.90244" lon="5.20022">
        <ele>236.1</ele>
        <time>2011-02-06T09:19:30Z</time>
      </trkpt>
      <trkpt lat="43.90252" lon="5.20025">
        <ele>236.2</ele>
        <time>2011-02-06T09:19:35Z</time>
      </trkpt>
      <trkpt lat="43.90259" lon="5.20032">
        <ele>236.9</ele>
        <time>2011-02-06T09:19:41Z</time>
      </trkpt>
      <trkpt lat="43.90264" lon="5.2004">
        <ele>237.5</ele>
        <time>2011-02-06T09:19:46Z</time>
      </trkpt>
      <trkpt lat="43.90266" lon="5.20042">
        <ele>237.4</ele>
        <time>2011-02-06T09:19:47Z</time>
      </trkpt>
      <trkpt lat="43.90276" lon="5.20057">
        <ele>238.3</ele>
        <time>2011-02-06T09:19:57Z</time>
      </trkpt>
      <trkpt lat="43.90283" lon="5.20064">
        <ele>238.2</ele>
        <time>2011-02-06T09:20:03Z</time>
      </trkpt>
      <trkpt lat="43.9029" lon="5.20068">
        <ele>238.8</ele>
        <time>2011-02-06T09:20:08Z</time>
      </trkpt>
      <trkpt lat="43.90299" lon="5.2007">
        <ele>239.1</ele>
        <time>2011-02-06T09:20:14Z</time>
      </trkpt>
      <trkpt lat="43.90308" lon="5.20069">
        <ele>239.6</ele>
        <time>2011-02-06T09:20:19Z</time>
      </trkpt>
      <trkpt lat="43.90316" lon="5.20069">
        <ele>240.2</ele>
        <time>2011-02-06T09:20:24Z</time>
      </trkpt>
      <trkpt lat="43.90323" lon="5.20068">
        <ele>240.5</ele>
        <time>2011-02-06T09:20:29Z</time>
      </trkpt>
      <trkpt lat="43.90331" lon="5.20067">
        <ele>240.8</ele>
        <time>2011-02-06T09:20:34Z</time>
      </trkpt>
      <trkpt lat="43.9034" lon="5.20067">
        <ele>241.8</ele>
        <time>2011-02-06T09:20:40Z</time>
      </trkpt>
      <trkpt lat="43.90347" lon="5.20066">
        <ele>242.5</ele>
        <time>2011-02-06T09:20:45Z</time>
      </trkpt>
      <trkpt lat="43.90356" lon="5.20066">
        <ele>243.2</ele>
        <time>2011-02-06T09:20:50Z</time>
      </trkpt>
      <trkpt lat="43.90357" lon="5.20066">
        <ele>243.4</ele>
        <time>2011-02-06T09:20:51Z</time>
      </trkpt>
      <trkpt lat="43.90372" lon="5.20065">
        <ele>244.2</ele>
        <time>2011-02-06T09:21:01Z</time>
      </trkpt>
      <trkpt lat="43.9038" lon="5.20063">
        <ele>245.1</ele>
        <time>2011-02-06T09:21:07Z</time>
      </trkpt>
      <trkpt lat="43.90388" lon="5.20062">
        <ele>246.3</ele>
        <time>2011-02-06T09:21:14Z</time>
      </trkpt>
      <trkpt lat="43.90397" lon="5.20061">
        <ele>246.9</ele>
        <time>2011-02-06T09:21:20Z</time>
      </trkpt>
      <trkpt lat="43.90404" lon="5.20061">
        <ele>247.4</ele>
        <time>2011-02-06T09:21:25Z</time>
      </trkpt>
      <trkpt lat="43.90412" lon="5.2006">
        <ele>248.4</ele>
        <time>2011-02-06T09:21:30Z</time>
      </trkpt>
      <trkpt lat="43.90421" lon="5.2006">
        <ele>249</ele>
        <time>2011-02-06T09:21:36Z</time>
      </trkpt>
      <trkpt lat="43.9043" lon="5.2006">
        <ele>250.8</ele>
        <time>2011-02-06T09:21:48Z</time>
      </trkpt>
      <trkpt lat="43.90438" lon="5.20061">
        <ele>251.6</ele>
        <time>2011-02-06T09:21:56Z</time>
      </trkpt>
      <trkpt lat="43.90439" lon="5.20061">
        <ele>251.6</ele>
        <time>2011-02-06T09:21:57Z</time>
      </trkpt>
      <trkpt lat="43.90453" lon="5.20066">
        <ele>251</ele>
        <time>2011-02-06T09:22:07Z</time>
      </trkpt>
      <trkpt lat="43.90462" lon="5.20068">
        <ele>250.1</ele>
        <time>2011-02-06T09:22:13Z</time>
      </trkpt>
      <trkpt lat="43.90471" lon="5.20069">
        <ele>249.5</ele>
        <time>2011-02-06T09:22:20Z</time>
      </trkpt>
      <trkpt lat="43.9048" lon="5.2007">
        <ele>249.1</ele>
        <time>2011-02-06T09:22:26Z</time>
      </trkpt>
      <trkpt lat="43.90488" lon="5.2007">
        <ele>248.1</ele>
        <time>2011-02-06T09:22:35Z</time>
      </trkpt>
      <trkpt lat="43.90496" lon="5.20071">
        <ele>248.4</ele>
        <time>2011-02-06T09:22:41Z</time>
      </trkpt>
      <trkpt lat="43.90505" lon="5.20071">
        <ele>248.1</ele>
        <time>2011-02-06T09:22:46Z</time>
      </trkpt>
      <trkpt lat="43.90514" lon="5.20072">
        <ele>247.4</ele>
        <time>2011-02-06T09:22:52Z</time>
      </trkpt>
      <trkpt lat="43.90522" lon="5.20071">
        <ele>247.4</ele>
        <time>2011-02-06T09:22:58Z</time>
      </trkpt>
      <trkpt lat="43.90523" lon="5.20071">
        <ele>247.6</ele>
        <time>2011-02-06T09:22:59Z</time>
      </trkpt>
      <trkpt lat="43.90539" lon="5.20068">
        <ele>247.2</ele>
        <time>2011-02-06T09:23:10Z</time>
      </trkpt>
      <trkpt lat="43.90548" lon="5.20066">
        <ele>247.2</ele>
        <time>2011-02-06T09:23:16Z</time>
      </trkpt>
      <trkpt lat="43.90555" lon="5.20064">
        <ele>247.1</ele>
        <time>2011-02-06T09:23:21Z</time>
      </trkpt>
      <trkpt lat="43.90563" lon="5.20061">
        <ele>247</ele>
        <time>2011-02-06T09:23:27Z</time>
      </trkpt>
      <trkpt lat="43.90571" lon="5.20059">
        <ele>247.2</ele>
        <time>2011-02-06T09:23:33Z</time>
      </trkpt>
      <trkpt lat="43.9058" lon="5.20061">
        <ele>247.2</ele>
        <time>2011-02-06T09:23:39Z</time>
      </trkpt>
      <trkpt lat="43.90587" lon="5.20061">
        <ele>247.1</ele>
        <time>2011-02-06T09:23:44Z</time>
      </trkpt>
      <trkpt lat="43.90596" lon="5.20062">
        <ele>247</ele>
        <time>2011-02-06T09:23:50Z</time>
      </trkpt>
      <trkpt lat="43.90604" lon="5.20063">
        <ele>246.9</ele>
        <time>2011-02-06T09:23:56Z</time>
      </trkpt>
      <trkpt lat="43.90612" lon="5.20064">
        <ele>246.7</ele>
        <time>2011-02-06T09:24:01Z</time>
      </trkpt>
      <trkpt lat="43.90614" lon="5.20064">
        <ele>246.7</ele>
        <time>2011-02-06T09:24:02Z</time>
      </trkpt>
      <trkpt lat="43.90629" lon="5.20065">
        <ele>247.1</ele>
        <time>2011-02-06T09:24:13Z</time>
      </trkpt>
      <trkpt lat="43.90638" lon="5.20066">
        <ele>246.8</ele>
        <time>2011-02-06T09:24:19Z</time>
      </trkpt>
      <trkpt lat="43.90645" lon="5.20067">
        <ele>246.7</ele>
        <time>2011-02-06T09:24:24Z</time>
      </trkpt>
      <trkpt lat="43.90652" lon="5.20068">
        <ele>246.7</ele>
        <time>2011-02-06T09:24:29Z</time>
      </trkpt>
      <trkpt lat="43.9066" lon="5.20069">
        <ele>246.4</ele>
        <time>2011-02-06T09:24:34Z</time>
      </trkpt>
      <trkpt lat="43.90668" lon="5.2007">
        <ele>246.5</ele>
        <time>2011-02-06T09:24:40Z</time>
      </trkpt>
      <trkpt lat="43.90676" lon="5.20071">
        <ele>246.8</ele>
        <time>2011-02-06T09:24:46Z</time>
      </trkpt>
      <trkpt lat="43.90684" lon="5.2007">
        <ele>246.9</ele>
        <time>2011-02-06T09:24:51Z</time>
      </trkpt>
      <trkpt lat="43.90693" lon="5.20071">
        <ele>246.6</ele>
        <time>2011-02-06T09:24:56Z</time>
      </trkpt>
      <trkpt lat="43.907" lon="5.2007">
        <ele>247</ele>
        <time>2011-02-06T09:25:01Z</time>
      </trkpt>
      <trkpt lat="43.90709" lon="5.2007">
        <ele>247</ele>
        <time>2011-02-06T09:25:07Z</time>
      </trkpt>
      <trkpt lat="43.90711" lon="5.2007">
        <ele>247</ele>
        <time>2011-02-06T09:25:08Z</time>
      </trkpt>
      <trkpt lat="43.90726" lon="5.20069">
        <ele>246.3</ele>
        <time>2011-02-06T09:25:19Z</time>
      </trkpt>
      <trkpt lat="43.90734" lon="5.20068">
        <ele>245.7</ele>
        <time>2011-02-06T09:25:24Z</time>
      </trkpt>
      <trkpt lat="43.90742" lon="5.20066">
        <ele>245.7</ele>
        <time>2011-02-06T09:25:30Z</time>
      </trkpt>
      <trkpt lat="43.90749" lon="5.20063">
        <ele>245.3</ele>
        <time>2011-02-06T09:25:35Z</time>
      </trkpt>
      <trkpt lat="43.90758" lon="5.20061">
        <ele>245.3</ele>
        <time>2011-02-06T09:25:41Z</time>
      </trkpt>
      <trkpt lat="43.90766" lon="5.20059">
        <ele>245.1</ele>
        <time>2011-02-06T09:25:47Z</time>
      </trkpt>
      <trkpt lat="43.90773" lon="5.20056">
        <ele>245.1</ele>
        <time>2011-02-06T09:25:51Z</time>
      </trkpt>
      <trkpt lat="43.90782" lon="5.20053">
        <ele>244.6</ele>
        <time>2011-02-06T09:25:57Z</time>
      </trkpt>
      <trkpt lat="43.90789" lon="5.20048">
        <ele>245</ele>
        <time>2011-02-06T09:26:01Z</time>
      </trkpt>
      <trkpt lat="43.90795" lon="5.20043">
        <ele>245.5</ele>
        <time>2011-02-06T09:26:04Z</time>
      </trkpt>
      <trkpt lat="43.90803" lon="5.20037">
        <ele>246.4</ele>
        <time>2011-02-06T09:26:08Z</time>
      </trkpt>
      <trkpt lat="43.90805" lon="5.20036">
        <ele>246.7</ele>
        <time>2011-02-06T09:26:09Z</time>
      </trkpt>
      <trkpt lat="43.90816" lon="5.20027">
        <ele>248.1</ele>
        <time>2011-02-06T09:26:17Z</time>
      </trkpt>
      <trkpt lat="43.90823" lon="5.20021">
        <ele>249.3</ele>
        <time>2011-02-06T09:26:23Z</time>
      </trkpt>
      <trkpt lat="43.90829" lon="5.20013">
        <ele>250.3</ele>
        <time>2011-02-06T09:26:29Z</time>
      </trkpt>
      <trkpt lat="43.90834" lon="5.20005">
        <ele>251.7</ele>
        <time>2011-02-06T09:26:35Z</time>
      </trkpt>
      <trkpt lat="43.90841" lon="5.19998">
        <ele>252.6</ele>
        <time>2011-02-06T09:26:41Z</time>
      </trkpt>
      <trkpt lat="43.90848" lon="5.19989">
        <ele>253.7</ele>
        <time>2011-02-06T09:26:48Z</time>
      </trkpt>
      <trkpt lat="43.90854" lon="5.19981">
        <ele>255.5</ele>
        <time>2011-02-06T09:26:55Z</time>
      </trkpt>
      <trkpt lat="43.90859" lon="5.19972">
        <ele>257.3</ele>
        <time>2011-02-06T09:27:01Z</time>
      </trkpt>
      <trkpt lat="43.90866" lon="5.19965">
        <ele>258.7</ele>
        <time>2011-02-06T09:27:05Z</time>
      </trkpt>
      <trkpt lat="43.90872" lon="5.19957">
        <ele>260.1</ele>
        <time>2011-02-06T09:27:11Z</time>
      </trkpt>
      <trkpt lat="43.90873" lon="5.19955">
        <ele>260.5</ele>
        <time>2011-02-06T09:27:12Z</time>
      </trkpt>
      <trkpt lat="43.90882" lon="5.19938">
        <ele>263.3</ele>
        <time>2011-02-06T09:27:23Z</time>
      </trkpt>
      <trkpt lat="43.90886" lon="5.1993">
        <ele>265</ele>
        <time>2011-02-06T09:27:28Z</time>
      </trkpt>
      <trkpt lat="43.90892" lon="5.19922">
        <ele>266.1</ele>
        <time>2011-02-06T09:27:32Z</time>
      </trkpt>
      <trkpt lat="43.90898" lon="5.19914">
        <ele>267.4</ele>
        <time>2011-02-06T09:27:39Z</time>
      </trkpt>
      <trkpt lat="43.90904" lon="5.19906">
        <ele>268.6</ele>
        <time>2011-02-06T09:27:45Z</time>
      </trkpt>
      <trkpt lat="43.90911" lon="5.199">
        <ele>269.7</ele>
        <time>2011-02-06T09:27:50Z</time>
      </trkpt>
      <trkpt lat="43.90918" lon="5.19894">
        <ele>270.9</ele>
        <time>2011-02-06T09:27:56Z</time>
      </trkpt>
      <trkpt lat="43.90926" lon="5.19889">
        <ele>272.1</ele>
        <time>2011-02-06T09:28:02Z</time>
      </trkpt>
      <trkpt lat="43.90933" lon="5.19884">
        <ele>273.3</ele>
        <time>2011-02-06T09:28:09Z</time>
      </trkpt>
      <trkpt lat="43.90941" lon="5.19881">
        <ele>274.2</ele>
        <time>2011-02-06T09:28:14Z</time>
      </trkpt>
      <trkpt lat="43.90942" lon="5.1988">
        <ele>274.3</ele>
        <time>2011-02-06T09:28:15Z</time>
      </trkpt>
      <trkpt lat="43.90955" lon="5.19874">
        <ele>276</ele>
        <time>2011-02-06T09:28:23Z</time>
      </trkpt>
      <trkpt lat="43.90962" lon="5.19869">
        <ele>276.7</ele>
        <time>2011-02-06T09:28:28Z</time>
      </trkpt>
      <trkpt lat="43.90969" lon="5.19863">
        <ele>278.1</ele>
        <time>2011-02-06T09:28:32Z</time>
      </trkpt>
      <trkpt lat="43.90976" lon="5.19857">
        <ele>279.8</ele>
        <time>2011-02-06T09:28:38Z</time>
      </trkpt>
      <trkpt lat="43.90984" lon="5.19852">
        <ele>281.5</ele>
        <time>2011-02-06T09:28:45Z</time>
      </trkpt>
      <trkpt lat="43.9099" lon="5.1986">
        <ele>283.2</ele>
        <time>2011-02-06T09:28:50Z</time>
      </trkpt>
      <trkpt lat="43.90994" lon="5.1987">
        <ele>283.9</ele>
        <time>2011-02-06T09:28:55Z</time>
      </trkpt>
      <trkpt lat="43.90991" lon="5.1988">
        <ele>284.7</ele>
        <time>2011-02-06T09:29:00Z</time>
      </trkpt>
      <trkpt lat="43.90985" lon="5.19888">
        <ele>285.5</ele>
        <time>2011-02-06T09:29:05Z</time>
      </trkpt>
      <trkpt lat="43.90981" lon="5.19897">
        <ele>285.2</ele>
        <time>2011-02-06T09:29:10Z</time>
      </trkpt>
      <trkpt lat="43.90975" lon="5.19904">
        <ele>285.2</ele>
        <time>2011-02-06T09:29:15Z</time>
      </trkpt>
      <trkpt lat="43.90973" lon="5.19906">
        <ele>285.1</ele>
        <time>2011-02-06T09:29:16Z</time>
      </trkpt>
      <trkpt lat="43.90962" lon="5.19916">
        <ele>286</ele>
        <time>2011-02-06T09:29:25Z</time>
      </trkpt>
      <trkpt lat="43.90957" lon="5.19926">
        <ele>286.8</ele>
        <time>2011-02-06T09:29:31Z</time>
      </trkpt>
      <trkpt lat="43.90955" lon="5.19937">
        <ele>288.1</ele>
        <time>2011-02-06T09:29:35Z</time>
      </trkpt>
      <trkpt lat="43.90951" lon="5.19947">
        <ele>288.6</ele>
        <time>2011-02-06T09:29:39Z</time>
      </trkpt>
      <trkpt lat="43.90947" lon="5.19958">
        <ele>289.9</ele>
        <time>2011-02-06T09:29:44Z</time>
      </trkpt>
      <trkpt lat="43.90944" lon="5.19966">
        <ele>290.4</ele>
        <time>2011-02-06T09:29:48Z</time>
      </trkpt>
      <trkpt lat="43.9094" lon="5.19977">
        <ele>291.8</ele>
        <time>2011-02-06T09:29:53Z</time>
      </trkpt>
      <trkpt lat="43.9094" lon="5.19988">
        <ele>292.5</ele>
        <time>2011-02-06T09:29:58Z</time>
      </trkpt>
      <trkpt lat="43.9094" lon="5.2">
        <ele>293.6</ele>
        <time>2011-02-06T09:30:04Z</time>
      </trkpt>
      <trkpt lat="43.90939" lon="5.20011">
        <ele>294.7</ele>
        <time>2011-02-06T09:30:10Z</time>
      </trkpt>
      <trkpt lat="43.90941" lon="5.20022">
        <ele>296</ele>
        <time>2011-02-06T09:30:15Z</time>
      </trkpt>
      <trkpt lat="43.90942" lon="5.20033">
        <ele>296.6</ele>
        <time>2011-02-06T09:30:20Z</time>
      </trkpt>
      <trkpt lat="43.90943" lon="5.20035">
        <ele>296.8</ele>
        <time>2011-02-06T09:30:21Z</time>
      </trkpt>
      <trkpt lat="43.90944" lon="5.20055">
        <ele>298.3</ele>
        <time>2011-02-06T09:30:31Z</time>
      </trkpt>
      <trkpt lat="43.90946" lon="5.20066">
        <ele>298.8</ele>
        <time>2011-02-06T09:30:36Z</time>
      </trkpt>
      <trkpt lat="43.90949" lon="5.20077">
        <ele>299.9</ele>
        <time>2011-02-06T09:30:42Z</time>
      </trkpt>
      <trkpt lat="43.90954" lon="5.20087">
        <ele>301.3</ele>
        <time>2011-02-06T09:30:48Z</time>
      </trkpt>
      <trkpt lat="43.90958" lon="5.20098">
        <ele>300.4</ele>
        <time>2011-02-06T09:31:14Z</time>
      </trkpt>
      <trkpt lat="43.9096" lon="5.20109">
        <ele>301.6</ele>
        <time>2011-02-06T09:32:22Z</time>
      </trkpt>
      <trkpt lat="43.90961" lon="5.2011">
        <ele>301.6</ele>
        <time>2011-02-06T09:32:23Z</time>
      </trkpt>
      <trkpt lat="43.90973" lon="5.20123">
        <ele>298.6</ele>
        <time>2011-02-06T09:32:35Z</time>
      </trkpt>
      <trkpt lat="43.9098" lon="5.20131">
        <ele>297</ele>
        <time>2011-02-06T09:32:41Z</time>
      </trkpt>
      <trkpt lat="43.90985" lon="5.20139">
        <ele>296.4</ele>
        <time>2011-02-06T09:32:47Z</time>
      </trkpt>
      <trkpt lat="43.9099" lon="5.20148">
        <ele>295.6</ele>
        <time>2011-02-06T09:32:53Z</time>
      </trkpt>
      <trkpt lat="43.90995" lon="5.20156">
        <ele>295</ele>
        <time>2011-02-06T09:32:58Z</time>
      </trkpt>
      <trkpt lat="43.91" lon="5.20164">
        <ele>293.6</ele>
        <time>2011-02-06T09:33:03Z</time>
      </trkpt>
      <trkpt lat="43.91006" lon="5.20172">
        <ele>292.7</ele>
        <time>2011-02-06T09:33:08Z</time>
      </trkpt>
      <trkpt lat="43.91011" lon="5.20181">
        <ele>291.8</ele>
        <time>2011-02-06T09:33:13Z</time>
      </trkpt>
      <trkpt lat="43.91016" lon="5.2019">
        <ele>290.8</ele>
        <time>2011-02-06T09:33:18Z</time>
      </trkpt>
      <trkpt lat="43.91021" lon="5.20198">
        <ele>290.1</ele>
        <time>2011-02-06T09:33:22Z</time>
      </trkpt>
      <trkpt lat="43.91028" lon="5.20205">
        <ele>289.3</ele>
        <time>2011-02-06T09:33:27Z</time>
      </trkpt>
      <trkpt lat="43.9103" lon="5.20207">
        <ele>289.3</ele>
        <time>2011-02-06T09:33:28Z</time>
      </trkpt>
      <trkpt lat="43.91039" lon="5.20221">
        <ele>287.8</ele>
        <time>2011-02-06T09:33:36Z</time>
      </trkpt>
      <trkpt lat="43.91045" lon="5.20229">
        <ele>286.2</ele>
        <time>2011-02-06T09:33:42Z</time>
      </trkpt>
      <trkpt lat="43.91053" lon="5.20236">
        <ele>285.2</ele>
        <time>2011-02-06T09:33:49Z</time>
      </trkpt>
      <trkpt lat="43.91058" lon="5.20244">
        <ele>283.9</ele>
        <time>2011-02-06T09:33:54Z</time>
      </trkpt>
      <trkpt lat="43.91063" lon="5.20253">
        <ele>282.8</ele>
        <time>2011-02-06T09:34:00Z</time>
      </trkpt>
      <trkpt lat="43.91068" lon="5.20263">
        <ele>281.1</ele>
        <time>2011-02-06T09:34:06Z</time>
      </trkpt>
      <trkpt lat="43.91073" lon="5.20271">
        <ele>279.7</ele>
        <time>2011-02-06T09:34:12Z</time>
      </trkpt>
      <trkpt lat="43.91079" lon="5.2028">
        <ele>278.6</ele>
        <time>2011-02-06T09:34:18Z</time>
      </trkpt>
      <trkpt lat="43.91085" lon="5.20288">
        <ele>277.9</ele>
        <time>2011-02-06T09:34:24Z</time>
      </trkpt>
      <trkpt lat="43.91091" lon="5.20295">
        <ele>276.5</ele>
        <time>2011-02-06T09:34:29Z</time>
      </trkpt>
      <trkpt lat="43.91092" lon="5.20297">
        <ele>276.5</ele>
        <time>2011-02-06T09:34:30Z</time>
      </trkpt>
      <trkpt lat="43.91103" lon="5.20311">
        <ele>274.8</ele>
        <time>2011-02-06T09:34:41Z</time>
      </trkpt>
      <trkpt lat="43.91109" lon="5.2032">
        <ele>274.4</ele>
        <time>2011-02-06T09:34:47Z</time>
      </trkpt>
      <trkpt lat="43.91114" lon="5.20329">
        <ele>272.9</ele>
        <time>2011-02-06T09:34:53Z</time>
      </trkpt>
      <trkpt lat="43.91117" lon="5.20338">
        <ele>271.6</ele>
        <time>2011-02-06T09:34:58Z</time>
      </trkpt>
      <trkpt lat="43.91118" lon="5.20349">
        <ele>271</ele>
        <time>2011-02-06T09:35:03Z</time>
      </trkpt>
      <trkpt lat="43.91117" lon="5.2036">
        <ele>269.8</ele>
        <time>2011-02-06T09:35:09Z</time>
      </trkpt>
      <trkpt lat="43.91113" lon="5.20371">
        <ele>268.6</ele>
        <time>2011-02-06T09:35:15Z</time>
      </trkpt>
      <trkpt lat="43.91109" lon="5.20382">
        <ele>267.3</ele>
        <time>2011-02-06T09:35:22Z</time>
      </trkpt>
      <trkpt lat="43.91105" lon="5.20392">
        <ele>265.5</ele>
        <time>2011-02-06T09:35:30Z</time>
      </trkpt>
      <trkpt lat="43.91105" lon="5.20394">
        <ele>265.1</ele>
        <time>2011-02-06T09:35:31Z</time>
      </trkpt>
      <trkpt lat="43.91098" lon="5.20411">
        <ele>262.8</ele>
        <time>2011-02-06T09:35:41Z</time>
      </trkpt>
      <trkpt lat="43.91094" lon="5.20421">
        <ele>261.7</ele>
        <time>2011-02-06T09:35:46Z</time>
      </trkpt>
      <trkpt lat="43.9109" lon="5.20431">
        <ele>261.1</ele>
        <time>2011-02-06T09:35:52Z</time>
      </trkpt>
      <trkpt lat="43.91089" lon="5.20443">
        <ele>258.6</ele>
        <time>2011-02-06T09:35:59Z</time>
      </trkpt>
      <trkpt lat="43.91089" lon="5.20454">
        <ele>257.5</ele>
        <time>2011-02-06T09:36:05Z</time>
      </trkpt>
      <trkpt lat="43.9109" lon="5.20465">
        <ele>256.7</ele>
        <time>2011-02-06T09:36:11Z</time>
      </trkpt>
      <trkpt lat="43.91089" lon="5.20476">
        <ele>256.3</ele>
        <time>2011-02-06T09:36:16Z</time>
      </trkpt>
      <trkpt lat="43.91089" lon="5.20488">
        <ele>256</ele>
        <time>2011-02-06T09:36:22Z</time>
      </trkpt>
      <trkpt lat="43.91091" lon="5.20498">
        <ele>256.5</ele>
        <time>2011-02-06T09:36:28Z</time>
      </trkpt>
      <trkpt lat="43.91093" lon="5.20509">
        <ele>255.7</ele>
        <time>2011-02-06T09:36:34Z</time>
      </trkpt>
      <trkpt lat="43.91093" lon="5.20511">
        <ele>255.4</ele>
        <time>2011-02-06T09:36:35Z</time>
      </trkpt>
      <trkpt lat="43.91102" lon="5.20529">
        <ele>253.9</ele>
        <time>2011-02-06T09:36:50Z</time>
      </trkpt>
      <trkpt lat="43.91111" lon="5.20526">
        <ele>255.7</ele>
        <time>2011-02-06T09:36:57Z</time>
      </trkpt>
      <trkpt lat="43.91115" lon="5.20517">
        <ele>256</ele>
        <time>2011-02-06T09:37:03Z</time>
      </trkpt>
      <trkpt lat="43.91122" lon="5.2051">
        <ele>256.9</ele>
        <time>2011-02-06T09:37:08Z</time>
      </trkpt>
      <trkpt lat="43.91128" lon="5.20501">
        <ele>259.1</ele>
        <time>2011-02-06T09:37:14Z</time>
      </trkpt>
      <trkpt lat="43.91132" lon="5.20493">
        <ele>259.8</ele>
        <time>2011-02-06T09:37:18Z</time>
      </trkpt>
      <trkpt lat="43.91133" lon="5.20481">
        <ele>260.7</ele>
        <time>2011-02-06T09:37:22Z</time>
      </trkpt>
      <trkpt lat="43.9113" lon="5.20471">
        <ele>261.3</ele>
        <time>2011-02-06T09:37:25Z</time>
      </trkpt>
      <trkpt lat="43.9113" lon="5.20463">
        <ele>262.9</ele>
        <time>2011-02-06T09:37:28Z</time>
      </trkpt>
      <trkpt lat="43.91131" lon="5.20454">
        <ele>263.9</ele>
        <time>2011-02-06T09:37:30Z</time>
      </trkpt>
      <trkpt lat="43.9113" lon="5.20443">
        <ele>265.1</ele>
        <time>2011-02-06T09:37:33Z</time>
      </trkpt>
      <trkpt lat="43.9113" lon="5.20434">
        <ele>266.4</ele>
        <time>2011-02-06T09:37:36Z</time>
      </trkpt>
      <trkpt lat="43.9113" lon="5.2043">
        <ele>266.8</ele>
        <time>2011-02-06T09:37:37Z</time>
      </trkpt>
      <trkpt lat="43.91131" lon="5.20414">
        <ele>269.2</ele>
        <time>2011-02-06T09:37:42Z</time>
      </trkpt>
      <trkpt lat="43.91136" lon="5.20405">
        <ele>271.1</ele>
        <time>2011-02-06T09:37:45Z</time>
      </trkpt>
      <trkpt lat="43.91142" lon="5.20399">
        <ele>272.7</ele>
        <time>2011-02-06T09:37:49Z</time>
      </trkpt>
      <trkpt lat="43.9115" lon="5.20394">
        <ele>274.5</ele>
        <time>2011-02-06T09:37:54Z</time>
      </trkpt>
      <trkpt lat="43.91158" lon="5.20389">
        <ele>276.9</ele>
        <time>2011-02-06T09:37:59Z</time>
      </trkpt>
      <trkpt lat="43.91163" lon="5.20382">
        <ele>277.8</ele>
        <time>2011-02-06T09:38:03Z</time>
      </trkpt>
      <trkpt lat="43.91165" lon="5.20371">
        <ele>280.5</ele>
        <time>2011-02-06T09:38:14Z</time>
      </trkpt>
      <trkpt lat="43.91164" lon="5.2036">
        <ele>281.6</ele>
        <time>2011-02-06T09:38:20Z</time>
      </trkpt>
      <trkpt lat="43.91162" lon="5.20348">
        <ele>284.3</ele>
        <time>2011-02-06T09:38:26Z</time>
      </trkpt>
      <trkpt lat="43.91166" lon="5.2034">
        <ele>285.8</ele>
        <time>2011-02-06T09:38:32Z</time>
      </trkpt>
      <trkpt lat="43.91171" lon="5.20332">
        <ele>288.2</ele>
        <time>2011-02-06T09:38:38Z</time>
      </trkpt>
      <trkpt lat="43.91172" lon="5.20331">
        <ele>288.6</ele>
        <time>2011-02-06T09:38:39Z</time>
      </trkpt>
      <trkpt lat="43.91185" lon="5.2032">
        <ele>293.3</ele>
        <time>2011-02-06T09:38:48Z</time>
      </trkpt>
      <trkpt lat="43.91191" lon="5.20311">
        <ele>297.6</ele>
        <time>2011-02-06T09:38:55Z</time>
      </trkpt>
      <trkpt lat="43.91198" lon="5.20304">
        <ele>299.5</ele>
        <time>2011-02-06T09:39:02Z</time>
      </trkpt>
      <trkpt lat="43.91206" lon="5.20302">
        <ele>301.7</ele>
        <time>2011-02-06T09:39:09Z</time>
      </trkpt>
      <trkpt lat="43.91215" lon="5.203">
        <ele>304.4</ele>
        <time>2011-02-06T09:39:16Z</time>
      </trkpt>
      <trkpt lat="43.91223" lon="5.20298">
        <ele>306.8</ele>
        <time>2011-02-06T09:39:21Z</time>
      </trkpt>
      <trkpt lat="43.91231" lon="5.20295">
        <ele>308.3</ele>
        <time>2011-02-06T09:39:26Z</time>
      </trkpt>
      <trkpt lat="43.91236" lon="5.20286">
        <ele>309.9</ele>
        <time>2011-02-06T09:39:31Z</time>
      </trkpt>
      <trkpt lat="43.91236" lon="5.20275">
        <ele>311.9</ele>
        <time>2011-02-06T09:39:34Z</time>
      </trkpt>
      <trkpt lat="43.91236" lon="5.20263">
        <ele>314.1</ele>
        <time>2011-02-06T09:39:40Z</time>
      </trkpt>
      <trkpt lat="43.91236" lon="5.20261">
        <ele>314.4</ele>
        <time>2011-02-06T09:39:41Z</time>
      </trkpt>
      <trkpt lat="43.91235" lon="5.20239">
        <ele>317.7</ele>
        <time>2011-02-06T09:39:52Z</time>
      </trkpt>
      <trkpt lat="43.91235" lon="5.20228">
        <ele>320.5</ele>
        <time>2011-02-06T09:39:56Z</time>
      </trkpt>
      <trkpt lat="43.91232" lon="5.20217">
        <ele>321.9</ele>
        <time>2011-02-06T09:40:00Z</time>
      </trkpt>
      <trkpt lat="43.91228" lon="5.2021">
        <ele>323.4</ele>
        <time>2011-02-06T09:40:04Z</time>
      </trkpt>
      <trkpt lat="43.91221" lon="5.20202">
        <ele>325.7</ele>
        <time>2011-02-06T09:40:08Z</time>
      </trkpt>
      <trkpt lat="43.91216" lon="5.20195">
        <ele>326.6</ele>
        <time>2011-02-06T09:40:11Z</time>
      </trkpt>
      <trkpt lat="43.91209" lon="5.20187">
        <ele>329.4</ele>
        <time>2011-02-06T09:40:16Z</time>
      </trkpt>
      <trkpt lat="43.91217" lon="5.20186">
        <ele>330.2</ele>
        <time>2011-02-06T09:40:28Z</time>
      </trkpt>
      <trkpt lat="43.91225" lon="5.2019">
        <ele>331.5</ele>
        <time>2011-02-06T09:40:33Z</time>
      </trkpt>
      <trkpt lat="43.91232" lon="5.20195">
        <ele>331.9</ele>
        <time>2011-02-06T09:40:38Z</time>
      </trkpt>
      <trkpt lat="43.91241" lon="5.20198">
        <ele>332</ele>
        <time>2011-02-06T09:40:45Z</time>
      </trkpt>
      <trkpt lat="43.91241" lon="5.20197">
        <ele>332.4</ele>
        <time>2011-02-06T09:40:46Z</time>
      </trkpt>
      <trkpt lat="43.91227" lon="5.20186">
        <ele>334.1</ele>
        <time>2011-02-06T09:40:55Z</time>
      </trkpt>
      <trkpt lat="43.9122" lon="5.20181">
        <ele>334</ele>
        <time>2011-02-06T09:41:01Z</time>
      </trkpt>
      <trkpt lat="43.91214" lon="5.20174">
        <ele>334.6</ele>
        <time>2011-02-06T09:41:07Z</time>
      </trkpt>
      <trkpt lat="43.91207" lon="5.20166">
        <ele>335.8</ele>
        <time>2011-02-06T09:41:12Z</time>
      </trkpt>
      <trkpt lat="43.91199" lon="5.20162">
        <ele>337</ele>
        <time>2011-02-06T09:41:18Z</time>
      </trkpt>
      <trkpt lat="43.91192" lon="5.20156">
        <ele>337.1</ele>
        <time>2011-02-06T09:41:22Z</time>
      </trkpt>
      <trkpt lat="43.91184" lon="5.2015">
        <ele>338</ele>
        <time>2011-02-06T09:41:28Z</time>
      </trkpt>
      <trkpt lat="43.91177" lon="5.20146">
        <ele>338</ele>
        <time>2011-02-06T09:41:33Z</time>
      </trkpt>
      <trkpt lat="43.9117" lon="5.20142">
        <ele>339.2</ele>
        <time>2011-02-06T09:41:38Z</time>
      </trkpt>
      <trkpt lat="43.91162" lon="5.20135">
        <ele>339.6</ele>
        <time>2011-02-06T09:41:45Z</time>
      </trkpt>
      <trkpt lat="43.91156" lon="5.20131">
        <ele>340.9</ele>
        <time>2011-02-06T09:41:50Z</time>
      </trkpt>
      <trkpt lat="43.91154" lon="5.2013">
        <ele>340.9</ele>
        <time>2011-02-06T09:41:51Z</time>
      </trkpt>
      <trkpt lat="43.91142" lon="5.20117">
        <ele>344</ele>
        <time>2011-02-06T09:42:02Z</time>
      </trkpt>
      <trkpt lat="43.91136" lon="5.2011">
        <ele>344.6</ele>
        <time>2011-02-06T09:42:06Z</time>
      </trkpt>
      <trkpt lat="43.9113" lon="5.20102">
        <ele>345.1</ele>
        <time>2011-02-06T09:42:11Z</time>
      </trkpt>
      <trkpt lat="43.91123" lon="5.20096">
        <ele>345.8</ele>
        <time>2011-02-06T09:42:17Z</time>
      </trkpt>
      <trkpt lat="43.91123" lon="5.20084">
        <ele>346.3</ele>
        <time>2011-02-06T09:42:23Z</time>
      </trkpt>
      <trkpt lat="43.91126" lon="5.20074">
        <ele>347.8</ele>
        <time>2011-02-06T09:42:28Z</time>
      </trkpt>
      <trkpt lat="43.91127" lon="5.20063">
        <ele>349.4</ele>
        <time>2011-02-06T09:42:33Z</time>
      </trkpt>
      <trkpt lat="43.91128" lon="5.20052">
        <ele>351.2</ele>
        <time>2011-02-06T09:42:37Z</time>
      </trkpt>
      <trkpt lat="43.91131" lon="5.20042">
        <ele>352.9</ele>
        <time>2011-02-06T09:42:43Z</time>
      </trkpt>
      <trkpt lat="43.91137" lon="5.20049">
        <ele>353.9</ele>
        <time>2011-02-06T09:43:57Z</time>
      </trkpt>
      <trkpt lat="43.91138" lon="5.20051">
        <ele>354</ele>
        <time>2011-02-06T09:43:58Z</time>
      </trkpt>
      <trkpt lat="43.91146" lon="5.20069">
        <ele>352.4</ele>
        <time>2011-02-06T09:44:10Z</time>
      </trkpt>
      <trkpt lat="43.91153" lon="5.20076">
        <ele>352.3</ele>
        <time>2011-02-06T09:44:17Z</time>
      </trkpt>
      <trkpt lat="43.91159" lon="5.20084">
        <ele>351.8</ele>
        <time>2011-02-06T09:44:23Z</time>
      </trkpt>
      <trkpt lat="43.91165" lon="5.2009">
        <ele>352.7</ele>
        <time>2011-02-06T09:44:28Z</time>
      </trkpt>
      <trkpt lat="43.91173" lon="5.20097">
        <ele>352.4</ele>
        <time>2011-02-06T09:44:34Z</time>
      </trkpt>
      <trkpt lat="43.9118" lon="5.20101">
        <ele>353.1</ele>
        <time>2011-02-06T09:44:39Z</time>
      </trkpt>
      <trkpt lat="43.91188" lon="5.20106">
        <ele>352.8</ele>
        <time>2011-02-06T09:44:45Z</time>
      </trkpt>
      <trkpt lat="43.91195" lon="5.20111">
        <ele>353.7</ele>
        <time>2011-02-06T09:44:50Z</time>
      </trkpt>
      <trkpt lat="43.91203" lon="5.20116">
        <ele>353.5</ele>
        <time>2011-02-06T09:44:56Z</time>
      </trkpt>
      <trkpt lat="43.91211" lon="5.20121">
        <ele>353.7</ele>
        <time>2011-02-06T09:45:02Z</time>
      </trkpt>
      <trkpt lat="43.91212" lon="5.20122">
        <ele>354</ele>
        <time>2011-02-06T09:45:03Z</time>
      </trkpt>
      <trkpt lat="43.91227" lon="5.20128">
        <ele>353.4</ele>
        <time>2011-02-06T09:45:15Z</time>
      </trkpt>
      <trkpt lat="43.91236" lon="5.20129">
        <ele>355.6</ele>
        <time>2011-02-06T09:45:21Z</time>
      </trkpt>
      <trkpt lat="43.91244" lon="5.20131">
        <ele>355.3</ele>
        <time>2011-02-06T09:45:26Z</time>
      </trkpt>
      <trkpt lat="43.91251" lon="5.20135">
        <ele>355.6</ele>
        <time>2011-02-06T09:45:31Z</time>
      </trkpt>
      <trkpt lat="43.91258" lon="5.20139">
        <ele>355.7</ele>
        <time>2011-02-06T09:45:37Z</time>
      </trkpt>
      <trkpt lat="43.91266" lon="5.20142">
        <ele>356.6</ele>
        <time>2011-02-06T09:45:43Z</time>
      </trkpt>
      <trkpt lat="43.91274" lon="5.20146">
        <ele>357.5</ele>
        <time>2011-02-06T09:45:49Z</time>
      </trkpt>
      <trkpt lat="43.91282" lon="5.20149">
        <ele>357.9</ele>
        <time>2011-02-06T09:45:55Z</time>
      </trkpt>
      <trkpt lat="43.91289" lon="5.20154">
        <ele>358.1</ele>
        <time>2011-02-06T09:46:01Z</time>
      </trkpt>
      <trkpt lat="43.91296" lon="5.20158">
        <ele>358.5</ele>
        <time>2011-02-06T09:46:07Z</time>
      </trkpt>
      <trkpt lat="43.91298" lon="5.20159">
        <ele>358.5</ele>
        <time>2011-02-06T09:46:08Z</time>
      </trkpt>
      <trkpt lat="43.91312" lon="5.20166">
        <ele>359.6</ele>
        <time>2011-02-06T09:46:19Z</time>
      </trkpt>
      <trkpt lat="43.9132" lon="5.20171">
        <ele>360.2</ele>
        <time>2011-02-06T09:46:25Z</time>
      </trkpt>
      <trkpt lat="43.91327" lon="5.20176">
        <ele>361</ele>
        <time>2011-02-06T09:46:30Z</time>
      </trkpt>
      <trkpt lat="43.91334" lon="5.20181">
        <ele>360.4</ele>
        <time>2011-02-06T09:46:35Z</time>
      </trkpt>
      <trkpt lat="43.91342" lon="5.20185">
        <ele>362.3</ele>
        <time>2011-02-06T09:46:41Z</time>
      </trkpt>
      <trkpt lat="43.91349" lon="5.20189">
        <ele>362.7</ele>
        <time>2011-02-06T09:46:47Z</time>
      </trkpt>
      <trkpt lat="43.91358" lon="5.20193">
        <ele>362.8</ele>
        <time>2011-02-06T09:46:53Z</time>
      </trkpt>
      <trkpt lat="43.91366" lon="5.20196">
        <ele>363.2</ele>
        <time>2011-02-06T09:46:59Z</time>
      </trkpt>
      <trkpt lat="43.91374" lon="5.202">
        <ele>363</ele>
        <time>2011-02-06T09:47:05Z</time>
      </trkpt>
      <trkpt lat="43.91382" lon="5.20203">
        <ele>363</ele>
        <time>2011-02-06T09:47:11Z</time>
      </trkpt>
      <trkpt lat="43.91383" lon="5.20203">
        <ele>363.3</ele>
        <time>2011-02-06T09:47:12Z</time>
      </trkpt>
      <trkpt lat="43.91398" lon="5.20208">
        <ele>363.4</ele>
        <time>2011-02-06T09:47:23Z</time>
      </trkpt>
      <trkpt lat="43.91406" lon="5.2021">
        <ele>363.5</ele>
        <time>2011-02-06T09:47:28Z</time>
      </trkpt>
      <trkpt lat="43.91414" lon="5.20212">
        <ele>364.5</ele>
        <time>2011-02-06T09:47:34Z</time>
      </trkpt>
      <trkpt lat="43.91422" lon="5.20213">
        <ele>365</ele>
        <time>2011-02-06T09:47:39Z</time>
      </trkpt>
      <trkpt lat="43.9143" lon="5.20215">
        <ele>365.5</ele>
        <time>2011-02-06T09:47:44Z</time>
      </trkpt>
      <trkpt lat="43.91438" lon="5.20217">
        <ele>365.7</ele>
        <time>2011-02-06T09:47:49Z</time>
      </trkpt>
      <trkpt lat="43.91446" lon="5.20221">
        <ele>366.1</ele>
        <time>2011-02-06T09:47:56Z</time>
      </trkpt>
      <trkpt lat="43.91454" lon="5.20225">
        <ele>367.3</ele>
        <time>2011-02-06T09:48:03Z</time>
      </trkpt>
      <trkpt lat="43.91462" lon="5.20228">
        <ele>368</ele>
        <time>2011-02-06T09:48:09Z</time>
      </trkpt>
      <trkpt lat="43.9147" lon="5.20233">
        <ele>369.3</ele>
        <time>2011-02-06T09:48:17Z</time>
      </trkpt>
      <trkpt lat="43.91471" lon="5.20233">
        <ele>369.7</ele>
        <time>2011-02-06T09:48:18Z</time>
      </trkpt>
      <trkpt lat="43.91486" lon="5.20241">
        <ele>371.1</ele>
        <time>2011-02-06T09:48:30Z</time>
      </trkpt>
      <trkpt lat="43.91494" lon="5.20247">
        <ele>371.8</ele>
        <time>2011-02-06T09:48:36Z</time>
      </trkpt>
      <trkpt lat="43.91502" lon="5.20251">
        <ele>372.2</ele>
        <time>2011-02-06T09:48:42Z</time>
      </trkpt>
      <trkpt lat="43.91511" lon="5.20254">
        <ele>373.3</ele>
        <time>2011-02-06T09:48:46Z</time>
      </trkpt>
      <trkpt lat="43.91519" lon="5.20257">
        <ele>373.3</ele>
        <time>2011-02-06T09:48:51Z</time>
      </trkpt>
      <trkpt lat="43.91527" lon="5.20258">
        <ele>374.2</ele>
        <time>2011-02-06T09:48:57Z</time>
      </trkpt>
      <trkpt lat="43.91534" lon="5.20261">
        <ele>374.2</ele>
        <time>2011-02-06T09:49:03Z</time>
      </trkpt>
      <trkpt lat="43.91543" lon="5.20262">
        <ele>375.1</ele>
        <time>2011-02-06T09:49:10Z</time>
      </trkpt>
      <trkpt lat="43.91551" lon="5.20263">
        <ele>375.5</ele>
        <time>2011-02-06T09:49:14Z</time>
      </trkpt>
      <trkpt lat="43.91558" lon="5.20265">
        <ele>376.1</ele>
        <time>2011-02-06T09:49:20Z</time>
      </trkpt>
      <trkpt lat="43.9156" lon="5.20265">
        <ele>376.4</ele>
        <time>2011-02-06T09:49:21Z</time>
      </trkpt>
      <trkpt lat="43.91576" lon="5.20269">
        <ele>377.4</ele>
        <time>2011-02-06T09:49:31Z</time>
      </trkpt>
      <trkpt lat="43.91583" lon="5.20271">
        <ele>378</ele>
        <time>2011-02-06T09:49:36Z</time>
      </trkpt>
      <trkpt lat="43.91592" lon="5.20274">
        <ele>378.3</ele>
        <time>2011-02-06T09:49:42Z</time>
      </trkpt>
      <trkpt lat="43.916" lon="5.20276">
        <ele>378.7</ele>
        <time>2011-02-06T09:49:48Z</time>
      </trkpt>
      <trkpt lat="43.91608" lon="5.20279">
        <ele>379.2</ele>
        <time>2011-02-06T09:49:54Z</time>
      </trkpt>
      <trkpt lat="43.91616" lon="5.20282">
        <ele>380.3</ele>
        <time>2011-02-06T09:50:00Z</time>
      </trkpt>
      <trkpt lat="43.91624" lon="5.20284">
        <ele>380.8</ele>
        <time>2011-02-06T09:50:06Z</time>
      </trkpt>
      <trkpt lat="43.91632" lon="5.20287">
        <ele>382.1</ele>
        <time>2011-02-06T09:50:12Z</time>
      </trkpt>
      <trkpt lat="43.9164" lon="5.20291">
        <ele>382.3</ele>
        <time>2011-02-06T09:50:19Z</time>
      </trkpt>
      <trkpt lat="43.91648" lon="5.20296">
        <ele>383.1</ele>
        <time>2011-02-06T09:50:26Z</time>
      </trkpt>
      <trkpt lat="43.91649" lon="5.20296">
        <ele>383.1</ele>
        <time>2011-02-06T09:50:27Z</time>
      </trkpt>
      <trkpt lat="43.91663" lon="5.20302">
        <ele>384.8</ele>
        <time>2011-02-06T09:50:37Z</time>
      </trkpt>
      <trkpt lat="43.9167" lon="5.20306">
        <ele>385.2</ele>
        <time>2011-02-06T09:50:42Z</time>
      </trkpt>
      <trkpt lat="43.91678" lon="5.20309">
        <ele>386.7</ele>
        <time>2011-02-06T09:50:48Z</time>
      </trkpt>
      <trkpt lat="43.91686" lon="5.20311">
        <ele>387.3</ele>
        <time>2011-02-06T09:50:54Z</time>
      </trkpt>
      <trkpt lat="43.91694" lon="5.20316">
        <ele>387.5</ele>
        <time>2011-02-06T09:51:01Z</time>
      </trkpt>
      <trkpt lat="43.91702" lon="5.20318">
        <ele>388.5</ele>
        <time>2011-02-06T09:51:07Z</time>
      </trkpt>
      <trkpt lat="43.91711" lon="5.2032">
        <ele>389.6</ele>
        <time>2011-02-06T09:51:14Z</time>
      </trkpt>
      <trkpt lat="43.91718" lon="5.20324">
        <ele>390.1</ele>
        <time>2011-02-06T09:51:19Z</time>
      </trkpt>
      <trkpt lat="43.91724" lon="5.20329">
        <ele>391.1</ele>
        <time>2011-02-06T09:51:23Z</time>
      </trkpt>
      <trkpt lat="43.91732" lon="5.20334">
        <ele>391.4</ele>
        <time>2011-02-06T09:51:28Z</time>
      </trkpt>
      <trkpt lat="43.91733" lon="5.20336">
        <ele>391.4</ele>
        <time>2011-02-06T09:51:29Z</time>
      </trkpt>
      <trkpt lat="43.91747" lon="5.20343">
        <ele>393.7</ele>
        <time>2011-02-06T09:51:39Z</time>
      </trkpt>
      <trkpt lat="43.91755" lon="5.20344">
        <ele>394.8</ele>
        <time>2011-02-06T09:51:44Z</time>
      </trkpt>
      <trkpt lat="43.91763" lon="5.20349">
        <ele>395.6</ele>
        <time>2011-02-06T09:51:50Z</time>
      </trkpt>
      <trkpt lat="43.9177" lon="5.20354">
        <ele>396.6</ele>
        <time>2011-02-06T09:51:56Z</time>
      </trkpt>
      <trkpt lat="43.91778" lon="5.20359">
        <ele>397.4</ele>
        <time>2011-02-06T09:52:02Z</time>
      </trkpt>
      <trkpt lat="43.91786" lon="5.20364">
        <ele>398.6</ele>
        <time>2011-02-06T09:52:08Z</time>
      </trkpt>
      <trkpt lat="43.91794" lon="5.20368">
        <ele>399.2</ele>
        <time>2011-02-06T09:52:15Z</time>
      </trkpt>
      <trkpt lat="43.91802" lon="5.20373">
        <ele>400.1</ele>
        <time>2011-02-06T09:52:20Z</time>
      </trkpt>
      <trkpt lat="43.9181" lon="5.20377">
        <ele>400</ele>
        <time>2011-02-06T09:52:27Z</time>
      </trkpt>
      <trkpt lat="43.91818" lon="5.20376">
        <ele>399.7</ele>
        <time>2011-02-06T09:52:33Z</time>
      </trkpt>
      <trkpt lat="43.91819" lon="5.20376">
        <ele>399.6</ele>
        <time>2011-02-06T09:52:34Z</time>
      </trkpt>
      <trkpt lat="43.91835" lon="5.20375">
        <ele>401</ele>
        <time>2011-02-06T09:52:48Z</time>
      </trkpt>
      <trkpt lat="43.91843" lon="5.20374">
        <ele>402.4</ele>
        <time>2011-02-06T09:52:54Z</time>
      </trkpt>
      <trkpt lat="43.91851" lon="5.20374">
        <ele>404.3</ele>
        <time>2011-02-06T09:53:00Z</time>
      </trkpt>
      <trkpt lat="43.9186" lon="5.20373">
        <ele>405.2</ele>
        <time>2011-02-06T09:53:05Z</time>
      </trkpt>
      <trkpt lat="43.91868" lon="5.20372">
        <ele>406.5</ele>
        <time>2011-02-06T09:53:11Z</time>
      </trkpt>
      <trkpt lat="43.91877" lon="5.20372">
        <ele>408.1</ele>
        <time>2011-02-06T09:53:19Z</time>
      </trkpt>
      <trkpt lat="43.91884" lon="5.20372">
        <ele>409.1</ele>
        <time>2011-02-06T09:53:25Z</time>
      </trkpt>
      <trkpt lat="43.91893" lon="5.20373">
        <ele>409.6</ele>
        <time>2011-02-06T09:53:31Z</time>
      </trkpt>
      <trkpt lat="43.919" lon="5.20375">
        <ele>410</ele>
        <time>2011-02-06T09:53:38Z</time>
      </trkpt>
      <trkpt lat="43.91902" lon="5.20376">
        <ele>410.1</ele>
        <time>2011-02-06T09:53:39Z</time>
      </trkpt>
      <trkpt lat="43.91917" lon="5.20376">
        <ele>411.7</ele>
        <time>2011-02-06T09:53:52Z</time>
      </trkpt>
      <trkpt lat="43.91926" lon="5.20376">
        <ele>412.7</ele>
        <time>2011-02-06T09:53:59Z</time>
      </trkpt>
      <trkpt lat="43.91933" lon="5.20377">
        <ele>413.6</ele>
        <time>2011-02-06T09:54:03Z</time>
      </trkpt>
      <trkpt lat="43.9194" lon="5.20377">
        <ele>414.6</ele>
        <time>2011-02-06T09:54:06Z</time>
      </trkpt>
      <trkpt lat="43.91948" lon="5.20378">
        <ele>415.8</ele>
        <time>2011-02-06T09:54:11Z</time>
      </trkpt>
      <trkpt lat="43.91957" lon="5.20379">
        <ele>416.2</ele>
        <time>2011-02-06T09:54:17Z</time>
      </trkpt>
      <trkpt lat="43.91966" lon="5.20378">
        <ele>416.1</ele>
        <time>2011-02-06T09:54:23Z</time>
      </trkpt>
      <trkpt lat="43.91974" lon="5.20382">
        <ele>416.8</ele>
        <time>2011-02-06T09:54:29Z</time>
      </trkpt>
      <trkpt lat="43.91982" lon="5.20384">
        <ele>417</ele>
        <time>2011-02-06T09:54:35Z</time>
      </trkpt>
      <trkpt lat="43.91989" lon="5.20386">
        <ele>417.9</ele>
        <time>2011-02-06T09:54:41Z</time>
      </trkpt>
      <trkpt lat="43.91991" lon="5.20386">
        <ele>418</ele>
        <time>2011-02-06T09:54:42Z</time>
      </trkpt>
      <trkpt lat="43.92005" lon="5.20392">
        <ele>418.5</ele>
        <time>2011-02-06T09:54:53Z</time>
      </trkpt>
      <trkpt lat="43.92014" lon="5.20395">
        <ele>420.3</ele>
        <time>2011-02-06T09:55:00Z</time>
      </trkpt>
      <trkpt lat="43.92021" lon="5.20398">
        <ele>420.9</ele>
        <time>2011-02-06T09:55:07Z</time>
      </trkpt>
      <trkpt lat="43.92029" lon="5.20401">
        <ele>420.9</ele>
        <time>2011-02-06T09:55:13Z</time>
      </trkpt>
      <trkpt lat="43.92037" lon="5.20403">
        <ele>421.6</ele>
        <time>2011-02-06T09:55:20Z</time>
      </trkpt>
      <trkpt lat="43.92046" lon="5.20404">
        <ele>422.7</ele>
        <time>2011-02-06T09:55:25Z</time>
      </trkpt>
      <trkpt lat="43.92054" lon="5.20406">
        <ele>424</ele>
        <time>2011-02-06T09:55:31Z</time>
      </trkpt>
      <trkpt lat="43.92062" lon="5.20409">
        <ele>425</ele>
        <time>2011-02-06T09:55:36Z</time>
      </trkpt>
      <trkpt lat="43.92069" lon="5.20412">
        <ele>425.2</ele>
        <time>2011-02-06T09:55:42Z</time>
      </trkpt>
      <trkpt lat="43.92071" lon="5.20413">
        <ele>425.5</ele>
        <time>2011-02-06T09:55:43Z</time>
      </trkpt>
      <trkpt lat="43.92085" lon="5.20409">
        <ele>426.6</ele>
        <time>2011-02-06T09:55:54Z</time>
      </trkpt>
      <trkpt lat="43.92093" lon="5.20407">
        <ele>427.7</ele>
        <time>2011-02-06T09:55:58Z</time>
      </trkpt>
      <trkpt lat="43.92102" lon="5.20408">
        <ele>429</ele>
        <time>2011-02-06T09:56:04Z</time>
      </trkpt>
      <trkpt lat="43.9211" lon="5.20409">
        <ele>429.1</ele>
        <time>2011-02-06T09:56:10Z</time>
      </trkpt>
      <trkpt lat="43.92119" lon="5.20408">
        <ele>429.7</ele>
        <time>2011-02-06T09:56:15Z</time>
      </trkpt>
      <trkpt lat="43.92127" lon="5.2041">
        <ele>429.6</ele>
        <time>2011-02-06T09:56:20Z</time>
      </trkpt>
      <trkpt lat="43.92135" lon="5.20412">
        <ele>430.6</ele>
        <time>2011-02-06T09:56:27Z</time>
      </trkpt>
      <trkpt lat="43.92142" lon="5.20412">
        <ele>431.7</ele>
        <time>2011-02-06T09:56:32Z</time>
      </trkpt>
      <trkpt lat="43.9215" lon="5.20412">
        <ele>432.4</ele>
        <time>2011-02-06T09:56:37Z</time>
      </trkpt>
      <trkpt lat="43.92158" lon="5.20411">
        <ele>432.3</ele>
        <time>2011-02-06T09:56:42Z</time>
      </trkpt>
      <trkpt lat="43.92166" lon="5.2041">
        <ele>432.3</ele>
        <time>2011-02-06T09:56:49Z</time>
      </trkpt>
      <trkpt lat="43.92168" lon="5.20409">
        <ele>432.5</ele>
        <time>2011-02-06T09:56:50Z</time>
      </trkpt>
      <trkpt lat="43.92182" lon="5.2041">
        <ele>432.4</ele>
        <time>2011-02-06T09:57:02Z</time>
      </trkpt>
      <trkpt lat="43.9219" lon="5.2041">
        <ele>432.2</ele>
        <time>2011-02-06T09:57:06Z</time>
      </trkpt>
      <trkpt lat="43.92198" lon="5.2041">
        <ele>432.8</ele>
        <time>2011-02-06T09:57:11Z</time>
      </trkpt>
      <trkpt lat="43.92205" lon="5.2041">
        <ele>432.7</ele>
        <time>2011-02-06T09:57:15Z</time>
      </trkpt>
      <trkpt lat="43.92213" lon="5.2041">
        <ele>432.8</ele>
        <time>2011-02-06T09:57:20Z</time>
      </trkpt>
      <trkpt lat="43.9222" lon="5.20408">
        <ele>432.7</ele>
        <time>2011-02-06T09:57:25Z</time>
      </trkpt>
      <trkpt lat="43.92228" lon="5.20407">
        <ele>432.9</ele>
        <time>2011-02-06T09:57:30Z</time>
      </trkpt>
      <trkpt lat="43.92236" lon="5.20406">
        <ele>432</ele>
        <time>2011-02-06T09:57:35Z</time>
      </trkpt>
      <trkpt lat="43.92244" lon="5.20406">
        <ele>432</ele>
        <time>2011-02-06T09:57:40Z</time>
      </trkpt>
      <trkpt lat="43.92252" lon="5.20404">
        <ele>432.4</ele>
        <time>2011-02-06T09:57:46Z</time>
      </trkpt>
      <trkpt lat="43.9226" lon="5.20404">
        <ele>432.5</ele>
        <time>2011-02-06T09:57:51Z</time>
      </trkpt>
      <trkpt lat="43.92261" lon="5.20404">
        <ele>432.6</ele>
        <time>2011-02-06T09:57:52Z</time>
      </trkpt>
      <trkpt lat="43.92277" lon="5.20403">
        <ele>432.9</ele>
        <time>2011-02-06T09:58:03Z</time>
      </trkpt>
      <trkpt lat="43.92285" lon="5.20402">
        <ele>433.4</ele>
        <time>2011-02-06T09:58:09Z</time>
      </trkpt>
      <trkpt lat="43.92293" lon="5.20401">
        <ele>433.7</ele>
        <time>2011-02-06T09:58:14Z</time>
      </trkpt>
      <trkpt lat="43.92301" lon="5.204">
        <ele>434.3</ele>
        <time>2011-02-06T09:58:20Z</time>
      </trkpt>
      <trkpt lat="43.92309" lon="5.204">
        <ele>434.3</ele>
        <time>2011-02-06T09:58:26Z</time>
      </trkpt>
      <trkpt lat="43.92317" lon="5.204">
        <ele>435.1</ele>
        <time>2011-02-06T09:58:32Z</time>
      </trkpt>
      <trkpt lat="43.92326" lon="5.20399">
        <ele>436.1</ele>
        <time>2011-02-06T09:58:39Z</time>
      </trkpt>
      <trkpt lat="43.92335" lon="5.20397">
        <ele>436.6</ele>
        <time>2011-02-06T09:58:45Z</time>
      </trkpt>
      <trkpt lat="43.92342" lon="5.20397">
        <ele>436.7</ele>
        <time>2011-02-06T09:58:50Z</time>
      </trkpt>
      <trkpt lat="43.9235" lon="5.20395">
        <ele>436.5</ele>
        <time>2011-02-06T09:58:55Z</time>
      </trkpt>
      <trkpt lat="43.92351" lon="5.20395">
        <ele>436.6</ele>
        <time>2011-02-06T09:58:56Z</time>
      </trkpt>
      <trkpt lat="43.92368" lon="5.20394">
        <ele>436.9</ele>
        <time>2011-02-06T09:59:07Z</time>
      </trkpt>
      <trkpt lat="43.92376" lon="5.20393">
        <ele>437.2</ele>
        <time>2011-02-06T09:59:13Z</time>
      </trkpt>
      <trkpt lat="43.92384" lon="5.20395">
        <ele>437.8</ele>
        <time>2011-02-06T09:59:19Z</time>
      </trkpt>
      <trkpt lat="43.92393" lon="5.20399">
        <ele>438.8</ele>
        <time>2011-02-06T09:59:25Z</time>
      </trkpt>
      <trkpt lat="43.924" lon="5.20401">
        <ele>438.6</ele>
        <time>2011-02-06T09:59:30Z</time>
      </trkpt>
      <trkpt lat="43.92408" lon="5.20404">
        <ele>439.4</ele>
        <time>2011-02-06T09:59:35Z</time>
      </trkpt>
      <trkpt lat="43.92416" lon="5.20406">
        <ele>439.3</ele>
        <time>2011-02-06T09:59:40Z</time>
      </trkpt>
      <trkpt lat="43.92424" lon="5.20411">
        <ele>439.8</ele>
        <time>2011-02-06T09:59:47Z</time>
      </trkpt>
      <trkpt lat="43.92431" lon="5.20414">
        <ele>439.7</ele>
        <time>2011-02-06T09:59:52Z</time>
      </trkpt>
      <trkpt lat="43.92439" lon="5.20417">
        <ele>440.1</ele>
        <time>2011-02-06T09:59:57Z</time>
      </trkpt>
      <trkpt lat="43.9244" lon="5.20418">
        <ele>439.9</ele>
        <time>2011-02-06T09:59:58Z</time>
      </trkpt>
      <trkpt lat="43.92454" lon="5.20424">
        <ele>440.9</ele>
        <time>2011-02-06T10:00:09Z</time>
      </trkpt>
      <trkpt lat="43.92462" lon="5.20426">
        <ele>440.8</ele>
        <time>2011-02-06T10:00:15Z</time>
      </trkpt>
      <trkpt lat="43.9247" lon="5.20429">
        <ele>441.4</ele>
        <time>2011-02-06T10:00:21Z</time>
      </trkpt>
      <trkpt lat="43.92478" lon="5.20432">
        <ele>442.4</ele>
        <time>2011-02-06T10:00:27Z</time>
      </trkpt>
      <trkpt lat="43.92486" lon="5.20435">
        <ele>442.6</ele>
        <time>2011-02-06T10:00:33Z</time>
      </trkpt>
      <trkpt lat="43.92495" lon="5.20438">
        <ele>443.3</ele>
        <time>2011-02-06T10:00:39Z</time>
      </trkpt>
      <trkpt lat="43.92503" lon="5.20441">
        <ele>443.8</ele>
        <time>2011-02-06T10:00:45Z</time>
      </trkpt>
      <trkpt lat="43.92511" lon="5.20445">
        <ele>443.9</ele>
        <time>2011-02-06T10:00:49Z</time>
      </trkpt>
      <trkpt lat="43.9252" lon="5.20449">
        <ele>444.4</ele>
        <time>2011-02-06T10:00:54Z</time>
      </trkpt>
      <trkpt lat="43.92527" lon="5.20453">
        <ele>444.5</ele>
        <time>2011-02-06T10:00:59Z</time>
      </trkpt>
      <trkpt lat="43.92528" lon="5.20454">
        <ele>444.6</ele>
        <time>2011-02-06T10:01:00Z</time>
      </trkpt>
      <trkpt lat="43.92543" lon="5.20459">
        <ele>444.9</ele>
        <time>2011-02-06T10:01:11Z</time>
      </trkpt>
      <trkpt lat="43.92552" lon="5.20462">
        <ele>445.2</ele>
        <time>2011-02-06T10:01:18Z</time>
      </trkpt>
      <trkpt lat="43.9256" lon="5.20459">
        <ele>445.9</ele>
        <time>2011-02-06T10:01:23Z</time>
      </trkpt>
      <trkpt lat="43.92566" lon="5.20454">
        <ele>446.9</ele>
        <time>2011-02-06T10:01:28Z</time>
      </trkpt>
      <trkpt lat="43.92571" lon="5.20447">
        <ele>448.1</ele>
        <time>2011-02-06T10:01:31Z</time>
      </trkpt>
      <trkpt lat="43.92578" lon="5.2044">
        <ele>449.3</ele>
        <time>2011-02-06T10:01:36Z</time>
      </trkpt>
      <trkpt lat="43.92584" lon="5.20435">
        <ele>450.9</ele>
        <time>2011-02-06T10:01:40Z</time>
      </trkpt>
      <trkpt lat="43.92592" lon="5.20432">
        <ele>453</ele>
        <time>2011-02-06T10:01:44Z</time>
      </trkpt>
      <trkpt lat="43.92599" lon="5.20428">
        <ele>454.1</ele>
        <time>2011-02-06T10:01:49Z</time>
      </trkpt>
      <trkpt lat="43.92607" lon="5.20424">
        <ele>455.9</ele>
        <time>2011-02-06T10:01:54Z</time>
      </trkpt>
      <trkpt lat="43.92615" lon="5.20419">
        <ele>457.5</ele>
        <time>2011-02-06T10:02:00Z</time>
      </trkpt>
      <trkpt lat="43.92616" lon="5.20418">
        <ele>457.8</ele>
        <time>2011-02-06T10:02:01Z</time>
      </trkpt>
      <trkpt lat="43.92629" lon="5.20404">
        <ele>459.7</ele>
        <time>2011-02-06T10:02:12Z</time>
      </trkpt>
      <trkpt lat="43.92638" lon="5.20405">
        <ele>460.3</ele>
        <time>2011-02-06T10:02:18Z</time>
      </trkpt>
      <trkpt lat="43.92646" lon="5.20408">
        <ele>462.2</ele>
        <time>2011-02-06T10:02:24Z</time>
      </trkpt>
      <trkpt lat="43.92653" lon="5.20412">
        <ele>462.5</ele>
        <time>2011-02-06T10:02:30Z</time>
      </trkpt>
      <trkpt lat="43.92662" lon="5.20414">
        <ele>462.9</ele>
        <time>2011-02-06T10:02:36Z</time>
      </trkpt>
      <trkpt lat="43.9267" lon="5.20412">
        <ele>463.4</ele>
        <time>2011-02-06T10:02:43Z</time>
      </trkpt>
      <trkpt lat="43.92679" lon="5.20409">
        <ele>464.7</ele>
        <time>2011-02-06T10:02:48Z</time>
      </trkpt>
      <trkpt lat="43.92687" lon="5.20406">
        <ele>465.9</ele>
        <time>2011-02-06T10:02:53Z</time>
      </trkpt>
      <trkpt lat="43.92695" lon="5.20402">
        <ele>467.1</ele>
        <time>2011-02-06T10:02:58Z</time>
      </trkpt>
      <trkpt lat="43.92701" lon="5.20393">
        <ele>467.9</ele>
        <time>2011-02-06T10:03:03Z</time>
      </trkpt>
      <trkpt lat="43.92701" lon="5.20391">
        <ele>468</ele>
        <time>2011-02-06T10:03:04Z</time>
      </trkpt>
      <trkpt lat="43.92705" lon="5.20371">
        <ele>469.8</ele>
        <time>2011-02-06T10:03:13Z</time>
      </trkpt>
      <trkpt lat="43.92708" lon="5.2036">
        <ele>470.5</ele>
        <time>2011-02-06T10:03:19Z</time>
      </trkpt>
      <trkpt lat="43.92709" lon="5.2035">
        <ele>470.9</ele>
        <time>2011-02-06T10:03:24Z</time>
      </trkpt>
      <trkpt lat="43.9271" lon="5.20337">
        <ele>471.6</ele>
        <time>2011-02-06T10:03:29Z</time>
      </trkpt>
      <trkpt lat="43.92711" lon="5.20327">
        <ele>471.1</ele>
        <time>2011-02-06T10:03:33Z</time>
      </trkpt>
      <trkpt lat="43.92712" lon="5.20315">
        <ele>471.6</ele>
        <time>2011-02-06T10:03:38Z</time>
      </trkpt>
      <trkpt lat="43.92712" lon="5.20303">
        <ele>472.1</ele>
        <time>2011-02-06T10:03:44Z</time>
      </trkpt>
      <trkpt lat="43.92712" lon="5.20291">
        <ele>472.8</ele>
        <time>2011-02-06T10:03:49Z</time>
      </trkpt>
      <trkpt lat="43.92713" lon="5.2028">
        <ele>472.8</ele>
        <time>2011-02-06T10:03:54Z</time>
      </trkpt>
      <trkpt lat="43.92715" lon="5.20269">
        <ele>473.7</ele>
        <time>2011-02-06T10:04:01Z</time>
      </trkpt>
      <trkpt lat="43.92719" lon="5.20258">
        <ele>474</ele>
        <time>2011-02-06T10:04:13Z</time>
      </trkpt>
      <trkpt lat="43.92719" lon="5.20258">
        <ele>474.2</ele>
        <time>2011-02-06T10:04:14Z</time>
      </trkpt>
      <trkpt lat="43.92727" lon="5.20252">
        <ele>476</ele>
        <time>2011-02-06T10:06:33Z</time>
      </trkpt>
      <trkpt lat="43.92739" lon="5.20236">
        <ele>478.8</ele>
        <time>2011-02-06T10:06:51Z</time>
      </trkpt>
      <trkpt lat="43.92745" lon="5.20228">
        <ele>478.8</ele>
        <time>2011-02-06T10:06:58Z</time>
      </trkpt>
      <trkpt lat="43.92752" lon="5.20221">
        <ele>481</ele>
        <time>2011-02-06T10:07:03Z</time>
      </trkpt>
      <trkpt lat="43.92758" lon="5.20212">
        <ele>481.2</ele>
        <time>2011-02-06T10:07:10Z</time>
      </trkpt>
      <trkpt lat="43.92762" lon="5.20202">
        <ele>481.9</ele>
        <time>2011-02-06T10:07:16Z</time>
      </trkpt>
      <trkpt lat="43.92764" lon="5.20192">
        <ele>482.7</ele>
        <time>2011-02-06T10:07:22Z</time>
      </trkpt>
      <trkpt lat="43.92768" lon="5.20181">
        <ele>484.5</ele>
        <time>2011-02-06T10:07:28Z</time>
      </trkpt>
      <trkpt lat="43.92774" lon="5.20172">
        <ele>485</ele>
        <time>2011-02-06T10:07:34Z</time>
      </trkpt>
      <trkpt lat="43.92775" lon="5.2017">
        <ele>485.2</ele>
        <time>2011-02-06T10:07:35Z</time>
      </trkpt>
      <trkpt lat="43.92785" lon="5.20155">
        <ele>486.9</ele>
        <time>2011-02-06T10:07:46Z</time>
      </trkpt>
      <trkpt lat="43.92789" lon="5.20145">
        <ele>488.2</ele>
        <time>2011-02-06T10:07:52Z</time>
      </trkpt>
      <trkpt lat="43.92789" lon="5.20133">
        <ele>488.8</ele>
        <time>2011-02-06T10:07:58Z</time>
      </trkpt>
      <trkpt lat="43.92784" lon="5.20123">
        <ele>489</ele>
        <time>2011-02-06T10:08:18Z</time>
      </trkpt>
      <trkpt lat="43.92791" lon="5.20117">
        <ele>487.6</ele>
        <time>2011-02-06T10:10:00Z</time>
      </trkpt>
      <trkpt lat="43.92792" lon="5.20117">
        <ele>487.7</ele>
        <time>2011-02-06T10:10:01Z</time>
      </trkpt>
      <trkpt lat="43.92802" lon="5.20098">
        <ele>489.4</ele>
        <time>2011-02-06T10:10:21Z</time>
      </trkpt>
      <trkpt lat="43.92807" lon="5.20088">
        <ele>489.5</ele>
        <time>2011-02-06T10:10:29Z</time>
      </trkpt>
      <trkpt lat="43.92815" lon="5.20092">
        <ele>491</ele>
        <time>2011-02-06T10:10:51Z</time>
      </trkpt>
      <trkpt lat="43.92823" lon="5.20094">
        <ele>491.7</ele>
        <time>2011-02-06T10:11:00Z</time>
      </trkpt>
      <trkpt lat="43.9283" lon="5.20093">
        <ele>491.9</ele>
        <time>2011-02-06T10:11:05Z</time>
      </trkpt>
      <trkpt lat="43.92833" lon="5.20092">
        <ele>492.1</ele>
        <time>2011-02-06T10:11:06Z</time>
      </trkpt>
      <trkpt lat="43.92845" lon="5.20088">
        <ele>492.9</ele>
        <time>2011-02-06T10:11:09Z</time>
      </trkpt>
      <trkpt lat="43.92853" lon="5.20086">
        <ele>493.3</ele>
        <time>2011-02-06T10:11:11Z</time>
      </trkpt>
      <trkpt lat="43.92858" lon="5.20084">
        <ele>494.2</ele>
        <time>2011-02-06T10:11:12Z</time>
      </trkpt>
      <trkpt lat="43.92864" lon="5.20083">
        <ele>494.8</ele>
        <time>2011-02-06T10:11:13Z</time>
      </trkpt>
      <trkpt lat="43.92868" lon="5.20083">
        <ele>495.3</ele>
        <time>2011-02-06T10:11:14Z</time>
      </trkpt>
      <trkpt lat="43.92873" lon="5.20082">
        <ele>495.6</ele>
        <time>2011-02-06T10:11:15Z</time>
      </trkpt>
      <trkpt lat="43.92877" lon="5.2008">
        <ele>495.4</ele>
        <time>2011-02-06T10:11:16Z</time>
      </trkpt>
      <trkpt lat="43.92886" lon="5.20078">
        <ele>495.9</ele>
        <time>2011-02-06T10:11:18Z</time>
      </trkpt>
      <trkpt lat="43.92894" lon="5.20075">
        <ele>497.1</ele>
        <time>2011-02-06T10:11:20Z</time>
      </trkpt>
      <trkpt lat="43.92901" lon="5.20072">
        <ele>498.3</ele>
        <time>2011-02-06T10:11:22Z</time>
      </trkpt>
      <trkpt lat="43.92909" lon="5.20068">
        <ele>498.5</ele>
        <time>2011-02-06T10:11:27Z</time>
      </trkpt>
      <trkpt lat="43.92916" lon="5.20061">
        <ele>498.4</ele>
        <time>2011-02-06T10:11:32Z</time>
      </trkpt>
      <trkpt lat="43.92923" lon="5.20055">
        <ele>499.6</ele>
        <time>2011-02-06T10:11:38Z</time>
      </trkpt>
      <trkpt lat="43.92931" lon="5.20052">
        <ele>499.9</ele>
        <time>2011-02-06T10:11:43Z</time>
      </trkpt>
      <trkpt lat="43.9294" lon="5.20052">
        <ele>500.2</ele>
        <time>2011-02-06T10:11:50Z</time>
      </trkpt>
      <trkpt lat="43.92948" lon="5.20051">
        <ele>501.2</ele>
        <time>2011-02-06T10:11:56Z</time>
      </trkpt>
      <trkpt lat="43.92957" lon="5.2005">
        <ele>502.8</ele>
        <time>2011-02-06T10:12:02Z</time>
      </trkpt>
      <trkpt lat="43.92966" lon="5.20048">
        <ele>503.6</ele>
        <time>2011-02-06T10:12:08Z</time>
      </trkpt>
      <trkpt lat="43.92968" lon="5.20048">
        <ele>503.3</ele>
        <time>2011-02-06T10:12:09Z</time>
      </trkpt>
      <trkpt lat="43.92983" lon="5.20048">
        <ele>504.2</ele>
        <time>2011-02-06T10:12:23Z</time>
      </trkpt>
      <trkpt lat="43.92991" lon="5.20052">
        <ele>504.6</ele>
        <time>2011-02-06T10:12:30Z</time>
      </trkpt>
      <trkpt lat="43.92998" lon="5.20052">
        <ele>505.8</ele>
        <time>2011-02-06T10:12:35Z</time>
      </trkpt>
      <trkpt lat="43.93006" lon="5.20054">
        <ele>505.4</ele>
        <time>2011-02-06T10:12:40Z</time>
      </trkpt>
      <trkpt lat="43.93014" lon="5.20057">
        <ele>505.3</ele>
        <time>2011-02-06T10:12:46Z</time>
      </trkpt>
      <trkpt lat="43.93023" lon="5.20058">
        <ele>506.8</ele>
        <time>2011-02-06T10:12:55Z</time>
      </trkpt>
      <trkpt lat="43.93031" lon="5.20056">
        <ele>507.2</ele>
        <time>2011-02-06T10:13:02Z</time>
      </trkpt>
      <trkpt lat="43.9304" lon="5.20055">
        <ele>506.7</ele>
        <time>2011-02-06T10:13:07Z</time>
      </trkpt>
      <trkpt lat="43.93048" lon="5.20056">
        <ele>507.2</ele>
        <time>2011-02-06T10:13:14Z</time>
      </trkpt>
      <trkpt lat="43.93049" lon="5.20056">
        <ele>507.3</ele>
        <time>2011-02-06T10:13:15Z</time>
      </trkpt>
      <trkpt lat="43.93065" lon="5.20054">
        <ele>509.1</ele>
        <time>2011-02-06T10:13:30Z</time>
      </trkpt>
      <trkpt lat="43.93072" lon="5.20051">
        <ele>509.6</ele>
        <time>2011-02-06T10:13:36Z</time>
      </trkpt>
      <trkpt lat="43.9308" lon="5.2005">
        <ele>510.8</ele>
        <time>2011-02-06T10:13:43Z</time>
      </trkpt>
      <trkpt lat="43.93088" lon="5.20052">
        <ele>510.9</ele>
        <time>2011-02-06T10:13:49Z</time>
      </trkpt>
      <trkpt lat="43.93096" lon="5.20053">
        <ele>511.2</ele>
        <time>2011-02-06T10:13:56Z</time>
      </trkpt>
      <trkpt lat="43.93105" lon="5.20055">
        <ele>513.1</ele>
        <time>2011-02-06T10:14:03Z</time>
      </trkpt>
      <trkpt lat="43.93113" lon="5.20059">
        <ele>513.4</ele>
        <time>2011-02-06T10:14:10Z</time>
      </trkpt>
      <trkpt lat="43.93121" lon="5.20062">
        <ele>514.9</ele>
        <time>2011-02-06T10:14:18Z</time>
      </trkpt>
      <trkpt lat="43.93122" lon="5.20062">
        <ele>514.7</ele>
        <time>2011-02-06T10:14:19Z</time>
      </trkpt>
      <trkpt lat="43.93138" lon="5.20056">
        <ele>515.8</ele>
        <time>2011-02-06T10:14:34Z</time>
      </trkpt>
      <trkpt lat="43.93146" lon="5.20054">
        <ele>515.6</ele>
        <time>2011-02-06T10:14:41Z</time>
      </trkpt>
      <trkpt lat="43.93155" lon="5.20054">
        <ele>516.5</ele>
        <time>2011-02-06T10:14:48Z</time>
      </trkpt>
      <trkpt lat="43.93163" lon="5.20052">
        <ele>517</ele>
        <time>2011-02-06T10:14:54Z</time>
      </trkpt>
      <trkpt lat="43.93171" lon="5.20049">
        <ele>517.1</ele>
        <time>2011-02-06T10:15:00Z</time>
      </trkpt>
      <trkpt lat="43.9318" lon="5.20047">
        <ele>517.4</ele>
        <time>2011-02-06T10:15:06Z</time>
      </trkpt>
      <trkpt lat="43.93188" lon="5.20043">
        <ele>518.4</ele>
        <time>2011-02-06T10:15:12Z</time>
      </trkpt>
      <trkpt lat="43.93195" lon="5.20041">
        <ele>519.2</ele>
        <time>2011-02-06T10:15:18Z</time>
      </trkpt>
      <trkpt lat="43.93203" lon="5.20038">
        <ele>519.1</ele>
        <time>2011-02-06T10:15:25Z</time>
      </trkpt>
      <trkpt lat="43.93205" lon="5.20038">
        <ele>518.8</ele>
        <time>2011-02-06T10:15:26Z</time>
      </trkpt>
      <trkpt lat="43.9322" lon="5.20033">
        <ele>518.4</ele>
        <time>2011-02-06T10:15:43Z</time>
      </trkpt>
      <trkpt lat="43.93227" lon="5.20031">
        <ele>519</ele>
        <time>2011-02-06T10:15:50Z</time>
      </trkpt>
      <trkpt lat="43.93235" lon="5.20029">
        <ele>518.5</ele>
        <time>2011-02-06T10:15:55Z</time>
      </trkpt>
      <trkpt lat="43.93243" lon="5.20027">
        <ele>518.9</ele>
        <time>2011-02-06T10:16:01Z</time>
      </trkpt>
      <trkpt lat="43.93251" lon="5.20023">
        <ele>519.6</ele>
        <time>2011-02-06T10:16:07Z</time>
      </trkpt>
      <trkpt lat="43.93258" lon="5.20019">
        <ele>519.9</ele>
        <time>2011-02-06T10:16:12Z</time>
      </trkpt>
      <trkpt lat="43.93266" lon="5.20017">
        <ele>519.4</ele>
        <time>2011-02-06T10:16:17Z</time>
      </trkpt>
      <trkpt lat="43.93274" lon="5.20013">
        <ele>518.2</ele>
        <time>2011-02-06T10:16:24Z</time>
      </trkpt>
      <trkpt lat="43.93283" lon="5.20012">
        <ele>518.6</ele>
        <time>2011-02-06T10:16:30Z</time>
      </trkpt>
      <trkpt lat="43.93285" lon="5.20012">
        <ele>518.9</ele>
        <time>2011-02-06T10:16:31Z</time>
      </trkpt>
      <trkpt lat="43.933" lon="5.20008">
        <ele>519</ele>
        <time>2011-02-06T10:16:42Z</time>
      </trkpt>
      <trkpt lat="43.93308" lon="5.20007">
        <ele>518.2</ele>
        <time>2011-02-06T10:16:48Z</time>
      </trkpt>
      <trkpt lat="43.93317" lon="5.20008">
        <ele>516.6</ele>
        <time>2011-02-06T10:16:54Z</time>
      </trkpt>
      <trkpt lat="43.93325" lon="5.20008">
        <ele>517.7</ele>
        <time>2011-02-06T10:17:06Z</time>
      </trkpt>
      <trkpt lat="43.93334" lon="5.20007">
        <ele>517.2</ele>
        <time>2011-02-06T10:17:14Z</time>
      </trkpt>
      <trkpt lat="43.93343" lon="5.20008">
        <ele>516.6</ele>
        <time>2011-02-06T10:17:22Z</time>
      </trkpt>
      <trkpt lat="43.93351" lon="5.20009">
        <ele>514.7</ele>
        <time>2011-02-06T10:17:31Z</time>
      </trkpt>
      <trkpt lat="43.93352" lon="5.20008">
        <ele>514.7</ele>
        <time>2011-02-06T10:17:32Z</time>
      </trkpt>
      <trkpt lat="43.93368" lon="5.20011">
        <ele>512.6</ele>
        <time>2011-02-06T10:17:44Z</time>
      </trkpt>
      <trkpt lat="43.93376" lon="5.20014">
        <ele>512</ele>
        <time>2011-02-06T10:17:50Z</time>
      </trkpt>
      <trkpt lat="43.93384" lon="5.20016">
        <ele>512</ele>
        <time>2011-02-06T10:17:55Z</time>
      </trkpt>
      <trkpt lat="43.93391" lon="5.20021">
        <ele>511</ele>
        <time>2011-02-06T10:18:02Z</time>
      </trkpt>
      <trkpt lat="43.93399" lon="5.20026">
        <ele>510.5</ele>
        <time>2011-02-06T10:18:09Z</time>
      </trkpt>
      <trkpt lat="43.93406" lon="5.20026">
        <ele>511.6</ele>
        <time>2011-02-06T10:18:14Z</time>
      </trkpt>
      <trkpt lat="43.93413" lon="5.20023">
        <ele>510.6</ele>
        <time>2011-02-06T10:18:18Z</time>
      </trkpt>
      <trkpt lat="43.93421" lon="5.20023">
        <ele>510.4</ele>
        <time>2011-02-06T10:18:22Z</time>
      </trkpt>
      <trkpt lat="43.93428" lon="5.20021">
        <ele>511.3</ele>
        <time>2011-02-06T10:18:26Z</time>
      </trkpt>
      <trkpt lat="43.93436" lon="5.20021">
        <ele>511.1</ele>
        <time>2011-02-06T10:18:30Z</time>
      </trkpt>
      <trkpt lat="43.93442" lon="5.20022">
        <ele>511.4</ele>
        <time>2011-02-06T10:18:32Z</time>
      </trkpt>
      <trkpt lat="43.93445" lon="5.20024">
        <ele>511.4</ele>
        <time>2011-02-06T10:18:33Z</time>
      </trkpt>
      <trkpt lat="43.93455" lon="5.20032">
        <ele>510.6</ele>
        <time>2011-02-06T10:18:35Z</time>
      </trkpt>
      <trkpt lat="43.93461" lon="5.20037">
        <ele>510.8</ele>
        <time>2011-02-06T10:18:36Z</time>
      </trkpt>
      <trkpt lat="43.93467" lon="5.20041">
        <ele>510.9</ele>
        <time>2011-02-06T10:18:37Z</time>
      </trkpt>
      <trkpt lat="43.93473" lon="5.20045">
        <ele>510.9</ele>
        <time>2011-02-06T10:18:38Z</time>
      </trkpt>
      <trkpt lat="43.9348" lon="5.20048">
        <ele>511.1</ele>
        <time>2011-02-06T10:18:39Z</time>
      </trkpt>
      <trkpt lat="43.93487" lon="5.20051">
        <ele>511.2</ele>
        <time>2011-02-06T10:18:40Z</time>
      </trkpt>
      <trkpt lat="43.93493" lon="5.20053">
        <ele>511</ele>
        <time>2011-02-06T10:18:41Z</time>
      </trkpt>
      <trkpt lat="43.93501" lon="5.20056">
        <ele>510.8</ele>
        <time>2011-02-06T10:18:42Z</time>
      </trkpt>
      <trkpt lat="43.93509" lon="5.20058">
        <ele>511.6</ele>
        <time>2011-02-06T10:18:43Z</time>
      </trkpt>
      <trkpt lat="43.93516" lon="5.2006">
        <ele>511.5</ele>
        <time>2011-02-06T10:18:44Z</time>
      </trkpt>
      <trkpt lat="43.93523" lon="5.20061">
        <ele>511.7</ele>
        <time>2011-02-06T10:18:45Z</time>
      </trkpt>
      <trkpt lat="43.93531" lon="5.20063">
        <ele>511.8</ele>
        <time>2011-02-06T10:18:46Z</time>
      </trkpt>
      <trkpt lat="43.93539" lon="5.20065">
        <ele>512</ele>
        <time>2011-02-06T10:18:47Z</time>
      </trkpt>
      <trkpt lat="43.93547" lon="5.20067">
        <ele>512.6</ele>
        <time>2011-02-06T10:18:48Z</time>
      </trkpt>
      <trkpt lat="43.93555" lon="5.20068">
        <ele>512.8</ele>
        <time>2011-02-06T10:18:49Z</time>
      </trkpt>
      <trkpt lat="43.93562" lon="5.2007">
        <ele>513</ele>
        <time>2011-02-06T10:18:50Z</time>
      </trkpt>
      <trkpt lat="43.9357" lon="5.20071">
        <ele>512.9</ele>
        <time>2011-02-06T10:18:51Z</time>
      </trkpt>
      <trkpt lat="43.93578" lon="5.20072">
        <ele>513.1</ele>
        <time>2011-02-06T10:18:52Z</time>
      </trkpt>
      <trkpt lat="43.93585" lon="5.20072">
        <ele>513.2</ele>
        <time>2011-02-06T10:18:53Z</time>
      </trkpt>
      <trkpt lat="43.93593" lon="5.20071">
        <ele>513.5</ele>
        <time>2011-02-06T10:18:54Z</time>
      </trkpt>
      <trkpt lat="43.936" lon="5.20069">
        <ele>513</ele>
        <time>2011-02-06T10:18:55Z</time>
      </trkpt>
      <trkpt lat="43.93608" lon="5.20067">
        <ele>513.6</ele>
        <time>2011-02-06T10:18:56Z</time>
      </trkpt>
      <trkpt lat="43.93615" lon="5.20064">
        <ele>513.4</ele>
        <time>2011-02-06T10:18:57Z</time>
      </trkpt>
      <trkpt lat="43.93622" lon="5.20063">
        <ele>513.9</ele>
        <time>2011-02-06T10:18:58Z</time>
      </trkpt>
      <trkpt lat="43.93629" lon="5.20062">
        <ele>514.1</ele>
        <time>2011-02-06T10:18:59Z</time>
      </trkpt>
      <trkpt lat="43.93636" lon="5.20062">
        <ele>514.5</ele>
        <time>2011-02-06T10:19:00Z</time>
      </trkpt>
      <trkpt lat="43.93643" lon="5.20062">
        <ele>514.5</ele>
        <time>2011-02-06T10:19:01Z</time>
      </trkpt>
      <trkpt lat="43.9365" lon="5.20061">
        <ele>514.5</ele>
        <time>2011-02-06T10:19:02Z</time>
      </trkpt>
      <trkpt lat="43.93657" lon="5.20059">
        <ele>514.6</ele>
        <time>2011-02-06T10:19:03Z</time>
      </trkpt>
      <trkpt lat="43.93663" lon="5.20057">
        <ele>514.8</ele>
        <time>2011-02-06T10:19:04Z</time>
      </trkpt>
      <trkpt lat="43.9367" lon="5.20054">
        <ele>514.8</ele>
        <time>2011-02-06T10:19:05Z</time>
      </trkpt>
      <trkpt lat="43.93676" lon="5.20051">
        <ele>515.2</ele>
        <time>2011-02-06T10:19:06Z</time>
      </trkpt>
      <trkpt lat="43.93682" lon="5.20049">
        <ele>515.5</ele>
        <time>2011-02-06T10:19:07Z</time>
      </trkpt>
      <trkpt lat="43.93688" lon="5.20047">
        <ele>515.7</ele>
        <time>2011-02-06T10:19:08Z</time>
      </trkpt>
      <trkpt lat="43.93694" lon="5.20046">
        <ele>515.6</ele>
        <time>2011-02-06T10:19:09Z</time>
      </trkpt>
      <trkpt lat="43.937" lon="5.20045">
        <ele>516</ele>
        <time>2011-02-06T10:19:10Z</time>
      </trkpt>
      <trkpt lat="43.93705" lon="5.20044">
        <ele>516.3</ele>
        <time>2011-02-06T10:19:11Z</time>
      </trkpt>
      <trkpt lat="43.93711" lon="5.20043">
        <ele>516.6</ele>
        <time>2011-02-06T10:19:12Z</time>
      </trkpt>
      <trkpt lat="43.93717" lon="5.20043">
        <ele>516.7</ele>
        <time>2011-02-06T10:19:13Z</time>
      </trkpt>
      <trkpt lat="43.93723" lon="5.20044">
        <ele>516.4</ele>
        <time>2011-02-06T10:19:14Z</time>
      </trkpt>
      <trkpt lat="43.93729" lon="5.20045">
        <ele>516.2</ele>
        <time>2011-02-06T10:19:15Z</time>
      </trkpt>
      <trkpt lat="43.93735" lon="5.20047">
        <ele>516</ele>
        <time>2011-02-06T10:19:16Z</time>
      </trkpt>
      <trkpt lat="43.93743" lon="5.20049">
        <ele>516.1</ele>
        <time>2011-02-06T10:19:17Z</time>
      </trkpt>
      <trkpt lat="43.9375" lon="5.20051">
        <ele>515.9</ele>
        <time>2011-02-06T10:19:18Z</time>
      </trkpt>
      <trkpt lat="43.93756" lon="5.20054">
        <ele>516.1</ele>
        <time>2011-02-06T10:19:19Z</time>
      </trkpt>
      <trkpt lat="43.93763" lon="5.20056">
        <ele>516.3</ele>
        <time>2011-02-06T10:19:20Z</time>
      </trkpt>
      <trkpt lat="43.9377" lon="5.20059">
        <ele>517</ele>
        <time>2011-02-06T10:19:21Z</time>
      </trkpt>
      <trkpt lat="43.93778" lon="5.20063">
        <ele>516.9</ele>
        <time>2011-02-06T10:19:22Z</time>
      </trkpt>
      <trkpt lat="43.93785" lon="5.20066">
        <ele>517</ele>
        <time>2011-02-06T10:19:23Z</time>
      </trkpt>
      <trkpt lat="43.93793" lon="5.20069">
        <ele>517.1</ele>
        <time>2011-02-06T10:19:24Z</time>
      </trkpt>
      <trkpt lat="43.938" lon="5.20072">
        <ele>517</ele>
        <time>2011-02-06T10:19:25Z</time>
      </trkpt>
      <trkpt lat="43.93807" lon="5.20074">
        <ele>517.3</ele>
        <time>2011-02-06T10:19:26Z</time>
      </trkpt>
      <trkpt lat="43.93814" lon="5.20076">
        <ele>517.7</ele>
        <time>2011-02-06T10:19:27Z</time>
      </trkpt>
      <trkpt lat="43.93821" lon="5.20078">
        <ele>518.3</ele>
        <time>2011-02-06T10:19:28Z</time>
      </trkpt>
      <trkpt lat="43.93828" lon="5.20079">
        <ele>518.5</ele>
        <time>2011-02-06T10:19:29Z</time>
      </trkpt>
      <trkpt lat="43.93835" lon="5.20079">
        <ele>518.9</ele>
        <time>2011-02-06T10:19:30Z</time>
      </trkpt>
      <trkpt lat="43.93841" lon="5.20079">
        <ele>519.4</ele>
        <time>2011-02-06T10:19:31Z</time>
      </trkpt>
      <trkpt lat="43.93846" lon="5.20078">
        <ele>519.5</ele>
        <time>2011-02-06T10:19:32Z</time>
      </trkpt>
      <trkpt lat="43.93852" lon="5.20079">
        <ele>519.5</ele>
        <time>2011-02-06T10:19:33Z</time>
      </trkpt>
      <trkpt lat="43.93858" lon="5.2008">
        <ele>519.8</ele>
        <time>2011-02-06T10:19:34Z</time>
      </trkpt>
      <trkpt lat="43.93864" lon="5.20082">
        <ele>519.3</ele>
        <time>2011-02-06T10:19:35Z</time>
      </trkpt>
      <trkpt lat="43.93869" lon="5.20083">
        <ele>519.3</ele>
        <time>2011-02-06T10:19:36Z</time>
      </trkpt>
      <trkpt lat="43.93875" lon="5.20085">
        <ele>519.4</ele>
        <time>2011-02-06T10:19:37Z</time>
      </trkpt>
      <trkpt lat="43.93883" lon="5.20089">
        <ele>519.2</ele>
        <time>2011-02-06T10:19:39Z</time>
      </trkpt>
      <trkpt lat="43.93875" lon="5.20089">
        <ele>519.2</ele>
        <time>2011-02-06T10:20:15Z</time>
      </trkpt>
      <trkpt lat="43.93866" lon="5.20086">
        <ele>519.2</ele>
        <time>2011-02-06T10:20:21Z</time>
      </trkpt>
      <trkpt lat="43.93858" lon="5.20083">
        <ele>520</ele>
        <time>2011-02-06T10:20:28Z</time>
      </trkpt>
      <trkpt lat="43.93866" lon="5.20084">
        <ele>520.1</ele>
        <time>2011-02-06T10:22:01Z</time>
      </trkpt>
      <trkpt lat="43.93868" lon="5.20084">
        <ele>520</ele>
        <time>2011-02-06T10:22:02Z</time>
      </trkpt>
      <trkpt lat="43.93882" lon="5.2009">
        <ele>519.1</ele>
        <time>2011-02-06T10:22:12Z</time>
      </trkpt>
      <trkpt lat="43.93888" lon="5.20099">
        <ele>519.7</ele>
        <time>2011-02-06T10:22:18Z</time>
      </trkpt>
      <trkpt lat="43.93887" lon="5.20109">
        <ele>519.7</ele>
        <time>2011-02-06T10:22:23Z</time>
      </trkpt>
      <trkpt lat="43.93887" lon="5.2012">
        <ele>520.6</ele>
        <time>2011-02-06T10:22:27Z</time>
      </trkpt>
      <trkpt lat="43.93889" lon="5.20132">
        <ele>521.5</ele>
        <time>2011-02-06T10:22:32Z</time>
      </trkpt>
      <trkpt lat="43.9389" lon="5.20143">
        <ele>521.8</ele>
        <time>2011-02-06T10:22:36Z</time>
      </trkpt>
      <trkpt lat="43.93892" lon="5.20155">
        <ele>521.6</ele>
        <time>2011-02-06T10:22:41Z</time>
      </trkpt>
      <trkpt lat="43.93895" lon="5.20164">
        <ele>522.6</ele>
        <time>2011-02-06T10:22:45Z</time>
      </trkpt>
      <trkpt lat="43.93899" lon="5.20173">
        <ele>522.2</ele>
        <time>2011-02-06T10:22:50Z</time>
      </trkpt>
      <trkpt lat="43.93902" lon="5.20183">
        <ele>521.3</ele>
        <time>2011-02-06T10:22:55Z</time>
      </trkpt>
      <trkpt lat="43.93908" lon="5.20191">
        <ele>521.3</ele>
        <time>2011-02-06T10:23:02Z</time>
      </trkpt>
      <trkpt lat="43.93909" lon="5.20192">
        <ele>521.7</ele>
        <time>2011-02-06T10:23:03Z</time>
      </trkpt>
      <trkpt lat="43.93921" lon="5.20204">
        <ele>523.1</ele>
        <time>2011-02-06T10:23:15Z</time>
      </trkpt>
      <trkpt lat="43.9393" lon="5.20204">
        <ele>523</ele>
        <time>2011-02-06T10:23:22Z</time>
      </trkpt>
      <trkpt lat="43.93938" lon="5.20204">
        <ele>524.7</ele>
        <time>2011-02-06T10:23:27Z</time>
      </trkpt>
      <trkpt lat="43.93945" lon="5.20204">
        <ele>525.2</ele>
        <time>2011-02-06T10:23:32Z</time>
      </trkpt>
      <trkpt lat="43.93953" lon="5.20207">
        <ele>526.1</ele>
        <time>2011-02-06T10:23:37Z</time>
      </trkpt>
      <trkpt lat="43.93961" lon="5.20209">
        <ele>526.9</ele>
        <time>2011-02-06T10:23:44Z</time>
      </trkpt>
      <trkpt lat="43.9397" lon="5.2021">
        <ele>526.9</ele>
        <time>2011-02-06T10:23:48Z</time>
      </trkpt>
      <trkpt lat="43.93976" lon="5.20216">
        <ele>526.2</ele>
        <time>2011-02-06T10:23:53Z</time>
      </trkpt>
      <trkpt lat="43.93982" lon="5.20225">
        <ele>527.2</ele>
        <time>2011-02-06T10:23:59Z</time>
      </trkpt>
      <trkpt lat="43.93991" lon="5.20223">
        <ele>527.4</ele>
        <time>2011-02-06T10:24:08Z</time>
      </trkpt>
      <trkpt lat="43.93992" lon="5.20222">
        <ele>527.4</ele>
        <time>2011-02-06T10:24:09Z</time>
      </trkpt>
      <trkpt lat="43.94" lon="5.20204">
        <ele>525.9</ele>
        <time>2011-02-06T10:24:22Z</time>
      </trkpt>
      <trkpt lat="43.94004" lon="5.20194">
        <ele>526.5</ele>
        <time>2011-02-06T10:24:31Z</time>
      </trkpt>
      <trkpt lat="43.94011" lon="5.20187">
        <ele>524.3</ele>
        <time>2011-02-06T10:24:37Z</time>
      </trkpt>
      <trkpt lat="43.94018" lon="5.2018">
        <ele>524</ele>
        <time>2011-02-06T10:24:44Z</time>
      </trkpt>
      <trkpt lat="43.94025" lon="5.20174">
        <ele>523.2</ele>
        <time>2011-02-06T10:24:52Z</time>
      </trkpt>
      <trkpt lat="43.94033" lon="5.20168">
        <ele>522.3</ele>
        <time>2011-02-06T10:25:00Z</time>
      </trkpt>
      <trkpt lat="43.94041" lon="5.20169">
        <ele>521.8</ele>
        <time>2011-02-06T10:25:06Z</time>
      </trkpt>
      <trkpt lat="43.94048" lon="5.20175">
        <ele>521</ele>
        <time>2011-02-06T10:25:12Z</time>
      </trkpt>
      <trkpt lat="43.9405" lon="5.20176">
        <ele>520.6</ele>
        <time>2011-02-06T10:25:13Z</time>
      </trkpt>
      <trkpt lat="43.94064" lon="5.2018">
        <ele>518.3</ele>
        <time>2011-02-06T10:25:24Z</time>
      </trkpt>
      <trkpt lat="43.94073" lon="5.20181">
        <ele>517.3</ele>
        <time>2011-02-06T10:25:30Z</time>
      </trkpt>
      <trkpt lat="43.94081" lon="5.20181">
        <ele>517.2</ele>
        <time>2011-02-06T10:25:36Z</time>
      </trkpt>
      <trkpt lat="43.94089" lon="5.20179">
        <ele>516.7</ele>
        <time>2011-02-06T10:25:42Z</time>
      </trkpt>
      <trkpt lat="43.94097" lon="5.20181">
        <ele>517.3</ele>
        <time>2011-02-06T10:25:47Z</time>
      </trkpt>
      <trkpt lat="43.94106" lon="5.20183">
        <ele>517.1</ele>
        <time>2011-02-06T10:25:52Z</time>
      </trkpt>
      <trkpt lat="43.94115" lon="5.20184">
        <ele>517.9</ele>
        <time>2011-02-06T10:25:58Z</time>
      </trkpt>
      <trkpt lat="43.94123" lon="5.20186">
        <ele>517.9</ele>
        <time>2011-02-06T10:26:04Z</time>
      </trkpt>
      <trkpt lat="43.9413" lon="5.20189">
        <ele>517.5</ele>
        <time>2011-02-06T10:26:11Z</time>
      </trkpt>
      <trkpt lat="43.94138" lon="5.20188">
        <ele>516.2</ele>
        <time>2011-02-06T10:26:17Z</time>
      </trkpt>
      <trkpt lat="43.9414" lon="5.20188">
        <ele>516.3</ele>
        <time>2011-02-06T10:26:18Z</time>
      </trkpt>
      <trkpt lat="43.94154" lon="5.20186">
        <ele>514.2</ele>
        <time>2011-02-06T10:26:29Z</time>
      </trkpt>
      <trkpt lat="43.94162" lon="5.20192">
        <ele>512.3</ele>
        <time>2011-02-06T10:26:36Z</time>
      </trkpt>
      <trkpt lat="43.9417" lon="5.20192">
        <ele>510.3</ele>
        <time>2011-02-06T10:26:42Z</time>
      </trkpt>
      <trkpt lat="43.94178" lon="5.2019">
        <ele>508.2</ele>
        <time>2011-02-06T10:26:48Z</time>
      </trkpt>
      <trkpt lat="43.94186" lon="5.20192">
        <ele>507</ele>
        <time>2011-02-06T10:26:54Z</time>
      </trkpt>
      <trkpt lat="43.94194" lon="5.20192">
        <ele>505.7</ele>
        <time>2011-02-06T10:26:59Z</time>
      </trkpt>
      <trkpt lat="43.94202" lon="5.20191">
        <ele>505.5</ele>
        <time>2011-02-06T10:27:08Z</time>
      </trkpt>
      <trkpt lat="43.94211" lon="5.20193">
        <ele>504.8</ele>
        <time>2011-02-06T10:27:18Z</time>
      </trkpt>
      <trkpt lat="43.94212" lon="5.20193">
        <ele>504.9</ele>
        <time>2011-02-06T10:27:19Z</time>
      </trkpt>
      <trkpt lat="43.94228" lon="5.20194">
        <ele>500.8</ele>
        <time>2011-02-06T10:27:36Z</time>
      </trkpt>
      <trkpt lat="43.94236" lon="5.20192">
        <ele>500.4</ele>
        <time>2011-02-06T10:27:41Z</time>
      </trkpt>
      <trkpt lat="43.94245" lon="5.20187">
        <ele>499.4</ele>
        <time>2011-02-06T10:27:48Z</time>
      </trkpt>
      <trkpt lat="43.94253" lon="5.20183">
        <ele>496.8</ele>
        <time>2011-02-06T10:27:57Z</time>
      </trkpt>
      <trkpt lat="43.94258" lon="5.20173">
        <ele>496.3</ele>
        <time>2011-02-06T10:28:06Z</time>
      </trkpt>
      <trkpt lat="43.94265" lon="5.20165">
        <ele>494.3</ele>
        <time>2011-02-06T10:28:14Z</time>
      </trkpt>
      <trkpt lat="43.94273" lon="5.20164">
        <ele>492.9</ele>
        <time>2011-02-06T10:28:20Z</time>
      </trkpt>
      <trkpt lat="43.94274" lon="5.20163">
        <ele>492.8</ele>
        <time>2011-02-06T10:28:21Z</time>
      </trkpt>
      <trkpt lat="43.94284" lon="5.20149">
        <ele>491</ele>
        <time>2011-02-06T10:28:33Z</time>
      </trkpt>
      <trkpt lat="43.94293" lon="5.20147">
        <ele>489.6</ele>
        <time>2011-02-06T10:28:40Z</time>
      </trkpt>
      <trkpt lat="43.94301" lon="5.20144">
        <ele>490.2</ele>
        <time>2011-02-06T10:28:47Z</time>
      </trkpt>
      <trkpt lat="43.94309" lon="5.20142">
        <ele>488.7</ele>
        <time>2011-02-06T10:28:55Z</time>
      </trkpt>
      <trkpt lat="43.94317" lon="5.20139">
        <ele>487.5</ele>
        <time>2011-02-06T10:29:02Z</time>
      </trkpt>
      <trkpt lat="43.94325" lon="5.20137">
        <ele>487</ele>
        <time>2011-02-06T10:29:08Z</time>
      </trkpt>
      <trkpt lat="43.94333" lon="5.2014">
        <ele>485.7</ele>
        <time>2011-02-06T10:29:17Z</time>
      </trkpt>
      <trkpt lat="43.94341" lon="5.20145">
        <ele>483</ele>
        <time>2011-02-06T10:29:24Z</time>
      </trkpt>
      <trkpt lat="43.94342" lon="5.20146">
        <ele>482.7</ele>
        <time>2011-02-06T10:29:25Z</time>
      </trkpt>
      <trkpt lat="43.94357" lon="5.20151">
        <ele>481.8</ele>
        <time>2011-02-06T10:29:39Z</time>
      </trkpt>
      <trkpt lat="43.94364" lon="5.20157">
        <ele>480.1</ele>
        <time>2011-02-06T10:29:44Z</time>
      </trkpt>
      <trkpt lat="43.94371" lon="5.20162">
        <ele>479.3</ele>
        <time>2011-02-06T10:29:49Z</time>
      </trkpt>
      <trkpt lat="43.94379" lon="5.20166">
        <ele>478.2</ele>
        <time>2011-02-06T10:29:56Z</time>
      </trkpt>
      <trkpt lat="43.94387" lon="5.20162">
        <ele>476.5</ele>
        <time>2011-02-06T10:30:05Z</time>
      </trkpt>
      <trkpt lat="43.94394" lon="5.20157">
        <ele>476.5</ele>
        <time>2011-02-06T10:30:10Z</time>
      </trkpt>
      <trkpt lat="43.94399" lon="5.20149">
        <ele>475.3</ele>
        <time>2011-02-06T10:30:16Z</time>
      </trkpt>
      <trkpt lat="43.94397" lon="5.20137">
        <ele>474.9</ele>
        <time>2011-02-06T10:30:22Z</time>
      </trkpt>
      <trkpt lat="43.94394" lon="5.20127">
        <ele>475</ele>
        <time>2011-02-06T10:30:27Z</time>
      </trkpt>
      <trkpt lat="43.94394" lon="5.20125">
        <ele>475.1</ele>
        <time>2011-02-06T10:30:28Z</time>
      </trkpt>
      <trkpt lat="43.94392" lon="5.20104">
        <ele>473.2</ele>
        <time>2011-02-06T10:30:37Z</time>
      </trkpt>
      <trkpt lat="43.94389" lon="5.20093">
        <ele>472.9</ele>
        <time>2011-02-06T10:30:42Z</time>
      </trkpt>
      <trkpt lat="43.94385" lon="5.20084">
        <ele>471.9</ele>
        <time>2011-02-06T10:30:48Z</time>
      </trkpt>
      <trkpt lat="43.94381" lon="5.20076">
        <ele>471.1</ele>
        <time>2011-02-06T10:30:52Z</time>
      </trkpt>
      <trkpt lat="43.94377" lon="5.20066">
        <ele>471</ele>
        <time>2011-02-06T10:30:57Z</time>
      </trkpt>
      <trkpt lat="43.9437" lon="5.20058">
        <ele>471.5</ele>
        <time>2011-02-06T10:31:04Z</time>
      </trkpt>
      <trkpt lat="43.94366" lon="5.20049">
        <ele>471.4</ele>
        <time>2011-02-06T10:31:09Z</time>
      </trkpt>
      <trkpt lat="43.94361" lon="5.2004">
        <ele>472.8</ele>
        <time>2011-02-06T10:31:15Z</time>
      </trkpt>
      <trkpt lat="43.94357" lon="5.20031">
        <ele>472.5</ele>
        <time>2011-02-06T10:31:20Z</time>
      </trkpt>
      <trkpt lat="43.94354" lon="5.2002">
        <ele>474.1</ele>
        <time>2011-02-06T10:31:26Z</time>
      </trkpt>
      <trkpt lat="43.94356" lon="5.20008">
        <ele>474.4</ele>
        <time>2011-02-06T10:31:32Z</time>
      </trkpt>
      <trkpt lat="43.94356" lon="5.20006">
        <ele>474.7</ele>
        <time>2011-02-06T10:31:33Z</time>
      </trkpt>
      <trkpt lat="43.94359" lon="5.19985">
        <ele>476.8</ele>
        <time>2011-02-06T10:31:40Z</time>
      </trkpt>
      <trkpt lat="43.9436" lon="5.19973">
        <ele>477.3</ele>
        <time>2011-02-06T10:31:45Z</time>
      </trkpt>
      <trkpt lat="43.94362" lon="5.19962">
        <ele>478.1</ele>
        <time>2011-02-06T10:31:51Z</time>
      </trkpt>
      <trkpt lat="43.94362" lon="5.19951">
        <ele>479.9</ele>
        <time>2011-02-06T10:31:55Z</time>
      </trkpt>
      <trkpt lat="43.94362" lon="5.19941">
        <ele>481</ele>
        <time>2011-02-06T10:31:58Z</time>
      </trkpt>
      <trkpt lat="43.94363" lon="5.19932">
        <ele>481.4</ele>
        <time>2011-02-06T10:32:01Z</time>
      </trkpt>
      <trkpt lat="43.94362" lon="5.19922">
        <ele>482.3</ele>
        <time>2011-02-06T10:32:04Z</time>
      </trkpt>
      <trkpt lat="43.94363" lon="5.19911">
        <ele>484.2</ele>
        <time>2011-02-06T10:32:09Z</time>
      </trkpt>
      <trkpt lat="43.94366" lon="5.19899">
        <ele>485</ele>
        <time>2011-02-06T10:32:16Z</time>
      </trkpt>
      <trkpt lat="43.94369" lon="5.1989">
        <ele>487.1</ele>
        <time>2011-02-06T10:32:19Z</time>
      </trkpt>
      <trkpt lat="43.94365" lon="5.19879">
        <ele>489.1</ele>
        <time>2011-02-06T10:32:24Z</time>
      </trkpt>
      <trkpt lat="43.94361" lon="5.19868">
        <ele>490.7</ele>
        <time>2011-02-06T10:32:31Z</time>
      </trkpt>
      <trkpt lat="43.94362" lon="5.19856">
        <ele>493.1</ele>
        <time>2011-02-06T10:32:39Z</time>
      </trkpt>
      <trkpt lat="43.94361" lon="5.19855">
        <ele>493.5</ele>
        <time>2011-02-06T10:32:40Z</time>
      </trkpt>
      <trkpt lat="43.94353" lon="5.19839">
        <ele>495.7</ele>
        <time>2011-02-06T10:32:53Z</time>
      </trkpt>
      <trkpt lat="43.9435" lon="5.19829">
        <ele>496.9</ele>
        <time>2011-02-06T10:32:56Z</time>
      </trkpt>
      <trkpt lat="43.94345" lon="5.19819">
        <ele>498.4</ele>
        <time>2011-02-06T10:32:59Z</time>
      </trkpt>
      <trkpt lat="43.94339" lon="5.19813">
        <ele>498.6</ele>
        <time>2011-02-06T10:33:03Z</time>
      </trkpt>
      <trkpt lat="43.94336" lon="5.19801">
        <ele>499.3</ele>
        <time>2011-02-06T10:33:08Z</time>
      </trkpt>
      <trkpt lat="43.94334" lon="5.1979">
        <ele>500.2</ele>
        <time>2011-02-06T10:33:12Z</time>
      </trkpt>
      <trkpt lat="43.94333" lon="5.19779">
        <ele>501</ele>
        <time>2011-02-06T10:33:18Z</time>
      </trkpt>
      <trkpt lat="43.94332" lon="5.19766">
        <ele>502.2</ele>
        <time>2011-02-06T10:33:26Z</time>
      </trkpt>
      <trkpt lat="43.94334" lon="5.19755">
        <ele>503.9</ele>
        <time>2011-02-06T10:33:35Z</time>
      </trkpt>
      <trkpt lat="43.9434" lon="5.19748">
        <ele>505.3</ele>
        <time>2011-02-06T10:33:42Z</time>
      </trkpt>
      <trkpt lat="43.94341" lon="5.19747">
        <ele>505.2</ele>
        <time>2011-02-06T10:33:43Z</time>
      </trkpt>
      <trkpt lat="43.94356" lon="5.19738">
        <ele>504.3</ele>
        <time>2011-02-06T10:34:07Z</time>
      </trkpt>
      <trkpt lat="43.9436" lon="5.19728">
        <ele>504.6</ele>
        <time>2011-02-06T10:34:12Z</time>
      </trkpt>
      <trkpt lat="43.94363" lon="5.19718">
        <ele>504.4</ele>
        <time>2011-02-06T10:34:16Z</time>
      </trkpt>
      <trkpt lat="43.94368" lon="5.1971">
        <ele>504.7</ele>
        <time>2011-02-06T10:34:20Z</time>
      </trkpt>
      <trkpt lat="43.94373" lon="5.19703">
        <ele>504.9</ele>
        <time>2011-02-06T10:34:24Z</time>
      </trkpt>
      <trkpt lat="43.9438" lon="5.19696">
        <ele>503.4</ele>
        <time>2011-02-06T10:34:29Z</time>
      </trkpt>
      <trkpt lat="43.94389" lon="5.19697">
        <ele>504.4</ele>
        <time>2011-02-06T10:34:36Z</time>
      </trkpt>
      <trkpt lat="43.94397" lon="5.19692">
        <ele>503.3</ele>
        <time>2011-02-06T10:34:46Z</time>
      </trkpt>
      <trkpt lat="43.94397" lon="5.19692">
        <ele>503.1</ele>
        <time>2011-02-06T10:34:47Z</time>
      </trkpt>
      <trkpt lat="43.94412" lon="5.19684">
        <ele>502.7</ele>
        <time>2011-02-06T10:35:01Z</time>
      </trkpt>
      <trkpt lat="43.9442" lon="5.19682">
        <ele>502.8</ele>
        <time>2011-02-06T10:35:07Z</time>
      </trkpt>
      <trkpt lat="43.94429" lon="5.19681">
        <ele>502.5</ele>
        <time>2011-02-06T10:35:17Z</time>
      </trkpt>
      <trkpt lat="43.94438" lon="5.19681">
        <ele>501.1</ele>
        <time>2011-02-06T10:35:29Z</time>
      </trkpt>
      <trkpt lat="43.94437" lon="5.1967">
        <ele>500</ele>
        <time>2011-02-06T10:35:37Z</time>
      </trkpt>
      <trkpt lat="43.94428" lon="5.19668">
        <ele>498.8</ele>
        <time>2011-02-06T10:35:47Z</time>
      </trkpt>
      <trkpt lat="43.94427" lon="5.19668">
        <ele>498.6</ele>
        <time>2011-02-06T10:35:48Z</time>
      </trkpt>
      <trkpt lat="43.94421" lon="5.19648">
        <ele>495.8</ele>
        <time>2011-02-06T10:36:01Z</time>
      </trkpt>
      <trkpt lat="43.94419" lon="5.19637">
        <ele>495.5</ele>
        <time>2011-02-06T10:36:05Z</time>
      </trkpt>
      <trkpt lat="43.94413" lon="5.19628">
        <ele>493.2</ele>
        <time>2011-02-06T10:36:13Z</time>
      </trkpt>
      <trkpt lat="43.94407" lon="5.1962">
        <ele>492.5</ele>
        <time>2011-02-06T10:36:20Z</time>
      </trkpt>
      <trkpt lat="43.94412" lon="5.19611">
        <ele>491.3</ele>
        <time>2011-02-06T10:36:29Z</time>
      </trkpt>
      <trkpt lat="43.94416" lon="5.19601">
        <ele>490</ele>
        <time>2011-02-06T10:36:35Z</time>
      </trkpt>
      <trkpt lat="43.94413" lon="5.1959">
        <ele>488.8</ele>
        <time>2011-02-06T10:36:40Z</time>
      </trkpt>
      <trkpt lat="43.9441" lon="5.19579">
        <ele>487.7</ele>
        <time>2011-02-06T10:36:45Z</time>
      </trkpt>
      <trkpt lat="43.94409" lon="5.19567">
        <ele>487</ele>
        <time>2011-02-06T10:36:50Z</time>
      </trkpt>
      <trkpt lat="43.94408" lon="5.19564">
        <ele>486.8</ele>
        <time>2011-02-06T10:36:51Z</time>
      </trkpt>
      <trkpt lat="43.94403" lon="5.19545">
        <ele>486.3</ele>
        <time>2011-02-06T10:37:01Z</time>
      </trkpt>
      <trkpt lat="43.94401" lon="5.19534">
        <ele>485.2</ele>
        <time>2011-02-06T10:37:08Z</time>
      </trkpt>
      <trkpt lat="43.94397" lon="5.19523">
        <ele>485.1</ele>
        <time>2011-02-06T10:37:13Z</time>
      </trkpt>
      <trkpt lat="43.94393" lon="5.19513">
        <ele>484.5</ele>
        <time>2011-02-06T10:37:27Z</time>
      </trkpt>
      <trkpt lat="43.94386" lon="5.19507">
        <ele>484.9</ele>
        <time>2011-02-06T10:37:35Z</time>
      </trkpt>
      <trkpt lat="43.9438" lon="5.19498">
        <ele>483.9</ele>
        <time>2011-02-06T10:37:46Z</time>
      </trkpt>
      <trkpt lat="43.94373" lon="5.1949">
        <ele>481.8</ele>
        <time>2011-02-06T10:38:01Z</time>
      </trkpt>
      <trkpt lat="43.94373" lon="5.1949">
        <ele>481.9</ele>
        <time>2011-02-06T10:38:02Z</time>
      </trkpt>
      <trkpt lat="43.94357" lon="5.19495">
        <ele>480.4</ele>
        <time>2011-02-06T10:38:26Z</time>
      </trkpt>
      <trkpt lat="43.94349" lon="5.19493">
        <ele>480.8</ele>
        <time>2011-02-06T10:38:33Z</time>
      </trkpt>
      <trkpt lat="43.9434" lon="5.19491">
        <ele>479.8</ele>
        <time>2011-02-06T10:38:43Z</time>
      </trkpt>
      <trkpt lat="43.94333" lon="5.19488">
        <ele>478.9</ele>
        <time>2011-02-06T10:38:49Z</time>
      </trkpt>
      <trkpt lat="43.94325" lon="5.19484">
        <ele>477.8</ele>
        <time>2011-02-06T10:38:55Z</time>
      </trkpt>
      <trkpt lat="43.94317" lon="5.19484">
        <ele>478.7</ele>
        <time>2011-02-06T10:39:01Z</time>
      </trkpt>
      <trkpt lat="43.94309" lon="5.19482">
        <ele>477.7</ele>
        <time>2011-02-06T10:39:06Z</time>
      </trkpt>
      <trkpt lat="43.94307" lon="5.19481">
        <ele>477.8</ele>
        <time>2011-02-06T10:39:07Z</time>
      </trkpt>
      <trkpt lat="43.94294" lon="5.19477">
        <ele>476.6</ele>
        <time>2011-02-06T10:39:18Z</time>
      </trkpt>
      <trkpt lat="43.94285" lon="5.1948">
        <ele>474.1</ele>
        <time>2011-02-06T10:39:24Z</time>
      </trkpt>
      <trkpt lat="43.94278" lon="5.19476">
        <ele>473.3</ele>
        <time>2011-02-06T10:39:29Z</time>
      </trkpt>
      <trkpt lat="43.94273" lon="5.19468">
        <ele>473.7</ele>
        <time>2011-02-06T10:39:33Z</time>
      </trkpt>
      <trkpt lat="43.94267" lon="5.19459">
        <ele>473.2</ele>
        <time>2011-02-06T10:39:38Z</time>
      </trkpt>
      <trkpt lat="43.94262" lon="5.1945">
        <ele>471.7</ele>
        <time>2011-02-06T10:39:43Z</time>
      </trkpt>
      <trkpt lat="43.94257" lon="5.1944">
        <ele>471.7</ele>
        <time>2011-02-06T10:39:48Z</time>
      </trkpt>
      <trkpt lat="43.94251" lon="5.19433">
        <ele>470.6</ele>
        <time>2011-02-06T10:39:52Z</time>
      </trkpt>
      <trkpt lat="43.94244" lon="5.19428">
        <ele>471</ele>
        <time>2011-02-06T10:39:58Z</time>
      </trkpt>
      <trkpt lat="43.94236" lon="5.19428">
        <ele>470.6</ele>
        <time>2011-02-06T10:40:03Z</time>
      </trkpt>
      <trkpt lat="43.94228" lon="5.19426">
        <ele>469.3</ele>
        <time>2011-02-06T10:40:09Z</time>
      </trkpt>
      <trkpt lat="43.94227" lon="5.19425">
        <ele>469</ele>
        <time>2011-02-06T10:40:10Z</time>
      </trkpt>
      <trkpt lat="43.94213" lon="5.19427">
        <ele>467.9</ele>
        <time>2011-02-06T10:40:19Z</time>
      </trkpt>
      <trkpt lat="43.94204" lon="5.19425">
        <ele>467.6</ele>
        <time>2011-02-06T10:40:25Z</time>
      </trkpt>
      <trkpt lat="43.94197" lon="5.19423">
        <ele>467.2</ele>
        <time>2011-02-06T10:40:30Z</time>
      </trkpt>
      <trkpt lat="43.9419" lon="5.19426">
        <ele>466.3</ele>
        <time>2011-02-06T10:40:36Z</time>
      </trkpt>
      <trkpt lat="43.94182" lon="5.19429">
        <ele>463.7</ele>
        <time>2011-02-06T10:40:41Z</time>
      </trkpt>
      <trkpt lat="43.94174" lon="5.19432">
        <ele>463.9</ele>
        <time>2011-02-06T10:40:47Z</time>
      </trkpt>
      <trkpt lat="43.94167" lon="5.19429">
        <ele>463.2</ele>
        <time>2011-02-06T10:40:51Z</time>
      </trkpt>
      <trkpt lat="43.9416" lon="5.19425">
        <ele>462.8</ele>
        <time>2011-02-06T10:40:55Z</time>
      </trkpt>
      <trkpt lat="43.94153" lon="5.19422">
        <ele>462.8</ele>
        <time>2011-02-06T10:40:59Z</time>
      </trkpt>
      <trkpt lat="43.94144" lon="5.19426">
        <ele>462.1</ele>
        <time>2011-02-06T10:41:04Z</time>
      </trkpt>
      <trkpt lat="43.94136" lon="5.1943">
        <ele>462.5</ele>
        <time>2011-02-06T10:41:09Z</time>
      </trkpt>
      <trkpt lat="43.94128" lon="5.19432">
        <ele>461.6</ele>
        <time>2011-02-06T10:41:15Z</time>
      </trkpt>
      <trkpt lat="43.94126" lon="5.19433">
        <ele>461.3</ele>
        <time>2011-02-06T10:41:16Z</time>
      </trkpt>
      <trkpt lat="43.94112" lon="5.19428">
        <ele>461.4</ele>
        <time>2011-02-06T10:41:26Z</time>
      </trkpt>
      <trkpt lat="43.94104" lon="5.19424">
        <ele>459.7</ele>
        <time>2011-02-06T10:41:35Z</time>
      </trkpt>
      <trkpt lat="43.94097" lon="5.19417">
        <ele>460.5</ele>
        <time>2011-02-06T10:41:40Z</time>
      </trkpt>
      <trkpt lat="43.9409" lon="5.19411">
        <ele>460.1</ele>
        <time>2011-02-06T10:41:44Z</time>
      </trkpt>
      <trkpt lat="43.94084" lon="5.19404">
        <ele>459.6</ele>
        <time>2011-02-06T10:41:48Z</time>
      </trkpt>
      <trkpt lat="43.94077" lon="5.19398">
        <ele>459.5</ele>
        <time>2011-02-06T10:41:52Z</time>
      </trkpt>
      <trkpt lat="43.9407" lon="5.19394">
        <ele>459.5</ele>
        <time>2011-02-06T10:41:57Z</time>
      </trkpt>
      <trkpt lat="43.94062" lon="5.1939">
        <ele>458.4</ele>
        <time>2011-02-06T10:42:01Z</time>
      </trkpt>
      <trkpt lat="43.94056" lon="5.19388">
        <ele>458.5</ele>
        <time>2011-02-06T10:42:03Z</time>
      </trkpt>
      <trkpt lat="43.94049" lon="5.19385">
        <ele>458</ele>
        <time>2011-02-06T10:42:05Z</time>
      </trkpt>
      <trkpt lat="43.94042" lon="5.19382">
        <ele>458.9</ele>
        <time>2011-02-06T10:42:07Z</time>
      </trkpt>
      <trkpt lat="43.94034" lon="5.1938">
        <ele>458.2</ele>
        <time>2011-02-06T10:42:10Z</time>
      </trkpt>
      <trkpt lat="43.94027" lon="5.19376">
        <ele>456.6</ele>
        <time>2011-02-06T10:42:14Z</time>
      </trkpt>
      <trkpt lat="43.94021" lon="5.19372">
        <ele>456.6</ele>
        <time>2011-02-06T10:42:17Z</time>
      </trkpt>
      <trkpt lat="43.94018" lon="5.19371">
        <ele>456.8</ele>
        <time>2011-02-06T10:42:18Z</time>
      </trkpt>
      <trkpt lat="43.94004" lon="5.19365">
        <ele>456.1</ele>
        <time>2011-02-06T10:42:24Z</time>
      </trkpt>
      <trkpt lat="43.93998" lon="5.19361">
        <ele>455.5</ele>
        <time>2011-02-06T10:42:26Z</time>
      </trkpt>
      <trkpt lat="43.93992" lon="5.19358">
        <ele>454.9</ele>
        <time>2011-02-06T10:42:28Z</time>
      </trkpt>
      <trkpt lat="43.93984" lon="5.19355">
        <ele>454.6</ele>
        <time>2011-02-06T10:42:31Z</time>
      </trkpt>
      <trkpt lat="43.93977" lon="5.19351">
        <ele>454.4</ele>
        <time>2011-02-06T10:42:33Z</time>
      </trkpt>
      <trkpt lat="43.93971" lon="5.19347">
        <ele>453.9</ele>
        <time>2011-02-06T10:42:35Z</time>
      </trkpt>
      <trkpt lat="43.93965" lon="5.19342">
        <ele>453.1</ele>
        <time>2011-02-06T10:42:37Z</time>
      </trkpt>
      <trkpt lat="43.93957" lon="5.19336">
        <ele>452.9</ele>
        <time>2011-02-06T10:42:40Z</time>
      </trkpt>
      <trkpt lat="43.93951" lon="5.19331">
        <ele>452.3</ele>
        <time>2011-02-06T10:42:42Z</time>
      </trkpt>
      <trkpt lat="43.93945" lon="5.19325">
        <ele>451.6</ele>
        <time>2011-02-06T10:42:44Z</time>
      </trkpt>
      <trkpt lat="43.93939" lon="5.19317">
        <ele>451</ele>
        <time>2011-02-06T10:42:46Z</time>
      </trkpt>
      <trkpt lat="43.93934" lon="5.19311">
        <ele>450.4</ele>
        <time>2011-02-06T10:42:48Z</time>
      </trkpt>
      <trkpt lat="43.93928" lon="5.19303">
        <ele>450.1</ele>
        <time>2011-02-06T10:42:50Z</time>
      </trkpt>
      <trkpt lat="43.93921" lon="5.19296">
        <ele>449.9</ele>
        <time>2011-02-06T10:42:53Z</time>
      </trkpt>
      <trkpt lat="43.93918" lon="5.19286">
        <ele>448.8</ele>
        <time>2011-02-06T10:42:59Z</time>
      </trkpt>
      <trkpt lat="43.93913" lon="5.19276">
        <ele>447.9</ele>
        <time>2011-02-06T10:43:06Z</time>
      </trkpt>
      <trkpt lat="43.93909" lon="5.19266">
        <ele>447.2</ele>
        <time>2011-02-06T10:43:11Z</time>
      </trkpt>
      <trkpt lat="43.93905" lon="5.19255">
        <ele>446.9</ele>
        <time>2011-02-06T10:43:16Z</time>
      </trkpt>
      <trkpt lat="43.93903" lon="5.19247">
        <ele>446.9</ele>
        <time>2011-02-06T10:43:18Z</time>
      </trkpt>
      <trkpt lat="43.93901" lon="5.19243">
        <ele>447.1</ele>
        <time>2011-02-06T10:43:19Z</time>
      </trkpt>
      <trkpt lat="43.93897" lon="5.19229">
        <ele>448.8</ele>
        <time>2011-02-06T10:43:24Z</time>
      </trkpt>
      <trkpt lat="43.93894" lon="5.19218">
        <ele>449.6</ele>
        <time>2011-02-06T10:43:29Z</time>
      </trkpt>
      <trkpt lat="43.93893" lon="5.19206">
        <ele>450.7</ele>
        <time>2011-02-06T10:43:34Z</time>
      </trkpt>
      <trkpt lat="43.93892" lon="5.19196">
        <ele>451.1</ele>
        <time>2011-02-06T10:43:40Z</time>
      </trkpt>
      <trkpt lat="43.9389" lon="5.19184">
        <ele>450.6</ele>
        <time>2011-02-06T10:43:45Z</time>
      </trkpt>
      <trkpt lat="43.93887" lon="5.19176">
        <ele>450.2</ele>
        <time>2011-02-06T10:43:49Z</time>
      </trkpt>
      <trkpt lat="43.93882" lon="5.19166">
        <ele>450.3</ele>
        <time>2011-02-06T10:43:53Z</time>
      </trkpt>
      <trkpt lat="43.9388" lon="5.19154">
        <ele>449.3</ele>
        <time>2011-02-06T10:43:58Z</time>
      </trkpt>
      <trkpt lat="43.93875" lon="5.19145">
        <ele>448.9</ele>
        <time>2011-02-06T10:44:04Z</time>
      </trkpt>
      <trkpt lat="43.93869" lon="5.19138">
        <ele>448.9</ele>
        <time>2011-02-06T10:44:09Z</time>
      </trkpt>
      <trkpt lat="43.93862" lon="5.1913">
        <ele>447.4</ele>
        <time>2011-02-06T10:44:16Z</time>
      </trkpt>
      <trkpt lat="43.93856" lon="5.19123">
        <ele>447</ele>
        <time>2011-02-06T10:44:22Z</time>
      </trkpt>
      <trkpt lat="43.93855" lon="5.19122">
        <ele>446.9</ele>
        <time>2011-02-06T10:44:23Z</time>
      </trkpt>
      <trkpt lat="43.93843" lon="5.19108">
        <ele>444.3</ele>
        <time>2011-02-06T10:44:36Z</time>
      </trkpt>
      <trkpt lat="43.93837" lon="5.191">
        <ele>442.9</ele>
        <time>2011-02-06T10:44:44Z</time>
      </trkpt>
      <trkpt lat="43.93829" lon="5.19096">
        <ele>442.2</ele>
        <time>2011-02-06T10:44:50Z</time>
      </trkpt>
      <trkpt lat="43.9382" lon="5.19095">
        <ele>440.6</ele>
        <time>2011-02-06T10:44:57Z</time>
      </trkpt>
      <trkpt lat="43.93812" lon="5.19093">
        <ele>439.6</ele>
        <time>2011-02-06T10:45:03Z</time>
      </trkpt>
      <trkpt lat="43.93803" lon="5.19094">
        <ele>439.1</ele>
        <time>2011-02-06T10:45:09Z</time>
      </trkpt>
      <trkpt lat="43.93796" lon="5.19094">
        <ele>438.6</ele>
        <time>2011-02-06T10:45:13Z</time>
      </trkpt>
      <trkpt lat="43.93787" lon="5.19093">
        <ele>438</ele>
        <time>2011-02-06T10:45:18Z</time>
      </trkpt>
      <trkpt lat="43.93779" lon="5.19092">
        <ele>436.4</ele>
        <time>2011-02-06T10:45:23Z</time>
      </trkpt>
      <trkpt lat="43.93778" lon="5.19091">
        <ele>435.9</ele>
        <time>2011-02-06T10:45:24Z</time>
      </trkpt>
      <trkpt lat="43.93765" lon="5.19087">
        <ele>434.8</ele>
        <time>2011-02-06T10:45:33Z</time>
      </trkpt>
      <trkpt lat="43.93757" lon="5.19082">
        <ele>434.2</ele>
        <time>2011-02-06T10:45:38Z</time>
      </trkpt>
      <trkpt lat="43.9375" lon="5.19081">
        <ele>433.9</ele>
        <time>2011-02-06T10:45:42Z</time>
      </trkpt>
      <trkpt lat="43.93741" lon="5.19081">
        <ele>433.7</ele>
        <time>2011-02-06T10:45:46Z</time>
      </trkpt>
      <trkpt lat="43.93733" lon="5.19079">
        <ele>433.7</ele>
        <time>2011-02-06T10:45:50Z</time>
      </trkpt>
      <trkpt lat="43.93724" lon="5.19077">
        <ele>433.2</ele>
        <time>2011-02-06T10:45:56Z</time>
      </trkpt>
      <trkpt lat="43.93717" lon="5.1907">
        <ele>432.8</ele>
        <time>2011-02-06T10:46:01Z</time>
      </trkpt>
      <trkpt lat="43.9371" lon="5.19064">
        <ele>431.9</ele>
        <time>2011-02-06T10:46:05Z</time>
      </trkpt>
      <trkpt lat="43.93703" lon="5.19057">
        <ele>431.4</ele>
        <time>2011-02-06T10:46:10Z</time>
      </trkpt>
      <trkpt lat="43.93696" lon="5.1905">
        <ele>431.5</ele>
        <time>2011-02-06T10:46:15Z</time>
      </trkpt>
      <trkpt lat="43.93689" lon="5.19042">
        <ele>430.2</ele>
        <time>2011-02-06T10:46:20Z</time>
      </trkpt>
      <trkpt lat="43.93683" lon="5.19035">
        <ele>429.6</ele>
        <time>2011-02-06T10:46:25Z</time>
      </trkpt>
      <trkpt lat="43.93682" lon="5.19033">
        <ele>429.7</ele>
        <time>2011-02-06T10:46:26Z</time>
      </trkpt>
      <trkpt lat="43.9367" lon="5.19021">
        <ele>429</ele>
        <time>2011-02-06T10:46:35Z</time>
      </trkpt>
      <trkpt lat="43.93663" lon="5.19015">
        <ele>428.4</ele>
        <time>2011-02-06T10:46:40Z</time>
      </trkpt>
      <trkpt lat="43.93656" lon="5.1901">
        <ele>428.4</ele>
        <time>2011-02-06T10:46:45Z</time>
      </trkpt>
      <trkpt lat="43.93651" lon="5.19003">
        <ele>427.5</ele>
        <time>2011-02-06T10:46:50Z</time>
      </trkpt>
      <trkpt lat="43.93644" lon="5.18995">
        <ele>426.7</ele>
        <time>2011-02-06T10:46:56Z</time>
      </trkpt>
      <trkpt lat="43.93637" lon="5.18989">
        <ele>425.4</ele>
        <time>2011-02-06T10:47:01Z</time>
      </trkpt>
      <trkpt lat="43.93629" lon="5.18983">
        <ele>423.9</ele>
        <time>2011-02-06T10:47:06Z</time>
      </trkpt>
      <trkpt lat="43.93622" lon="5.18978">
        <ele>423.3</ele>
        <time>2011-02-06T10:47:11Z</time>
      </trkpt>
      <trkpt lat="43.93615" lon="5.18972">
        <ele>422.6</ele>
        <time>2011-02-06T10:47:20Z</time>
      </trkpt>
      <trkpt lat="43.93609" lon="5.18966">
        <ele>421.6</ele>
        <time>2011-02-06T10:47:32Z</time>
      </trkpt>
      <trkpt lat="43.93607" lon="5.18964">
        <ele>421.5</ele>
        <time>2011-02-06T10:47:33Z</time>
      </trkpt>
      <trkpt lat="43.93598" lon="5.1895">
        <ele>419.8</ele>
        <time>2011-02-06T10:47:43Z</time>
      </trkpt>
      <trkpt lat="43.93593" lon="5.18939">
        <ele>419.3</ele>
        <time>2011-02-06T10:47:49Z</time>
      </trkpt>
      <trkpt lat="43.93588" lon="5.18929">
        <ele>418</ele>
        <time>2011-02-06T10:47:54Z</time>
      </trkpt>
      <trkpt lat="43.93584" lon="5.1892">
        <ele>417.3</ele>
        <time>2011-02-06T10:48:01Z</time>
      </trkpt>
      <trkpt lat="43.93582" lon="5.18908">
        <ele>415.9</ele>
        <time>2011-02-06T10:48:11Z</time>
      </trkpt>
      <trkpt lat="43.93579" lon="5.18897">
        <ele>413.6</ele>
        <time>2011-02-06T10:48:18Z</time>
      </trkpt>
      <trkpt lat="43.93581" lon="5.18885">
        <ele>412.6</ele>
        <time>2011-02-06T10:48:23Z</time>
      </trkpt>
      <trkpt lat="43.93578" lon="5.18873">
        <ele>411.4</ele>
        <time>2011-02-06T10:48:28Z</time>
      </trkpt>
      <trkpt lat="43.93573" lon="5.18867">
        <ele>410.9</ele>
        <time>2011-02-06T10:48:33Z</time>
      </trkpt>
      <trkpt lat="43.93571" lon="5.18866">
        <ele>410.6</ele>
        <time>2011-02-06T10:48:34Z</time>
      </trkpt>
      <trkpt lat="43.93555" lon="5.18866">
        <ele>408.1</ele>
        <time>2011-02-06T10:48:46Z</time>
      </trkpt>
      <trkpt lat="43.93547" lon="5.18867">
        <ele>406.5</ele>
        <time>2011-02-06T10:48:52Z</time>
      </trkpt>
      <trkpt lat="43.93538" lon="5.18871">
        <ele>405.6</ele>
        <time>2011-02-06T10:48:59Z</time>
      </trkpt>
      <trkpt lat="43.93531" lon="5.18876">
        <ele>404.3</ele>
        <time>2011-02-06T10:49:05Z</time>
      </trkpt>
      <trkpt lat="43.93524" lon="5.18882">
        <ele>404</ele>
        <time>2011-02-06T10:49:11Z</time>
      </trkpt>
      <trkpt lat="43.93516" lon="5.18887">
        <ele>403.4</ele>
        <time>2011-02-06T10:49:18Z</time>
      </trkpt>
      <trkpt lat="43.93509" lon="5.18892">
        <ele>403</ele>
        <time>2011-02-06T10:49:25Z</time>
      </trkpt>
      <trkpt lat="43.93501" lon="5.18892">
        <ele>401.5</ele>
        <time>2011-02-06T10:49:34Z</time>
      </trkpt>
      <trkpt lat="43.935" lon="5.18892">
        <ele>401.2</ele>
        <time>2011-02-06T10:49:35Z</time>
      </trkpt>
      <trkpt lat="43.93485" lon="5.18895">
        <ele>398.3</ele>
        <time>2011-02-06T10:49:51Z</time>
      </trkpt>
      <trkpt lat="43.93477" lon="5.18892">
        <ele>397.3</ele>
        <time>2011-02-06T10:49:57Z</time>
      </trkpt>
      <trkpt lat="43.9347" lon="5.18888">
        <ele>395.9</ele>
        <time>2011-02-06T10:50:03Z</time>
      </trkpt>
      <trkpt lat="43.93462" lon="5.18887">
        <ele>394.3</ele>
        <time>2011-02-06T10:50:09Z</time>
      </trkpt>
      <trkpt lat="43.93453" lon="5.18885">
        <ele>393.3</ele>
        <time>2011-02-06T10:50:14Z</time>
      </trkpt>
      <trkpt lat="43.93445" lon="5.18884">
        <ele>393.1</ele>
        <time>2011-02-06T10:50:19Z</time>
      </trkpt>
      <trkpt lat="43.93436" lon="5.18882">
        <ele>393.1</ele>
        <time>2011-02-06T10:50:25Z</time>
      </trkpt>
      <trkpt lat="43.93427" lon="5.1888">
        <ele>393</ele>
        <time>2011-02-06T10:50:30Z</time>
      </trkpt>
      <trkpt lat="43.93419" lon="5.18879">
        <ele>392.9</ele>
        <time>2011-02-06T10:50:35Z</time>
      </trkpt>
      <trkpt lat="43.93418" lon="5.18878">
        <ele>393.1</ele>
        <time>2011-02-06T10:50:36Z</time>
      </trkpt>
      <trkpt lat="43.93404" lon="5.18875">
        <ele>392.4</ele>
        <time>2011-02-06T10:50:45Z</time>
      </trkpt>
      <trkpt lat="43.93396" lon="5.18873">
        <ele>392</ele>
        <time>2011-02-06T10:50:51Z</time>
      </trkpt>
      <trkpt lat="43.93387" lon="5.18874">
        <ele>391.1</ele>
        <time>2011-02-06T10:50:56Z</time>
      </trkpt>
      <trkpt lat="43.93379" lon="5.18874">
        <ele>390.1</ele>
        <time>2011-02-06T10:51:00Z</time>
      </trkpt>
      <trkpt lat="43.93371" lon="5.18874">
        <ele>389.7</ele>
        <time>2011-02-06T10:51:04Z</time>
      </trkpt>
      <trkpt lat="43.93363" lon="5.18876">
        <ele>389</ele>
        <time>2011-02-06T10:51:08Z</time>
      </trkpt>
      <trkpt lat="43.93355" lon="5.18876">
        <ele>388.4</ele>
        <time>2011-02-06T10:51:13Z</time>
      </trkpt>
      <trkpt lat="43.93348" lon="5.18877">
        <ele>387.8</ele>
        <time>2011-02-06T10:51:16Z</time>
      </trkpt>
      <trkpt lat="43.93341" lon="5.18878">
        <ele>387.1</ele>
        <time>2011-02-06T10:51:20Z</time>
      </trkpt>
      <trkpt lat="43.93333" lon="5.18883">
        <ele>386.3</ele>
        <time>2011-02-06T10:51:25Z</time>
      </trkpt>
      <trkpt lat="43.93326" lon="5.18888">
        <ele>384.8</ele>
        <time>2011-02-06T10:51:30Z</time>
      </trkpt>
      <trkpt lat="43.93319" lon="5.18891">
        <ele>384.4</ele>
        <time>2011-02-06T10:51:34Z</time>
      </trkpt>
      <trkpt lat="43.93311" lon="5.18894">
        <ele>383</ele>
        <time>2011-02-06T10:51:39Z</time>
      </trkpt>
      <trkpt lat="43.93309" lon="5.18895">
        <ele>382.7</ele>
        <time>2011-02-06T10:51:40Z</time>
      </trkpt>
      <trkpt lat="43.93295" lon="5.18898">
        <ele>381.3</ele>
        <time>2011-02-06T10:51:48Z</time>
      </trkpt>
      <trkpt lat="43.93287" lon="5.18903">
        <ele>380.6</ele>
        <time>2011-02-06T10:51:53Z</time>
      </trkpt>
      <trkpt lat="43.9328" lon="5.18905">
        <ele>379.9</ele>
        <time>2011-02-06T10:51:58Z</time>
      </trkpt>
      <trkpt lat="43.93273" lon="5.1891">
        <ele>379</ele>
        <time>2011-02-06T10:52:03Z</time>
      </trkpt>
      <trkpt lat="43.93266" lon="5.18911">
        <ele>378.4</ele>
        <time>2011-02-06T10:52:06Z</time>
      </trkpt>
      <trkpt lat="43.93257" lon="5.18911">
        <ele>377.9</ele>
        <time>2011-02-06T10:52:10Z</time>
      </trkpt>
      <trkpt lat="43.9325" lon="5.18915">
        <ele>377</ele>
        <time>2011-02-06T10:52:14Z</time>
      </trkpt>
      <trkpt lat="43.93243" lon="5.18918">
        <ele>376.7</ele>
        <time>2011-02-06T10:52:18Z</time>
      </trkpt>
      <trkpt lat="43.93234" lon="5.1892">
        <ele>377.2</ele>
        <time>2011-02-06T10:52:22Z</time>
      </trkpt>
      <trkpt lat="43.93226" lon="5.1892">
        <ele>377.7</ele>
        <time>2011-02-06T10:52:26Z</time>
      </trkpt>
      <trkpt lat="43.93219" lon="5.18916">
        <ele>378.3</ele>
        <time>2011-02-06T10:52:30Z</time>
      </trkpt>
      <trkpt lat="43.93211" lon="5.18914">
        <ele>379.2</ele>
        <time>2011-02-06T10:52:36Z</time>
      </trkpt>
      <trkpt lat="43.93203" lon="5.18915">
        <ele>379.4</ele>
        <time>2011-02-06T10:52:41Z</time>
      </trkpt>
      <trkpt lat="43.93201" lon="5.18915">
        <ele>379.5</ele>
        <time>2011-02-06T10:52:42Z</time>
      </trkpt>
      <trkpt lat="43.93186" lon="5.18915">
        <ele>378.9</ele>
        <time>2011-02-06T10:52:51Z</time>
      </trkpt>
      <trkpt lat="43.93177" lon="5.18913">
        <ele>378.9</ele>
        <time>2011-02-06T10:52:57Z</time>
      </trkpt>
      <trkpt lat="43.93169" lon="5.18912">
        <ele>378.8</ele>
        <time>2011-02-06T10:53:02Z</time>
      </trkpt>
      <trkpt lat="43.93163" lon="5.1891">
        <ele>378.8</ele>
        <time>2011-02-06T10:53:05Z</time>
      </trkpt>
      <trkpt lat="43.93157" lon="5.18909">
        <ele>378.7</ele>
        <time>2011-02-06T10:53:07Z</time>
      </trkpt>
      <trkpt lat="43.9315" lon="5.18906">
        <ele>378.2</ele>
        <time>2011-02-06T10:53:10Z</time>
      </trkpt>
      <trkpt lat="43.93143" lon="5.18904">
        <ele>378.1</ele>
        <time>2011-02-06T10:53:14Z</time>
      </trkpt>
      <trkpt lat="43.93135" lon="5.189">
        <ele>378.2</ele>
        <time>2011-02-06T10:53:19Z</time>
      </trkpt>
      <trkpt lat="43.93131" lon="5.18911">
        <ele>378.5</ele>
        <time>2011-02-06T10:53:58Z</time>
      </trkpt>
      <trkpt lat="43.93131" lon="5.18912">
        <ele>378.4</ele>
        <time>2011-02-06T10:53:59Z</time>
      </trkpt>
      <trkpt lat="43.93115" lon="5.18914">
        <ele>378.4</ele>
        <time>2011-02-06T10:54:13Z</time>
      </trkpt>
      <trkpt lat="43.93107" lon="5.18914">
        <ele>377.6</ele>
        <time>2011-02-06T10:54:24Z</time>
      </trkpt>
      <trkpt lat="43.93098" lon="5.18917">
        <ele>377.6</ele>
        <time>2011-02-06T10:54:32Z</time>
      </trkpt>
      <trkpt lat="43.93091" lon="5.18918">
        <ele>377.8</ele>
        <time>2011-02-06T10:54:37Z</time>
      </trkpt>
      <trkpt lat="43.93094" lon="5.18929">
        <ele>378.9</ele>
        <time>2011-02-06T10:54:56Z</time>
      </trkpt>
      <trkpt lat="43.931" lon="5.18937">
        <ele>380.9</ele>
        <time>2011-02-06T10:55:09Z</time>
      </trkpt>
      <trkpt lat="43.931" lon="5.18938">
        <ele>381.1</ele>
        <time>2011-02-06T10:55:10Z</time>
      </trkpt>
      <trkpt lat="43.93106" lon="5.18947">
        <ele>384.8</ele>
        <time>2011-02-06T10:56:13Z</time>
      </trkpt>
      <trkpt lat="43.9311" lon="5.18968">
        <ele>387.5</ele>
        <time>2011-02-06T10:56:28Z</time>
      </trkpt>
      <trkpt lat="43.93101" lon="5.18967">
        <ele>389.2</ele>
        <time>2011-02-06T10:57:23Z</time>
      </trkpt>
      <trkpt lat="43.93101" lon="5.18968">
        <ele>389.2</ele>
        <time>2011-02-06T10:57:24Z</time>
      </trkpt>
      <trkpt lat="43.93112" lon="5.18973">
        <ele>389.1</ele>
        <time>2011-02-06T10:58:33Z</time>
      </trkpt>
      <trkpt lat="43.93112" lon="5.18972">
        <ele>389.2</ele>
        <time>2011-02-06T10:58:34Z</time>
      </trkpt>
      <trkpt lat="43.93107" lon="5.18962">
        <ele>389.4</ele>
        <time>2011-02-06T11:01:42Z</time>
      </trkpt>
      <trkpt lat="43.93112" lon="5.18974">
        <ele>389.8</ele>
        <time>2011-02-06T11:03:15Z</time>
      </trkpt>
      <trkpt lat="43.93112" lon="5.18974">
        <ele>389.8</ele>
        <time>2011-02-06T11:03:15Z</time>
      </trkpt>
      <trkpt lat="43.93097" lon="5.18901">
        <ele>387.8</ele>
        <time>2011-02-06T13:22:00Z</time>
      </trkpt>
      <trkpt lat="43.93097" lon="5.18901">
        <ele>388</ele>
        <time>2011-02-06T13:22:01Z</time>
      </trkpt>
      <trkpt lat="43.93087" lon="5.18899">
        <ele>388.9</ele>
        <time>2011-02-06T13:23:30Z</time>
      </trkpt>
      <trkpt lat="43.93088" lon="5.18909">
        <ele>388.6</ele>
        <time>2011-02-06T13:24:15Z</time>
      </trkpt>
      <trkpt lat="43.93095" lon="5.18902">
        <ele>388.7</ele>
        <time>2011-02-06T13:24:36Z</time>
      </trkpt>
      <trkpt lat="43.93096" lon="5.18902">
        <ele>388.7</ele>
        <time>2011-02-06T13:24:37Z</time>
      </trkpt>
      <trkpt lat="43.93111" lon="5.18903">
        <ele>389.2</ele>
        <time>2011-02-06T13:24:46Z</time>
      </trkpt>
      <trkpt lat="43.93119" lon="5.18904">
        <ele>389.1</ele>
        <time>2011-02-06T13:24:52Z</time>
      </trkpt>
      <trkpt lat="43.93126" lon="5.18902">
        <ele>389.3</ele>
        <time>2011-02-06T13:24:56Z</time>
      </trkpt>
      <trkpt lat="43.93135" lon="5.18903">
        <ele>389.7</ele>
        <time>2011-02-06T13:25:02Z</time>
      </trkpt>
      <trkpt lat="43.93143" lon="5.18904">
        <ele>390</ele>
        <time>2011-02-06T13:25:08Z</time>
      </trkpt>
      <trkpt lat="43.93152" lon="5.18904">
        <ele>390.4</ele>
        <time>2011-02-06T13:25:14Z</time>
      </trkpt>
      <trkpt lat="43.93161" lon="5.18906">
        <ele>390.7</ele>
        <time>2011-02-06T13:25:19Z</time>
      </trkpt>
      <trkpt lat="43.93169" lon="5.18909">
        <ele>391.1</ele>
        <time>2011-02-06T13:25:26Z</time>
      </trkpt>
      <trkpt lat="43.93178" lon="5.1891">
        <ele>390.6</ele>
        <time>2011-02-06T13:25:32Z</time>
      </trkpt>
      <trkpt lat="43.93186" lon="5.1891">
        <ele>391</ele>
        <time>2011-02-06T13:25:37Z</time>
      </trkpt>
      <trkpt lat="43.93188" lon="5.1891">
        <ele>391.1</ele>
        <time>2011-02-06T13:25:38Z</time>
      </trkpt>
      <trkpt lat="43.93201" lon="5.18916">
        <ele>391.8</ele>
        <time>2011-02-06T13:25:44Z</time>
      </trkpt>
      <trkpt lat="43.93208" lon="5.18917">
        <ele>391.7</ele>
        <time>2011-02-06T13:25:49Z</time>
      </trkpt>
      <trkpt lat="43.93216" lon="5.18912">
        <ele>391.6</ele>
        <time>2011-02-06T13:25:55Z</time>
      </trkpt>
      <trkpt lat="43.93225" lon="5.18914">
        <ele>391.1</ele>
        <time>2011-02-06T13:26:04Z</time>
      </trkpt>
      <trkpt lat="43.93233" lon="5.18914">
        <ele>390.5</ele>
        <time>2011-02-06T13:26:11Z</time>
      </trkpt>
      <trkpt lat="43.93241" lon="5.18915">
        <ele>389.9</ele>
        <time>2011-02-06T13:26:17Z</time>
      </trkpt>
      <trkpt lat="43.9325" lon="5.18911">
        <ele>389.7</ele>
        <time>2011-02-06T13:26:23Z</time>
      </trkpt>
      <trkpt lat="43.93258" lon="5.18909">
        <ele>389.6</ele>
        <time>2011-02-06T13:26:27Z</time>
      </trkpt>
      <trkpt lat="43.93267" lon="5.18907">
        <ele>390</ele>
        <time>2011-02-06T13:26:34Z</time>
      </trkpt>
      <trkpt lat="43.93275" lon="5.18906">
        <ele>391</ele>
        <time>2011-02-06T13:26:40Z</time>
      </trkpt>
      <trkpt lat="43.93277" lon="5.18905">
        <ele>391.3</ele>
        <time>2011-02-06T13:26:41Z</time>
      </trkpt>
      <trkpt lat="43.93291" lon="5.18903">
        <ele>393</ele>
        <time>2011-02-06T13:26:52Z</time>
      </trkpt>
      <trkpt lat="43.933" lon="5.189">
        <ele>394</ele>
        <time>2011-02-06T13:26:57Z</time>
      </trkpt>
      <trkpt lat="43.93307" lon="5.18894">
        <ele>394</ele>
        <time>2011-02-06T13:27:03Z</time>
      </trkpt>
      <trkpt lat="43.93315" lon="5.18889">
        <ele>393.8</ele>
        <time>2011-02-06T13:27:10Z</time>
      </trkpt>
      <trkpt lat="43.93323" lon="5.18885">
        <ele>394.2</ele>
        <time>2011-02-06T13:27:15Z</time>
      </trkpt>
      <trkpt lat="43.9333" lon="5.1888">
        <ele>394.8</ele>
        <time>2011-02-06T13:27:20Z</time>
      </trkpt>
      <trkpt lat="43.93339" lon="5.18877">
        <ele>395.8</ele>
        <time>2011-02-06T13:27:25Z</time>
      </trkpt>
      <trkpt lat="43.93347" lon="5.18875">
        <ele>396.4</ele>
        <time>2011-02-06T13:27:30Z</time>
      </trkpt>
      <trkpt lat="43.93356" lon="5.18875">
        <ele>396.8</ele>
        <time>2011-02-06T13:27:36Z</time>
      </trkpt>
      <trkpt lat="43.93364" lon="5.18879">
        <ele>397.7</ele>
        <time>2011-02-06T13:27:43Z</time>
      </trkpt>
      <trkpt lat="43.93365" lon="5.18879">
        <ele>397.8</ele>
        <time>2011-02-06T13:27:44Z</time>
      </trkpt>
      <trkpt lat="43.9338" lon="5.18879">
        <ele>399.3</ele>
        <time>2011-02-06T13:27:53Z</time>
      </trkpt>
      <trkpt lat="43.93387" lon="5.18879">
        <ele>400.1</ele>
        <time>2011-02-06T13:27:58Z</time>
      </trkpt>
      <trkpt lat="43.93395" lon="5.18875">
        <ele>400.5</ele>
        <time>2011-02-06T13:28:02Z</time>
      </trkpt>
      <trkpt lat="43.93399" lon="5.18865">
        <ele>401.4</ele>
        <time>2011-02-06T13:28:07Z</time>
      </trkpt>
      <trkpt lat="43.93395" lon="5.18855">
        <ele>402.3</ele>
        <time>2011-02-06T13:28:12Z</time>
      </trkpt>
      <trkpt lat="43.93388" lon="5.18849">
        <ele>402</ele>
        <time>2011-02-06T13:28:16Z</time>
      </trkpt>
      <trkpt lat="43.93381" lon="5.18843">
        <ele>402.5</ele>
        <time>2011-02-06T13:28:21Z</time>
      </trkpt>
      <trkpt lat="43.93373" lon="5.18839">
        <ele>402.6</ele>
        <time>2011-02-06T13:28:26Z</time>
      </trkpt>
      <trkpt lat="43.93367" lon="5.18833">
        <ele>402.6</ele>
        <time>2011-02-06T13:28:31Z</time>
      </trkpt>
      <trkpt lat="43.93361" lon="5.18828">
        <ele>402.6</ele>
        <time>2011-02-06T13:28:36Z</time>
      </trkpt>
      <trkpt lat="43.93357" lon="5.18819">
        <ele>402.4</ele>
        <time>2011-02-06T13:28:42Z</time>
      </trkpt>
      <trkpt lat="43.9335" lon="5.18812">
        <ele>403.2</ele>
        <time>2011-02-06T13:28:48Z</time>
      </trkpt>
      <trkpt lat="43.93349" lon="5.18811">
        <ele>403.2</ele>
        <time>2011-02-06T13:28:49Z</time>
      </trkpt>
      <trkpt lat="43.93337" lon="5.18797">
        <ele>404</ele>
        <time>2011-02-06T13:29:01Z</time>
      </trkpt>
      <trkpt lat="43.93331" lon="5.18789">
        <ele>403.6</ele>
        <time>2011-02-06T13:29:11Z</time>
      </trkpt>
      <trkpt lat="43.93326" lon="5.18779">
        <ele>405.9</ele>
        <time>2011-02-06T13:29:19Z</time>
      </trkpt>
      <trkpt lat="43.93325" lon="5.18767">
        <ele>407.5</ele>
        <time>2011-02-06T13:29:24Z</time>
      </trkpt>
      <trkpt lat="43.93333" lon="5.18762">
        <ele>410.5</ele>
        <time>2011-02-06T13:29:38Z</time>
      </trkpt>
      <trkpt lat="43.93341" lon="5.18762">
        <ele>414.1</ele>
        <time>2011-02-06T13:29:52Z</time>
      </trkpt>
      <trkpt lat="43.93342" lon="5.18762">
        <ele>414</ele>
        <time>2011-02-06T13:29:53Z</time>
      </trkpt>
      <trkpt lat="43.93356" lon="5.1876">
        <ele>414.3</ele>
        <time>2011-02-06T13:30:02Z</time>
      </trkpt>
      <trkpt lat="43.93365" lon="5.1876">
        <ele>414.5</ele>
        <time>2011-02-06T13:30:07Z</time>
      </trkpt>
      <trkpt lat="43.93369" lon="5.1877">
        <ele>415.5</ele>
        <time>2011-02-06T13:30:16Z</time>
      </trkpt>
      <trkpt lat="43.93376" lon="5.18778">
        <ele>417.9</ele>
        <time>2011-02-06T13:30:24Z</time>
      </trkpt>
      <trkpt lat="43.93384" lon="5.18778">
        <ele>419.4</ele>
        <time>2011-02-06T13:30:30Z</time>
      </trkpt>
      <trkpt lat="43.93385" lon="5.18766">
        <ele>422.4</ele>
        <time>2011-02-06T13:30:44Z</time>
      </trkpt>
      <trkpt lat="43.9338" lon="5.18758">
        <ele>423</ele>
        <time>2011-02-06T13:30:48Z</time>
      </trkpt>
      <trkpt lat="43.93377" lon="5.18746">
        <ele>422.4</ele>
        <time>2011-02-06T13:30:53Z</time>
      </trkpt>
      <trkpt lat="43.93377" lon="5.18744">
        <ele>422.5</ele>
        <time>2011-02-06T13:30:54Z</time>
      </trkpt>
      <trkpt lat="43.93373" lon="5.18724">
        <ele>425.6</ele>
        <time>2011-02-06T13:31:06Z</time>
      </trkpt>
      <trkpt lat="43.93369" lon="5.18714">
        <ele>427.3</ele>
        <time>2011-02-06T13:31:11Z</time>
      </trkpt>
      <trkpt lat="43.93363" lon="5.18706">
        <ele>428.9</ele>
        <time>2011-02-06T13:31:15Z</time>
      </trkpt>
      <trkpt lat="43.93356" lon="5.18698">
        <ele>429.9</ele>
        <time>2011-02-06T13:31:19Z</time>
      </trkpt>
      <trkpt lat="43.9335" lon="5.18689">
        <ele>430.6</ele>
        <time>2011-02-06T13:31:24Z</time>
      </trkpt>
      <trkpt lat="43.93343" lon="5.18682">
        <ele>430.9</ele>
        <time>2011-02-06T13:31:29Z</time>
      </trkpt>
      <trkpt lat="43.93337" lon="5.18673">
        <ele>431.6</ele>
        <time>2011-02-06T13:31:35Z</time>
      </trkpt>
      <trkpt lat="43.93331" lon="5.18667">
        <ele>431.5</ele>
        <time>2011-02-06T13:31:40Z</time>
      </trkpt>
      <trkpt lat="43.93323" lon="5.18661">
        <ele>431.3</ele>
        <time>2011-02-06T13:31:46Z</time>
      </trkpt>
      <trkpt lat="43.93315" lon="5.18659">
        <ele>431.2</ele>
        <time>2011-02-06T13:31:53Z</time>
      </trkpt>
      <trkpt lat="43.93307" lon="5.18653">
        <ele>430.7</ele>
        <time>2011-02-06T13:31:59Z</time>
      </trkpt>
      <trkpt lat="43.93306" lon="5.18652">
        <ele>430.7</ele>
        <time>2011-02-06T13:32:00Z</time>
      </trkpt>
      <trkpt lat="43.93293" lon="5.18643">
        <ele>430.5</ele>
        <time>2011-02-06T13:32:09Z</time>
      </trkpt>
      <trkpt lat="43.93286" lon="5.18635">
        <ele>430.9</ele>
        <time>2011-02-06T13:32:15Z</time>
      </trkpt>
      <trkpt lat="43.93281" lon="5.18627">
        <ele>431.7</ele>
        <time>2011-02-06T13:32:21Z</time>
      </trkpt>
      <trkpt lat="43.93276" lon="5.18617">
        <ele>432.6</ele>
        <time>2011-02-06T13:32:26Z</time>
      </trkpt>
      <trkpt lat="43.9327" lon="5.1861">
        <ele>433.7</ele>
        <time>2011-02-06T13:32:30Z</time>
      </trkpt>
      <trkpt lat="43.93263" lon="5.18605">
        <ele>434.2</ele>
        <time>2011-02-06T13:32:35Z</time>
      </trkpt>
      <trkpt lat="43.93254" lon="5.18603">
        <ele>434</ele>
        <time>2011-02-06T13:32:41Z</time>
      </trkpt>
      <trkpt lat="43.93247" lon="5.186">
        <ele>433.9</ele>
        <time>2011-02-06T13:32:45Z</time>
      </trkpt>
      <trkpt lat="43.93239" lon="5.18596">
        <ele>433.2</ele>
        <time>2011-02-06T13:32:50Z</time>
      </trkpt>
      <trkpt lat="43.93232" lon="5.1859">
        <ele>433</ele>
        <time>2011-02-06T13:32:58Z</time>
      </trkpt>
      <trkpt lat="43.93227" lon="5.1858">
        <ele>433.1</ele>
        <time>2011-02-06T13:33:03Z</time>
      </trkpt>
      <trkpt lat="43.93226" lon="5.18578">
        <ele>433.1</ele>
        <time>2011-02-06T13:33:04Z</time>
      </trkpt>
      <trkpt lat="43.9322" lon="5.18559">
        <ele>433.8</ele>
        <time>2011-02-06T13:33:13Z</time>
      </trkpt>
      <trkpt lat="43.93218" lon="5.18548">
        <ele>434.1</ele>
        <time>2011-02-06T13:33:18Z</time>
      </trkpt>
      <trkpt lat="43.93217" lon="5.18538">
        <ele>434.9</ele>
        <time>2011-02-06T13:33:23Z</time>
      </trkpt>
      <trkpt lat="43.93219" lon="5.18526">
        <ele>436.1</ele>
        <time>2011-02-06T13:33:28Z</time>
      </trkpt>
      <trkpt lat="43.93219" lon="5.18514">
        <ele>436.7</ele>
        <time>2011-02-06T13:33:33Z</time>
      </trkpt>
      <trkpt lat="43.93218" lon="5.18502">
        <ele>437.1</ele>
        <time>2011-02-06T13:33:39Z</time>
      </trkpt>
      <trkpt lat="43.93215" lon="5.18492">
        <ele>438.3</ele>
        <time>2011-02-06T13:33:45Z</time>
      </trkpt>
      <trkpt lat="43.93208" lon="5.18486">
        <ele>438.6</ele>
        <time>2011-02-06T13:33:50Z</time>
      </trkpt>
      <trkpt lat="43.93201" lon="5.18482">
        <ele>439</ele>
        <time>2011-02-06T13:33:55Z</time>
      </trkpt>
      <trkpt lat="43.93194" lon="5.18477">
        <ele>439.5</ele>
        <time>2011-02-06T13:34:00Z</time>
      </trkpt>
      <trkpt lat="43.93187" lon="5.1847">
        <ele>440.2</ele>
        <time>2011-02-06T13:34:06Z</time>
      </trkpt>
      <trkpt lat="43.93186" lon="5.18468">
        <ele>440.5</ele>
        <time>2011-02-06T13:34:07Z</time>
      </trkpt>
      <trkpt lat="43.93175" lon="5.18455">
        <ele>440.7</ele>
        <time>2011-02-06T13:34:17Z</time>
      </trkpt>
      <trkpt lat="43.93169" lon="5.18447">
        <ele>441.5</ele>
        <time>2011-02-06T13:34:21Z</time>
      </trkpt>
      <trkpt lat="43.93163" lon="5.18439">
        <ele>441.7</ele>
        <time>2011-02-06T13:34:25Z</time>
      </trkpt>
      <trkpt lat="43.93156" lon="5.18433">
        <ele>440.8</ele>
        <time>2011-02-06T13:34:36Z</time>
      </trkpt>
      <trkpt lat="43.9315" lon="5.18426">
        <ele>439.6</ele>
        <time>2011-02-06T13:35:01Z</time>
      </trkpt>
      <trkpt lat="43.93142" lon="5.1843">
        <ele>439.4</ele>
        <time>2011-02-06T13:35:09Z</time>
      </trkpt>
      <trkpt lat="43.9314" lon="5.18431">
        <ele>439</ele>
        <time>2011-02-06T13:35:10Z</time>
      </trkpt>
      <trkpt lat="43.93126" lon="5.18425">
        <ele>441.6</ele>
        <time>2011-02-06T13:35:32Z</time>
      </trkpt>
      <trkpt lat="43.9312" lon="5.18416">
        <ele>443.5</ele>
        <time>2011-02-06T13:35:37Z</time>
      </trkpt>
      <trkpt lat="43.93122" lon="5.18404">
        <ele>445.1</ele>
        <time>2011-02-06T13:35:44Z</time>
      </trkpt>
      <trkpt lat="43.93121" lon="5.18392">
        <ele>447.7</ele>
        <time>2011-02-06T13:35:51Z</time>
      </trkpt>
      <trkpt lat="43.93117" lon="5.18383">
        <ele>449.4</ele>
        <time>2011-02-06T13:35:56Z</time>
      </trkpt>
      <trkpt lat="43.93113" lon="5.18374">
        <ele>450.6</ele>
        <time>2011-02-06T13:36:00Z</time>
      </trkpt>
      <trkpt lat="43.93108" lon="5.18366">
        <ele>451.5</ele>
        <time>2011-02-06T13:36:06Z</time>
      </trkpt>
      <trkpt lat="43.93104" lon="5.18357">
        <ele>452.7</ele>
        <time>2011-02-06T13:36:11Z</time>
      </trkpt>
      <trkpt lat="43.93103" lon="5.18355">
        <ele>452.8</ele>
        <time>2011-02-06T13:36:12Z</time>
      </trkpt>
      <trkpt lat="43.93094" lon="5.18339">
        <ele>456.8</ele>
        <time>2011-02-06T13:36:22Z</time>
      </trkpt>
      <trkpt lat="43.93092" lon="5.18328">
        <ele>459</ele>
        <time>2011-02-06T13:36:26Z</time>
      </trkpt>
      <trkpt lat="43.93085" lon="5.18322">
        <ele>460.8</ele>
        <time>2011-02-06T13:36:33Z</time>
      </trkpt>
      <trkpt lat="43.93078" lon="5.18315">
        <ele>461.7</ele>
        <time>2011-02-06T13:36:39Z</time>
      </trkpt>
      <trkpt lat="43.93071" lon="5.18309">
        <ele>462.9</ele>
        <time>2011-02-06T13:36:46Z</time>
      </trkpt>
      <trkpt lat="43.93064" lon="5.18302">
        <ele>464.3</ele>
        <time>2011-02-06T13:37:04Z</time>
      </trkpt>
      <trkpt lat="43.9306" lon="5.18292">
        <ele>466.4</ele>
        <time>2011-02-06T13:39:59Z</time>
      </trkpt>
      <trkpt lat="43.93059" lon="5.18292">
        <ele>466.5</ele>
        <time>2011-02-06T13:40:00Z</time>
      </trkpt>
      <trkpt lat="43.93047" lon="5.18277">
        <ele>468.7</ele>
        <time>2011-02-06T13:40:14Z</time>
      </trkpt>
      <trkpt lat="43.93039" lon="5.18274">
        <ele>469.8</ele>
        <time>2011-02-06T13:40:21Z</time>
      </trkpt>
      <trkpt lat="43.93031" lon="5.18269">
        <ele>471.5</ele>
        <time>2011-02-06T13:40:29Z</time>
      </trkpt>
      <trkpt lat="43.93026" lon="5.18262">
        <ele>473</ele>
        <time>2011-02-06T13:40:36Z</time>
      </trkpt>
      <trkpt lat="43.93019" lon="5.18256">
        <ele>474.5</ele>
        <time>2011-02-06T13:40:42Z</time>
      </trkpt>
      <trkpt lat="43.93013" lon="5.18247">
        <ele>475.8</ele>
        <time>2011-02-06T13:40:49Z</time>
      </trkpt>
      <trkpt lat="43.93005" lon="5.18241">
        <ele>476.3</ele>
        <time>2011-02-06T13:41:10Z</time>
      </trkpt>
      <trkpt lat="43.93005" lon="5.18241">
        <ele>476.3</ele>
        <time>2011-02-06T13:41:11Z</time>
      </trkpt>
      <trkpt lat="43.9299" lon="5.1823">
        <ele>478.1</ele>
        <time>2011-02-06T13:41:56Z</time>
      </trkpt>
      <trkpt lat="43.92985" lon="5.18221">
        <ele>479.1</ele>
        <time>2011-02-06T13:42:02Z</time>
      </trkpt>
      <trkpt lat="43.92992" lon="5.18217">
        <ele>481.3</ele>
        <time>2011-02-06T13:42:15Z</time>
      </trkpt>
      <trkpt lat="43.92993" lon="5.18217">
        <ele>481.5</ele>
        <time>2011-02-06T13:42:16Z</time>
      </trkpt>
      <trkpt lat="43.93009" lon="5.18219">
        <ele>483.1</ele>
        <time>2011-02-06T13:42:28Z</time>
      </trkpt>
      <trkpt lat="43.93018" lon="5.1822">
        <ele>484.8</ele>
        <time>2011-02-06T13:42:35Z</time>
      </trkpt>
      <trkpt lat="43.93026" lon="5.18217">
        <ele>486.2</ele>
        <time>2011-02-06T13:42:44Z</time>
      </trkpt>
      <trkpt lat="43.93034" lon="5.18214">
        <ele>488.4</ele>
        <time>2011-02-06T13:42:50Z</time>
      </trkpt>
      <trkpt lat="43.93042" lon="5.18212">
        <ele>490.7</ele>
        <time>2011-02-06T13:42:57Z</time>
      </trkpt>
      <trkpt lat="43.9305" lon="5.18213">
        <ele>492</ele>
        <time>2011-02-06T13:43:04Z</time>
      </trkpt>
      <trkpt lat="43.93059" lon="5.18212">
        <ele>493.5</ele>
        <time>2011-02-06T13:43:13Z</time>
      </trkpt>
      <trkpt lat="43.93067" lon="5.18213">
        <ele>495</ele>
        <time>2011-02-06T13:43:20Z</time>
      </trkpt>
      <trkpt lat="43.93068" lon="5.18212">
        <ele>495.2</ele>
        <time>2011-02-06T13:43:21Z</time>
      </trkpt>
      <trkpt lat="43.93084" lon="5.18214">
        <ele>496.4</ele>
        <time>2011-02-06T13:43:34Z</time>
      </trkpt>
      <trkpt lat="43.93092" lon="5.18217">
        <ele>496.8</ele>
        <time>2011-02-06T13:43:41Z</time>
      </trkpt>
      <trkpt lat="43.93101" lon="5.1822">
        <ele>497.9</ele>
        <time>2011-02-06T13:43:48Z</time>
      </trkpt>
      <trkpt lat="43.93109" lon="5.1822">
        <ele>498.9</ele>
        <time>2011-02-06T13:43:55Z</time>
      </trkpt>
      <trkpt lat="43.93117" lon="5.18221">
        <ele>499.5</ele>
        <time>2011-02-06T13:44:01Z</time>
      </trkpt>
      <trkpt lat="43.93125" lon="5.18223">
        <ele>500.7</ele>
        <time>2011-02-06T13:44:07Z</time>
      </trkpt>
      <trkpt lat="43.93132" lon="5.18226">
        <ele>501</ele>
        <time>2011-02-06T13:44:13Z</time>
      </trkpt>
      <trkpt lat="43.9314" lon="5.1823">
        <ele>501.6</ele>
        <time>2011-02-06T13:44:18Z</time>
      </trkpt>
      <trkpt lat="43.93148" lon="5.18232">
        <ele>502</ele>
        <time>2011-02-06T13:44:26Z</time>
      </trkpt>
      <trkpt lat="43.9315" lon="5.18232">
        <ele>502.1</ele>
        <time>2011-02-06T13:44:27Z</time>
      </trkpt>
      <trkpt lat="43.93165" lon="5.18227">
        <ele>504.4</ele>
        <time>2011-02-06T13:44:40Z</time>
      </trkpt>
      <trkpt lat="43.93173" lon="5.18224">
        <ele>504.5</ele>
        <time>2011-02-06T13:44:46Z</time>
      </trkpt>
      <trkpt lat="43.9318" lon="5.18219">
        <ele>505.3</ele>
        <time>2011-02-06T13:44:52Z</time>
      </trkpt>
      <trkpt lat="43.93188" lon="5.18214">
        <ele>506</ele>
        <time>2011-02-06T13:45:00Z</time>
      </trkpt>
      <trkpt lat="43.93195" lon="5.18207">
        <ele>507.2</ele>
        <time>2011-02-06T13:45:08Z</time>
      </trkpt>
      <trkpt lat="43.932" lon="5.182">
        <ele>508.2</ele>
        <time>2011-02-06T13:45:14Z</time>
      </trkpt>
      <trkpt lat="43.93207" lon="5.18193">
        <ele>509.3</ele>
        <time>2011-02-06T13:45:20Z</time>
      </trkpt>
      <trkpt lat="43.93214" lon="5.18186">
        <ele>510.2</ele>
        <time>2011-02-06T13:45:26Z</time>
      </trkpt>
      <trkpt lat="43.93221" lon="5.18178">
        <ele>511.2</ele>
        <time>2011-02-06T13:45:33Z</time>
      </trkpt>
      <trkpt lat="43.93222" lon="5.18178">
        <ele>511.4</ele>
        <time>2011-02-06T13:45:35Z</time>
      </trkpt>
      <trkpt lat="43.93235" lon="5.18166">
        <ele>513.2</ele>
        <time>2011-02-06T13:45:48Z</time>
      </trkpt>
      <trkpt lat="43.93242" lon="5.18157">
        <ele>514.4</ele>
        <time>2011-02-06T13:45:54Z</time>
      </trkpt>
      <trkpt lat="43.93249" lon="5.18151">
        <ele>515.3</ele>
        <time>2011-02-06T13:46:00Z</time>
      </trkpt>
      <trkpt lat="43.93256" lon="5.18147">
        <ele>515.6</ele>
        <time>2011-02-06T13:46:06Z</time>
      </trkpt>
      <trkpt lat="43.93262" lon="5.18139">
        <ele>516.1</ele>
        <time>2011-02-06T13:46:12Z</time>
      </trkpt>
      <trkpt lat="43.93269" lon="5.18133">
        <ele>516.3</ele>
        <time>2011-02-06T13:46:17Z</time>
      </trkpt>
      <trkpt lat="43.93275" lon="5.18125">
        <ele>516.4</ele>
        <time>2011-02-06T13:46:23Z</time>
      </trkpt>
      <trkpt lat="43.93277" lon="5.18113">
        <ele>516.8</ele>
        <time>2011-02-06T13:46:31Z</time>
      </trkpt>
      <trkpt lat="43.93284" lon="5.18106">
        <ele>516.5</ele>
        <time>2011-02-06T13:46:38Z</time>
      </trkpt>
      <trkpt lat="43.93284" lon="5.18105">
        <ele>516.4</ele>
        <time>2011-02-06T13:46:39Z</time>
      </trkpt>
      <trkpt lat="43.93297" lon="5.18096">
        <ele>516.2</ele>
        <time>2011-02-06T13:46:47Z</time>
      </trkpt>
      <trkpt lat="43.93304" lon="5.18096">
        <ele>516</ele>
        <time>2011-02-06T13:46:53Z</time>
      </trkpt>
      <trkpt lat="43.93312" lon="5.18099">
        <ele>516.3</ele>
        <time>2011-02-06T13:46:58Z</time>
      </trkpt>
      <trkpt lat="43.93321" lon="5.18101">
        <ele>516</ele>
        <time>2011-02-06T13:47:06Z</time>
      </trkpt>
      <trkpt lat="43.93329" lon="5.18104">
        <ele>516.5</ele>
        <time>2011-02-06T13:47:14Z</time>
      </trkpt>
      <trkpt lat="43.93338" lon="5.18101">
        <ele>517.4</ele>
        <time>2011-02-06T13:47:20Z</time>
      </trkpt>
      <trkpt lat="43.93347" lon="5.18098">
        <ele>518.7</ele>
        <time>2011-02-06T13:47:28Z</time>
      </trkpt>
      <trkpt lat="43.93354" lon="5.18091">
        <ele>519.1</ele>
        <time>2011-02-06T13:47:33Z</time>
      </trkpt>
      <trkpt lat="43.93361" lon="5.18086">
        <ele>519.8</ele>
        <time>2011-02-06T13:47:37Z</time>
      </trkpt>
      <trkpt lat="43.93368" lon="5.18081">
        <ele>520.4</ele>
        <time>2011-02-06T13:47:43Z</time>
      </trkpt>
      <trkpt lat="43.93369" lon="5.1808">
        <ele>520.7</ele>
        <time>2011-02-06T13:47:44Z</time>
      </trkpt>
      <trkpt lat="43.93383" lon="5.18072">
        <ele>523.2</ele>
        <time>2011-02-06T13:47:58Z</time>
      </trkpt>
      <trkpt lat="43.93389" lon="5.18064">
        <ele>524.1</ele>
        <time>2011-02-06T13:48:03Z</time>
      </trkpt>
      <trkpt lat="43.93397" lon="5.18059">
        <ele>525</ele>
        <time>2011-02-06T13:48:09Z</time>
      </trkpt>
      <trkpt lat="43.93403" lon="5.18052">
        <ele>526.4</ele>
        <time>2011-02-06T13:48:15Z</time>
      </trkpt>
      <trkpt lat="43.93409" lon="5.18044">
        <ele>527.4</ele>
        <time>2011-02-06T13:48:22Z</time>
      </trkpt>
      <trkpt lat="43.93414" lon="5.18034">
        <ele>527.7</ele>
        <time>2011-02-06T13:48:29Z</time>
      </trkpt>
      <trkpt lat="43.9342" lon="5.18026">
        <ele>528.2</ele>
        <time>2011-02-06T13:48:36Z</time>
      </trkpt>
      <trkpt lat="43.93426" lon="5.18019">
        <ele>529.3</ele>
        <time>2011-02-06T13:48:43Z</time>
      </trkpt>
      <trkpt lat="43.93434" lon="5.18013">
        <ele>530.1</ele>
        <time>2011-02-06T13:48:50Z</time>
      </trkpt>
      <trkpt lat="43.93435" lon="5.18012">
        <ele>530.4</ele>
        <time>2011-02-06T13:48:51Z</time>
      </trkpt>
      <trkpt lat="43.93448" lon="5.18024">
        <ele>531.4</ele>
        <time>2011-02-06T13:49:02Z</time>
      </trkpt>
      <trkpt lat="43.93454" lon="5.18031">
        <ele>532.1</ele>
        <time>2011-02-06T13:49:11Z</time>
      </trkpt>
      <trkpt lat="43.93461" lon="5.18038">
        <ele>533.3</ele>
        <time>2011-02-06T13:49:20Z</time>
      </trkpt>
      <trkpt lat="43.93469" lon="5.18044">
        <ele>534</ele>
        <time>2011-02-06T13:49:28Z</time>
      </trkpt>
      <trkpt lat="43.93476" lon="5.1805">
        <ele>534.3</ele>
        <time>2011-02-06T13:49:35Z</time>
      </trkpt>
      <trkpt lat="43.93483" lon="5.18055">
        <ele>534.4</ele>
        <time>2011-02-06T13:49:42Z</time>
      </trkpt>
      <trkpt lat="43.9349" lon="5.1806">
        <ele>534.9</ele>
        <time>2011-02-06T13:49:48Z</time>
      </trkpt>
      <trkpt lat="43.93497" lon="5.18063">
        <ele>534.8</ele>
        <time>2011-02-06T13:49:53Z</time>
      </trkpt>
      <trkpt lat="43.93499" lon="5.18063">
        <ele>534.9</ele>
        <time>2011-02-06T13:49:54Z</time>
      </trkpt>
      <trkpt lat="43.93511" lon="5.18072">
        <ele>535.5</ele>
        <time>2011-02-06T13:50:11Z</time>
      </trkpt>
      <trkpt lat="43.93517" lon="5.18081">
        <ele>535.8</ele>
        <time>2011-02-06T13:50:19Z</time>
      </trkpt>
      <trkpt lat="43.93525" lon="5.18084">
        <ele>535.8</ele>
        <time>2011-02-06T13:50:26Z</time>
      </trkpt>
      <trkpt lat="43.93526" lon="5.18095">
        <ele>535.4</ele>
        <time>2011-02-06T13:50:34Z</time>
      </trkpt>
      <trkpt lat="43.93529" lon="5.18106">
        <ele>534.9</ele>
        <time>2011-02-06T13:50:41Z</time>
      </trkpt>
      <trkpt lat="43.93532" lon="5.18116">
        <ele>534.7</ele>
        <time>2011-02-06T13:50:50Z</time>
      </trkpt>
      <trkpt lat="43.93539" lon="5.18123">
        <ele>535.3</ele>
        <time>2011-02-06T13:50:56Z</time>
      </trkpt>
      <trkpt lat="43.9354" lon="5.18124">
        <ele>535.6</ele>
        <time>2011-02-06T13:50:57Z</time>
      </trkpt>
      <trkpt lat="43.93547" lon="5.18142">
        <ele>535.9</ele>
        <time>2011-02-06T13:51:08Z</time>
      </trkpt>
      <trkpt lat="43.93551" lon="5.18153">
        <ele>536.4</ele>
        <time>2011-02-06T13:51:13Z</time>
      </trkpt>
      <trkpt lat="43.93551" lon="5.18166">
        <ele>536.3</ele>
        <time>2011-02-06T13:51:19Z</time>
      </trkpt>
      <trkpt lat="43.93552" lon="5.18177">
        <ele>535.9</ele>
        <time>2011-02-06T13:51:25Z</time>
      </trkpt>
      <trkpt lat="43.9356" lon="5.18177">
        <ele>536.9</ele>
        <time>2011-02-06T13:51:31Z</time>
      </trkpt>
      <trkpt lat="43.93569" lon="5.18178">
        <ele>539</ele>
        <time>2011-02-06T13:51:39Z</time>
      </trkpt>
      <trkpt lat="43.93577" lon="5.18181">
        <ele>540.8</ele>
        <time>2011-02-06T13:51:48Z</time>
      </trkpt>
      <trkpt lat="43.93584" lon="5.18186">
        <ele>541.6</ele>
        <time>2011-02-06T13:51:53Z</time>
      </trkpt>
      <trkpt lat="43.93593" lon="5.18188">
        <ele>542.1</ele>
        <time>2011-02-06T13:51:59Z</time>
      </trkpt>
      <trkpt lat="43.93594" lon="5.18188">
        <ele>542.3</ele>
        <time>2011-02-06T13:52:00Z</time>
      </trkpt>
      <trkpt lat="43.93609" lon="5.18195">
        <ele>545.2</ele>
        <time>2011-02-06T13:52:12Z</time>
      </trkpt>
      <trkpt lat="43.93616" lon="5.18197">
        <ele>546.4</ele>
        <time>2011-02-06T13:52:19Z</time>
      </trkpt>
      <trkpt lat="43.93625" lon="5.18199">
        <ele>547.7</ele>
        <time>2011-02-06T13:52:25Z</time>
      </trkpt>
      <trkpt lat="43.93633" lon="5.18202">
        <ele>549.6</ele>
        <time>2011-02-06T13:52:33Z</time>
      </trkpt>
      <trkpt lat="43.93641" lon="5.18207">
        <ele>550.6</ele>
        <time>2011-02-06T13:52:41Z</time>
      </trkpt>
      <trkpt lat="43.9365" lon="5.18206">
        <ele>552</ele>
        <time>2011-02-06T13:52:52Z</time>
      </trkpt>
      <trkpt lat="43.93658" lon="5.18207">
        <ele>553</ele>
        <time>2011-02-06T13:52:58Z</time>
      </trkpt>
      <trkpt lat="43.93665" lon="5.18208">
        <ele>553.8</ele>
        <time>2011-02-06T13:53:04Z</time>
      </trkpt>
      <trkpt lat="43.93667" lon="5.18208">
        <ele>554</ele>
        <time>2011-02-06T13:53:05Z</time>
      </trkpt>
      <trkpt lat="43.93682" lon="5.18211">
        <ele>555.9</ele>
        <time>2011-02-06T13:53:16Z</time>
      </trkpt>
      <trkpt lat="43.93691" lon="5.18209">
        <ele>556.7</ele>
        <time>2011-02-06T13:53:25Z</time>
      </trkpt>
      <trkpt lat="43.93699" lon="5.18207">
        <ele>557.1</ele>
        <time>2011-02-06T13:54:47Z</time>
      </trkpt>
      <trkpt lat="43.93699" lon="5.18207">
        <ele>557.3</ele>
        <time>2011-02-06T13:54:48Z</time>
      </trkpt>
      <trkpt lat="43.93715" lon="5.18209">
        <ele>558.8</ele>
        <time>2011-02-06T13:55:10Z</time>
      </trkpt>
      <trkpt lat="43.93723" lon="5.18209">
        <ele>560</ele>
        <time>2011-02-06T13:55:18Z</time>
      </trkpt>
      <trkpt lat="43.93731" lon="5.18208">
        <ele>561.2</ele>
        <time>2011-02-06T13:55:25Z</time>
      </trkpt>
      <trkpt lat="43.93739" lon="5.18213">
        <ele>562.7</ele>
        <time>2011-02-06T13:55:46Z</time>
      </trkpt>
      <trkpt lat="43.93747" lon="5.18217">
        <ele>562.9</ele>
        <time>2011-02-06T13:56:06Z</time>
      </trkpt>
      <trkpt lat="43.93747" lon="5.18217">
        <ele>563.1</ele>
        <time>2011-02-06T13:56:07Z</time>
      </trkpt>
      <trkpt lat="43.93763" lon="5.18222">
        <ele>564.4</ele>
        <time>2011-02-06T13:56:29Z</time>
      </trkpt>
      <trkpt lat="43.93772" lon="5.18225">
        <ele>565</ele>
        <time>2011-02-06T13:56:38Z</time>
      </trkpt>
      <trkpt lat="43.9378" lon="5.18227">
        <ele>565.3</ele>
        <time>2011-02-06T13:56:45Z</time>
      </trkpt>
      <trkpt lat="43.93789" lon="5.18227">
        <ele>565.9</ele>
        <time>2011-02-06T13:56:54Z</time>
      </trkpt>
      <trkpt lat="43.93797" lon="5.18229">
        <ele>566.4</ele>
        <time>2011-02-06T13:57:00Z</time>
      </trkpt>
      <trkpt lat="43.93806" lon="5.18227">
        <ele>566.8</ele>
        <time>2011-02-06T13:57:06Z</time>
      </trkpt>
      <trkpt lat="43.93814" lon="5.18226">
        <ele>568.5</ele>
        <time>2011-02-06T13:57:16Z</time>
      </trkpt>
      <trkpt lat="43.93815" lon="5.18225">
        <ele>568.5</ele>
        <time>2011-02-06T13:57:17Z</time>
      </trkpt>
      <trkpt lat="43.93828" lon="5.18229">
        <ele>570.3</ele>
        <time>2011-02-06T13:57:30Z</time>
      </trkpt>
      <trkpt lat="43.93836" lon="5.18232">
        <ele>571.3</ele>
        <time>2011-02-06T13:57:35Z</time>
      </trkpt>
      <trkpt lat="43.93843" lon="5.18239">
        <ele>572.3</ele>
        <time>2011-02-06T13:57:43Z</time>
      </trkpt>
      <trkpt lat="43.93849" lon="5.18247">
        <ele>573.3</ele>
        <time>2011-02-06T13:57:50Z</time>
      </trkpt>
      <trkpt lat="43.93857" lon="5.18252">
        <ele>574.6</ele>
        <time>2011-02-06T13:57:57Z</time>
      </trkpt>
      <trkpt lat="43.93865" lon="5.18252">
        <ele>575.3</ele>
        <time>2011-02-06T13:58:01Z</time>
      </trkpt>
      <trkpt lat="43.93873" lon="5.18252">
        <ele>575.4</ele>
        <time>2011-02-06T13:58:07Z</time>
      </trkpt>
      <trkpt lat="43.93881" lon="5.18255">
        <ele>576.4</ele>
        <time>2011-02-06T13:58:13Z</time>
      </trkpt>
      <trkpt lat="43.9389" lon="5.18257">
        <ele>576.4</ele>
        <time>2011-02-06T13:58:19Z</time>
      </trkpt>
      <trkpt lat="43.9389" lon="5.18258">
        <ele>576.3</ele>
        <time>2011-02-06T13:58:20Z</time>
      </trkpt>
      <trkpt lat="43.93905" lon="5.18259">
        <ele>576.6</ele>
        <time>2011-02-06T13:58:31Z</time>
      </trkpt>
      <trkpt lat="43.93913" lon="5.1826">
        <ele>576.8</ele>
        <time>2011-02-06T13:58:35Z</time>
      </trkpt>
      <trkpt lat="43.93921" lon="5.18258">
        <ele>577.1</ele>
        <time>2011-02-06T13:58:43Z</time>
      </trkpt>
      <trkpt lat="43.93928" lon="5.18253">
        <ele>577.1</ele>
        <time>2011-02-06T13:58:52Z</time>
      </trkpt>
      <trkpt lat="43.93937" lon="5.18255">
        <ele>576.6</ele>
        <time>2011-02-06T13:58:56Z</time>
      </trkpt>
      <trkpt lat="43.93945" lon="5.18256">
        <ele>575.5</ele>
        <time>2011-02-06T13:59:01Z</time>
      </trkpt>
      <trkpt lat="43.93954" lon="5.18256">
        <ele>573.3</ele>
        <time>2011-02-06T13:59:11Z</time>
      </trkpt>
      <trkpt lat="43.93961" lon="5.18254">
        <ele>572</ele>
        <time>2011-02-06T13:59:17Z</time>
      </trkpt>
      <trkpt lat="43.9397" lon="5.18255">
        <ele>571.3</ele>
        <time>2011-02-06T13:59:22Z</time>
      </trkpt>
      <trkpt lat="43.93971" lon="5.18254">
        <ele>571.2</ele>
        <time>2011-02-06T13:59:23Z</time>
      </trkpt>
      <trkpt lat="43.93986" lon="5.18256">
        <ele>570.5</ele>
        <time>2011-02-06T13:59:37Z</time>
      </trkpt>
      <trkpt lat="43.93995" lon="5.18252">
        <ele>570.1</ele>
        <time>2011-02-06T14:00:15Z</time>
      </trkpt>
      <trkpt lat="43.93999" lon="5.18242">
        <ele>570.8</ele>
        <time>2011-02-06T14:01:30Z</time>
      </trkpt>
      <trkpt lat="43.93999" lon="5.18241">
        <ele>570.7</ele>
        <time>2011-02-06T14:01:31Z</time>
      </trkpt>
      <trkpt lat="43.94012" lon="5.18251">
        <ele>570.1</ele>
        <time>2011-02-06T14:02:37Z</time>
      </trkpt>
      <trkpt lat="43.94013" lon="5.18252">
        <ele>570.1</ele>
        <time>2011-02-06T14:02:38Z</time>
      </trkpt>
      <trkpt lat="43.94027" lon="5.18246">
        <ele>569.9</ele>
        <time>2011-02-06T14:02:51Z</time>
      </trkpt>
      <trkpt lat="43.94034" lon="5.1824">
        <ele>570.3</ele>
        <time>2011-02-06T14:02:59Z</time>
      </trkpt>
      <trkpt lat="43.94043" lon="5.18238">
        <ele>571.1</ele>
        <time>2011-02-06T14:03:07Z</time>
      </trkpt>
      <trkpt lat="43.94051" lon="5.18237">
        <ele>571.2</ele>
        <time>2011-02-06T14:03:13Z</time>
      </trkpt>
      <trkpt lat="43.9406" lon="5.18237">
        <ele>571.9</ele>
        <time>2011-02-06T14:03:20Z</time>
      </trkpt>
      <trkpt lat="43.94067" lon="5.18236">
        <ele>572.6</ele>
        <time>2011-02-06T14:03:28Z</time>
      </trkpt>
      <trkpt lat="43.94076" lon="5.18236">
        <ele>573.5</ele>
        <time>2011-02-06T14:03:35Z</time>
      </trkpt>
      <trkpt lat="43.94084" lon="5.18235">
        <ele>574.4</ele>
        <time>2011-02-06T14:03:45Z</time>
      </trkpt>
      <trkpt lat="43.94085" lon="5.18235">
        <ele>574.5</ele>
        <time>2011-02-06T14:03:46Z</time>
      </trkpt>
      <trkpt lat="43.94101" lon="5.1824">
        <ele>575.9</ele>
        <time>2011-02-06T14:04:02Z</time>
      </trkpt>
      <trkpt lat="43.9411" lon="5.18244">
        <ele>576.7</ele>
        <time>2011-02-06T14:04:12Z</time>
      </trkpt>
      <trkpt lat="43.94118" lon="5.18241">
        <ele>577.6</ele>
        <time>2011-02-06T14:04:20Z</time>
      </trkpt>
      <trkpt lat="43.94126" lon="5.18239">
        <ele>579.3</ele>
        <time>2011-02-06T14:04:30Z</time>
      </trkpt>
      <trkpt lat="43.94135" lon="5.18237">
        <ele>580</ele>
        <time>2011-02-06T14:04:39Z</time>
      </trkpt>
      <trkpt lat="43.94143" lon="5.18234">
        <ele>580.8</ele>
        <time>2011-02-06T14:04:48Z</time>
      </trkpt>
      <trkpt lat="43.94144" lon="5.18235">
        <ele>580.8</ele>
        <time>2011-02-06T14:04:49Z</time>
      </trkpt>
      <trkpt lat="43.94159" lon="5.1824">
        <ele>581.9</ele>
        <time>2011-02-06T14:05:03Z</time>
      </trkpt>
      <trkpt lat="43.94167" lon="5.18239">
        <ele>582</ele>
        <time>2011-02-06T14:05:08Z</time>
      </trkpt>
      <trkpt lat="43.94175" lon="5.18236">
        <ele>582.8</ele>
        <time>2011-02-06T14:05:13Z</time>
      </trkpt>
      <trkpt lat="43.94184" lon="5.18235">
        <ele>583.4</ele>
        <time>2011-02-06T14:05:20Z</time>
      </trkpt>
      <trkpt lat="43.94191" lon="5.18234">
        <ele>583.8</ele>
        <time>2011-02-06T14:05:26Z</time>
      </trkpt>
      <trkpt lat="43.942" lon="5.18233">
        <ele>584.7</ele>
        <time>2011-02-06T14:05:32Z</time>
      </trkpt>
      <trkpt lat="43.94208" lon="5.18231">
        <ele>585.2</ele>
        <time>2011-02-06T14:05:40Z</time>
      </trkpt>
      <trkpt lat="43.94216" lon="5.18229">
        <ele>586.4</ele>
        <time>2011-02-06T14:05:54Z</time>
      </trkpt>
      <trkpt lat="43.94217" lon="5.18228">
        <ele>586.3</ele>
        <time>2011-02-06T14:05:55Z</time>
      </trkpt>
      <trkpt lat="43.94233" lon="5.18224">
        <ele>587.8</ele>
        <time>2011-02-06T14:06:09Z</time>
      </trkpt>
      <trkpt lat="43.94242" lon="5.18222">
        <ele>588.6</ele>
        <time>2011-02-06T14:06:15Z</time>
      </trkpt>
      <trkpt lat="43.9425" lon="5.18223">
        <ele>589.8</ele>
        <time>2011-02-06T14:06:23Z</time>
      </trkpt>
      <trkpt lat="43.94258" lon="5.18219">
        <ele>591.5</ele>
        <time>2011-02-06T14:06:32Z</time>
      </trkpt>
      <trkpt lat="43.94265" lon="5.18214">
        <ele>592.5</ele>
        <time>2011-02-06T14:06:38Z</time>
      </trkpt>
      <trkpt lat="43.94273" lon="5.18209">
        <ele>593.7</ele>
        <time>2011-02-06T14:06:46Z</time>
      </trkpt>
      <trkpt lat="43.94281" lon="5.18205">
        <ele>594.7</ele>
        <time>2011-02-06T14:06:55Z</time>
      </trkpt>
      <trkpt lat="43.94289" lon="5.18199">
        <ele>595.6</ele>
        <time>2011-02-06T14:07:05Z</time>
      </trkpt>
      <trkpt lat="43.94289" lon="5.18199">
        <ele>595.7</ele>
        <time>2011-02-06T14:07:06Z</time>
      </trkpt>
      <trkpt lat="43.94303" lon="5.18192">
        <ele>597.1</ele>
        <time>2011-02-06T14:07:18Z</time>
      </trkpt>
      <trkpt lat="43.94311" lon="5.18189">
        <ele>597.2</ele>
        <time>2011-02-06T14:07:24Z</time>
      </trkpt>
      <trkpt lat="43.94319" lon="5.18187">
        <ele>598.2</ele>
        <time>2011-02-06T14:07:32Z</time>
      </trkpt>
      <trkpt lat="43.94328" lon="5.18187">
        <ele>599.4</ele>
        <time>2011-02-06T14:07:40Z</time>
      </trkpt>
      <trkpt lat="43.94336" lon="5.18183">
        <ele>600.6</ele>
        <time>2011-02-06T14:07:47Z</time>
      </trkpt>
      <trkpt lat="43.94344" lon="5.18182">
        <ele>601.1</ele>
        <time>2011-02-06T14:07:54Z</time>
      </trkpt>
      <trkpt lat="43.94353" lon="5.18182">
        <ele>601.8</ele>
        <time>2011-02-06T14:08:02Z</time>
      </trkpt>
      <trkpt lat="43.94361" lon="5.18181">
        <ele>602.7</ele>
        <time>2011-02-06T14:08:10Z</time>
      </trkpt>
      <trkpt lat="43.94362" lon="5.18181">
        <ele>602.8</ele>
        <time>2011-02-06T14:08:11Z</time>
      </trkpt>
      <trkpt lat="43.94377" lon="5.18177">
        <ele>604</ele>
        <time>2011-02-06T14:08:25Z</time>
      </trkpt>
      <trkpt lat="43.94385" lon="5.18175">
        <ele>604.9</ele>
        <time>2011-02-06T14:08:33Z</time>
      </trkpt>
      <trkpt lat="43.94393" lon="5.18169">
        <ele>605.1</ele>
        <time>2011-02-06T14:08:40Z</time>
      </trkpt>
      <trkpt lat="43.94399" lon="5.18162">
        <ele>606.9</ele>
        <time>2011-02-06T14:08:53Z</time>
      </trkpt>
      <trkpt lat="43.94406" lon="5.18159">
        <ele>606.9</ele>
        <time>2011-02-06T14:08:57Z</time>
      </trkpt>
      <trkpt lat="43.94414" lon="5.18156">
        <ele>607</ele>
        <time>2011-02-06T14:09:02Z</time>
      </trkpt>
      <trkpt lat="43.94422" lon="5.18153">
        <ele>608</ele>
        <time>2011-02-06T14:09:08Z</time>
      </trkpt>
      <trkpt lat="43.94428" lon="5.18145">
        <ele>608.4</ele>
        <time>2011-02-06T14:09:16Z</time>
      </trkpt>
      <trkpt lat="43.94429" lon="5.18144">
        <ele>608.6</ele>
        <time>2011-02-06T14:09:17Z</time>
      </trkpt>
      <trkpt lat="43.9444" lon="5.18131">
        <ele>609.2</ele>
        <time>2011-02-06T14:09:29Z</time>
      </trkpt>
      <trkpt lat="43.94446" lon="5.18123">
        <ele>609.4</ele>
        <time>2011-02-06T14:09:41Z</time>
      </trkpt>
      <trkpt lat="43.94442" lon="5.18113">
        <ele>608.8</ele>
        <time>2011-02-06T14:09:47Z</time>
      </trkpt>
      <trkpt lat="43.94442" lon="5.18102">
        <ele>608.3</ele>
        <time>2011-02-06T14:09:53Z</time>
      </trkpt>
      <trkpt lat="43.94438" lon="5.18091">
        <ele>608.5</ele>
        <time>2011-02-06T14:10:00Z</time>
      </trkpt>
      <trkpt lat="43.94438" lon="5.18079">
        <ele>608.7</ele>
        <time>2011-02-06T14:10:17Z</time>
      </trkpt>
      <trkpt lat="43.94438" lon="5.18078">
        <ele>608.9</ele>
        <time>2011-02-06T14:10:18Z</time>
      </trkpt>
      <trkpt lat="43.94433" lon="5.18069">
        <ele>609.8</ele>
        <time>2011-02-06T14:11:25Z</time>
      </trkpt>
      <trkpt lat="43.94423" lon="5.18053">
        <ele>611.8</ele>
        <time>2011-02-06T14:15:16Z</time>
      </trkpt>
      <trkpt lat="43.94422" lon="5.18052">
        <ele>611.7</ele>
        <time>2011-02-06T14:15:17Z</time>
      </trkpt>
      <trkpt lat="43.94416" lon="5.18033">
        <ele>612.1</ele>
        <time>2011-02-06T14:15:31Z</time>
      </trkpt>
      <trkpt lat="43.94413" lon="5.18023">
        <ele>612.1</ele>
        <time>2011-02-06T14:15:37Z</time>
      </trkpt>
      <trkpt lat="43.94412" lon="5.18012">
        <ele>612.7</ele>
        <time>2011-02-06T14:15:42Z</time>
      </trkpt>
      <trkpt lat="43.94408" lon="5.18002">
        <ele>613.7</ele>
        <time>2011-02-06T14:15:48Z</time>
      </trkpt>
      <trkpt lat="43.94407" lon="5.1799">
        <ele>614.4</ele>
        <time>2011-02-06T14:15:55Z</time>
      </trkpt>
      <trkpt lat="43.94408" lon="5.17978">
        <ele>615.7</ele>
        <time>2011-02-06T14:16:02Z</time>
      </trkpt>
      <trkpt lat="43.94413" lon="5.17968">
        <ele>616.6</ele>
        <time>2011-02-06T14:16:30Z</time>
      </trkpt>
      <trkpt lat="43.94414" lon="5.17967">
        <ele>616.8</ele>
        <time>2011-02-06T14:16:31Z</time>
      </trkpt>
      <trkpt lat="43.94422" lon="5.17949">
        <ele>616.9</ele>
        <time>2011-02-06T14:16:48Z</time>
      </trkpt>
      <trkpt lat="43.94423" lon="5.17938">
        <ele>616.5</ele>
        <time>2011-02-06T14:16:55Z</time>
      </trkpt>
      <trkpt lat="43.94426" lon="5.17926">
        <ele>616.7</ele>
        <time>2011-02-06T14:17:02Z</time>
      </trkpt>
      <trkpt lat="43.9443" lon="5.17916">
        <ele>615.9</ele>
        <time>2011-02-06T14:17:09Z</time>
      </trkpt>
      <trkpt lat="43.94433" lon="5.17904">
        <ele>615.4</ele>
        <time>2011-02-06T14:17:16Z</time>
      </trkpt>
      <trkpt lat="43.94435" lon="5.17892">
        <ele>615.6</ele>
        <time>2011-02-06T14:17:21Z</time>
      </trkpt>
      <trkpt lat="43.94436" lon="5.17881">
        <ele>615.8</ele>
        <time>2011-02-06T14:17:29Z</time>
      </trkpt>
      <trkpt lat="43.94439" lon="5.1787">
        <ele>615.8</ele>
        <time>2011-02-06T14:17:35Z</time>
      </trkpt>
      <trkpt lat="43.9444" lon="5.17869">
        <ele>615.8</ele>
        <time>2011-02-06T14:17:36Z</time>
      </trkpt>
      <trkpt lat="43.94446" lon="5.1785">
        <ele>616.4</ele>
        <time>2011-02-06T14:17:50Z</time>
      </trkpt>
      <trkpt lat="43.9445" lon="5.1784">
        <ele>616.2</ele>
        <time>2011-02-06T14:17:56Z</time>
      </trkpt>
      <trkpt lat="43.94452" lon="5.1783">
        <ele>616.1</ele>
        <time>2011-02-06T14:18:02Z</time>
      </trkpt>
      <trkpt lat="43.94454" lon="5.17818">
        <ele>615.5</ele>
        <time>2011-02-06T14:18:10Z</time>
      </trkpt>
      <trkpt lat="43.94455" lon="5.17808">
        <ele>615.1</ele>
        <time>2011-02-06T14:18:16Z</time>
      </trkpt>
      <trkpt lat="43.94458" lon="5.17798">
        <ele>615</ele>
        <time>2011-02-06T14:18:22Z</time>
      </trkpt>
      <trkpt lat="43.94457" lon="5.17786">
        <ele>614.4</ele>
        <time>2011-02-06T14:18:29Z</time>
      </trkpt>
      <trkpt lat="43.94458" lon="5.17775">
        <ele>614.2</ele>
        <time>2011-02-06T14:18:36Z</time>
      </trkpt>
      <trkpt lat="43.94459" lon="5.17774">
        <ele>614.2</ele>
        <time>2011-02-06T14:18:37Z</time>
      </trkpt>
      <trkpt lat="43.94463" lon="5.17754">
        <ele>613.4</ele>
        <time>2011-02-06T14:18:49Z</time>
      </trkpt>
      <trkpt lat="43.94467" lon="5.17745">
        <ele>613.4</ele>
        <time>2011-02-06T14:18:56Z</time>
      </trkpt>
      <trkpt lat="43.94471" lon="5.17734">
        <ele>612.6</ele>
        <time>2011-02-06T14:19:03Z</time>
      </trkpt>
      <trkpt lat="43.94478" lon="5.1773">
        <ele>612.3</ele>
        <time>2011-02-06T14:19:09Z</time>
      </trkpt>
      <trkpt lat="43.94485" lon="5.17723">
        <ele>611.9</ele>
        <time>2011-02-06T14:19:15Z</time>
      </trkpt>
      <trkpt lat="43.94491" lon="5.17714">
        <ele>611.7</ele>
        <time>2011-02-06T14:19:21Z</time>
      </trkpt>
      <trkpt lat="43.94496" lon="5.17705">
        <ele>610.9</ele>
        <time>2011-02-06T14:19:27Z</time>
      </trkpt>
      <trkpt lat="43.945" lon="5.17695">
        <ele>610.3</ele>
        <time>2011-02-06T14:19:32Z</time>
      </trkpt>
      <trkpt lat="43.94504" lon="5.17684">
        <ele>609.4</ele>
        <time>2011-02-06T14:19:38Z</time>
      </trkpt>
      <trkpt lat="43.94504" lon="5.17683">
        <ele>609.1</ele>
        <time>2011-02-06T14:19:39Z</time>
      </trkpt>
      <trkpt lat="43.94518" lon="5.17674">
        <ele>607.6</ele>
        <time>2011-02-06T14:19:48Z</time>
      </trkpt>
      <trkpt lat="43.94522" lon="5.17663">
        <ele>607.7</ele>
        <time>2011-02-06T14:19:54Z</time>
      </trkpt>
      <trkpt lat="43.94526" lon="5.17653">
        <ele>608.5</ele>
        <time>2011-02-06T14:19:59Z</time>
      </trkpt>
      <trkpt lat="43.94532" lon="5.17645">
        <ele>609.3</ele>
        <time>2011-02-06T14:20:04Z</time>
      </trkpt>
      <trkpt lat="43.94537" lon="5.17636">
        <ele>610.1</ele>
        <time>2011-02-06T14:20:11Z</time>
      </trkpt>
      <trkpt lat="43.94543" lon="5.17626">
        <ele>610.6</ele>
        <time>2011-02-06T14:20:19Z</time>
      </trkpt>
      <trkpt lat="43.94549" lon="5.17619">
        <ele>610.7</ele>
        <time>2011-02-06T14:20:25Z</time>
      </trkpt>
      <trkpt lat="43.94552" lon="5.17607">
        <ele>611</ele>
        <time>2011-02-06T14:20:30Z</time>
      </trkpt>
      <trkpt lat="43.94558" lon="5.17599">
        <ele>610.7</ele>
        <time>2011-02-06T14:20:37Z</time>
      </trkpt>
      <trkpt lat="43.94564" lon="5.17591">
        <ele>610.4</ele>
        <time>2011-02-06T14:20:42Z</time>
      </trkpt>
      <trkpt lat="43.94565" lon="5.17589">
        <ele>610.3</ele>
        <time>2011-02-06T14:20:43Z</time>
      </trkpt>
      <trkpt lat="43.94575" lon="5.17574">
        <ele>610.2</ele>
        <time>2011-02-06T14:20:52Z</time>
      </trkpt>
      <trkpt lat="43.9458" lon="5.17565">
        <ele>610.3</ele>
        <time>2011-02-06T14:20:57Z</time>
      </trkpt>
      <trkpt lat="43.94584" lon="5.17555">
        <ele>610.1</ele>
        <time>2011-02-06T14:21:01Z</time>
      </trkpt>
      <trkpt lat="43.9459" lon="5.17546">
        <ele>610.2</ele>
        <time>2011-02-06T14:21:06Z</time>
      </trkpt>
      <trkpt lat="43.94594" lon="5.17538">
        <ele>610.2</ele>
        <time>2011-02-06T14:21:13Z</time>
      </trkpt>
      <trkpt lat="43.94598" lon="5.17526">
        <ele>609.8</ele>
        <time>2011-02-06T14:21:19Z</time>
      </trkpt>
      <trkpt lat="43.946" lon="5.17514">
        <ele>609.9</ele>
        <time>2011-02-06T14:21:25Z</time>
      </trkpt>
      <trkpt lat="43.94604" lon="5.17505">
        <ele>609.8</ele>
        <time>2011-02-06T14:21:30Z</time>
      </trkpt>
      <trkpt lat="43.94607" lon="5.17494">
        <ele>610</ele>
        <time>2011-02-06T14:21:36Z</time>
      </trkpt>
      <trkpt lat="43.94611" lon="5.17484">
        <ele>609.8</ele>
        <time>2011-02-06T14:21:42Z</time>
      </trkpt>
      <trkpt lat="43.94615" lon="5.17473">
        <ele>609.8</ele>
        <time>2011-02-06T14:21:48Z</time>
      </trkpt>
      <trkpt lat="43.94615" lon="5.17472">
        <ele>609.8</ele>
        <time>2011-02-06T14:21:49Z</time>
      </trkpt>
      <trkpt lat="43.9462" lon="5.17452">
        <ele>609.9</ele>
        <time>2011-02-06T14:22:01Z</time>
      </trkpt>
      <trkpt lat="43.94622" lon="5.17441">
        <ele>610</ele>
        <time>2011-02-06T14:22:06Z</time>
      </trkpt>
      <trkpt lat="43.94624" lon="5.17429">
        <ele>610.7</ele>
        <time>2011-02-06T14:22:12Z</time>
      </trkpt>
      <trkpt lat="43.94628" lon="5.17419">
        <ele>610.2</ele>
        <time>2011-02-06T14:22:19Z</time>
      </trkpt>
      <trkpt lat="43.94634" lon="5.17412">
        <ele>610.1</ele>
        <time>2011-02-06T14:22:25Z</time>
      </trkpt>
      <trkpt lat="43.94638" lon="5.17403">
        <ele>609.8</ele>
        <time>2011-02-06T14:22:30Z</time>
      </trkpt>
      <trkpt lat="43.94641" lon="5.17394">
        <ele>610.1</ele>
        <time>2011-02-06T14:22:34Z</time>
      </trkpt>
      <trkpt lat="43.94641" lon="5.17382">
        <ele>609.6</ele>
        <time>2011-02-06T14:22:39Z</time>
      </trkpt>
      <trkpt lat="43.94643" lon="5.17371">
        <ele>610</ele>
        <time>2011-02-06T14:22:44Z</time>
      </trkpt>
      <trkpt lat="43.9465" lon="5.17363">
        <ele>609.6</ele>
        <time>2011-02-06T14:22:50Z</time>
      </trkpt>
      <trkpt lat="43.9465" lon="5.17362">
        <ele>609.4</ele>
        <time>2011-02-06T14:22:51Z</time>
      </trkpt>
      <trkpt lat="43.94656" lon="5.17343">
        <ele>610.2</ele>
        <time>2011-02-06T14:23:01Z</time>
      </trkpt>
      <trkpt lat="43.94661" lon="5.17335">
        <ele>610.5</ele>
        <time>2011-02-06T14:23:05Z</time>
      </trkpt>
      <trkpt lat="43.94666" lon="5.17326">
        <ele>610.8</ele>
        <time>2011-02-06T14:23:10Z</time>
      </trkpt>
      <trkpt lat="43.9467" lon="5.17317">
        <ele>611</ele>
        <time>2011-02-06T14:23:15Z</time>
      </trkpt>
      <trkpt lat="43.94671" lon="5.17305">
        <ele>611.5</ele>
        <time>2011-02-06T14:23:21Z</time>
      </trkpt>
      <trkpt lat="43.94672" lon="5.17295">
        <ele>611.9</ele>
        <time>2011-02-06T14:23:25Z</time>
      </trkpt>
      <trkpt lat="43.94674" lon="5.17285">
        <ele>612.1</ele>
        <time>2011-02-06T14:23:30Z</time>
      </trkpt>
      <trkpt lat="43.94678" lon="5.17274">
        <ele>612.2</ele>
        <time>2011-02-06T14:23:35Z</time>
      </trkpt>
      <trkpt lat="43.94682" lon="5.17263">
        <ele>612.5</ele>
        <time>2011-02-06T14:23:41Z</time>
      </trkpt>
      <trkpt lat="43.94687" lon="5.17254">
        <ele>612.5</ele>
        <time>2011-02-06T14:23:47Z</time>
      </trkpt>
      <trkpt lat="43.9469" lon="5.17243">
        <ele>612.1</ele>
        <time>2011-02-06T14:23:55Z</time>
      </trkpt>
      <trkpt lat="43.94691" lon="5.17241">
        <ele>612.2</ele>
        <time>2011-02-06T14:23:56Z</time>
      </trkpt>
      <trkpt lat="43.947" lon="5.17225">
        <ele>612.1</ele>
        <time>2011-02-06T14:24:08Z</time>
      </trkpt>
      <trkpt lat="43.94705" lon="5.17216">
        <ele>611.6</ele>
        <time>2011-02-06T14:24:14Z</time>
      </trkpt>
      <trkpt lat="43.94709" lon="5.17207">
        <ele>611.5</ele>
        <time>2011-02-06T14:24:19Z</time>
      </trkpt>
      <trkpt lat="43.94713" lon="5.17197">
        <ele>611.4</ele>
        <time>2011-02-06T14:24:24Z</time>
      </trkpt>
      <trkpt lat="43.94719" lon="5.1719">
        <ele>611.6</ele>
        <time>2011-02-06T14:24:28Z</time>
      </trkpt>
      <trkpt lat="43.94725" lon="5.1718">
        <ele>611.7</ele>
        <time>2011-02-06T14:24:34Z</time>
      </trkpt>
      <trkpt lat="43.94727" lon="5.17171">
        <ele>611.9</ele>
        <time>2011-02-06T14:24:39Z</time>
      </trkpt>
      <trkpt lat="43.94732" lon="5.1716">
        <ele>612.1</ele>
        <time>2011-02-06T14:24:45Z</time>
      </trkpt>
      <trkpt lat="43.94738" lon="5.17151">
        <ele>612.2</ele>
        <time>2011-02-06T14:24:50Z</time>
      </trkpt>
      <trkpt lat="43.94744" lon="5.17145">
        <ele>612.4</ele>
        <time>2011-02-06T14:24:55Z</time>
      </trkpt>
      <trkpt lat="43.9475" lon="5.17137">
        <ele>613</ele>
        <time>2011-02-06T14:25:01Z</time>
      </trkpt>
      <trkpt lat="43.94751" lon="5.17135">
        <ele>613.1</ele>
        <time>2011-02-06T14:25:02Z</time>
      </trkpt>
      <trkpt lat="43.94761" lon="5.17123">
        <ele>612.6</ele>
        <time>2011-02-06T14:25:11Z</time>
      </trkpt>
      <trkpt lat="43.94769" lon="5.17117">
        <ele>613.1</ele>
        <time>2011-02-06T14:25:17Z</time>
      </trkpt>
      <trkpt lat="43.94776" lon="5.17112">
        <ele>613</ele>
        <time>2011-02-06T14:25:23Z</time>
      </trkpt>
      <trkpt lat="43.94782" lon="5.17104">
        <ele>613.2</ele>
        <time>2011-02-06T14:25:29Z</time>
      </trkpt>
      <trkpt lat="43.94788" lon="5.17095">
        <ele>612.8</ele>
        <time>2011-02-06T14:25:36Z</time>
      </trkpt>
      <trkpt lat="43.94793" lon="5.17086">
        <ele>612.4</ele>
        <time>2011-02-06T14:25:43Z</time>
      </trkpt>
      <trkpt lat="43.94801" lon="5.1708">
        <ele>611.7</ele>
        <time>2011-02-06T14:25:50Z</time>
      </trkpt>
      <trkpt lat="43.94808" lon="5.17075">
        <ele>611.3</ele>
        <time>2011-02-06T14:25:57Z</time>
      </trkpt>
      <trkpt lat="43.94817" lon="5.17073">
        <ele>611.4</ele>
        <time>2011-02-06T14:26:02Z</time>
      </trkpt>
      <trkpt lat="43.94818" lon="5.17072">
        <ele>611.4</ele>
        <time>2011-02-06T14:26:03Z</time>
      </trkpt>
      <trkpt lat="43.94832" lon="5.17065">
        <ele>610.6</ele>
        <time>2011-02-06T14:26:13Z</time>
      </trkpt>
      <trkpt lat="43.9484" lon="5.17061">
        <ele>609.8</ele>
        <time>2011-02-06T14:26:18Z</time>
      </trkpt>
      <trkpt lat="43.94848" lon="5.17059">
        <ele>609</ele>
        <time>2011-02-06T14:26:26Z</time>
      </trkpt>
      <trkpt lat="43.94855" lon="5.17056">
        <ele>608.6</ele>
        <time>2011-02-06T14:26:31Z</time>
      </trkpt>
      <trkpt lat="43.94862" lon="5.1705">
        <ele>607.6</ele>
        <time>2011-02-06T14:26:37Z</time>
      </trkpt>
      <trkpt lat="43.94869" lon="5.17046">
        <ele>605.7</ele>
        <time>2011-02-06T14:26:44Z</time>
      </trkpt>
      <trkpt lat="43.94875" lon="5.1704">
        <ele>604.1</ele>
        <time>2011-02-06T14:26:50Z</time>
      </trkpt>
      <trkpt lat="43.94881" lon="5.17032">
        <ele>602</ele>
        <time>2011-02-06T14:26:57Z</time>
      </trkpt>
      <trkpt lat="43.94889" lon="5.17028">
        <ele>600</ele>
        <time>2011-02-06T14:27:03Z</time>
      </trkpt>
      <trkpt lat="43.94896" lon="5.17022">
        <ele>598.7</ele>
        <time>2011-02-06T14:27:10Z</time>
      </trkpt>
      <trkpt lat="43.94898" lon="5.17021">
        <ele>598.3</ele>
        <time>2011-02-06T14:27:11Z</time>
      </trkpt>
      <trkpt lat="43.94911" lon="5.1701">
        <ele>594.6</ele>
        <time>2011-02-06T14:27:24Z</time>
      </trkpt>
      <trkpt lat="43.9492" lon="5.17011">
        <ele>592.7</ele>
        <time>2011-02-06T14:27:31Z</time>
      </trkpt>
      <trkpt lat="43.94928" lon="5.17008">
        <ele>591.1</ele>
        <time>2011-02-06T14:27:37Z</time>
      </trkpt>
      <trkpt lat="43.94936" lon="5.17007">
        <ele>589.8</ele>
        <time>2011-02-06T14:27:43Z</time>
      </trkpt>
      <trkpt lat="43.94944" lon="5.17012">
        <ele>589.2</ele>
        <time>2011-02-06T14:27:57Z</time>
      </trkpt>
      <trkpt lat="43.94951" lon="5.1701">
        <ele>589.4</ele>
        <time>2011-02-06T14:28:00Z</time>
      </trkpt>
      <trkpt lat="43.94959" lon="5.17007">
        <ele>589.2</ele>
        <time>2011-02-06T14:28:05Z</time>
      </trkpt>
      <trkpt lat="43.94967" lon="5.17007">
        <ele>589.7</ele>
        <time>2011-02-06T14:28:11Z</time>
      </trkpt>
      <trkpt lat="43.94969" lon="5.17007">
        <ele>589.5</ele>
        <time>2011-02-06T14:28:12Z</time>
      </trkpt>
      <trkpt lat="43.94984" lon="5.17005">
        <ele>587.7</ele>
        <time>2011-02-06T14:28:25Z</time>
      </trkpt>
      <trkpt lat="43.94992" lon="5.17004">
        <ele>586.5</ele>
        <time>2011-02-06T14:28:30Z</time>
      </trkpt>
      <trkpt lat="43.95" lon="5.17004">
        <ele>586</ele>
        <time>2011-02-06T14:28:36Z</time>
      </trkpt>
      <trkpt lat="43.95009" lon="5.17003">
        <ele>586.5</ele>
        <time>2011-02-06T14:28:41Z</time>
      </trkpt>
      <trkpt lat="43.95017" lon="5.17001">
        <ele>587.2</ele>
        <time>2011-02-06T14:28:47Z</time>
      </trkpt>
      <trkpt lat="43.95025" lon="5.16999">
        <ele>587.3</ele>
        <time>2011-02-06T14:28:53Z</time>
      </trkpt>
      <trkpt lat="43.95034" lon="5.16999">
        <ele>587.4</ele>
        <time>2011-02-06T14:28:58Z</time>
      </trkpt>
      <trkpt lat="43.95042" lon="5.16996">
        <ele>587.4</ele>
        <time>2011-02-06T14:29:03Z</time>
      </trkpt>
      <trkpt lat="43.9505" lon="5.16997">
        <ele>587.4</ele>
        <time>2011-02-06T14:29:08Z</time>
      </trkpt>
      <trkpt lat="43.95057" lon="5.16996">
        <ele>587.1</ele>
        <time>2011-02-06T14:29:12Z</time>
      </trkpt>
      <trkpt lat="43.9506" lon="5.16996">
        <ele>587</ele>
        <time>2011-02-06T14:29:13Z</time>
      </trkpt>
      <trkpt lat="43.95073" lon="5.16992">
        <ele>586.9</ele>
        <time>2011-02-06T14:29:22Z</time>
      </trkpt>
      <trkpt lat="43.9508" lon="5.16985">
        <ele>586.6</ele>
        <time>2011-02-06T14:29:27Z</time>
      </trkpt>
      <trkpt lat="43.95085" lon="5.16976">
        <ele>585.7</ele>
        <time>2011-02-06T14:29:32Z</time>
      </trkpt>
      <trkpt lat="43.9509" lon="5.16966">
        <ele>584.1</ele>
        <time>2011-02-06T14:29:37Z</time>
      </trkpt>
      <trkpt lat="43.95093" lon="5.16956">
        <ele>583.1</ele>
        <time>2011-02-06T14:29:42Z</time>
      </trkpt>
      <trkpt lat="43.95095" lon="5.16945">
        <ele>582.6</ele>
        <time>2011-02-06T14:29:47Z</time>
      </trkpt>
      <trkpt lat="43.95096" lon="5.16933">
        <ele>582.2</ele>
        <time>2011-02-06T14:29:52Z</time>
      </trkpt>
      <trkpt lat="43.951" lon="5.16922">
        <ele>582.7</ele>
        <time>2011-02-06T14:29:58Z</time>
      </trkpt>
      <trkpt lat="43.95104" lon="5.16911">
        <ele>583.1</ele>
        <time>2011-02-06T14:30:04Z</time>
      </trkpt>
      <trkpt lat="43.95108" lon="5.169">
        <ele>583.1</ele>
        <time>2011-02-06T14:30:10Z</time>
      </trkpt>
      <trkpt lat="43.95113" lon="5.1689">
        <ele>584.1</ele>
        <time>2011-02-06T14:30:16Z</time>
      </trkpt>
      <trkpt lat="43.95113" lon="5.16888">
        <ele>584.3</ele>
        <time>2011-02-06T14:30:17Z</time>
      </trkpt>
      <trkpt lat="43.95115" lon="5.16866">
        <ele>585.5</ele>
        <time>2011-02-06T14:30:31Z</time>
      </trkpt>
      <trkpt lat="43.95108" lon="5.1686">
        <ele>584.6</ele>
        <time>2011-02-06T14:31:19Z</time>
      </trkpt>
      <trkpt lat="43.95107" lon="5.1686">
        <ele>584.4</ele>
        <time>2011-02-06T14:31:20Z</time>
      </trkpt>
      <trkpt lat="43.95093" lon="5.16866">
        <ele>585.1</ele>
        <time>2011-02-06T14:31:32Z</time>
      </trkpt>
      <trkpt lat="43.95085" lon="5.16871">
        <ele>585.6</ele>
        <time>2011-02-06T14:31:37Z</time>
      </trkpt>
      <trkpt lat="43.95078" lon="5.16872">
        <ele>586.6</ele>
        <time>2011-02-06T14:31:42Z</time>
      </trkpt>
      <trkpt lat="43.95069" lon="5.16871">
        <ele>588.3</ele>
        <time>2011-02-06T14:31:47Z</time>
      </trkpt>
      <trkpt lat="43.95061" lon="5.16867">
        <ele>589.6</ele>
        <time>2011-02-06T14:31:50Z</time>
      </trkpt>
      <trkpt lat="43.95054" lon="5.16862">
        <ele>590.8</ele>
        <time>2011-02-06T14:31:53Z</time>
      </trkpt>
      <trkpt lat="43.95046" lon="5.16859">
        <ele>592.1</ele>
        <time>2011-02-06T14:31:57Z</time>
      </trkpt>
      <trkpt lat="43.95039" lon="5.16856">
        <ele>593</ele>
        <time>2011-02-06T14:32:02Z</time>
      </trkpt>
      <trkpt lat="43.95031" lon="5.16854">
        <ele>594.2</ele>
        <time>2011-02-06T14:32:07Z</time>
      </trkpt>
      <trkpt lat="43.95022" lon="5.16851">
        <ele>594.8</ele>
        <time>2011-02-06T14:32:12Z</time>
      </trkpt>
      <trkpt lat="43.95014" lon="5.1685">
        <ele>595.1</ele>
        <time>2011-02-06T14:32:19Z</time>
      </trkpt>
      <trkpt lat="43.95006" lon="5.16849">
        <ele>595.7</ele>
        <time>2011-02-06T14:32:25Z</time>
      </trkpt>
      <trkpt lat="43.95005" lon="5.16849">
        <ele>595.9</ele>
        <time>2011-02-06T14:32:26Z</time>
      </trkpt>
      <trkpt lat="43.9499" lon="5.16842">
        <ele>597</ele>
        <time>2011-02-06T14:32:37Z</time>
      </trkpt>
      <trkpt lat="43.94983" lon="5.16837">
        <ele>598.3</ele>
        <time>2011-02-06T14:32:44Z</time>
      </trkpt>
      <trkpt lat="43.94977" lon="5.16828">
        <ele>599.2</ele>
        <time>2011-02-06T14:32:49Z</time>
      </trkpt>
      <trkpt lat="43.94973" lon="5.16821">
        <ele>599.5</ele>
        <time>2011-02-06T14:32:53Z</time>
      </trkpt>
      <trkpt lat="43.94969" lon="5.16812">
        <ele>600.3</ele>
        <time>2011-02-06T14:32:57Z</time>
      </trkpt>
      <trkpt lat="43.94962" lon="5.16805">
        <ele>600.9</ele>
        <time>2011-02-06T14:33:03Z</time>
      </trkpt>
      <trkpt lat="43.94957" lon="5.16794">
        <ele>601.7</ele>
        <time>2011-02-06T14:33:12Z</time>
      </trkpt>
      <trkpt lat="43.94955" lon="5.16783">
        <ele>602.4</ele>
        <time>2011-02-06T14:33:17Z</time>
      </trkpt>
      <trkpt lat="43.94955" lon="5.16771">
        <ele>602.4</ele>
        <time>2011-02-06T14:33:23Z</time>
      </trkpt>
      <trkpt lat="43.94953" lon="5.16758">
        <ele>603.1</ele>
        <time>2011-02-06T14:33:31Z</time>
      </trkpt>
      <trkpt lat="43.94954" lon="5.16757">
        <ele>603.3</ele>
        <time>2011-02-06T14:33:32Z</time>
      </trkpt>
      <trkpt lat="43.94955" lon="5.16735">
        <ele>606.2</ele>
        <time>2011-02-06T14:33:45Z</time>
      </trkpt>
      <trkpt lat="43.94953" lon="5.16724">
        <ele>606.8</ele>
        <time>2011-02-06T14:33:51Z</time>
      </trkpt>
      <trkpt lat="43.9495" lon="5.16714">
        <ele>606.8</ele>
        <time>2011-02-06T14:33:56Z</time>
      </trkpt>
      <trkpt lat="43.94947" lon="5.16703">
        <ele>607.1</ele>
        <time>2011-02-06T14:34:01Z</time>
      </trkpt>
      <trkpt lat="43.94946" lon="5.16692">
        <ele>607.7</ele>
        <time>2011-02-06T14:34:07Z</time>
      </trkpt>
      <trkpt lat="43.94945" lon="5.1668">
        <ele>608.8</ele>
        <time>2011-02-06T14:34:13Z</time>
      </trkpt>
      <trkpt lat="43.94945" lon="5.16669">
        <ele>610.2</ele>
        <time>2011-02-06T14:34:19Z</time>
      </trkpt>
      <trkpt lat="43.94943" lon="5.16658">
        <ele>610.9</ele>
        <time>2011-02-06T14:34:25Z</time>
      </trkpt>
      <trkpt lat="43.94942" lon="5.16647">
        <ele>611.3</ele>
        <time>2011-02-06T14:34:31Z</time>
      </trkpt>
      <trkpt lat="43.94938" lon="5.16637">
        <ele>612.5</ele>
        <time>2011-02-06T14:34:38Z</time>
      </trkpt>
      <trkpt lat="43.94938" lon="5.16635">
        <ele>612.6</ele>
        <time>2011-02-06T14:34:39Z</time>
      </trkpt>
      <trkpt lat="43.9493" lon="5.16616">
        <ele>614</ele>
        <time>2011-02-06T14:34:53Z</time>
      </trkpt>
      <trkpt lat="43.94924" lon="5.16607">
        <ele>615.6</ele>
        <time>2011-02-06T14:35:07Z</time>
      </trkpt>
      <trkpt lat="43.94921" lon="5.16596">
        <ele>616.6</ele>
        <time>2011-02-06T14:35:13Z</time>
      </trkpt>
      <trkpt lat="43.94921" lon="5.16584">
        <ele>618.4</ele>
        <time>2011-02-06T14:35:21Z</time>
      </trkpt>
      <trkpt lat="43.94926" lon="5.16575">
        <ele>619.1</ele>
        <time>2011-02-06T14:36:11Z</time>
      </trkpt>
      <trkpt lat="43.94926" lon="5.16573">
        <ele>619.3</ele>
        <time>2011-02-06T14:36:12Z</time>
      </trkpt>
      <trkpt lat="43.94925" lon="5.16551">
        <ele>621.3</ele>
        <time>2011-02-06T14:36:27Z</time>
      </trkpt>
      <trkpt lat="43.94926" lon="5.16539">
        <ele>622.8</ele>
        <time>2011-02-06T14:36:35Z</time>
      </trkpt>
      <trkpt lat="43.94926" lon="5.16526">
        <ele>623.4</ele>
        <time>2011-02-06T14:36:41Z</time>
      </trkpt>
      <trkpt lat="43.94924" lon="5.16515">
        <ele>624</ele>
        <time>2011-02-06T14:36:49Z</time>
      </trkpt>
      <trkpt lat="43.94923" lon="5.16503">
        <ele>624.7</ele>
        <time>2011-02-06T14:36:55Z</time>
      </trkpt>
      <trkpt lat="43.94923" lon="5.16492">
        <ele>625</ele>
        <time>2011-02-06T14:37:02Z</time>
      </trkpt>
      <trkpt lat="43.94922" lon="5.1648">
        <ele>625.5</ele>
        <time>2011-02-06T14:37:11Z</time>
      </trkpt>
      <trkpt lat="43.94923" lon="5.16469">
        <ele>625.4</ele>
        <time>2011-02-06T14:37:18Z</time>
      </trkpt>
      <trkpt lat="43.94924" lon="5.16466">
        <ele>625.4</ele>
        <time>2011-02-06T14:37:19Z</time>
      </trkpt>
      <trkpt lat="43.94923" lon="5.16445">
        <ele>624.1</ele>
        <time>2011-02-06T14:37:30Z</time>
      </trkpt>
      <trkpt lat="43.94923" lon="5.16432">
        <ele>623</ele>
        <time>2011-02-06T14:37:37Z</time>
      </trkpt>
      <trkpt lat="43.94921" lon="5.16421">
        <ele>621.5</ele>
        <time>2011-02-06T14:37:43Z</time>
      </trkpt>
      <trkpt lat="43.94915" lon="5.16413">
        <ele>620.3</ele>
        <time>2011-02-06T14:37:48Z</time>
      </trkpt>
      <trkpt lat="43.94908" lon="5.16404">
        <ele>620</ele>
        <time>2011-02-06T14:37:53Z</time>
      </trkpt>
      <trkpt lat="43.94902" lon="5.16397">
        <ele>619.9</ele>
        <time>2011-02-06T14:37:58Z</time>
      </trkpt>
      <trkpt lat="43.94897" lon="5.16387">
        <ele>620</ele>
        <time>2011-02-06T14:38:03Z</time>
      </trkpt>
      <trkpt lat="43.94891" lon="5.16378">
        <ele>619.9</ele>
        <time>2011-02-06T14:38:08Z</time>
      </trkpt>
      <trkpt lat="43.94886" lon="5.16368">
        <ele>619.7</ele>
        <time>2011-02-06T14:38:14Z</time>
      </trkpt>
      <trkpt lat="43.94884" lon="5.16357">
        <ele>620.2</ele>
        <time>2011-02-06T14:38:20Z</time>
      </trkpt>
      <trkpt lat="43.94884" lon="5.16355">
        <ele>620.3</ele>
        <time>2011-02-06T14:38:21Z</time>
      </trkpt>
      <trkpt lat="43.94884" lon="5.16335">
        <ele>619.7</ele>
        <time>2011-02-06T14:38:34Z</time>
      </trkpt>
      <trkpt lat="43.94889" lon="5.16326">
        <ele>618.4</ele>
        <time>2011-02-06T14:38:40Z</time>
      </trkpt>
      <trkpt lat="43.94893" lon="5.16316">
        <ele>617</ele>
        <time>2011-02-06T14:38:46Z</time>
      </trkpt>
      <trkpt lat="43.94899" lon="5.16307">
        <ele>616</ele>
        <time>2011-02-06T14:38:53Z</time>
      </trkpt>
      <trkpt lat="43.94906" lon="5.163">
        <ele>614.7</ele>
        <time>2011-02-06T14:39:00Z</time>
      </trkpt>
      <trkpt lat="43.94909" lon="5.16288">
        <ele>614.6</ele>
        <time>2011-02-06T14:39:06Z</time>
      </trkpt>
      <trkpt lat="43.94909" lon="5.16278">
        <ele>614.7</ele>
        <time>2011-02-06T14:39:11Z</time>
      </trkpt>
      <trkpt lat="43.9491" lon="5.16266">
        <ele>615.4</ele>
        <time>2011-02-06T14:39:17Z</time>
      </trkpt>
      <trkpt lat="43.94912" lon="5.16254">
        <ele>615.5</ele>
        <time>2011-02-06T14:39:22Z</time>
      </trkpt>
      <trkpt lat="43.94912" lon="5.16251">
        <ele>615.8</ele>
        <time>2011-02-06T14:39:23Z</time>
      </trkpt>
      <trkpt lat="43.94916" lon="5.16231">
        <ele>616</ele>
        <time>2011-02-06T14:39:33Z</time>
      </trkpt>
      <trkpt lat="43.94916" lon="5.16219">
        <ele>616</ele>
        <time>2011-02-06T14:39:37Z</time>
      </trkpt>
      <trkpt lat="43.94919" lon="5.16207">
        <ele>616.5</ele>
        <time>2011-02-06T14:39:42Z</time>
      </trkpt>
      <trkpt lat="43.94922" lon="5.16196">
        <ele>617.1</ele>
        <time>2011-02-06T14:39:48Z</time>
      </trkpt>
      <trkpt lat="43.94925" lon="5.16185">
        <ele>617.2</ele>
        <time>2011-02-06T14:39:54Z</time>
      </trkpt>
      <trkpt lat="43.94927" lon="5.16175">
        <ele>617.9</ele>
        <time>2011-02-06T14:39:59Z</time>
      </trkpt>
      <trkpt lat="43.94931" lon="5.16166">
        <ele>618</ele>
        <time>2011-02-06T14:40:04Z</time>
      </trkpt>
      <trkpt lat="43.94934" lon="5.16155">
        <ele>618.6</ele>
        <time>2011-02-06T14:40:09Z</time>
      </trkpt>
      <trkpt lat="43.94938" lon="5.16145">
        <ele>618.9</ele>
        <time>2011-02-06T14:40:14Z</time>
      </trkpt>
      <trkpt lat="43.94942" lon="5.16135">
        <ele>618.9</ele>
        <time>2011-02-06T14:40:19Z</time>
      </trkpt>
      <trkpt lat="43.94945" lon="5.16124">
        <ele>619.3</ele>
        <time>2011-02-06T14:40:24Z</time>
      </trkpt>
      <trkpt lat="43.94946" lon="5.16122">
        <ele>619.5</ele>
        <time>2011-02-06T14:40:25Z</time>
      </trkpt>
      <trkpt lat="43.94948" lon="5.16103">
        <ele>620.9</ele>
        <time>2011-02-06T14:40:34Z</time>
      </trkpt>
      <trkpt lat="43.94948" lon="5.16092">
        <ele>622.4</ele>
        <time>2011-02-06T14:40:40Z</time>
      </trkpt>
      <trkpt lat="43.94947" lon="5.1608">
        <ele>623.4</ele>
        <time>2011-02-06T14:40:46Z</time>
      </trkpt>
      <trkpt lat="43.94944" lon="5.16069">
        <ele>624.2</ele>
        <time>2011-02-06T14:40:53Z</time>
      </trkpt>
      <trkpt lat="43.9494" lon="5.1606">
        <ele>624.8</ele>
        <time>2011-02-06T14:40:57Z</time>
      </trkpt>
      <trkpt lat="43.94933" lon="5.16053">
        <ele>625.3</ele>
        <time>2011-02-06T14:41:01Z</time>
      </trkpt>
      <trkpt lat="43.94926" lon="5.16048">
        <ele>626.5</ele>
        <time>2011-02-06T14:41:07Z</time>
      </trkpt>
      <trkpt lat="43.94924" lon="5.16037">
        <ele>627.3</ele>
        <time>2011-02-06T14:41:13Z</time>
      </trkpt>
      <trkpt lat="43.94926" lon="5.16024">
        <ele>626.8</ele>
        <time>2011-02-06T14:41:18Z</time>
      </trkpt>
      <trkpt lat="43.94928" lon="5.16015">
        <ele>627.9</ele>
        <time>2011-02-06T14:41:22Z</time>
      </trkpt>
      <trkpt lat="43.94932" lon="5.16003">
        <ele>628.3</ele>
        <time>2011-02-06T14:41:27Z</time>
      </trkpt>
      <trkpt lat="43.94932" lon="5.16001">
        <ele>628.3</ele>
        <time>2011-02-06T14:41:28Z</time>
      </trkpt>
      <trkpt lat="43.94944" lon="5.15986">
        <ele>628.6</ele>
        <time>2011-02-06T14:41:39Z</time>
      </trkpt>
      <trkpt lat="43.94951" lon="5.15979">
        <ele>628.9</ele>
        <time>2011-02-06T14:41:45Z</time>
      </trkpt>
      <trkpt lat="43.94957" lon="5.15973">
        <ele>629.8</ele>
        <time>2011-02-06T14:41:50Z</time>
      </trkpt>
      <trkpt lat="43.94965" lon="5.15967">
        <ele>629.3</ele>
        <time>2011-02-06T14:41:56Z</time>
      </trkpt>
      <trkpt lat="43.94972" lon="5.15961">
        <ele>629.3</ele>
        <time>2011-02-06T14:42:01Z</time>
      </trkpt>
      <trkpt lat="43.94978" lon="5.15955">
        <ele>629.5</ele>
        <time>2011-02-06T14:42:07Z</time>
      </trkpt>
      <trkpt lat="43.94985" lon="5.1595">
        <ele>629.5</ele>
        <time>2011-02-06T14:42:11Z</time>
      </trkpt>
      <trkpt lat="43.94991" lon="5.15943">
        <ele>629.6</ele>
        <time>2011-02-06T14:42:15Z</time>
      </trkpt>
      <trkpt lat="43.94997" lon="5.15937">
        <ele>629.7</ele>
        <time>2011-02-06T14:42:19Z</time>
      </trkpt>
      <trkpt lat="43.95002" lon="5.15928">
        <ele>629.8</ele>
        <time>2011-02-06T14:42:24Z</time>
      </trkpt>
      <trkpt lat="43.95008" lon="5.15918">
        <ele>630.7</ele>
        <time>2011-02-06T14:42:30Z</time>
      </trkpt>
      <trkpt lat="43.95009" lon="5.15916">
        <ele>630.8</ele>
        <time>2011-02-06T14:42:31Z</time>
      </trkpt>
      <trkpt lat="43.95018" lon="5.15902">
        <ele>631.4</ele>
        <time>2011-02-06T14:42:39Z</time>
      </trkpt>
      <trkpt lat="43.95021" lon="5.15892">
        <ele>631.3</ele>
        <time>2011-02-06T14:42:44Z</time>
      </trkpt>
      <trkpt lat="43.95026" lon="5.15882">
        <ele>631.5</ele>
        <time>2011-02-06T14:42:49Z</time>
      </trkpt>
      <trkpt lat="43.95029" lon="5.15871">
        <ele>631.3</ele>
        <time>2011-02-06T14:42:54Z</time>
      </trkpt>
      <trkpt lat="43.95032" lon="5.1586">
        <ele>632.1</ele>
        <time>2011-02-06T14:42:59Z</time>
      </trkpt>
      <trkpt lat="43.95034" lon="5.15848">
        <ele>633.3</ele>
        <time>2011-02-06T14:43:04Z</time>
      </trkpt>
      <trkpt lat="43.95035" lon="5.15837">
        <ele>633.7</ele>
        <time>2011-02-06T14:43:09Z</time>
      </trkpt>
      <trkpt lat="43.95035" lon="5.15826">
        <ele>634</ele>
        <time>2011-02-06T14:43:13Z</time>
      </trkpt>
      <trkpt lat="43.95035" lon="5.15815">
        <ele>633.8</ele>
        <time>2011-02-06T14:43:18Z</time>
      </trkpt>
      <trkpt lat="43.95034" lon="5.15805">
        <ele>634.5</ele>
        <time>2011-02-06T14:43:23Z</time>
      </trkpt>
      <trkpt lat="43.95031" lon="5.15794">
        <ele>634.4</ele>
        <time>2011-02-06T14:43:29Z</time>
      </trkpt>
      <trkpt lat="43.95027" lon="5.15784">
        <ele>634.7</ele>
        <time>2011-02-06T14:43:33Z</time>
      </trkpt>
      <trkpt lat="43.95026" lon="5.15782">
        <ele>634.6</ele>
        <time>2011-02-06T14:43:34Z</time>
      </trkpt>
      <trkpt lat="43.95021" lon="5.15763">
        <ele>635.7</ele>
        <time>2011-02-06T14:43:45Z</time>
      </trkpt>
      <trkpt lat="43.95019" lon="5.15753">
        <ele>636.6</ele>
        <time>2011-02-06T14:43:53Z</time>
      </trkpt>
      <trkpt lat="43.95017" lon="5.15742">
        <ele>637.1</ele>
        <time>2011-02-06T14:43:58Z</time>
      </trkpt>
      <trkpt lat="43.95016" lon="5.15731">
        <ele>637.6</ele>
        <time>2011-02-06T14:44:03Z</time>
      </trkpt>
      <trkpt lat="43.95014" lon="5.1572">
        <ele>638.4</ele>
        <time>2011-02-06T14:44:11Z</time>
      </trkpt>
      <trkpt lat="43.95011" lon="5.15708">
        <ele>638.6</ele>
        <time>2011-02-06T14:44:17Z</time>
      </trkpt>
      <trkpt lat="43.95006" lon="5.157">
        <ele>639.3</ele>
        <time>2011-02-06T14:44:22Z</time>
      </trkpt>
      <trkpt lat="43.95" lon="5.15691">
        <ele>639.7</ele>
        <time>2011-02-06T14:44:26Z</time>
      </trkpt>
      <trkpt lat="43.94994" lon="5.15684">
        <ele>639.7</ele>
        <time>2011-02-06T14:44:31Z</time>
      </trkpt>
      <trkpt lat="43.94988" lon="5.15675">
        <ele>640.3</ele>
        <time>2011-02-06T14:44:36Z</time>
      </trkpt>
      <trkpt lat="43.94987" lon="5.15674">
        <ele>640.7</ele>
        <time>2011-02-06T14:44:37Z</time>
      </trkpt>
      <trkpt lat="43.94978" lon="5.1566">
        <ele>641.8</ele>
        <time>2011-02-06T14:44:47Z</time>
      </trkpt>
      <trkpt lat="43.94976" lon="5.1565">
        <ele>641.8</ele>
        <time>2011-02-06T14:44:51Z</time>
      </trkpt>
      <trkpt lat="43.94971" lon="5.1564">
        <ele>642.4</ele>
        <time>2011-02-06T14:44:56Z</time>
      </trkpt>
      <trkpt lat="43.94966" lon="5.15629">
        <ele>643.3</ele>
        <time>2011-02-06T14:45:03Z</time>
      </trkpt>
      <trkpt lat="43.94966" lon="5.15617">
        <ele>644.7</ele>
        <time>2011-02-06T14:45:21Z</time>
      </trkpt>
      <trkpt lat="43.94969" lon="5.15606">
        <ele>643.8</ele>
        <time>2011-02-06T14:45:29Z</time>
      </trkpt>
      <trkpt lat="43.94977" lon="5.15609">
        <ele>644.6</ele>
        <time>2011-02-06T14:46:04Z</time>
      </trkpt>
      <trkpt lat="43.94978" lon="5.15609">
        <ele>644.5</ele>
        <time>2011-02-06T14:46:05Z</time>
      </trkpt>
      <trkpt lat="43.94974" lon="5.15608">
        <ele>644.5</ele>
        <time>2011-02-06T14:47:35Z</time>
      </trkpt>
      <trkpt lat="43.94973" lon="5.15608">
        <ele>645.2</ele>
        <time>2011-02-06T14:47:36Z</time>
      </trkpt>
      <trkpt lat="43.94962" lon="5.15624">
        <ele>643.7</ele>
        <time>2011-02-06T14:47:56Z</time>
      </trkpt>
      <trkpt lat="43.94955" lon="5.15632">
        <ele>644.7</ele>
        <time>2011-02-06T14:48:01Z</time>
      </trkpt>
      <trkpt lat="43.94948" lon="5.15638">
        <ele>646.9</ele>
        <time>2011-02-06T14:48:07Z</time>
      </trkpt>
      <trkpt lat="43.94942" lon="5.15647">
        <ele>648</ele>
        <time>2011-02-06T14:48:14Z</time>
      </trkpt>
      <trkpt lat="43.94937" lon="5.15655">
        <ele>649</ele>
        <time>2011-02-06T14:48:19Z</time>
      </trkpt>
      <trkpt lat="43.94933" lon="5.15666">
        <ele>649.5</ele>
        <time>2011-02-06T14:48:25Z</time>
      </trkpt>
      <trkpt lat="43.9493" lon="5.15677">
        <ele>649</ele>
        <time>2011-02-06T14:48:31Z</time>
      </trkpt>
      <trkpt lat="43.94927" lon="5.15687">
        <ele>649.1</ele>
        <time>2011-02-06T14:48:36Z</time>
      </trkpt>
      <trkpt lat="43.94927" lon="5.15689">
        <ele>649.2</ele>
        <time>2011-02-06T14:48:37Z</time>
      </trkpt>
      <trkpt lat="43.94925" lon="5.15711">
        <ele>648.9</ele>
        <time>2011-02-06T14:48:48Z</time>
      </trkpt>
      <trkpt lat="43.94924" lon="5.15721">
        <ele>648.5</ele>
        <time>2011-02-06T14:48:53Z</time>
      </trkpt>
      <trkpt lat="43.9492" lon="5.15733">
        <ele>649.3</ele>
        <time>2011-02-06T14:48:59Z</time>
      </trkpt>
      <trkpt lat="43.94917" lon="5.15743">
        <ele>649</ele>
        <time>2011-02-06T14:49:04Z</time>
      </trkpt>
      <trkpt lat="43.94915" lon="5.15753">
        <ele>648.2</ele>
        <time>2011-02-06T14:49:09Z</time>
      </trkpt>
      <trkpt lat="43.94911" lon="5.15763">
        <ele>648.4</ele>
        <time>2011-02-06T14:49:14Z</time>
      </trkpt>
      <trkpt lat="43.94908" lon="5.15773">
        <ele>648.5</ele>
        <time>2011-02-06T14:49:19Z</time>
      </trkpt>
      <trkpt lat="43.94903" lon="5.15782">
        <ele>649.1</ele>
        <time>2011-02-06T14:49:25Z</time>
      </trkpt>
      <trkpt lat="43.94898" lon="5.15792">
        <ele>649</ele>
        <time>2011-02-06T14:49:31Z</time>
      </trkpt>
      <trkpt lat="43.94893" lon="5.15801">
        <ele>649.2</ele>
        <time>2011-02-06T14:49:36Z</time>
      </trkpt>
      <trkpt lat="43.94888" lon="5.15809">
        <ele>648.1</ele>
        <time>2011-02-06T14:49:42Z</time>
      </trkpt>
      <trkpt lat="43.94887" lon="5.15811">
        <ele>648.2</ele>
        <time>2011-02-06T14:49:43Z</time>
      </trkpt>
      <trkpt lat="43.94878" lon="5.15828">
        <ele>648</ele>
        <time>2011-02-06T14:49:53Z</time>
      </trkpt>
      <trkpt lat="43.94873" lon="5.15838">
        <ele>648.9</ele>
        <time>2011-02-06T14:49:58Z</time>
      </trkpt>
      <trkpt lat="43.9487" lon="5.15849">
        <ele>647.4</ele>
        <time>2011-02-06T14:50:04Z</time>
      </trkpt>
      <trkpt lat="43.94868" lon="5.1586">
        <ele>646.8</ele>
        <time>2011-02-06T14:50:10Z</time>
      </trkpt>
      <trkpt lat="43.94865" lon="5.15871">
        <ele>647.7</ele>
        <time>2011-02-06T14:50:16Z</time>
      </trkpt>
      <trkpt lat="43.94862" lon="5.15882">
        <ele>647.2</ele>
        <time>2011-02-06T14:50:22Z</time>
      </trkpt>
      <trkpt lat="43.94857" lon="5.15892">
        <ele>646.8</ele>
        <time>2011-02-06T14:50:29Z</time>
      </trkpt>
      <trkpt lat="43.94852" lon="5.15902">
        <ele>645.8</ele>
        <time>2011-02-06T14:50:37Z</time>
      </trkpt>
      <trkpt lat="43.94847" lon="5.1591">
        <ele>646.6</ele>
        <time>2011-02-06T14:50:43Z</time>
      </trkpt>
      <trkpt lat="43.94842" lon="5.15918">
        <ele>646</ele>
        <time>2011-02-06T14:50:49Z</time>
      </trkpt>
      <trkpt lat="43.94841" lon="5.1592">
        <ele>646.1</ele>
        <time>2011-02-06T14:50:50Z</time>
      </trkpt>
      <trkpt lat="43.94834" lon="5.15936">
        <ele>646.6</ele>
        <time>2011-02-06T14:50:55Z</time>
      </trkpt>
      <trkpt lat="43.9483" lon="5.15943">
        <ele>645.7</ele>
        <time>2011-02-06T14:50:57Z</time>
      </trkpt>
      <trkpt lat="43.94826" lon="5.1595">
        <ele>645.6</ele>
        <time>2011-02-06T14:50:59Z</time>
      </trkpt>
      <trkpt lat="43.94821" lon="5.1596">
        <ele>645.7</ele>
        <time>2011-02-06T14:51:02Z</time>
      </trkpt>
      <trkpt lat="43.94815" lon="5.15968">
        <ele>646</ele>
        <time>2011-02-06T14:51:05Z</time>
      </trkpt>
      <trkpt lat="43.9481" lon="5.15975">
        <ele>646.1</ele>
        <time>2011-02-06T14:51:07Z</time>
      </trkpt>
      <trkpt lat="43.94805" lon="5.1598">
        <ele>646.2</ele>
        <time>2011-02-06T14:51:09Z</time>
      </trkpt>
      <trkpt lat="43.94799" lon="5.15987">
        <ele>645.9</ele>
        <time>2011-02-06T14:51:12Z</time>
      </trkpt>
      <trkpt lat="43.94791" lon="5.15992">
        <ele>646.5</ele>
        <time>2011-02-06T14:51:15Z</time>
      </trkpt>
      <trkpt lat="43.94782" lon="5.15992">
        <ele>645.9</ele>
        <time>2011-02-06T14:51:18Z</time>
      </trkpt>
      <trkpt lat="43.94775" lon="5.15988">
        <ele>646.1</ele>
        <time>2011-02-06T14:51:20Z</time>
      </trkpt>
      <trkpt lat="43.94771" lon="5.15987">
        <ele>646</ele>
        <time>2011-02-06T14:51:21Z</time>
      </trkpt>
      <trkpt lat="43.94766" lon="5.15986">
        <ele>645.8</ele>
        <time>2011-02-06T14:51:22Z</time>
      </trkpt>
      <trkpt lat="43.94758" lon="5.15984">
        <ele>646.2</ele>
        <time>2011-02-06T14:51:24Z</time>
      </trkpt>
      <trkpt lat="43.94753" lon="5.15983">
        <ele>647</ele>
        <time>2011-02-06T14:51:25Z</time>
      </trkpt>
      <trkpt lat="43.94748" lon="5.15981">
        <ele>647</ele>
        <time>2011-02-06T14:51:26Z</time>
      </trkpt>
      <trkpt lat="43.94742" lon="5.1598">
        <ele>647.1</ele>
        <time>2011-02-06T14:51:27Z</time>
      </trkpt>
      <trkpt lat="43.94737" lon="5.15979">
        <ele>647.4</ele>
        <time>2011-02-06T14:51:28Z</time>
      </trkpt>
      <trkpt lat="43.94731" lon="5.15978">
        <ele>647</ele>
        <time>2011-02-06T14:51:29Z</time>
      </trkpt>
      <trkpt lat="43.94726" lon="5.15978">
        <ele>646.7</ele>
        <time>2011-02-06T14:51:30Z</time>
      </trkpt>
      <trkpt lat="43.9472" lon="5.15978">
        <ele>646.4</ele>
        <time>2011-02-06T14:51:31Z</time>
      </trkpt>
      <trkpt lat="43.94714" lon="5.15978">
        <ele>646.2</ele>
        <time>2011-02-06T14:51:32Z</time>
      </trkpt>
      <trkpt lat="43.94708" lon="5.15977">
        <ele>646.1</ele>
        <time>2011-02-06T14:51:33Z</time>
      </trkpt>
      <trkpt lat="43.94703" lon="5.15976">
        <ele>646.4</ele>
        <time>2011-02-06T14:51:34Z</time>
      </trkpt>
      <trkpt lat="43.94697" lon="5.15975">
        <ele>646.7</ele>
        <time>2011-02-06T14:51:35Z</time>
      </trkpt>
      <trkpt lat="43.94692" lon="5.15974">
        <ele>646.9</ele>
        <time>2011-02-06T14:51:36Z</time>
      </trkpt>
      <trkpt lat="43.94687" lon="5.15973">
        <ele>646.8</ele>
        <time>2011-02-06T14:51:37Z</time>
      </trkpt>
      <trkpt lat="43.94681" lon="5.15971">
        <ele>646.6</ele>
        <time>2011-02-06T14:51:38Z</time>
      </trkpt>
      <trkpt lat="43.94676" lon="5.1597">
        <ele>646.4</ele>
        <time>2011-02-06T14:51:39Z</time>
      </trkpt>
      <trkpt lat="43.9467" lon="5.15968">
        <ele>646.7</ele>
        <time>2011-02-06T14:51:40Z</time>
      </trkpt>
      <trkpt lat="43.94665" lon="5.15968">
        <ele>646.8</ele>
        <time>2011-02-06T14:51:41Z</time>
      </trkpt>
      <trkpt lat="43.9466" lon="5.15967">
        <ele>646.8</ele>
        <time>2011-02-06T14:51:42Z</time>
      </trkpt>
      <trkpt lat="43.94654" lon="5.15967">
        <ele>646.8</ele>
        <time>2011-02-06T14:51:43Z</time>
      </trkpt>
      <trkpt lat="43.94648" lon="5.15967">
        <ele>647.2</ele>
        <time>2011-02-06T14:51:44Z</time>
      </trkpt>
      <trkpt lat="43.94642" lon="5.15967">
        <ele>646.9</ele>
        <time>2011-02-06T14:51:45Z</time>
      </trkpt>
      <trkpt lat="43.94636" lon="5.15967">
        <ele>646.3</ele>
        <time>2011-02-06T14:51:46Z</time>
      </trkpt>
      <trkpt lat="43.94631" lon="5.15965">
        <ele>645.6</ele>
        <time>2011-02-06T14:51:47Z</time>
      </trkpt>
      <trkpt lat="43.94625" lon="5.15963">
        <ele>645.2</ele>
        <time>2011-02-06T14:51:48Z</time>
      </trkpt>
      <trkpt lat="43.94619" lon="5.1596">
        <ele>645.5</ele>
        <time>2011-02-06T14:51:49Z</time>
      </trkpt>
      <trkpt lat="43.94612" lon="5.15957">
        <ele>645.3</ele>
        <time>2011-02-06T14:51:50Z</time>
      </trkpt>
      <trkpt lat="43.94607" lon="5.15954">
        <ele>645.1</ele>
        <time>2011-02-06T14:51:51Z</time>
      </trkpt>
      <trkpt lat="43.94601" lon="5.15951">
        <ele>645.4</ele>
        <time>2011-02-06T14:51:52Z</time>
      </trkpt>
      <trkpt lat="43.94596" lon="5.15949">
        <ele>645.4</ele>
        <time>2011-02-06T14:51:53Z</time>
      </trkpt>
      <trkpt lat="43.9459" lon="5.15948">
        <ele>645.1</ele>
        <time>2011-02-06T14:51:54Z</time>
      </trkpt>
      <trkpt lat="43.94585" lon="5.15946">
        <ele>645.2</ele>
        <time>2011-02-06T14:51:55Z</time>
      </trkpt>
      <trkpt lat="43.94579" lon="5.15944">
        <ele>645.5</ele>
        <time>2011-02-06T14:51:56Z</time>
      </trkpt>
      <trkpt lat="43.94573" lon="5.15944">
        <ele>645.5</ele>
        <time>2011-02-06T14:51:57Z</time>
      </trkpt>
      <trkpt lat="43.94567" lon="5.15943">
        <ele>646</ele>
        <time>2011-02-06T14:51:58Z</time>
      </trkpt>
      <trkpt lat="43.94561" lon="5.15944">
        <ele>645.7</ele>
        <time>2011-02-06T14:51:59Z</time>
      </trkpt>
      <trkpt lat="43.94555" lon="5.15945">
        <ele>645.7</ele>
        <time>2011-02-06T14:52:00Z</time>
      </trkpt>
      <trkpt lat="43.94549" lon="5.15946">
        <ele>645.5</ele>
        <time>2011-02-06T14:52:01Z</time>
      </trkpt>
      <trkpt lat="43.94543" lon="5.15948">
        <ele>645.4</ele>
        <time>2011-02-06T14:52:02Z</time>
      </trkpt>
      <trkpt lat="43.94537" lon="5.15949">
        <ele>645</ele>
        <time>2011-02-06T14:52:03Z</time>
      </trkpt>
      <trkpt lat="43.94531" lon="5.1595">
        <ele>645.1</ele>
        <time>2011-02-06T14:52:04Z</time>
      </trkpt>
      <trkpt lat="43.94525" lon="5.15952">
        <ele>645.1</ele>
        <time>2011-02-06T14:52:05Z</time>
      </trkpt>
      <trkpt lat="43.94519" lon="5.15954">
        <ele>645</ele>
        <time>2011-02-06T14:52:06Z</time>
      </trkpt>
      <trkpt lat="43.94514" lon="5.15955">
        <ele>644.8</ele>
        <time>2011-02-06T14:52:07Z</time>
      </trkpt>
      <trkpt lat="43.94509" lon="5.15954">
        <ele>644.6</ele>
        <time>2011-02-06T14:52:08Z</time>
      </trkpt>
      <trkpt lat="43.94504" lon="5.15953">
        <ele>644.4</ele>
        <time>2011-02-06T14:52:09Z</time>
      </trkpt>
      <trkpt lat="43.94498" lon="5.15953">
        <ele>644.3</ele>
        <time>2011-02-06T14:52:10Z</time>
      </trkpt>
      <trkpt lat="43.94493" lon="5.15952">
        <ele>644.2</ele>
        <time>2011-02-06T14:52:11Z</time>
      </trkpt>
      <trkpt lat="43.94488" lon="5.1595">
        <ele>644</ele>
        <time>2011-02-06T14:52:12Z</time>
      </trkpt>
      <trkpt lat="43.9448" lon="5.15948">
        <ele>644</ele>
        <time>2011-02-06T14:52:14Z</time>
      </trkpt>
      <trkpt lat="43.94473" lon="5.15945">
        <ele>643.4</ele>
        <time>2011-02-06T14:52:16Z</time>
      </trkpt>
      <trkpt lat="43.94465" lon="5.15943">
        <ele>643.7</ele>
        <time>2011-02-06T14:52:18Z</time>
      </trkpt>
      <trkpt lat="43.94457" lon="5.15943">
        <ele>643</ele>
        <time>2011-02-06T14:52:20Z</time>
      </trkpt>
      <trkpt lat="43.94452" lon="5.15943">
        <ele>643.3</ele>
        <time>2011-02-06T14:52:21Z</time>
      </trkpt>
      <trkpt lat="43.94444" lon="5.15941">
        <ele>643.8</ele>
        <time>2011-02-06T14:52:23Z</time>
      </trkpt>
      <trkpt lat="43.94437" lon="5.15937">
        <ele>644</ele>
        <time>2011-02-06T14:52:25Z</time>
      </trkpt>
      <trkpt lat="43.94431" lon="5.15932">
        <ele>643.1</ele>
        <time>2011-02-06T14:52:27Z</time>
      </trkpt>
      <trkpt lat="43.94423" lon="5.15926">
        <ele>643</ele>
        <time>2011-02-06T14:52:30Z</time>
      </trkpt>
      <trkpt lat="43.94418" lon="5.15922">
        <ele>642</ele>
        <time>2011-02-06T14:52:32Z</time>
      </trkpt>
      <trkpt lat="43.94412" lon="5.15918">
        <ele>642.3</ele>
        <time>2011-02-06T14:52:34Z</time>
      </trkpt>
      <trkpt lat="43.94404" lon="5.15915">
        <ele>641.7</ele>
        <time>2011-02-06T14:52:38Z</time>
      </trkpt>
      <trkpt lat="43.94397" lon="5.1591">
        <ele>641.6</ele>
        <time>2011-02-06T14:52:43Z</time>
      </trkpt>
      <trkpt lat="43.94389" lon="5.15906">
        <ele>641.4</ele>
        <time>2011-02-06T14:52:48Z</time>
      </trkpt>
      <trkpt lat="43.94382" lon="5.15903">
        <ele>641.9</ele>
        <time>2011-02-06T14:52:53Z</time>
      </trkpt>
      <trkpt lat="43.94381" lon="5.15902">
        <ele>641.9</ele>
        <time>2011-02-06T14:52:54Z</time>
      </trkpt>
      <trkpt lat="43.94367" lon="5.15899">
        <ele>640.8</ele>
        <time>2011-02-06T14:53:02Z</time>
      </trkpt>
      <trkpt lat="43.94359" lon="5.15895">
        <ele>640.8</ele>
        <time>2011-02-06T14:53:08Z</time>
      </trkpt>
      <trkpt lat="43.94351" lon="5.15892">
        <ele>640.3</ele>
        <time>2011-02-06T14:53:14Z</time>
      </trkpt>
      <trkpt lat="43.94343" lon="5.15886">
        <ele>639.8</ele>
        <time>2011-02-06T14:53:20Z</time>
      </trkpt>
      <trkpt lat="43.94336" lon="5.15882">
        <ele>638.9</ele>
        <time>2011-02-06T14:53:25Z</time>
      </trkpt>
      <trkpt lat="43.94329" lon="5.15878">
        <ele>639.1</ele>
        <time>2011-02-06T14:53:30Z</time>
      </trkpt>
      <trkpt lat="43.94321" lon="5.15877">
        <ele>638.9</ele>
        <time>2011-02-06T14:53:35Z</time>
      </trkpt>
      <trkpt lat="43.94314" lon="5.15874">
        <ele>638.7</ele>
        <time>2011-02-06T14:53:41Z</time>
      </trkpt>
      <trkpt lat="43.94306" lon="5.1587">
        <ele>637.9</ele>
        <time>2011-02-06T14:53:46Z</time>
      </trkpt>
      <trkpt lat="43.94298" lon="5.15867">
        <ele>637</ele>
        <time>2011-02-06T14:53:52Z</time>
      </trkpt>
      <trkpt lat="43.94291" lon="5.15862">
        <ele>636.1</ele>
        <time>2011-02-06T14:53:57Z</time>
      </trkpt>
      <trkpt lat="43.9429" lon="5.15861">
        <ele>636</ele>
        <time>2011-02-06T14:53:58Z</time>
      </trkpt>
      <trkpt lat="43.94278" lon="5.15848">
        <ele>634.8</ele>
        <time>2011-02-06T14:54:08Z</time>
      </trkpt>
      <trkpt lat="43.94272" lon="5.1584">
        <ele>634</ele>
        <time>2011-02-06T14:54:12Z</time>
      </trkpt>
      <trkpt lat="43.94265" lon="5.15833">
        <ele>632.7</ele>
        <time>2011-02-06T14:54:18Z</time>
      </trkpt>
      <trkpt lat="43.94259" lon="5.15825">
        <ele>632.6</ele>
        <time>2011-02-06T14:54:25Z</time>
      </trkpt>
      <trkpt lat="43.94252" lon="5.15818">
        <ele>631.7</ele>
        <time>2011-02-06T14:54:31Z</time>
      </trkpt>
      <trkpt lat="43.94247" lon="5.15811">
        <ele>631.4</ele>
        <time>2011-02-06T14:54:35Z</time>
      </trkpt>
      <trkpt lat="43.94242" lon="5.15802">
        <ele>631.1</ele>
        <time>2011-02-06T14:54:40Z</time>
      </trkpt>
      <trkpt lat="43.94234" lon="5.15797">
        <ele>631.5</ele>
        <time>2011-02-06T14:54:53Z</time>
      </trkpt>
      <trkpt lat="43.94227" lon="5.1579">
        <ele>629.4</ele>
        <time>2011-02-06T14:55:54Z</time>
      </trkpt>
      <trkpt lat="43.94227" lon="5.15789">
        <ele>629.5</ele>
        <time>2011-02-06T14:55:55Z</time>
      </trkpt>
      <trkpt lat="43.9422" lon="5.158">
        <ele>630.8</ele>
        <time>2011-02-06T15:01:07Z</time>
      </trkpt>
      <trkpt lat="43.9421" lon="5.15817">
        <ele>631.3</ele>
        <time>2011-02-06T15:01:20Z</time>
      </trkpt>
      <trkpt lat="43.94207" lon="5.15827">
        <ele>631.7</ele>
        <time>2011-02-06T15:01:25Z</time>
      </trkpt>
      <trkpt lat="43.94204" lon="5.15837">
        <ele>631.9</ele>
        <time>2011-02-06T15:01:31Z</time>
      </trkpt>
      <trkpt lat="43.942" lon="5.15846">
        <ele>632</ele>
        <time>2011-02-06T15:01:37Z</time>
      </trkpt>
      <trkpt lat="43.94196" lon="5.15857">
        <ele>631.8</ele>
        <time>2011-02-06T15:01:44Z</time>
      </trkpt>
      <trkpt lat="43.94191" lon="5.15867">
        <ele>631.9</ele>
        <time>2011-02-06T15:01:51Z</time>
      </trkpt>
      <trkpt lat="43.94188" lon="5.15878">
        <ele>632.1</ele>
        <time>2011-02-06T15:01:57Z</time>
      </trkpt>
      <trkpt lat="43.94183" lon="5.15887">
        <ele>631.9</ele>
        <time>2011-02-06T15:02:03Z</time>
      </trkpt>
      <trkpt lat="43.94176" lon="5.15895">
        <ele>631.9</ele>
        <time>2011-02-06T15:02:09Z</time>
      </trkpt>
      <trkpt lat="43.94175" lon="5.15897">
        <ele>631.6</ele>
        <time>2011-02-06T15:02:10Z</time>
      </trkpt>
      <trkpt lat="43.94168" lon="5.15915">
        <ele>631.8</ele>
        <time>2011-02-06T15:02:21Z</time>
      </trkpt>
      <trkpt lat="43.94165" lon="5.15926">
        <ele>631.9</ele>
        <time>2011-02-06T15:02:27Z</time>
      </trkpt>
      <trkpt lat="43.94166" lon="5.15937">
        <ele>631.8</ele>
        <time>2011-02-06T15:02:32Z</time>
      </trkpt>
      <trkpt lat="43.94163" lon="5.15949">
        <ele>631.9</ele>
        <time>2011-02-06T15:02:37Z</time>
      </trkpt>
      <trkpt lat="43.9416" lon="5.1596">
        <ele>631.8</ele>
        <time>2011-02-06T15:02:43Z</time>
      </trkpt>
      <trkpt lat="43.94155" lon="5.15968">
        <ele>631.9</ele>
        <time>2011-02-06T15:02:48Z</time>
      </trkpt>
      <trkpt lat="43.9415" lon="5.15976">
        <ele>631.7</ele>
        <time>2011-02-06T15:02:53Z</time>
      </trkpt>
      <trkpt lat="43.94143" lon="5.15983">
        <ele>631.8</ele>
        <time>2011-02-06T15:02:58Z</time>
      </trkpt>
      <trkpt lat="43.94135" lon="5.15989">
        <ele>631.9</ele>
        <time>2011-02-06T15:03:04Z</time>
      </trkpt>
      <trkpt lat="43.94128" lon="5.15994">
        <ele>632.2</ele>
        <time>2011-02-06T15:03:09Z</time>
      </trkpt>
      <trkpt lat="43.94121" lon="5.15998">
        <ele>632.2</ele>
        <time>2011-02-06T15:03:14Z</time>
      </trkpt>
      <trkpt lat="43.94119" lon="5.15999">
        <ele>632.3</ele>
        <time>2011-02-06T15:03:15Z</time>
      </trkpt>
      <trkpt lat="43.94104" lon="5.16004">
        <ele>632.5</ele>
        <time>2011-02-06T15:03:26Z</time>
      </trkpt>
      <trkpt lat="43.94096" lon="5.16006">
        <ele>632.2</ele>
        <time>2011-02-06T15:03:32Z</time>
      </trkpt>
      <trkpt lat="43.94087" lon="5.16006">
        <ele>632.1</ele>
        <time>2011-02-06T15:03:39Z</time>
      </trkpt>
      <trkpt lat="43.9408" lon="5.16003">
        <ele>631.9</ele>
        <time>2011-02-06T15:03:45Z</time>
      </trkpt>
      <trkpt lat="43.94071" lon="5.16003">
        <ele>631.6</ele>
        <time>2011-02-06T15:03:51Z</time>
      </trkpt>
      <trkpt lat="43.94063" lon="5.16002">
        <ele>631.5</ele>
        <time>2011-02-06T15:03:56Z</time>
      </trkpt>
      <trkpt lat="43.94055" lon="5.16001">
        <ele>630.9</ele>
        <time>2011-02-06T15:04:01Z</time>
      </trkpt>
      <trkpt lat="43.94047" lon="5.16003">
        <ele>630.5</ele>
        <time>2011-02-06T15:04:06Z</time>
      </trkpt>
      <trkpt lat="43.94039" lon="5.16003">
        <ele>629.6</ele>
        <time>2011-02-06T15:04:12Z</time>
      </trkpt>
      <trkpt lat="43.9403" lon="5.16005">
        <ele>628.9</ele>
        <time>2011-02-06T15:04:17Z</time>
      </trkpt>
      <trkpt lat="43.94029" lon="5.16005">
        <ele>628.9</ele>
        <time>2011-02-06T15:04:18Z</time>
      </trkpt>
      <trkpt lat="43.94014" lon="5.16005">
        <ele>627.6</ele>
        <time>2011-02-06T15:04:26Z</time>
      </trkpt>
      <trkpt lat="43.94006" lon="5.16008">
        <ele>627.6</ele>
        <time>2011-02-06T15:04:31Z</time>
      </trkpt>
      <trkpt lat="43.93997" lon="5.1601">
        <ele>627.1</ele>
        <time>2011-02-06T15:04:36Z</time>
      </trkpt>
      <trkpt lat="43.93989" lon="5.16013">
        <ele>626.5</ele>
        <time>2011-02-06T15:04:42Z</time>
      </trkpt>
      <trkpt lat="43.93981" lon="5.16012">
        <ele>626</ele>
        <time>2011-02-06T15:04:48Z</time>
      </trkpt>
      <trkpt lat="43.93973" lon="5.16009">
        <ele>625.9</ele>
        <time>2011-02-06T15:04:54Z</time>
      </trkpt>
      <trkpt lat="43.93964" lon="5.16006">
        <ele>625.1</ele>
        <time>2011-02-06T15:05:00Z</time>
      </trkpt>
      <trkpt lat="43.93956" lon="5.16004">
        <ele>624.5</ele>
        <time>2011-02-06T15:05:06Z</time>
      </trkpt>
      <trkpt lat="43.93948" lon="5.16003">
        <ele>623.8</ele>
        <time>2011-02-06T15:05:11Z</time>
      </trkpt>
      <trkpt lat="43.9394" lon="5.16005">
        <ele>622.6</ele>
        <time>2011-02-06T15:05:18Z</time>
      </trkpt>
      <trkpt lat="43.93931" lon="5.16009">
        <ele>621.6</ele>
        <time>2011-02-06T15:05:25Z</time>
      </trkpt>
      <trkpt lat="43.9393" lon="5.16009">
        <ele>621.4</ele>
        <time>2011-02-06T15:05:26Z</time>
      </trkpt>
      <trkpt lat="43.93914" lon="5.16008">
        <ele>620.2</ele>
        <time>2011-02-06T15:05:35Z</time>
      </trkpt>
      <trkpt lat="43.93907" lon="5.16004">
        <ele>619.5</ele>
        <time>2011-02-06T15:05:40Z</time>
      </trkpt>
      <trkpt lat="43.939" lon="5.16">
        <ele>618.9</ele>
        <time>2011-02-06T15:05:45Z</time>
      </trkpt>
      <trkpt lat="43.93892" lon="5.15996">
        <ele>618.5</ele>
        <time>2011-02-06T15:05:50Z</time>
      </trkpt>
      <trkpt lat="43.93884" lon="5.15993">
        <ele>617.9</ele>
        <time>2011-02-06T15:05:55Z</time>
      </trkpt>
      <trkpt lat="43.93875" lon="5.15993">
        <ele>617.2</ele>
        <time>2011-02-06T15:06:00Z</time>
      </trkpt>
      <trkpt lat="43.93868" lon="5.1599">
        <ele>616.6</ele>
        <time>2011-02-06T15:06:04Z</time>
      </trkpt>
      <trkpt lat="43.9386" lon="5.15988">
        <ele>616.1</ele>
        <time>2011-02-06T15:06:09Z</time>
      </trkpt>
      <trkpt lat="43.93853" lon="5.15987">
        <ele>615.9</ele>
        <time>2011-02-06T15:06:15Z</time>
      </trkpt>
      <trkpt lat="43.93844" lon="5.15986">
        <ele>615.2</ele>
        <time>2011-02-06T15:06:20Z</time>
      </trkpt>
      <trkpt lat="43.93836" lon="5.15988">
        <ele>614.8</ele>
        <time>2011-02-06T15:06:25Z</time>
      </trkpt>
      <trkpt lat="43.9383" lon="5.15995">
        <ele>614.2</ele>
        <time>2011-02-06T15:06:30Z</time>
      </trkpt>
      <trkpt lat="43.93829" lon="5.15996">
        <ele>614</ele>
        <time>2011-02-06T15:06:31Z</time>
      </trkpt>
      <trkpt lat="43.93816" lon="5.16008">
        <ele>612.8</ele>
        <time>2011-02-06T15:06:42Z</time>
      </trkpt>
      <trkpt lat="43.93809" lon="5.16015">
        <ele>612.3</ele>
        <time>2011-02-06T15:06:59Z</time>
      </trkpt>
      <trkpt lat="43.93801" lon="5.1602">
        <ele>612.1</ele>
        <time>2011-02-06T15:07:05Z</time>
      </trkpt>
      <trkpt lat="43.93793" lon="5.1602">
        <ele>612.2</ele>
        <time>2011-02-06T15:07:09Z</time>
      </trkpt>
      <trkpt lat="43.93784" lon="5.16024">
        <ele>612</ele>
        <time>2011-02-06T15:07:15Z</time>
      </trkpt>
      <trkpt lat="43.93777" lon="5.16028">
        <ele>611.9</ele>
        <time>2011-02-06T15:07:19Z</time>
      </trkpt>
      <trkpt lat="43.93769" lon="5.16032">
        <ele>611.9</ele>
        <time>2011-02-06T15:07:25Z</time>
      </trkpt>
      <trkpt lat="43.93762" lon="5.16038">
        <ele>611.4</ele>
        <time>2011-02-06T15:07:30Z</time>
      </trkpt>
      <trkpt lat="43.93755" lon="5.16043">
        <ele>610.7</ele>
        <time>2011-02-06T15:07:36Z</time>
      </trkpt>
      <trkpt lat="43.93754" lon="5.16044">
        <ele>610.9</ele>
        <time>2011-02-06T15:07:37Z</time>
      </trkpt>
      <trkpt lat="43.93743" lon="5.16056">
        <ele>610.4</ele>
        <time>2011-02-06T15:07:46Z</time>
      </trkpt>
      <trkpt lat="43.93736" lon="5.16062">
        <ele>609.9</ele>
        <time>2011-02-06T15:07:51Z</time>
      </trkpt>
      <trkpt lat="43.93729" lon="5.16069">
        <ele>609.8</ele>
        <time>2011-02-06T15:07:57Z</time>
      </trkpt>
      <trkpt lat="43.9372" lon="5.16073">
        <ele>609.2</ele>
        <time>2011-02-06T15:08:04Z</time>
      </trkpt>
      <trkpt lat="43.93713" lon="5.16079">
        <ele>608.9</ele>
        <time>2011-02-06T15:08:10Z</time>
      </trkpt>
      <trkpt lat="43.93705" lon="5.16084">
        <ele>608.5</ele>
        <time>2011-02-06T15:08:16Z</time>
      </trkpt>
      <trkpt lat="43.93697" lon="5.16085">
        <ele>607.5</ele>
        <time>2011-02-06T15:08:22Z</time>
      </trkpt>
      <trkpt lat="43.93689" lon="5.1609">
        <ele>607.2</ele>
        <time>2011-02-06T15:08:27Z</time>
      </trkpt>
      <trkpt lat="43.93683" lon="5.16097">
        <ele>606</ele>
        <time>2011-02-06T15:08:33Z</time>
      </trkpt>
      <trkpt lat="43.93679" lon="5.16107">
        <ele>605</ele>
        <time>2011-02-06T15:08:38Z</time>
      </trkpt>
      <trkpt lat="43.93678" lon="5.1611">
        <ele>604.8</ele>
        <time>2011-02-06T15:08:39Z</time>
      </trkpt>
      <trkpt lat="43.93675" lon="5.16129">
        <ele>603.1</ele>
        <time>2011-02-06T15:08:48Z</time>
      </trkpt>
      <trkpt lat="43.93671" lon="5.16139">
        <ele>602.6</ele>
        <time>2011-02-06T15:08:54Z</time>
      </trkpt>
      <trkpt lat="43.93669" lon="5.1615">
        <ele>602</ele>
        <time>2011-02-06T15:08:59Z</time>
      </trkpt>
      <trkpt lat="43.93668" lon="5.16162">
        <ele>601.9</ele>
        <time>2011-02-06T15:09:05Z</time>
      </trkpt>
      <trkpt lat="43.93671" lon="5.16174">
        <ele>601</ele>
        <time>2011-02-06T15:09:11Z</time>
      </trkpt>
      <trkpt lat="43.93675" lon="5.16184">
        <ele>600.1</ele>
        <time>2011-02-06T15:09:17Z</time>
      </trkpt>
      <trkpt lat="43.93675" lon="5.16194">
        <ele>599.1</ele>
        <time>2011-02-06T15:09:22Z</time>
      </trkpt>
      <trkpt lat="43.93675" lon="5.16205">
        <ele>598.7</ele>
        <time>2011-02-06T15:09:26Z</time>
      </trkpt>
      <trkpt lat="43.93673" lon="5.16215">
        <ele>597.4</ele>
        <time>2011-02-06T15:09:31Z</time>
      </trkpt>
      <trkpt lat="43.93671" lon="5.16225">
        <ele>595.8</ele>
        <time>2011-02-06T15:09:37Z</time>
      </trkpt>
      <trkpt lat="43.93669" lon="5.16235">
        <ele>594.4</ele>
        <time>2011-02-06T15:09:43Z</time>
      </trkpt>
      <trkpt lat="43.93668" lon="5.16238">
        <ele>594.3</ele>
        <time>2011-02-06T15:09:44Z</time>
      </trkpt>
      <trkpt lat="43.93661" lon="5.16257">
        <ele>592.2</ele>
        <time>2011-02-06T15:09:53Z</time>
      </trkpt>
      <trkpt lat="43.93658" lon="5.16267">
        <ele>591</ele>
        <time>2011-02-06T15:09:58Z</time>
      </trkpt>
      <trkpt lat="43.93652" lon="5.16276">
        <ele>589.5</ele>
        <time>2011-02-06T15:10:04Z</time>
      </trkpt>
      <trkpt lat="43.93646" lon="5.16284">
        <ele>588.1</ele>
        <time>2011-02-06T15:10:10Z</time>
      </trkpt>
      <trkpt lat="43.93642" lon="5.16293">
        <ele>587</ele>
        <time>2011-02-06T15:10:15Z</time>
      </trkpt>
      <trkpt lat="43.93636" lon="5.16303">
        <ele>586</ele>
        <time>2011-02-06T15:10:21Z</time>
      </trkpt>
      <trkpt lat="43.93633" lon="5.16314">
        <ele>584.4</ele>
        <time>2011-02-06T15:10:28Z</time>
      </trkpt>
      <trkpt lat="43.93631" lon="5.16324">
        <ele>583.4</ele>
        <time>2011-02-06T15:10:33Z</time>
      </trkpt>
      <trkpt lat="43.93627" lon="5.16335">
        <ele>582.5</ele>
        <time>2011-02-06T15:10:39Z</time>
      </trkpt>
      <trkpt lat="43.93623" lon="5.16344">
        <ele>581.2</ele>
        <time>2011-02-06T15:10:44Z</time>
      </trkpt>
      <trkpt lat="43.93622" lon="5.16347">
        <ele>581</ele>
        <time>2011-02-06T15:10:45Z</time>
      </trkpt>
      <trkpt lat="43.93611" lon="5.16362">
        <ele>578.8</ele>
        <time>2011-02-06T15:10:57Z</time>
      </trkpt>
      <trkpt lat="43.93604" lon="5.16367">
        <ele>576.9</ele>
        <time>2011-02-06T15:11:02Z</time>
      </trkpt>
      <trkpt lat="43.93596" lon="5.16371">
        <ele>576.2</ele>
        <time>2011-02-06T15:11:05Z</time>
      </trkpt>
      <trkpt lat="43.93587" lon="5.16375">
        <ele>575.2</ele>
        <time>2011-02-06T15:11:11Z</time>
      </trkpt>
      <trkpt lat="43.9358" lon="5.16381">
        <ele>574.1</ele>
        <time>2011-02-06T15:11:17Z</time>
      </trkpt>
      <trkpt lat="43.93573" lon="5.16389">
        <ele>573.4</ele>
        <time>2011-02-06T15:11:23Z</time>
      </trkpt>
      <trkpt lat="43.9357" lon="5.16399">
        <ele>572.3</ele>
        <time>2011-02-06T15:11:28Z</time>
      </trkpt>
      <trkpt lat="43.93566" lon="5.16407">
        <ele>571.9</ele>
        <time>2011-02-06T15:11:32Z</time>
      </trkpt>
      <trkpt lat="43.93562" lon="5.16418">
        <ele>570.8</ele>
        <time>2011-02-06T15:11:37Z</time>
      </trkpt>
      <trkpt lat="43.93555" lon="5.16425">
        <ele>570.2</ele>
        <time>2011-02-06T15:11:43Z</time>
      </trkpt>
      <trkpt lat="43.93549" lon="5.16431">
        <ele>569.9</ele>
        <time>2011-02-06T15:11:48Z</time>
      </trkpt>
      <trkpt lat="43.93547" lon="5.16432">
        <ele>570</ele>
        <time>2011-02-06T15:11:49Z</time>
      </trkpt>
      <trkpt lat="43.93534" lon="5.16435">
        <ele>569.1</ele>
        <time>2011-02-06T15:11:57Z</time>
      </trkpt>
      <trkpt lat="43.93525" lon="5.16437">
        <ele>569.6</ele>
        <time>2011-02-06T15:12:02Z</time>
      </trkpt>
      <trkpt lat="43.93517" lon="5.16439">
        <ele>569.7</ele>
        <time>2011-02-06T15:12:07Z</time>
      </trkpt>
      <trkpt lat="43.93509" lon="5.1644">
        <ele>569.6</ele>
        <time>2011-02-06T15:12:13Z</time>
      </trkpt>
      <trkpt lat="43.935" lon="5.16441">
        <ele>569.3</ele>
        <time>2011-02-06T15:12:19Z</time>
      </trkpt>
      <trkpt lat="43.93493" lon="5.1644">
        <ele>569.2</ele>
        <time>2011-02-06T15:12:24Z</time>
      </trkpt>
      <trkpt lat="43.93485" lon="5.16439">
        <ele>569</ele>
        <time>2011-02-06T15:12:29Z</time>
      </trkpt>
      <trkpt lat="43.93477" lon="5.1644">
        <ele>569.1</ele>
        <time>2011-02-06T15:12:34Z</time>
      </trkpt>
      <trkpt lat="43.93469" lon="5.1644">
        <ele>569</ele>
        <time>2011-02-06T15:12:40Z</time>
      </trkpt>
      <trkpt lat="43.93461" lon="5.16439">
        <ele>568.8</ele>
        <time>2011-02-06T15:12:46Z</time>
      </trkpt>
      <trkpt lat="43.93453" lon="5.1644">
        <ele>568.7</ele>
        <time>2011-02-06T15:12:50Z</time>
      </trkpt>
      <trkpt lat="43.93451" lon="5.1644">
        <ele>568.8</ele>
        <time>2011-02-06T15:12:51Z</time>
      </trkpt>
      <trkpt lat="43.93437" lon="5.16441">
        <ele>568.8</ele>
        <time>2011-02-06T15:13:00Z</time>
      </trkpt>
      <trkpt lat="43.93429" lon="5.16441">
        <ele>568.8</ele>
        <time>2011-02-06T15:13:05Z</time>
      </trkpt>
      <trkpt lat="43.93421" lon="5.16442">
        <ele>568.3</ele>
        <time>2011-02-06T15:13:10Z</time>
      </trkpt>
      <trkpt lat="43.93413" lon="5.16445">
        <ele>568.4</ele>
        <time>2011-02-06T15:13:15Z</time>
      </trkpt>
      <trkpt lat="43.93405" lon="5.16448">
        <ele>568.5</ele>
        <time>2011-02-06T15:13:20Z</time>
      </trkpt>
      <trkpt lat="43.93397" lon="5.16452">
        <ele>569</ele>
        <time>2011-02-06T15:13:25Z</time>
      </trkpt>
      <trkpt lat="43.93389" lon="5.16455">
        <ele>569</ele>
        <time>2011-02-06T15:13:29Z</time>
      </trkpt>
      <trkpt lat="43.93382" lon="5.16459">
        <ele>569.4</ele>
        <time>2011-02-06T15:13:34Z</time>
      </trkpt>
      <trkpt lat="43.93375" lon="5.16463">
        <ele>569.6</ele>
        <time>2011-02-06T15:13:39Z</time>
      </trkpt>
      <trkpt lat="43.93367" lon="5.16468">
        <ele>570.1</ele>
        <time>2011-02-06T15:13:45Z</time>
      </trkpt>
      <trkpt lat="43.93359" lon="5.16474">
        <ele>570.5</ele>
        <time>2011-02-06T15:13:51Z</time>
      </trkpt>
      <trkpt lat="43.93358" lon="5.16475">
        <ele>570.4</ele>
        <time>2011-02-06T15:13:52Z</time>
      </trkpt>
      <trkpt lat="43.93348" lon="5.16491">
        <ele>569.1</ele>
        <time>2011-02-06T15:14:03Z</time>
      </trkpt>
      <trkpt lat="43.93346" lon="5.16503">
        <ele>568.1</ele>
        <time>2011-02-06T15:14:10Z</time>
      </trkpt>
      <trkpt lat="43.93344" lon="5.16514">
        <ele>567.7</ele>
        <time>2011-02-06T15:14:15Z</time>
      </trkpt>
      <trkpt lat="43.93341" lon="5.16525">
        <ele>566.4</ele>
        <time>2011-02-06T15:14:22Z</time>
      </trkpt>
      <trkpt lat="43.93336" lon="5.16535">
        <ele>566</ele>
        <time>2011-02-06T15:14:27Z</time>
      </trkpt>
      <trkpt lat="43.9333" lon="5.16543">
        <ele>565.8</ele>
        <time>2011-02-06T15:14:32Z</time>
      </trkpt>
      <trkpt lat="43.93324" lon="5.16552">
        <ele>565.3</ele>
        <time>2011-02-06T15:14:37Z</time>
      </trkpt>
      <trkpt lat="43.93318" lon="5.16561">
        <ele>565.3</ele>
        <time>2011-02-06T15:14:41Z</time>
      </trkpt>
      <trkpt lat="43.93314" lon="5.1657">
        <ele>565.7</ele>
        <time>2011-02-06T15:14:45Z</time>
      </trkpt>
      <trkpt lat="43.9331" lon="5.1658">
        <ele>566.3</ele>
        <time>2011-02-06T15:14:50Z</time>
      </trkpt>
      <trkpt lat="43.93305" lon="5.16589">
        <ele>566.2</ele>
        <time>2011-02-06T15:14:55Z</time>
      </trkpt>
      <trkpt lat="43.93305" lon="5.16591">
        <ele>566.2</ele>
        <time>2011-02-06T15:14:56Z</time>
      </trkpt>
      <trkpt lat="43.93293" lon="5.16604">
        <ele>566.6</ele>
        <time>2011-02-06T15:15:05Z</time>
      </trkpt>
      <trkpt lat="43.93285" lon="5.16605">
        <ele>566.7</ele>
        <time>2011-02-06T15:15:10Z</time>
      </trkpt>
      <trkpt lat="43.93277" lon="5.16608">
        <ele>566.9</ele>
        <time>2011-02-06T15:15:15Z</time>
      </trkpt>
      <trkpt lat="43.93269" lon="5.16612">
        <ele>566.5</ele>
        <time>2011-02-06T15:15:20Z</time>
      </trkpt>
      <trkpt lat="43.93262" lon="5.16614">
        <ele>566.7</ele>
        <time>2011-02-06T15:15:25Z</time>
      </trkpt>
      <trkpt lat="43.93255" lon="5.16618">
        <ele>566.5</ele>
        <time>2011-02-06T15:15:30Z</time>
      </trkpt>
      <trkpt lat="43.93246" lon="5.16621">
        <ele>566.1</ele>
        <time>2011-02-06T15:15:36Z</time>
      </trkpt>
      <trkpt lat="43.93239" lon="5.16624">
        <ele>565.1</ele>
        <time>2011-02-06T15:15:41Z</time>
      </trkpt>
      <trkpt lat="43.9323" lon="5.16626">
        <ele>563.7</ele>
        <time>2011-02-06T15:15:47Z</time>
      </trkpt>
      <trkpt lat="43.93222" lon="5.16626">
        <ele>562.6</ele>
        <time>2011-02-06T15:15:52Z</time>
      </trkpt>
      <trkpt lat="43.93214" lon="5.16627">
        <ele>562</ele>
        <time>2011-02-06T15:15:57Z</time>
      </trkpt>
      <trkpt lat="43.93213" lon="5.16627">
        <ele>561.8</ele>
        <time>2011-02-06T15:15:58Z</time>
      </trkpt>
      <trkpt lat="43.932" lon="5.16617">
        <ele>559.5</ele>
        <time>2011-02-06T15:16:09Z</time>
      </trkpt>
      <trkpt lat="43.93194" lon="5.16611">
        <ele>559</ele>
        <time>2011-02-06T15:16:13Z</time>
      </trkpt>
      <trkpt lat="43.93187" lon="5.16605">
        <ele>558.7</ele>
        <time>2011-02-06T15:16:17Z</time>
      </trkpt>
      <trkpt lat="43.93181" lon="5.166">
        <ele>558</ele>
        <time>2011-02-06T15:16:21Z</time>
      </trkpt>
      <trkpt lat="43.93174" lon="5.16595">
        <ele>557.3</ele>
        <time>2011-02-06T15:16:25Z</time>
      </trkpt>
      <trkpt lat="43.93166" lon="5.16594">
        <ele>557</ele>
        <time>2011-02-06T15:16:30Z</time>
      </trkpt>
      <trkpt lat="43.93158" lon="5.16596">
        <ele>556.5</ele>
        <time>2011-02-06T15:16:35Z</time>
      </trkpt>
      <trkpt lat="43.9315" lon="5.16601">
        <ele>555.6</ele>
        <time>2011-02-06T15:16:40Z</time>
      </trkpt>
      <trkpt lat="43.93142" lon="5.16599">
        <ele>555.1</ele>
        <time>2011-02-06T15:16:46Z</time>
      </trkpt>
      <trkpt lat="43.93134" lon="5.16594">
        <ele>555.1</ele>
        <time>2011-02-06T15:16:51Z</time>
      </trkpt>
      <trkpt lat="43.93127" lon="5.16588">
        <ele>554.5</ele>
        <time>2011-02-06T15:16:57Z</time>
      </trkpt>
      <trkpt lat="43.93121" lon="5.16582">
        <ele>554.3</ele>
        <time>2011-02-06T15:17:02Z</time>
      </trkpt>
      <trkpt lat="43.9312" lon="5.16581">
        <ele>554.3</ele>
        <time>2011-02-06T15:17:03Z</time>
      </trkpt>
      <trkpt lat="43.93105" lon="5.1657">
        <ele>553.3</ele>
        <time>2011-02-06T15:17:13Z</time>
      </trkpt>
      <trkpt lat="43.93097" lon="5.16566">
        <ele>552.6</ele>
        <time>2011-02-06T15:17:19Z</time>
      </trkpt>
      <trkpt lat="43.93089" lon="5.16562">
        <ele>551.9</ele>
        <time>2011-02-06T15:17:25Z</time>
      </trkpt>
      <trkpt lat="43.93081" lon="5.16558">
        <ele>550.7</ele>
        <time>2011-02-06T15:17:31Z</time>
      </trkpt>
      <trkpt lat="43.93074" lon="5.16551">
        <ele>550</ele>
        <time>2011-02-06T15:17:36Z</time>
      </trkpt>
      <trkpt lat="43.93065" lon="5.16547">
        <ele>549.1</ele>
        <time>2011-02-06T15:17:43Z</time>
      </trkpt>
      <trkpt lat="43.9306" lon="5.1654">
        <ele>548.2</ele>
        <time>2011-02-06T15:17:48Z</time>
      </trkpt>
      <trkpt lat="43.93052" lon="5.16534">
        <ele>547.8</ele>
        <time>2011-02-06T15:17:52Z</time>
      </trkpt>
      <trkpt lat="43.93046" lon="5.16529">
        <ele>547.3</ele>
        <time>2011-02-06T15:17:56Z</time>
      </trkpt>
      <trkpt lat="43.93038" lon="5.16525">
        <ele>546.1</ele>
        <time>2011-02-06T15:18:02Z</time>
      </trkpt>
      <trkpt lat="43.9303" lon="5.16523">
        <ele>545.2</ele>
        <time>2011-02-06T15:18:07Z</time>
      </trkpt>
      <trkpt lat="43.93029" lon="5.16522">
        <ele>545</ele>
        <time>2011-02-06T15:18:08Z</time>
      </trkpt>
      <trkpt lat="43.93014" lon="5.1652">
        <ele>543.7</ele>
        <time>2011-02-06T15:18:17Z</time>
      </trkpt>
      <trkpt lat="43.93007" lon="5.16519">
        <ele>543.1</ele>
        <time>2011-02-06T15:18:22Z</time>
      </trkpt>
      <trkpt lat="43.92999" lon="5.16519">
        <ele>542.1</ele>
        <time>2011-02-06T15:18:27Z</time>
      </trkpt>
      <trkpt lat="43.92991" lon="5.16516">
        <ele>541.2</ele>
        <time>2011-02-06T15:18:32Z</time>
      </trkpt>
      <trkpt lat="43.92982" lon="5.16514">
        <ele>539.9</ele>
        <time>2011-02-06T15:18:38Z</time>
      </trkpt>
      <trkpt lat="43.92974" lon="5.16515">
        <ele>538.9</ele>
        <time>2011-02-06T15:18:43Z</time>
      </trkpt>
      <trkpt lat="43.92967" lon="5.16515">
        <ele>537.4</ele>
        <time>2011-02-06T15:18:48Z</time>
      </trkpt>
      <trkpt lat="43.92958" lon="5.16514">
        <ele>536.6</ele>
        <time>2011-02-06T15:18:53Z</time>
      </trkpt>
      <trkpt lat="43.92951" lon="5.16512">
        <ele>535.6</ele>
        <time>2011-02-06T15:18:58Z</time>
      </trkpt>
      <trkpt lat="43.92942" lon="5.16512">
        <ele>534</ele>
        <time>2011-02-06T15:19:04Z</time>
      </trkpt>
      <trkpt lat="43.92935" lon="5.16511">
        <ele>533</ele>
        <time>2011-02-06T15:19:08Z</time>
      </trkpt>
      <trkpt lat="43.92933" lon="5.16512">
        <ele>532.6</ele>
        <time>2011-02-06T15:19:09Z</time>
      </trkpt>
      <trkpt lat="43.9292" lon="5.16516">
        <ele>530.5</ele>
        <time>2011-02-06T15:19:19Z</time>
      </trkpt>
      <trkpt lat="43.92914" lon="5.1651">
        <ele>529.7</ele>
        <time>2011-02-06T15:19:23Z</time>
      </trkpt>
      <trkpt lat="43.92906" lon="5.16508">
        <ele>529</ele>
        <time>2011-02-06T15:19:28Z</time>
      </trkpt>
      <trkpt lat="43.92897" lon="5.16505">
        <ele>528.4</ele>
        <time>2011-02-06T15:19:33Z</time>
      </trkpt>
      <trkpt lat="43.92889" lon="5.16504">
        <ele>527.5</ele>
        <time>2011-02-06T15:19:38Z</time>
      </trkpt>
      <trkpt lat="43.92881" lon="5.16503">
        <ele>526.9</ele>
        <time>2011-02-06T15:19:43Z</time>
      </trkpt>
      <trkpt lat="43.92873" lon="5.16504">
        <ele>526.7</ele>
        <time>2011-02-06T15:19:48Z</time>
      </trkpt>
      <trkpt lat="43.92865" lon="5.16503">
        <ele>526</ele>
        <time>2011-02-06T15:19:53Z</time>
      </trkpt>
      <trkpt lat="43.92857" lon="5.16502">
        <ele>525.1</ele>
        <time>2011-02-06T15:19:59Z</time>
      </trkpt>
      <trkpt lat="43.9285" lon="5.16504">
        <ele>524.4</ele>
        <time>2011-02-06T15:20:04Z</time>
      </trkpt>
      <trkpt lat="43.92842" lon="5.16505">
        <ele>523.7</ele>
        <time>2011-02-06T15:20:08Z</time>
      </trkpt>
      <trkpt lat="43.92835" lon="5.16505">
        <ele>522.9</ele>
        <time>2011-02-06T15:20:12Z</time>
      </trkpt>
      <trkpt lat="43.92833" lon="5.16506">
        <ele>522.4</ele>
        <time>2011-02-06T15:20:13Z</time>
      </trkpt>
      <trkpt lat="43.92818" lon="5.1651">
        <ele>521.3</ele>
        <time>2011-02-06T15:20:22Z</time>
      </trkpt>
      <trkpt lat="43.9281" lon="5.16514">
        <ele>519.7</ele>
        <time>2011-02-06T15:20:27Z</time>
      </trkpt>
      <trkpt lat="43.92803" lon="5.16521">
        <ele>518.7</ele>
        <time>2011-02-06T15:20:32Z</time>
      </trkpt>
      <trkpt lat="43.92796" lon="5.16527">
        <ele>517.6</ele>
        <time>2011-02-06T15:20:37Z</time>
      </trkpt>
      <trkpt lat="43.92787" lon="5.16528">
        <ele>517.1</ele>
        <time>2011-02-06T15:20:41Z</time>
      </trkpt>
      <trkpt lat="43.9278" lon="5.16528">
        <ele>516.3</ele>
        <time>2011-02-06T15:20:45Z</time>
      </trkpt>
      <trkpt lat="43.92771" lon="5.1653">
        <ele>515.3</ele>
        <time>2011-02-06T15:20:50Z</time>
      </trkpt>
      <trkpt lat="43.92763" lon="5.16531">
        <ele>514.6</ele>
        <time>2011-02-06T15:20:54Z</time>
      </trkpt>
      <trkpt lat="43.92755" lon="5.16532">
        <ele>514.3</ele>
        <time>2011-02-06T15:20:58Z</time>
      </trkpt>
      <trkpt lat="43.92747" lon="5.16534">
        <ele>513.5</ele>
        <time>2011-02-06T15:21:03Z</time>
      </trkpt>
      <trkpt lat="43.92739" lon="5.16536">
        <ele>512.5</ele>
        <time>2011-02-06T15:21:07Z</time>
      </trkpt>
      <trkpt lat="43.92732" lon="5.1654">
        <ele>511.5</ele>
        <time>2011-02-06T15:21:12Z</time>
      </trkpt>
      <trkpt lat="43.92725" lon="5.16547">
        <ele>510.5</ele>
        <time>2011-02-06T15:21:17Z</time>
      </trkpt>
      <trkpt lat="43.92723" lon="5.16549">
        <ele>510.1</ele>
        <time>2011-02-06T15:21:18Z</time>
      </trkpt>
      <trkpt lat="43.92711" lon="5.16558">
        <ele>508.8</ele>
        <time>2011-02-06T15:21:25Z</time>
      </trkpt>
      <trkpt lat="43.92704" lon="5.16563">
        <ele>507.9</ele>
        <time>2011-02-06T15:21:30Z</time>
      </trkpt>
      <trkpt lat="43.92696" lon="5.16563">
        <ele>506.3</ele>
        <time>2011-02-06T15:21:35Z</time>
      </trkpt>
      <trkpt lat="43.92687" lon="5.1656">
        <ele>504.3</ele>
        <time>2011-02-06T15:21:40Z</time>
      </trkpt>
      <trkpt lat="43.9268" lon="5.16559">
        <ele>503.6</ele>
        <time>2011-02-06T15:21:43Z</time>
      </trkpt>
      <trkpt lat="43.92672" lon="5.16559">
        <ele>502.8</ele>
        <time>2011-02-06T15:21:46Z</time>
      </trkpt>
      <trkpt lat="43.92664" lon="5.16559">
        <ele>502</ele>
        <time>2011-02-06T15:21:50Z</time>
      </trkpt>
      <trkpt lat="43.92655" lon="5.16559">
        <ele>501</ele>
        <time>2011-02-06T15:21:56Z</time>
      </trkpt>
      <trkpt lat="43.92647" lon="5.16562">
        <ele>500.3</ele>
        <time>2011-02-06T15:22:01Z</time>
      </trkpt>
      <trkpt lat="43.92639" lon="5.16564">
        <ele>499</ele>
        <time>2011-02-06T15:22:09Z</time>
      </trkpt>
      <trkpt lat="43.92632" lon="5.16568">
        <ele>497.9</ele>
        <time>2011-02-06T15:22:14Z</time>
      </trkpt>
      <trkpt lat="43.92624" lon="5.16569">
        <ele>497.3</ele>
        <time>2011-02-06T15:22:18Z</time>
      </trkpt>
      <trkpt lat="43.92622" lon="5.1657">
        <ele>497.2</ele>
        <time>2011-02-06T15:22:19Z</time>
      </trkpt>
      <trkpt lat="43.92609" lon="5.16582">
        <ele>496</ele>
        <time>2011-02-06T15:22:28Z</time>
      </trkpt>
      <trkpt lat="43.926" lon="5.16584">
        <ele>495.6</ele>
        <time>2011-02-06T15:22:33Z</time>
      </trkpt>
      <trkpt lat="43.92593" lon="5.16585">
        <ele>495.4</ele>
        <time>2011-02-06T15:22:37Z</time>
      </trkpt>
      <trkpt lat="43.92585" lon="5.16586">
        <ele>494.9</ele>
        <time>2011-02-06T15:22:42Z</time>
      </trkpt>
      <trkpt lat="43.92577" lon="5.16585">
        <ele>493.7</ele>
        <time>2011-02-06T15:22:47Z</time>
      </trkpt>
      <trkpt lat="43.92569" lon="5.16581">
        <ele>492.7</ele>
        <time>2011-02-06T15:22:53Z</time>
      </trkpt>
      <trkpt lat="43.92562" lon="5.16585">
        <ele>492.3</ele>
        <time>2011-02-06T15:22:58Z</time>
      </trkpt>
      <trkpt lat="43.92555" lon="5.16592">
        <ele>491.6</ele>
        <time>2011-02-06T15:23:03Z</time>
      </trkpt>
      <trkpt lat="43.92548" lon="5.16599">
        <ele>491.4</ele>
        <time>2011-02-06T15:23:10Z</time>
      </trkpt>
      <trkpt lat="43.92541" lon="5.16605">
        <ele>490.6</ele>
        <time>2011-02-06T15:23:16Z</time>
      </trkpt>
      <trkpt lat="43.92536" lon="5.16613">
        <ele>489.9</ele>
        <time>2011-02-06T15:23:20Z</time>
      </trkpt>
      <trkpt lat="43.92534" lon="5.16615">
        <ele>489.9</ele>
        <time>2011-02-06T15:23:21Z</time>
      </trkpt>
      <trkpt lat="43.92521" lon="5.16625">
        <ele>488.6</ele>
        <time>2011-02-06T15:24:07Z</time>
      </trkpt>
      <trkpt lat="43.92514" lon="5.16627">
        <ele>488.5</ele>
        <time>2011-02-06T15:24:12Z</time>
      </trkpt>
      <trkpt lat="43.92505" lon="5.16627">
        <ele>487.8</ele>
        <time>2011-02-06T15:24:18Z</time>
      </trkpt>
      <trkpt lat="43.92497" lon="5.16628">
        <ele>487.4</ele>
        <time>2011-02-06T15:24:23Z</time>
      </trkpt>
      <trkpt lat="43.92495" lon="5.16629">
        <ele>487.3</ele>
        <time>2011-02-06T15:24:24Z</time>
      </trkpt>
      <trkpt lat="43.92481" lon="5.1663">
        <ele>486.7</ele>
        <time>2011-02-06T15:24:32Z</time>
      </trkpt>
      <trkpt lat="43.92473" lon="5.16634">
        <ele>486.2</ele>
        <time>2011-02-06T15:24:38Z</time>
      </trkpt>
      <trkpt lat="43.92464" lon="5.16635">
        <ele>486.3</ele>
        <time>2011-02-06T15:24:43Z</time>
      </trkpt>
      <trkpt lat="43.92456" lon="5.16637">
        <ele>486.3</ele>
        <time>2011-02-06T15:24:48Z</time>
      </trkpt>
      <trkpt lat="43.92449" lon="5.16641">
        <ele>486.1</ele>
        <time>2011-02-06T15:24:53Z</time>
      </trkpt>
      <trkpt lat="43.9244" lon="5.16643">
        <ele>486.4</ele>
        <time>2011-02-06T15:24:58Z</time>
      </trkpt>
      <trkpt lat="43.92433" lon="5.16648">
        <ele>486.6</ele>
        <time>2011-02-06T15:25:04Z</time>
      </trkpt>
      <trkpt lat="43.92425" lon="5.16654">
        <ele>487</ele>
        <time>2011-02-06T15:25:11Z</time>
      </trkpt>
      <trkpt lat="43.92416" lon="5.16651">
        <ele>487.3</ele>
        <time>2011-02-06T15:25:29Z</time>
      </trkpt>
      <trkpt lat="43.92415" lon="5.16651">
        <ele>487.4</ele>
        <time>2011-02-06T15:25:30Z</time>
      </trkpt>
      <trkpt lat="43.92402" lon="5.16665">
        <ele>488.8</ele>
        <time>2011-02-06T15:25:59Z</time>
      </trkpt>
      <trkpt lat="43.92394" lon="5.16669">
        <ele>489.1</ele>
        <time>2011-02-06T15:26:05Z</time>
      </trkpt>
      <trkpt lat="43.92387" lon="5.16675">
        <ele>489.6</ele>
        <time>2011-02-06T15:26:09Z</time>
      </trkpt>
      <trkpt lat="43.92381" lon="5.16681">
        <ele>490.5</ele>
        <time>2011-02-06T15:26:12Z</time>
      </trkpt>
      <trkpt lat="43.92374" lon="5.16686">
        <ele>490.9</ele>
        <time>2011-02-06T15:26:15Z</time>
      </trkpt>
      <trkpt lat="43.92369" lon="5.16694">
        <ele>491.4</ele>
        <time>2011-02-06T15:26:20Z</time>
      </trkpt>
      <trkpt lat="43.92363" lon="5.16701">
        <ele>492</ele>
        <time>2011-02-06T15:26:25Z</time>
      </trkpt>
      <trkpt lat="43.92355" lon="5.16705">
        <ele>492</ele>
        <time>2011-02-06T15:26:32Z</time>
      </trkpt>
      <trkpt lat="43.92353" lon="5.16704">
        <ele>492.1</ele>
        <time>2011-02-06T15:26:33Z</time>
      </trkpt>
      <trkpt lat="43.9234" lon="5.16695">
        <ele>492.9</ele>
        <time>2011-02-06T15:26:44Z</time>
      </trkpt>
      <trkpt lat="43.92332" lon="5.16691">
        <ele>493.2</ele>
        <time>2011-02-06T15:26:49Z</time>
      </trkpt>
      <trkpt lat="43.92324" lon="5.16691">
        <ele>494.1</ele>
        <time>2011-02-06T15:26:55Z</time>
      </trkpt>
      <trkpt lat="43.92316" lon="5.16692">
        <ele>494.7</ele>
        <time>2011-02-06T15:27:00Z</time>
      </trkpt>
      <trkpt lat="43.92308" lon="5.16694">
        <ele>494.9</ele>
        <time>2011-02-06T15:27:06Z</time>
      </trkpt>
      <trkpt lat="43.923" lon="5.16697">
        <ele>494.6</ele>
        <time>2011-02-06T15:27:12Z</time>
      </trkpt>
      <trkpt lat="43.92292" lon="5.16701">
        <ele>494.1</ele>
        <time>2011-02-06T15:27:17Z</time>
      </trkpt>
      <trkpt lat="43.92285" lon="5.16704">
        <ele>493.3</ele>
        <time>2011-02-06T15:27:22Z</time>
      </trkpt>
      <trkpt lat="43.92277" lon="5.16709">
        <ele>493</ele>
        <time>2011-02-06T15:27:28Z</time>
      </trkpt>
      <trkpt lat="43.92269" lon="5.16715">
        <ele>492.6</ele>
        <time>2011-02-06T15:27:34Z</time>
      </trkpt>
      <trkpt lat="43.92268" lon="5.16716">
        <ele>492.5</ele>
        <time>2011-02-06T15:27:35Z</time>
      </trkpt>
      <trkpt lat="43.92256" lon="5.16729">
        <ele>491.1</ele>
        <time>2011-02-06T15:27:46Z</time>
      </trkpt>
      <trkpt lat="43.92249" lon="5.16731">
        <ele>490.7</ele>
        <time>2011-02-06T15:27:51Z</time>
      </trkpt>
      <trkpt lat="43.92241" lon="5.16733">
        <ele>489.9</ele>
        <time>2011-02-06T15:27:56Z</time>
      </trkpt>
      <trkpt lat="43.92232" lon="5.16735">
        <ele>489.6</ele>
        <time>2011-02-06T15:28:02Z</time>
      </trkpt>
      <trkpt lat="43.92225" lon="5.16741">
        <ele>489.6</ele>
        <time>2011-02-06T15:28:08Z</time>
      </trkpt>
      <trkpt lat="43.92217" lon="5.16744">
        <ele>489.1</ele>
        <time>2011-02-06T15:28:13Z</time>
      </trkpt>
      <trkpt lat="43.92209" lon="5.16744">
        <ele>488.5</ele>
        <time>2011-02-06T15:28:18Z</time>
      </trkpt>
      <trkpt lat="43.922" lon="5.16742">
        <ele>487.7</ele>
        <time>2011-02-06T15:28:24Z</time>
      </trkpt>
      <trkpt lat="43.92192" lon="5.1674">
        <ele>488</ele>
        <time>2011-02-06T15:28:29Z</time>
      </trkpt>
      <trkpt lat="43.92183" lon="5.16736">
        <ele>487</ele>
        <time>2011-02-06T15:28:35Z</time>
      </trkpt>
      <trkpt lat="43.92182" lon="5.16736">
        <ele>487</ele>
        <time>2011-02-06T15:28:36Z</time>
      </trkpt>
      <trkpt lat="43.92169" lon="5.16735">
        <ele>486.1</ele>
        <time>2011-02-06T15:28:44Z</time>
      </trkpt>
      <trkpt lat="43.92161" lon="5.1674">
        <ele>485.5</ele>
        <time>2011-02-06T15:28:50Z</time>
      </trkpt>
      <trkpt lat="43.92157" lon="5.1675">
        <ele>484.8</ele>
        <time>2011-02-06T15:28:55Z</time>
      </trkpt>
      <trkpt lat="43.92154" lon="5.16762">
        <ele>485</ele>
        <time>2011-02-06T15:29:50Z</time>
      </trkpt>
      <trkpt lat="43.92154" lon="5.16762">
        <ele>485</ele>
        <time>2011-02-06T15:29:51Z</time>
      </trkpt>
      <trkpt lat="43.92145" lon="5.16769">
        <ele>482.7</ele>
        <time>2011-02-06T15:31:56Z</time>
      </trkpt>
      <trkpt lat="43.9213" lon="5.16766">
        <ele>480.8</ele>
        <time>2011-02-06T15:32:12Z</time>
      </trkpt>
      <trkpt lat="43.92121" lon="5.16767">
        <ele>479.4</ele>
        <time>2011-02-06T15:32:22Z</time>
      </trkpt>
      <trkpt lat="43.92113" lon="5.16766">
        <ele>478.1</ele>
        <time>2011-02-06T15:32:29Z</time>
      </trkpt>
      <trkpt lat="43.92105" lon="5.16766">
        <ele>477.2</ele>
        <time>2011-02-06T15:32:34Z</time>
      </trkpt>
      <trkpt lat="43.92096" lon="5.16767">
        <ele>476</ele>
        <time>2011-02-06T15:32:41Z</time>
      </trkpt>
      <trkpt lat="43.92089" lon="5.1677">
        <ele>474.8</ele>
        <time>2011-02-06T15:32:47Z</time>
      </trkpt>
      <trkpt lat="43.92081" lon="5.16776">
        <ele>473.6</ele>
        <time>2011-02-06T15:32:55Z</time>
      </trkpt>
      <trkpt lat="43.92073" lon="5.16781">
        <ele>472.4</ele>
        <time>2011-02-06T15:33:01Z</time>
      </trkpt>
      <trkpt lat="43.92072" lon="5.16782">
        <ele>472.1</ele>
        <time>2011-02-06T15:33:02Z</time>
      </trkpt>
      <trkpt lat="43.92057" lon="5.1678">
        <ele>469.4</ele>
        <time>2011-02-06T15:33:16Z</time>
      </trkpt>
      <trkpt lat="43.92048" lon="5.16778">
        <ele>468.2</ele>
        <time>2011-02-06T15:33:22Z</time>
      </trkpt>
      <trkpt lat="43.9204" lon="5.16779">
        <ele>466.7</ele>
        <time>2011-02-06T15:33:27Z</time>
      </trkpt>
      <trkpt lat="43.92032" lon="5.1678">
        <ele>464.6</ele>
        <time>2011-02-06T15:33:33Z</time>
      </trkpt>
      <trkpt lat="43.92025" lon="5.16785">
        <ele>463.3</ele>
        <time>2011-02-06T15:33:38Z</time>
      </trkpt>
      <trkpt lat="43.92016" lon="5.16788">
        <ele>461.5</ele>
        <time>2011-02-06T15:33:44Z</time>
      </trkpt>
      <trkpt lat="43.9201" lon="5.16793">
        <ele>460</ele>
        <time>2011-02-06T15:33:49Z</time>
      </trkpt>
      <trkpt lat="43.92004" lon="5.16799">
        <ele>458.9</ele>
        <time>2011-02-06T15:33:53Z</time>
      </trkpt>
      <trkpt lat="43.91997" lon="5.16802">
        <ele>457.6</ele>
        <time>2011-02-06T15:33:57Z</time>
      </trkpt>
      <trkpt lat="43.91991" lon="5.16807">
        <ele>456.3</ele>
        <time>2011-02-06T15:34:01Z</time>
      </trkpt>
      <trkpt lat="43.91985" lon="5.16815">
        <ele>455.8</ele>
        <time>2011-02-06T15:34:07Z</time>
      </trkpt>
      <trkpt lat="43.91984" lon="5.16816">
        <ele>455.5</ele>
        <time>2011-02-06T15:34:08Z</time>
      </trkpt>
      <trkpt lat="43.91977" lon="5.16835">
        <ele>454.9</ele>
        <time>2011-02-06T15:34:18Z</time>
      </trkpt>
      <trkpt lat="43.9197" lon="5.16836">
        <ele>453.3</ele>
        <time>2011-02-06T15:34:25Z</time>
      </trkpt>
      <trkpt lat="43.91961" lon="5.16834">
        <ele>452</ele>
        <time>2011-02-06T15:34:32Z</time>
      </trkpt>
      <trkpt lat="43.91954" lon="5.1684">
        <ele>450.6</ele>
        <time>2011-02-06T15:34:38Z</time>
      </trkpt>
      <trkpt lat="43.91947" lon="5.16846">
        <ele>449.2</ele>
        <time>2011-02-06T15:34:44Z</time>
      </trkpt>
      <trkpt lat="43.9194" lon="5.16852">
        <ele>448.2</ele>
        <time>2011-02-06T15:34:51Z</time>
      </trkpt>
      <trkpt lat="43.91932" lon="5.16855">
        <ele>447.5</ele>
        <time>2011-02-06T15:35:01Z</time>
      </trkpt>
      <trkpt lat="43.91924" lon="5.16859">
        <ele>446.6</ele>
        <time>2011-02-06T15:35:07Z</time>
      </trkpt>
      <trkpt lat="43.91916" lon="5.16857">
        <ele>445.2</ele>
        <time>2011-02-06T15:35:14Z</time>
      </trkpt>
      <trkpt lat="43.91914" lon="5.16856">
        <ele>444.8</ele>
        <time>2011-02-06T15:35:15Z</time>
      </trkpt>
      <trkpt lat="43.91901" lon="5.16849">
        <ele>442.5</ele>
        <time>2011-02-06T15:35:22Z</time>
      </trkpt>
      <trkpt lat="43.91894" lon="5.16845">
        <ele>441.8</ele>
        <time>2011-02-06T15:35:27Z</time>
      </trkpt>
      <trkpt lat="43.91886" lon="5.16842">
        <ele>439.7</ele>
        <time>2011-02-06T15:35:34Z</time>
      </trkpt>
      <trkpt lat="43.91878" lon="5.16843">
        <ele>437.2</ele>
        <time>2011-02-06T15:35:41Z</time>
      </trkpt>
      <trkpt lat="43.9187" lon="5.16847">
        <ele>436.4</ele>
        <time>2011-02-06T15:35:50Z</time>
      </trkpt>
      <trkpt lat="43.91862" lon="5.1685">
        <ele>435.3</ele>
        <time>2011-02-06T15:35:55Z</time>
      </trkpt>
      <trkpt lat="43.91853" lon="5.16848">
        <ele>433.8</ele>
        <time>2011-02-06T15:36:03Z</time>
      </trkpt>
      <trkpt lat="43.91845" lon="5.16846">
        <ele>432</ele>
        <time>2011-02-06T15:36:09Z</time>
      </trkpt>
      <trkpt lat="43.91837" lon="5.16844">
        <ele>430.8</ele>
        <time>2011-02-06T15:36:15Z</time>
      </trkpt>
      <trkpt lat="43.9183" lon="5.16841">
        <ele>429.5</ele>
        <time>2011-02-06T15:36:21Z</time>
      </trkpt>
      <trkpt lat="43.91829" lon="5.1684">
        <ele>429.4</ele>
        <time>2011-02-06T15:36:22Z</time>
      </trkpt>
      <trkpt lat="43.91815" lon="5.16833">
        <ele>426.8</ele>
        <time>2011-02-06T15:36:34Z</time>
      </trkpt>
      <trkpt lat="43.91807" lon="5.16832">
        <ele>425.2</ele>
        <time>2011-02-06T15:36:40Z</time>
      </trkpt>
      <trkpt lat="43.91799" lon="5.16828">
        <ele>423.8</ele>
        <time>2011-02-06T15:36:45Z</time>
      </trkpt>
      <trkpt lat="43.91792" lon="5.16822">
        <ele>422.5</ele>
        <time>2011-02-06T15:36:52Z</time>
      </trkpt>
      <trkpt lat="43.91784" lon="5.16823">
        <ele>421.5</ele>
        <time>2011-02-06T15:36:58Z</time>
      </trkpt>
      <trkpt lat="43.91777" lon="5.16817">
        <ele>420.3</ele>
        <time>2011-02-06T15:37:12Z</time>
      </trkpt>
      <trkpt lat="43.91769" lon="5.16813">
        <ele>419.3</ele>
        <time>2011-02-06T15:37:17Z</time>
      </trkpt>
      <trkpt lat="43.91761" lon="5.1681">
        <ele>418.3</ele>
        <time>2011-02-06T15:37:22Z</time>
      </trkpt>
      <trkpt lat="43.9176" lon="5.16809">
        <ele>418</ele>
        <time>2011-02-06T15:37:23Z</time>
      </trkpt>
      <trkpt lat="43.91747" lon="5.16801">
        <ele>416.2</ele>
        <time>2011-02-06T15:37:32Z</time>
      </trkpt>
      <trkpt lat="43.91738" lon="5.16801">
        <ele>415.5</ele>
        <time>2011-02-06T15:37:37Z</time>
      </trkpt>
      <trkpt lat="43.91731" lon="5.168">
        <ele>414.3</ele>
        <time>2011-02-06T15:37:42Z</time>
      </trkpt>
      <trkpt lat="43.91723" lon="5.168">
        <ele>413</ele>
        <time>2011-02-06T15:37:47Z</time>
      </trkpt>
      <trkpt lat="43.91715" lon="5.16797">
        <ele>411.6</ele>
        <time>2011-02-06T15:37:53Z</time>
      </trkpt>
      <trkpt lat="43.91708" lon="5.16792">
        <ele>409.9</ele>
        <time>2011-02-06T15:37:58Z</time>
      </trkpt>
      <trkpt lat="43.91701" lon="5.16784">
        <ele>408.3</ele>
        <time>2011-02-06T15:38:03Z</time>
      </trkpt>
      <trkpt lat="43.91697" lon="5.16774">
        <ele>407.3</ele>
        <time>2011-02-06T15:38:09Z</time>
      </trkpt>
      <trkpt lat="43.9169" lon="5.16768">
        <ele>407.1</ele>
        <time>2011-02-06T15:38:14Z</time>
      </trkpt>
      <trkpt lat="43.91684" lon="5.1676">
        <ele>406.3</ele>
        <time>2011-02-06T15:38:18Z</time>
      </trkpt>
      <trkpt lat="43.91678" lon="5.16753">
        <ele>406.1</ele>
        <time>2011-02-06T15:38:22Z</time>
      </trkpt>
      <trkpt lat="43.91672" lon="5.16745">
        <ele>405.9</ele>
        <time>2011-02-06T15:38:27Z</time>
      </trkpt>
      <trkpt lat="43.91671" lon="5.16743">
        <ele>405.9</ele>
        <time>2011-02-06T15:38:28Z</time>
      </trkpt>
      <trkpt lat="43.91662" lon="5.16729">
        <ele>404.9</ele>
        <time>2011-02-06T15:38:37Z</time>
      </trkpt>
      <trkpt lat="43.91656" lon="5.16722">
        <ele>404.1</ele>
        <time>2011-02-06T15:38:42Z</time>
      </trkpt>
      <trkpt lat="43.91651" lon="5.16712">
        <ele>403.1</ele>
        <time>2011-02-06T15:38:48Z</time>
      </trkpt>
      <trkpt lat="43.91652" lon="5.167">
        <ele>401.9</ele>
        <time>2011-02-06T15:38:55Z</time>
      </trkpt>
      <trkpt lat="43.91653" lon="5.1669">
        <ele>401.8</ele>
        <time>2011-02-06T15:38:59Z</time>
      </trkpt>
      <trkpt lat="43.91653" lon="5.16679">
        <ele>401.3</ele>
        <time>2011-02-06T15:39:04Z</time>
      </trkpt>
      <trkpt lat="43.91652" lon="5.16667">
        <ele>401.1</ele>
        <time>2011-02-06T15:39:10Z</time>
      </trkpt>
      <trkpt lat="43.91651" lon="5.16655">
        <ele>400.6</ele>
        <time>2011-02-06T15:39:14Z</time>
      </trkpt>
      <trkpt lat="43.9165" lon="5.16645">
        <ele>399.8</ele>
        <time>2011-02-06T15:39:18Z</time>
      </trkpt>
      <trkpt lat="43.91649" lon="5.16633">
        <ele>398.5</ele>
        <time>2011-02-06T15:39:24Z</time>
      </trkpt>
      <trkpt lat="43.91643" lon="5.16624">
        <ele>397.1</ele>
        <time>2011-02-06T15:39:29Z</time>
      </trkpt>
      <trkpt lat="43.91642" lon="5.16622">
        <ele>396.8</ele>
        <time>2011-02-06T15:39:30Z</time>
      </trkpt>
      <trkpt lat="43.9164" lon="5.16602">
        <ele>394.5</ele>
        <time>2011-02-06T15:39:39Z</time>
      </trkpt>
      <trkpt lat="43.91636" lon="5.16592">
        <ele>393.3</ele>
        <time>2011-02-06T15:39:44Z</time>
      </trkpt>
      <trkpt lat="43.91635" lon="5.16581">
        <ele>392.3</ele>
        <time>2011-02-06T15:39:49Z</time>
      </trkpt>
      <trkpt lat="43.91634" lon="5.1657">
        <ele>391.7</ele>
        <time>2011-02-06T15:39:53Z</time>
      </trkpt>
      <trkpt lat="43.91627" lon="5.16563">
        <ele>390.6</ele>
        <time>2011-02-06T15:39:59Z</time>
      </trkpt>
      <trkpt lat="43.91619" lon="5.1656">
        <ele>389.2</ele>
        <time>2011-02-06T15:40:04Z</time>
      </trkpt>
      <trkpt lat="43.91613" lon="5.16551">
        <ele>387.4</ele>
        <time>2011-02-06T15:40:09Z</time>
      </trkpt>
      <trkpt lat="43.91605" lon="5.16545">
        <ele>386.2</ele>
        <time>2011-02-06T15:40:16Z</time>
      </trkpt>
      <trkpt lat="43.91598" lon="5.16541">
        <ele>385.2</ele>
        <time>2011-02-06T15:40:21Z</time>
      </trkpt>
      <trkpt lat="43.91589" lon="5.16541">
        <ele>384.6</ele>
        <time>2011-02-06T15:40:25Z</time>
      </trkpt>
      <trkpt lat="43.91582" lon="5.1654">
        <ele>383.5</ele>
        <time>2011-02-06T15:40:29Z</time>
      </trkpt>
      <trkpt lat="43.91574" lon="5.16539">
        <ele>383.1</ele>
        <time>2011-02-06T15:40:33Z</time>
      </trkpt>
      <trkpt lat="43.91571" lon="5.16539">
        <ele>382.9</ele>
        <time>2011-02-06T15:40:34Z</time>
      </trkpt>
      <trkpt lat="43.91562" lon="5.16538">
        <ele>382.1</ele>
        <time>2011-02-06T15:40:36Z</time>
      </trkpt>
      <trkpt lat="43.91557" lon="5.16538">
        <ele>381.7</ele>
        <time>2011-02-06T15:40:37Z</time>
      </trkpt>
      <trkpt lat="43.91549" lon="5.16537">
        <ele>381</ele>
        <time>2011-02-06T15:40:39Z</time>
      </trkpt>
      <trkpt lat="43.91542" lon="5.16538">
        <ele>380.7</ele>
        <time>2011-02-06T15:40:41Z</time>
      </trkpt>
      <trkpt lat="43.91535" lon="5.16542">
        <ele>380.4</ele>
        <time>2011-02-06T15:40:43Z</time>
      </trkpt>
      <trkpt lat="43.91527" lon="5.16546">
        <ele>379.3</ele>
        <time>2011-02-06T15:40:47Z</time>
      </trkpt>
      <trkpt lat="43.9152" lon="5.16548">
        <ele>378.6</ele>
        <time>2011-02-06T15:40:51Z</time>
      </trkpt>
      <trkpt lat="43.91512" lon="5.1655">
        <ele>378.3</ele>
        <time>2011-02-06T15:40:55Z</time>
      </trkpt>
      <trkpt lat="43.91505" lon="5.16553">
        <ele>377.4</ele>
        <time>2011-02-06T15:40:59Z</time>
      </trkpt>
      <trkpt lat="43.91497" lon="5.16555">
        <ele>376.5</ele>
        <time>2011-02-06T15:41:04Z</time>
      </trkpt>
      <trkpt lat="43.91489" lon="5.16553">
        <ele>375.9</ele>
        <time>2011-02-06T15:41:08Z</time>
      </trkpt>
      <trkpt lat="43.91481" lon="5.16551">
        <ele>375</ele>
        <time>2011-02-06T15:41:13Z</time>
      </trkpt>
      <trkpt lat="43.91474" lon="5.16546">
        <ele>374.4</ele>
        <time>2011-02-06T15:41:17Z</time>
      </trkpt>
      <trkpt lat="43.91466" lon="5.16542">
        <ele>373.9</ele>
        <time>2011-02-06T15:41:22Z</time>
      </trkpt>
      <trkpt lat="43.91458" lon="5.1654">
        <ele>373.3</ele>
        <time>2011-02-06T15:41:27Z</time>
      </trkpt>
      <trkpt lat="43.91451" lon="5.16535">
        <ele>372.7</ele>
        <time>2011-02-06T15:41:31Z</time>
      </trkpt>
      <trkpt lat="43.91443" lon="5.16534">
        <ele>371.9</ele>
        <time>2011-02-06T15:41:37Z</time>
      </trkpt>
      <trkpt lat="43.91441" lon="5.16534">
        <ele>371.7</ele>
        <time>2011-02-06T15:41:38Z</time>
      </trkpt>
      <trkpt lat="43.91427" lon="5.16524">
        <ele>370.8</ele>
        <time>2011-02-06T15:41:46Z</time>
      </trkpt>
      <trkpt lat="43.9142" lon="5.16521">
        <ele>370</ele>
        <time>2011-02-06T15:41:51Z</time>
      </trkpt>
      <trkpt lat="43.91411" lon="5.16523">
        <ele>368</ele>
        <time>2011-02-06T15:41:57Z</time>
      </trkpt>
      <trkpt lat="43.91402" lon="5.16524">
        <ele>367.3</ele>
        <time>2011-02-06T15:42:04Z</time>
      </trkpt>
      <trkpt lat="43.91394" lon="5.16521">
        <ele>367.4</ele>
        <time>2011-02-06T15:42:09Z</time>
      </trkpt>
      <trkpt lat="43.91387" lon="5.16522">
        <ele>366.8</ele>
        <time>2011-02-06T15:42:14Z</time>
      </trkpt>
      <trkpt lat="43.91379" lon="5.16524">
        <ele>366.1</ele>
        <time>2011-02-06T15:42:19Z</time>
      </trkpt>
      <trkpt lat="43.9137" lon="5.16522">
        <ele>365.5</ele>
        <time>2011-02-06T15:42:24Z</time>
      </trkpt>
      <trkpt lat="43.91362" lon="5.1652">
        <ele>364.4</ele>
        <time>2011-02-06T15:42:29Z</time>
      </trkpt>
      <trkpt lat="43.91354" lon="5.16517">
        <ele>363.1</ele>
        <time>2011-02-06T15:42:35Z</time>
      </trkpt>
      <trkpt lat="43.91345" lon="5.16515">
        <ele>361.7</ele>
        <time>2011-02-06T15:42:41Z</time>
      </trkpt>
      <trkpt lat="43.91344" lon="5.16514">
        <ele>361.6</ele>
        <time>2011-02-06T15:42:42Z</time>
      </trkpt>
      <trkpt lat="43.91329" lon="5.16507">
        <ele>359.2</ele>
        <time>2011-02-06T15:42:51Z</time>
      </trkpt>
      <trkpt lat="43.91321" lon="5.16503">
        <ele>358.2</ele>
        <time>2011-02-06T15:42:56Z</time>
      </trkpt>
      <trkpt lat="43.91313" lon="5.16502">
        <ele>356.8</ele>
        <time>2011-02-06T15:43:02Z</time>
      </trkpt>
      <trkpt lat="43.91306" lon="5.16498">
        <ele>356</ele>
        <time>2011-02-06T15:43:07Z</time>
      </trkpt>
      <trkpt lat="43.91297" lon="5.16494">
        <ele>354.2</ele>
        <time>2011-02-06T15:43:13Z</time>
      </trkpt>
      <trkpt lat="43.9129" lon="5.1649">
        <ele>352.9</ele>
        <time>2011-02-06T15:43:19Z</time>
      </trkpt>
      <trkpt lat="43.91284" lon="5.16485">
        <ele>351.7</ele>
        <time>2011-02-06T15:43:24Z</time>
      </trkpt>
      <trkpt lat="43.91277" lon="5.16479">
        <ele>350.4</ele>
        <time>2011-02-06T15:43:29Z</time>
      </trkpt>
      <trkpt lat="43.91269" lon="5.16477">
        <ele>349.3</ele>
        <time>2011-02-06T15:43:34Z</time>
      </trkpt>
      <trkpt lat="43.91261" lon="5.16476">
        <ele>347.5</ele>
        <time>2011-02-06T15:43:39Z</time>
      </trkpt>
      <trkpt lat="43.91253" lon="5.16473">
        <ele>346.7</ele>
        <time>2011-02-06T15:43:43Z</time>
      </trkpt>
      <trkpt lat="43.91251" lon="5.16473">
        <ele>346.5</ele>
        <time>2011-02-06T15:43:44Z</time>
      </trkpt>
      <trkpt lat="43.91236" lon="5.16477">
        <ele>344.4</ele>
        <time>2011-02-06T15:43:55Z</time>
      </trkpt>
      <trkpt lat="43.91228" lon="5.16476">
        <ele>343.4</ele>
        <time>2011-02-06T15:44:00Z</time>
      </trkpt>
      <trkpt lat="43.91221" lon="5.16474">
        <ele>342.9</ele>
        <time>2011-02-06T15:44:04Z</time>
      </trkpt>
      <trkpt lat="43.91214" lon="5.16469">
        <ele>341.9</ele>
        <time>2011-02-06T15:44:08Z</time>
      </trkpt>
      <trkpt lat="43.91205" lon="5.16468">
        <ele>340.5</ele>
        <time>2011-02-06T15:44:16Z</time>
      </trkpt>
      <trkpt lat="43.91198" lon="5.16465">
        <ele>340</ele>
        <time>2011-02-06T15:44:21Z</time>
      </trkpt>
      <trkpt lat="43.9119" lon="5.16459">
        <ele>339.1</ele>
        <time>2011-02-06T15:44:26Z</time>
      </trkpt>
      <trkpt lat="43.91182" lon="5.16452">
        <ele>338.1</ele>
        <time>2011-02-06T15:44:32Z</time>
      </trkpt>
      <trkpt lat="43.91176" lon="5.16446">
        <ele>337.1</ele>
        <time>2011-02-06T15:44:37Z</time>
      </trkpt>
      <trkpt lat="43.9117" lon="5.16439">
        <ele>336.6</ele>
        <time>2011-02-06T15:44:41Z</time>
      </trkpt>
      <trkpt lat="43.91164" lon="5.16431">
        <ele>335.8</ele>
        <time>2011-02-06T15:44:46Z</time>
      </trkpt>
      <trkpt lat="43.91163" lon="5.1643">
        <ele>335.8</ele>
        <time>2011-02-06T15:44:47Z</time>
      </trkpt>
      <trkpt lat="43.91148" lon="5.16423">
        <ele>334.2</ele>
        <time>2011-02-06T15:44:58Z</time>
      </trkpt>
      <trkpt lat="43.91139" lon="5.1642">
        <ele>333.3</ele>
        <time>2011-02-06T15:45:04Z</time>
      </trkpt>
      <trkpt lat="43.91131" lon="5.16417">
        <ele>332.4</ele>
        <time>2011-02-06T15:45:09Z</time>
      </trkpt>
      <trkpt lat="43.91123" lon="5.16415">
        <ele>332.5</ele>
        <time>2011-02-06T15:45:14Z</time>
      </trkpt>
      <trkpt lat="43.91115" lon="5.16415">
        <ele>332.2</ele>
        <time>2011-02-06T15:45:19Z</time>
      </trkpt>
      <trkpt lat="43.91107" lon="5.16412">
        <ele>331.5</ele>
        <time>2011-02-06T15:45:24Z</time>
      </trkpt>
      <trkpt lat="43.911" lon="5.16411">
        <ele>331</ele>
        <time>2011-02-06T15:45:28Z</time>
      </trkpt>
      <trkpt lat="43.91092" lon="5.16409">
        <ele>330.6</ele>
        <time>2011-02-06T15:45:33Z</time>
      </trkpt>
      <trkpt lat="43.91084" lon="5.16403">
        <ele>328.9</ele>
        <time>2011-02-06T15:45:38Z</time>
      </trkpt>
      <trkpt lat="43.91076" lon="5.16402">
        <ele>327.5</ele>
        <time>2011-02-06T15:45:43Z</time>
      </trkpt>
      <trkpt lat="43.91068" lon="5.16404">
        <ele>327.1</ele>
        <time>2011-02-06T15:45:48Z</time>
      </trkpt>
      <trkpt lat="43.91067" lon="5.16404">
        <ele>326.8</ele>
        <time>2011-02-06T15:45:49Z</time>
      </trkpt>
      <trkpt lat="43.91051" lon="5.1641">
        <ele>325.2</ele>
        <time>2011-02-06T15:45:59Z</time>
      </trkpt>
      <trkpt lat="43.91044" lon="5.16414">
        <ele>324</ele>
        <time>2011-02-06T15:46:04Z</time>
      </trkpt>
      <trkpt lat="43.91037" lon="5.1642">
        <ele>323.6</ele>
        <time>2011-02-06T15:46:08Z</time>
      </trkpt>
      <trkpt lat="43.9103" lon="5.16425">
        <ele>322.9</ele>
        <time>2011-02-06T15:46:13Z</time>
      </trkpt>
      <trkpt lat="43.91022" lon="5.16431">
        <ele>321.8</ele>
        <time>2011-02-06T15:46:19Z</time>
      </trkpt>
      <trkpt lat="43.91014" lon="5.16434">
        <ele>320.9</ele>
        <time>2011-02-06T15:46:25Z</time>
      </trkpt>
      <trkpt lat="43.91006" lon="5.16439">
        <ele>320</ele>
        <time>2011-02-06T15:46:30Z</time>
      </trkpt>
      <trkpt lat="43.91" lon="5.16445">
        <ele>319.5</ele>
        <time>2011-02-06T15:46:35Z</time>
      </trkpt>
      <trkpt lat="43.90992" lon="5.16451">
        <ele>318.2</ele>
        <time>2011-02-06T15:46:41Z</time>
      </trkpt>
      <trkpt lat="43.90985" lon="5.16457">
        <ele>317.1</ele>
        <time>2011-02-06T15:46:48Z</time>
      </trkpt>
      <trkpt lat="43.90977" lon="5.16459">
        <ele>316.3</ele>
        <time>2011-02-06T15:46:54Z</time>
      </trkpt>
      <trkpt lat="43.90975" lon="5.1646">
        <ele>316.1</ele>
        <time>2011-02-06T15:46:55Z</time>
      </trkpt>
      <trkpt lat="43.9096" lon="5.16462">
        <ele>315</ele>
        <time>2011-02-06T15:47:05Z</time>
      </trkpt>
      <trkpt lat="43.90952" lon="5.16465">
        <ele>313.9</ele>
        <time>2011-02-06T15:47:10Z</time>
      </trkpt>
      <trkpt lat="43.90944" lon="5.1647">
        <ele>313.6</ele>
        <time>2011-02-06T15:47:15Z</time>
      </trkpt>
      <trkpt lat="43.90938" lon="5.16477">
        <ele>312.8</ele>
        <time>2011-02-06T15:47:20Z</time>
      </trkpt>
      <trkpt lat="43.90934" lon="5.16485">
        <ele>312.3</ele>
        <time>2011-02-06T15:47:23Z</time>
      </trkpt>
      <trkpt lat="43.90928" lon="5.16494">
        <ele>311.1</ele>
        <time>2011-02-06T15:47:28Z</time>
      </trkpt>
      <trkpt lat="43.90922" lon="5.16501">
        <ele>310.8</ele>
        <time>2011-02-06T15:47:33Z</time>
      </trkpt>
      <trkpt lat="43.90915" lon="5.16506">
        <ele>309.8</ele>
        <time>2011-02-06T15:47:39Z</time>
      </trkpt>
      <trkpt lat="43.90906" lon="5.16508">
        <ele>309.3</ele>
        <time>2011-02-06T15:47:44Z</time>
      </trkpt>
      <trkpt lat="43.90898" lon="5.16511">
        <ele>308.4</ele>
        <time>2011-02-06T15:47:49Z</time>
      </trkpt>
      <trkpt lat="43.90891" lon="5.16516">
        <ele>308.5</ele>
        <time>2011-02-06T15:47:54Z</time>
      </trkpt>
      <trkpt lat="43.90885" lon="5.1652">
        <ele>307.3</ele>
        <time>2011-02-06T15:47:59Z</time>
      </trkpt>
      <trkpt lat="43.90883" lon="5.16521">
        <ele>306.9</ele>
        <time>2011-02-06T15:48:00Z</time>
      </trkpt>
      <trkpt lat="43.9087" lon="5.1653">
        <ele>305.6</ele>
        <time>2011-02-06T15:48:10Z</time>
      </trkpt>
      <trkpt lat="43.90862" lon="5.16536">
        <ele>303.9</ele>
        <time>2011-02-06T15:48:16Z</time>
      </trkpt>
      <trkpt lat="43.90855" lon="5.1654">
        <ele>301.8</ele>
        <time>2011-02-06T15:48:22Z</time>
      </trkpt>
      <trkpt lat="43.90847" lon="5.16544">
        <ele>300</ele>
        <time>2011-02-06T15:48:27Z</time>
      </trkpt>
      <trkpt lat="43.90839" lon="5.16548">
        <ele>300</ele>
        <time>2011-02-06T15:48:33Z</time>
      </trkpt>
      <trkpt lat="43.90831" lon="5.16549">
        <ele>298.6</ele>
        <time>2011-02-06T15:48:39Z</time>
      </trkpt>
      <trkpt lat="43.90824" lon="5.16556">
        <ele>298.3</ele>
        <time>2011-02-06T15:49:04Z</time>
      </trkpt>
      <trkpt lat="43.90824" lon="5.16557">
        <ele>298.2</ele>
        <time>2011-02-06T15:49:05Z</time>
      </trkpt>
      <trkpt lat="43.90814" lon="5.16559">
        <ele>297.2</ele>
        <time>2011-02-06T15:50:42Z</time>
      </trkpt>
      <trkpt lat="43.90799" lon="5.16563">
        <ele>295.3</ele>
        <time>2011-02-06T15:50:54Z</time>
      </trkpt>
      <trkpt lat="43.9079" lon="5.16563">
        <ele>294.7</ele>
        <time>2011-02-06T15:51:00Z</time>
      </trkpt>
      <trkpt lat="43.90782" lon="5.16568">
        <ele>293.8</ele>
        <time>2011-02-06T15:51:10Z</time>
      </trkpt>
      <trkpt lat="43.90776" lon="5.16576">
        <ele>293.3</ele>
        <time>2011-02-06T15:51:21Z</time>
      </trkpt>
      <trkpt lat="43.9077" lon="5.16584">
        <ele>293</ele>
        <time>2011-02-06T15:51:27Z</time>
      </trkpt>
      <trkpt lat="43.90764" lon="5.16592">
        <ele>292.6</ele>
        <time>2011-02-06T15:51:32Z</time>
      </trkpt>
      <trkpt lat="43.90758" lon="5.16599">
        <ele>292.3</ele>
        <time>2011-02-06T15:51:38Z</time>
      </trkpt>
      <trkpt lat="43.90752" lon="5.16608">
        <ele>291.4</ele>
        <time>2011-02-06T15:51:44Z</time>
      </trkpt>
      <trkpt lat="43.90751" lon="5.16609">
        <ele>291.8</ele>
        <time>2011-02-06T15:51:45Z</time>
      </trkpt>
      <trkpt lat="43.9074" lon="5.16624">
        <ele>290.2</ele>
        <time>2011-02-06T15:51:54Z</time>
      </trkpt>
      <trkpt lat="43.90734" lon="5.1663">
        <ele>289.7</ele>
        <time>2011-02-06T15:51:59Z</time>
      </trkpt>
      <trkpt lat="43.90726" lon="5.16635">
        <ele>288</ele>
        <time>2011-02-06T15:52:06Z</time>
      </trkpt>
      <trkpt lat="43.9072" lon="5.16644">
        <ele>287</ele>
        <time>2011-02-06T15:52:12Z</time>
      </trkpt>
      <trkpt lat="43.90713" lon="5.1665">
        <ele>285.3</ele>
        <time>2011-02-06T15:52:18Z</time>
      </trkpt>
      <trkpt lat="43.90708" lon="5.16657">
        <ele>284.7</ele>
        <time>2011-02-06T15:52:24Z</time>
      </trkpt>
      <trkpt lat="43.90701" lon="5.16664">
        <ele>284.4</ele>
        <time>2011-02-06T15:52:29Z</time>
      </trkpt>
      <trkpt lat="43.90693" lon="5.1667">
        <ele>283.6</ele>
        <time>2011-02-06T15:52:34Z</time>
      </trkpt>
      <trkpt lat="43.90687" lon="5.16676">
        <ele>282.5</ele>
        <time>2011-02-06T15:52:40Z</time>
      </trkpt>
      <trkpt lat="43.9068" lon="5.16681">
        <ele>282.1</ele>
        <time>2011-02-06T15:52:46Z</time>
      </trkpt>
      <trkpt lat="43.90678" lon="5.16683">
        <ele>282</ele>
        <time>2011-02-06T15:52:47Z</time>
      </trkpt>
      <trkpt lat="43.90667" lon="5.16695">
        <ele>280.3</ele>
        <time>2011-02-06T15:52:56Z</time>
      </trkpt>
      <trkpt lat="43.9066" lon="5.16702">
        <ele>279.2</ele>
        <time>2011-02-06T15:53:02Z</time>
      </trkpt>
      <trkpt lat="43.90654" lon="5.16709">
        <ele>279.3</ele>
        <time>2011-02-06T15:53:08Z</time>
      </trkpt>
      <trkpt lat="43.90647" lon="5.16715">
        <ele>278.3</ele>
        <time>2011-02-06T15:53:13Z</time>
      </trkpt>
      <trkpt lat="43.90642" lon="5.16722">
        <ele>278.1</ele>
        <time>2011-02-06T15:53:18Z</time>
      </trkpt>
      <trkpt lat="43.90635" lon="5.16729">
        <ele>277.6</ele>
        <time>2011-02-06T15:53:23Z</time>
      </trkpt>
      <trkpt lat="43.90629" lon="5.16735">
        <ele>277.5</ele>
        <time>2011-02-06T15:53:29Z</time>
      </trkpt>
      <trkpt lat="43.90622" lon="5.16742">
        <ele>275.7</ele>
        <time>2011-02-06T15:53:36Z</time>
      </trkpt>
      <trkpt lat="43.90615" lon="5.16749">
        <ele>274.3</ele>
        <time>2011-02-06T15:53:43Z</time>
      </trkpt>
      <trkpt lat="43.9061" lon="5.1676">
        <ele>271.1</ele>
        <time>2011-02-06T15:53:52Z</time>
      </trkpt>
      <trkpt lat="43.9061" lon="5.16762">
        <ele>271.3</ele>
        <time>2011-02-06T15:53:53Z</time>
      </trkpt>
      <trkpt lat="43.90604" lon="5.1678">
        <ele>269.3</ele>
        <time>2011-02-06T15:54:04Z</time>
      </trkpt>
      <trkpt lat="43.90596" lon="5.16777">
        <ele>268.4</ele>
        <time>2011-02-06T15:54:09Z</time>
      </trkpt>
      <trkpt lat="43.90588" lon="5.16773">
        <ele>268.1</ele>
        <time>2011-02-06T15:54:13Z</time>
      </trkpt>
      <trkpt lat="43.9058" lon="5.16768">
        <ele>267.9</ele>
        <time>2011-02-06T15:54:18Z</time>
      </trkpt>
      <trkpt lat="43.90572" lon="5.16767">
        <ele>267.6</ele>
        <time>2011-02-06T15:54:23Z</time>
      </trkpt>
      <trkpt lat="43.90564" lon="5.16768">
        <ele>268.8</ele>
        <time>2011-02-06T15:54:28Z</time>
      </trkpt>
      <trkpt lat="43.90555" lon="5.16767">
        <ele>269.1</ele>
        <time>2011-02-06T15:54:33Z</time>
      </trkpt>
      <trkpt lat="43.90546" lon="5.16769">
        <ele>270.4</ele>
        <time>2011-02-06T15:54:38Z</time>
      </trkpt>
      <trkpt lat="43.90541" lon="5.16777">
        <ele>271.2</ele>
        <time>2011-02-06T15:54:43Z</time>
      </trkpt>
      <trkpt lat="43.90537" lon="5.16788">
        <ele>270.8</ele>
        <time>2011-02-06T15:54:48Z</time>
      </trkpt>
      <trkpt lat="43.90539" lon="5.16798">
        <ele>271.3</ele>
        <time>2011-02-06T15:54:52Z</time>
      </trkpt>
      <trkpt lat="43.9054" lon="5.16809">
        <ele>272.2</ele>
        <time>2011-02-06T15:54:56Z</time>
      </trkpt>
      <trkpt lat="43.90541" lon="5.16811">
        <ele>272.3</ele>
        <time>2011-02-06T15:54:57Z</time>
      </trkpt>
      <trkpt lat="43.90549" lon="5.16828">
        <ele>273.9</ele>
        <time>2011-02-06T15:55:06Z</time>
      </trkpt>
      <trkpt lat="43.90553" lon="5.16837">
        <ele>274.2</ele>
        <time>2011-02-06T15:55:11Z</time>
      </trkpt>
      <trkpt lat="43.90556" lon="5.16849">
        <ele>274.1</ele>
        <time>2011-02-06T15:55:17Z</time>
      </trkpt>
      <trkpt lat="43.90556" lon="5.1686">
        <ele>273.7</ele>
        <time>2011-02-06T15:55:21Z</time>
      </trkpt>
      <trkpt lat="43.90555" lon="5.1687">
        <ele>274.8</ele>
        <time>2011-02-06T15:55:25Z</time>
      </trkpt>
      <trkpt lat="43.90551" lon="5.16881">
        <ele>274.5</ele>
        <time>2011-02-06T15:55:30Z</time>
      </trkpt>
      <trkpt lat="43.90551" lon="5.16891">
        <ele>275.1</ele>
        <time>2011-02-06T15:55:36Z</time>
      </trkpt>
      <trkpt lat="43.90553" lon="5.16903">
        <ele>276.1</ele>
        <time>2011-02-06T15:55:42Z</time>
      </trkpt>
      <trkpt lat="43.90554" lon="5.16915">
        <ele>276.4</ele>
        <time>2011-02-06T15:55:48Z</time>
      </trkpt>
      <trkpt lat="43.90557" lon="5.16925">
        <ele>276.6</ele>
        <time>2011-02-06T15:55:53Z</time>
      </trkpt>
      <trkpt lat="43.90558" lon="5.16937">
        <ele>276.8</ele>
        <time>2011-02-06T15:55:58Z</time>
      </trkpt>
      <trkpt lat="43.90557" lon="5.16939">
        <ele>276.7</ele>
        <time>2011-02-06T15:55:59Z</time>
      </trkpt>
      <trkpt lat="43.90553" lon="5.16956">
        <ele>277.4</ele>
        <time>2011-02-06T15:56:07Z</time>
      </trkpt>
      <trkpt lat="43.90557" lon="5.16967">
        <ele>278</ele>
        <time>2011-02-06T15:56:13Z</time>
      </trkpt>
      <trkpt lat="43.90563" lon="5.16975">
        <ele>278.9</ele>
        <time>2011-02-06T15:56:19Z</time>
      </trkpt>
      <trkpt lat="43.90569" lon="5.16982">
        <ele>279.8</ele>
        <time>2011-02-06T15:56:23Z</time>
      </trkpt>
      <trkpt lat="43.90572" lon="5.16993">
        <ele>279.2</ele>
        <time>2011-02-06T15:56:28Z</time>
      </trkpt>
      <trkpt lat="43.90573" lon="5.17003">
        <ele>279.7</ele>
        <time>2011-02-06T15:56:32Z</time>
      </trkpt>
      <trkpt lat="43.90571" lon="5.17014">
        <ele>280</ele>
        <time>2011-02-06T15:56:36Z</time>
      </trkpt>
      <trkpt lat="43.90569" lon="5.17024">
        <ele>280.4</ele>
        <time>2011-02-06T15:56:41Z</time>
      </trkpt>
      <trkpt lat="43.90567" lon="5.17036">
        <ele>281.1</ele>
        <time>2011-02-06T15:56:46Z</time>
      </trkpt>
      <trkpt lat="43.90566" lon="5.17047">
        <ele>281.8</ele>
        <time>2011-02-06T15:56:51Z</time>
      </trkpt>
      <trkpt lat="43.90565" lon="5.17059">
        <ele>282.3</ele>
        <time>2011-02-06T15:56:56Z</time>
      </trkpt>
      <trkpt lat="43.90563" lon="5.1707">
        <ele>282.4</ele>
        <time>2011-02-06T15:57:01Z</time>
      </trkpt>
      <trkpt lat="43.90562" lon="5.17072">
        <ele>282.8</ele>
        <time>2011-02-06T15:57:02Z</time>
      </trkpt>
      <trkpt lat="43.90553" lon="5.17091">
        <ele>283.1</ele>
        <time>2011-02-06T15:57:13Z</time>
      </trkpt>
      <trkpt lat="43.90546" lon="5.17095">
        <ele>282.7</ele>
        <time>2011-02-06T15:57:19Z</time>
      </trkpt>
      <trkpt lat="43.90541" lon="5.17105">
        <ele>282.8</ele>
        <time>2011-02-06T15:57:25Z</time>
      </trkpt>
      <trkpt lat="43.90536" lon="5.17113">
        <ele>283.4</ele>
        <time>2011-02-06T15:57:30Z</time>
      </trkpt>
      <trkpt lat="43.9053" lon="5.17121">
        <ele>283.6</ele>
        <time>2011-02-06T15:57:35Z</time>
      </trkpt>
      <trkpt lat="43.90524" lon="5.17129">
        <ele>283.7</ele>
        <time>2011-02-06T15:57:40Z</time>
      </trkpt>
      <trkpt lat="43.90517" lon="5.17137">
        <ele>283</ele>
        <time>2011-02-06T15:57:45Z</time>
      </trkpt>
      <trkpt lat="43.90515" lon="5.17148">
        <ele>283.1</ele>
        <time>2011-02-06T15:57:51Z</time>
      </trkpt>
      <trkpt lat="43.90511" lon="5.17159">
        <ele>282.9</ele>
        <time>2011-02-06T15:57:56Z</time>
      </trkpt>
      <trkpt lat="43.90508" lon="5.1717">
        <ele>282.5</ele>
        <time>2011-02-06T15:58:01Z</time>
      </trkpt>
      <trkpt lat="43.90501" lon="5.17175">
        <ele>282.5</ele>
        <time>2011-02-06T15:58:06Z</time>
      </trkpt>
      <trkpt lat="43.90499" lon="5.17175">
        <ele>282.1</ele>
        <time>2011-02-06T15:58:07Z</time>
      </trkpt>
      <trkpt lat="43.90486" lon="5.1717">
        <ele>281.2</ele>
        <time>2011-02-06T15:58:14Z</time>
      </trkpt>
      <trkpt lat="43.90478" lon="5.17169">
        <ele>280.1</ele>
        <time>2011-02-06T15:58:19Z</time>
      </trkpt>
      <trkpt lat="43.90469" lon="5.17168">
        <ele>279.1</ele>
        <time>2011-02-06T15:58:24Z</time>
      </trkpt>
      <trkpt lat="43.90461" lon="5.17169">
        <ele>278.7</ele>
        <time>2011-02-06T15:58:29Z</time>
      </trkpt>
      <trkpt lat="43.90454" lon="5.1717">
        <ele>278.5</ele>
        <time>2011-02-06T15:58:34Z</time>
      </trkpt>
      <trkpt lat="43.90446" lon="5.1717">
        <ele>276.8</ele>
        <time>2011-02-06T15:58:39Z</time>
      </trkpt>
      <trkpt lat="43.90437" lon="5.17169">
        <ele>277</ele>
        <time>2011-02-06T15:58:45Z</time>
      </trkpt>
      <trkpt lat="43.90429" lon="5.17172">
        <ele>276.3</ele>
        <time>2011-02-06T15:58:50Z</time>
      </trkpt>
      <trkpt lat="43.90421" lon="5.1717">
        <ele>274.9</ele>
        <time>2011-02-06T15:58:56Z</time>
      </trkpt>
      <trkpt lat="43.90412" lon="5.17166">
        <ele>272.5</ele>
        <time>2011-02-06T15:59:01Z</time>
      </trkpt>
      <trkpt lat="43.90404" lon="5.17166">
        <ele>273.3</ele>
        <time>2011-02-06T15:59:06Z</time>
      </trkpt>
      <trkpt lat="43.90398" lon="5.17174">
        <ele>271.7</ele>
        <time>2011-02-06T15:59:11Z</time>
      </trkpt>
      <trkpt lat="43.90397" lon="5.17176">
        <ele>271.7</ele>
        <time>2011-02-06T15:59:12Z</time>
      </trkpt>
      <trkpt lat="43.90389" lon="5.17194">
        <ele>271.3</ele>
        <time>2011-02-06T15:59:21Z</time>
      </trkpt>
      <trkpt lat="43.90384" lon="5.17202">
        <ele>271.2</ele>
        <time>2011-02-06T15:59:26Z</time>
      </trkpt>
      <trkpt lat="43.90379" lon="5.17211">
        <ele>270.9</ele>
        <time>2011-02-06T15:59:31Z</time>
      </trkpt>
      <trkpt lat="43.90373" lon="5.1722">
        <ele>270.4</ele>
        <time>2011-02-06T15:59:37Z</time>
      </trkpt>
      <trkpt lat="43.90368" lon="5.17228">
        <ele>270.1</ele>
        <time>2011-02-06T15:59:43Z</time>
      </trkpt>
      <trkpt lat="43.9036" lon="5.17232">
        <ele>269.3</ele>
        <time>2011-02-06T15:59:47Z</time>
      </trkpt>
      <trkpt lat="43.90352" lon="5.17235">
        <ele>268.5</ele>
        <time>2011-02-06T15:59:52Z</time>
      </trkpt>
      <trkpt lat="43.90345" lon="5.17238">
        <ele>268.6</ele>
        <time>2011-02-06T15:59:57Z</time>
      </trkpt>
      <trkpt lat="43.90341" lon="5.17248">
        <ele>268</ele>
        <time>2011-02-06T16:00:03Z</time>
      </trkpt>
      <trkpt lat="43.90341" lon="5.17258">
        <ele>268.8</ele>
        <time>2011-02-06T16:00:07Z</time>
      </trkpt>
      <trkpt lat="43.90341" lon="5.17269">
        <ele>268.8</ele>
        <time>2011-02-06T16:00:12Z</time>
      </trkpt>
      <trkpt lat="43.90341" lon="5.17271">
        <ele>268.9</ele>
        <time>2011-02-06T16:00:13Z</time>
      </trkpt>
      <trkpt lat="43.9034" lon="5.17289">
        <ele>268.1</ele>
        <time>2011-02-06T16:00:21Z</time>
      </trkpt>
      <trkpt lat="43.90339" lon="5.17301">
        <ele>267.5</ele>
        <time>2011-02-06T16:00:27Z</time>
      </trkpt>
      <trkpt lat="43.90338" lon="5.17314">
        <ele>267.8</ele>
        <time>2011-02-06T16:00:33Z</time>
      </trkpt>
      <trkpt lat="43.90336" lon="5.17325">
        <ele>268.2</ele>
        <time>2011-02-06T16:00:38Z</time>
      </trkpt>
      <trkpt lat="43.90336" lon="5.17338">
        <ele>268.1</ele>
        <time>2011-02-06T16:02:07Z</time>
      </trkpt>
      <trkpt lat="43.90337" lon="5.17339">
        <ele>268.4</ele>
        <time>2011-02-06T16:02:08Z</time>
      </trkpt>
      <trkpt lat="43.9034" lon="5.17361">
        <ele>267.7</ele>
        <time>2011-02-06T16:02:24Z</time>
      </trkpt>
      <trkpt lat="43.90344" lon="5.17371">
        <ele>267.8</ele>
        <time>2011-02-06T16:02:45Z</time>
      </trkpt>
      <trkpt lat="43.90336" lon="5.17374">
        <ele>266.4</ele>
        <time>2011-02-06T16:02:54Z</time>
      </trkpt>
      <trkpt lat="43.90328" lon="5.17376">
        <ele>267.2</ele>
        <time>2011-02-06T16:03:00Z</time>
      </trkpt>
      <trkpt lat="43.90319" lon="5.17377">
        <ele>266.6</ele>
        <time>2011-02-06T16:03:06Z</time>
      </trkpt>
      <trkpt lat="43.90313" lon="5.17384">
        <ele>266.3</ele>
        <time>2011-02-06T16:03:12Z</time>
      </trkpt>
      <trkpt lat="43.90312" lon="5.17385">
        <ele>266.2</ele>
        <time>2011-02-06T16:03:13Z</time>
      </trkpt>
      <trkpt lat="43.90306" lon="5.17404">
        <ele>266</ele>
        <time>2011-02-06T16:03:23Z</time>
      </trkpt>
      <trkpt lat="43.90302" lon="5.17415">
        <ele>265.8</ele>
        <time>2011-02-06T16:03:28Z</time>
      </trkpt>
      <trkpt lat="43.90298" lon="5.17424">
        <ele>265.9</ele>
        <time>2011-02-06T16:03:34Z</time>
      </trkpt>
      <trkpt lat="43.90293" lon="5.17434">
        <ele>266</ele>
        <time>2011-02-06T16:03:40Z</time>
      </trkpt>
      <trkpt lat="43.90289" lon="5.17444">
        <ele>265.6</ele>
        <time>2011-02-06T16:03:45Z</time>
      </trkpt>
      <trkpt lat="43.90285" lon="5.17455">
        <ele>266.4</ele>
        <time>2011-02-06T16:03:50Z</time>
      </trkpt>
      <trkpt lat="43.90281" lon="5.17464">
        <ele>266</ele>
        <time>2011-02-06T16:03:55Z</time>
      </trkpt>
      <trkpt lat="43.90277" lon="5.17474">
        <ele>265.3</ele>
        <time>2011-02-06T16:04:00Z</time>
      </trkpt>
      <trkpt lat="43.90273" lon="5.17485">
        <ele>265.4</ele>
        <time>2011-02-06T16:04:06Z</time>
      </trkpt>
      <trkpt lat="43.90269" lon="5.17495">
        <ele>265.3</ele>
        <time>2011-02-06T16:04:11Z</time>
      </trkpt>
      <trkpt lat="43.90266" lon="5.17506">
        <ele>265.4</ele>
        <time>2011-02-06T16:04:17Z</time>
      </trkpt>
      <trkpt lat="43.90266" lon="5.17508">
        <ele>265.3</ele>
        <time>2011-02-06T16:04:18Z</time>
      </trkpt>
      <trkpt lat="43.90261" lon="5.17527">
        <ele>264.8</ele>
        <time>2011-02-06T16:04:28Z</time>
      </trkpt>
      <trkpt lat="43.9026" lon="5.17537">
        <ele>264.6</ele>
        <time>2011-02-06T16:04:32Z</time>
      </trkpt>
      <trkpt lat="43.90257" lon="5.17547">
        <ele>265.6</ele>
        <time>2011-02-06T16:04:36Z</time>
      </trkpt>
      <trkpt lat="43.90255" lon="5.17557">
        <ele>265.5</ele>
        <time>2011-02-06T16:04:40Z</time>
      </trkpt>
      <trkpt lat="43.90254" lon="5.17568">
        <ele>265</ele>
        <time>2011-02-06T16:04:44Z</time>
      </trkpt>
      <trkpt lat="43.90256" lon="5.17579">
        <ele>264.9</ele>
        <time>2011-02-06T16:04:49Z</time>
      </trkpt>
      <trkpt lat="43.90257" lon="5.1759">
        <ele>266</ele>
        <time>2011-02-06T16:04:54Z</time>
      </trkpt>
      <trkpt lat="43.90258" lon="5.17601">
        <ele>265.7</ele>
        <time>2011-02-06T16:04:59Z</time>
      </trkpt>
      <trkpt lat="43.90259" lon="5.17611">
        <ele>265.9</ele>
        <time>2011-02-06T16:05:04Z</time>
      </trkpt>
      <trkpt lat="43.90261" lon="5.17623">
        <ele>266.7</ele>
        <time>2011-02-06T16:05:10Z</time>
      </trkpt>
      <trkpt lat="43.90261" lon="5.17635">
        <ele>265.7</ele>
        <time>2011-02-06T16:05:16Z</time>
      </trkpt>
      <trkpt lat="43.9026" lon="5.17646">
        <ele>266.6</ele>
        <time>2011-02-06T16:05:21Z</time>
      </trkpt>
      <trkpt lat="43.90261" lon="5.17649">
        <ele>266.8</ele>
        <time>2011-02-06T16:05:22Z</time>
      </trkpt>
      <trkpt lat="43.90264" lon="5.17668">
        <ele>266.4</ele>
        <time>2011-02-06T16:05:31Z</time>
      </trkpt>
      <trkpt lat="43.90267" lon="5.17678">
        <ele>265.9</ele>
        <time>2011-02-06T16:05:37Z</time>
      </trkpt>
      <trkpt lat="43.90267" lon="5.1769">
        <ele>266</ele>
        <time>2011-02-06T16:05:42Z</time>
      </trkpt>
      <trkpt lat="43.90264" lon="5.17702">
        <ele>265.3</ele>
        <time>2011-02-06T16:05:47Z</time>
      </trkpt>
      <trkpt lat="43.90262" lon="5.17713">
        <ele>264.4</ele>
        <time>2011-02-06T16:05:53Z</time>
      </trkpt>
      <trkpt lat="43.90259" lon="5.17724">
        <ele>264.8</ele>
        <time>2011-02-06T16:05:59Z</time>
      </trkpt>
      <trkpt lat="43.90256" lon="5.17734">
        <ele>264.5</ele>
        <time>2011-02-06T16:06:03Z</time>
      </trkpt>
      <trkpt lat="43.90253" lon="5.17745">
        <ele>264.4</ele>
        <time>2011-02-06T16:06:08Z</time>
      </trkpt>
      <trkpt lat="43.90251" lon="5.17755">
        <ele>263.9</ele>
        <time>2011-02-06T16:06:13Z</time>
      </trkpt>
      <trkpt lat="43.90248" lon="5.17766">
        <ele>263.9</ele>
        <time>2011-02-06T16:06:19Z</time>
      </trkpt>
      <trkpt lat="43.90246" lon="5.17776">
        <ele>263.6</ele>
        <time>2011-02-06T16:06:24Z</time>
      </trkpt>
      <trkpt lat="43.90245" lon="5.17779">
        <ele>263.5</ele>
        <time>2011-02-06T16:06:25Z</time>
      </trkpt>
      <trkpt lat="43.90241" lon="5.17797">
        <ele>263.5</ele>
        <time>2011-02-06T16:06:34Z</time>
      </trkpt>
      <trkpt lat="43.9024" lon="5.17808">
        <ele>263.6</ele>
        <time>2011-02-06T16:06:39Z</time>
      </trkpt>
      <trkpt lat="43.90238" lon="5.17819">
        <ele>262.7</ele>
        <time>2011-02-06T16:06:44Z</time>
      </trkpt>
      <trkpt lat="43.90236" lon="5.1783">
        <ele>262.3</ele>
        <time>2011-02-06T16:06:49Z</time>
      </trkpt>
      <trkpt lat="43.90234" lon="5.1784">
        <ele>262.6</ele>
        <time>2011-02-06T16:06:55Z</time>
      </trkpt>
      <trkpt lat="43.90232" lon="5.1785">
        <ele>262.3</ele>
        <time>2011-02-06T16:06:59Z</time>
      </trkpt>
      <trkpt lat="43.9023" lon="5.17861">
        <ele>261.3</ele>
        <time>2011-02-06T16:07:04Z</time>
      </trkpt>
      <trkpt lat="43.90228" lon="5.17872">
        <ele>260.6</ele>
        <time>2011-02-06T16:07:10Z</time>
      </trkpt>
      <trkpt lat="43.90225" lon="5.17883">
        <ele>260.4</ele>
        <time>2011-02-06T16:07:15Z</time>
      </trkpt>
      <trkpt lat="43.90221" lon="5.17894">
        <ele>259.3</ele>
        <time>2011-02-06T16:07:20Z</time>
      </trkpt>
      <trkpt lat="43.90217" lon="5.17903">
        <ele>259.9</ele>
        <time>2011-02-06T16:07:25Z</time>
      </trkpt>
      <trkpt lat="43.90213" lon="5.17912">
        <ele>259.7</ele>
        <time>2011-02-06T16:07:30Z</time>
      </trkpt>
      <trkpt lat="43.90212" lon="5.17914">
        <ele>259.4</ele>
        <time>2011-02-06T16:07:31Z</time>
      </trkpt>
      <trkpt lat="43.90205" lon="5.17932">
        <ele>259.3</ele>
        <time>2011-02-06T16:07:40Z</time>
      </trkpt>
      <trkpt lat="43.90203" lon="5.17943">
        <ele>257.5</ele>
        <time>2011-02-06T16:07:45Z</time>
      </trkpt>
      <trkpt lat="43.902" lon="5.17954">
        <ele>258.2</ele>
        <time>2011-02-06T16:07:50Z</time>
      </trkpt>
      <trkpt lat="43.90195" lon="5.17964">
        <ele>257.4</ele>
        <time>2011-02-06T16:07:55Z</time>
      </trkpt>
      <trkpt lat="43.90189" lon="5.17969">
        <ele>257.9</ele>
        <time>2011-02-06T16:08:00Z</time>
      </trkpt>
      <trkpt lat="43.90184" lon="5.17979">
        <ele>257.7</ele>
        <time>2011-02-06T16:08:05Z</time>
      </trkpt>
      <trkpt lat="43.90183" lon="5.17989">
        <ele>257.7</ele>
        <time>2011-02-06T16:08:10Z</time>
      </trkpt>
      <trkpt lat="43.90181" lon="5.18001">
        <ele>256.5</ele>
        <time>2011-02-06T16:08:16Z</time>
      </trkpt>
      <trkpt lat="43.90178" lon="5.18012">
        <ele>256.4</ele>
        <time>2011-02-06T16:08:23Z</time>
      </trkpt>
      <trkpt lat="43.90174" lon="5.18021">
        <ele>257.4</ele>
        <time>2011-02-06T16:08:28Z</time>
      </trkpt>
      <trkpt lat="43.9017" lon="5.18031">
        <ele>256.1</ele>
        <time>2011-02-06T16:08:35Z</time>
      </trkpt>
      <trkpt lat="43.90169" lon="5.18033">
        <ele>256.2</ele>
        <time>2011-02-06T16:08:36Z</time>
      </trkpt>
      <trkpt lat="43.90162" lon="5.1805">
        <ele>254.5</ele>
        <time>2011-02-06T16:08:45Z</time>
      </trkpt>
      <trkpt lat="43.90159" lon="5.18061">
        <ele>254.2</ele>
        <time>2011-02-06T16:09:02Z</time>
      </trkpt>
      <trkpt lat="43.90154" lon="5.18072">
        <ele>254.1</ele>
        <time>2011-02-06T16:09:44Z</time>
      </trkpt>
      <trkpt lat="43.90154" lon="5.18072">
        <ele>253.9</ele>
        <time>2011-02-06T16:09:45Z</time>
      </trkpt>
      <trkpt lat="43.90141" lon="5.18086">
        <ele>252.7</ele>
        <time>2011-02-06T16:10:41Z</time>
      </trkpt>
      <trkpt lat="43.90143" lon="5.18098">
        <ele>251.4</ele>
        <time>2011-02-06T16:11:11Z</time>
      </trkpt>
      <trkpt lat="43.90144" lon="5.18099">
        <ele>251.1</ele>
        <time>2011-02-06T16:11:12Z</time>
      </trkpt>
      <trkpt lat="43.90154" lon="5.18117">
        <ele>249.1</ele>
        <time>2011-02-06T16:11:37Z</time>
      </trkpt>
      <trkpt lat="43.90156" lon="5.18128">
        <ele>246.6</ele>
        <time>2011-02-06T16:11:48Z</time>
      </trkpt>
      <trkpt lat="43.90165" lon="5.18133">
        <ele>245.4</ele>
        <time>2011-02-06T16:12:38Z</time>
      </trkpt>
      <trkpt lat="43.90166" lon="5.18133">
        <ele>245.1</ele>
        <time>2011-02-06T16:12:39Z</time>
      </trkpt>
      <trkpt lat="43.90166" lon="5.18145">
        <ele>238.4</ele>
        <time>2011-02-06T16:13:31Z</time>
      </trkpt>
      <trkpt lat="43.90173" lon="5.18152">
        <ele>236.6</ele>
        <time>2011-02-06T16:13:57Z</time>
      </trkpt>
      <trkpt lat="43.90174" lon="5.18152">
        <ele>236.1</ele>
        <time>2011-02-06T16:13:58Z</time>
      </trkpt>
      <trkpt lat="43.90188" lon="5.1816">
        <ele>232.8</ele>
        <time>2011-02-06T16:14:21Z</time>
      </trkpt>
      <trkpt lat="43.90192" lon="5.18171">
        <ele>231.5</ele>
        <time>2011-02-06T16:14:33Z</time>
      </trkpt>
      <trkpt lat="43.90192" lon="5.18182">
        <ele>230.1</ele>
        <time>2011-02-06T16:14:43Z</time>
      </trkpt>
      <trkpt lat="43.90194" lon="5.18194">
        <ele>228.6</ele>
        <time>2011-02-06T16:14:56Z</time>
      </trkpt>
      <trkpt lat="43.90195" lon="5.18205">
        <ele>226.9</ele>
        <time>2011-02-06T16:15:04Z</time>
      </trkpt>
      <trkpt lat="43.90195" lon="5.18207">
        <ele>226.5</ele>
        <time>2011-02-06T16:15:05Z</time>
      </trkpt>
      <trkpt lat="43.90202" lon="5.18228">
        <ele>228</ele>
        <time>2011-02-06T16:15:25Z</time>
      </trkpt>
      <trkpt lat="43.902" lon="5.18239">
        <ele>230.2</ele>
        <time>2011-02-06T16:15:34Z</time>
      </trkpt>
      <trkpt lat="43.90203" lon="5.18248">
        <ele>229.7</ele>
        <time>2011-02-06T16:15:42Z</time>
      </trkpt>
      <trkpt lat="43.90205" lon="5.1826">
        <ele>229.2</ele>
        <time>2011-02-06T16:15:54Z</time>
      </trkpt>
      <trkpt lat="43.90202" lon="5.18271">
        <ele>228.3</ele>
        <time>2011-02-06T16:16:21Z</time>
      </trkpt>
      <trkpt lat="43.90202" lon="5.18272">
        <ele>228.6</ele>
        <time>2011-02-06T16:16:22Z</time>
      </trkpt>
      <trkpt lat="43.90191" lon="5.18288">
        <ele>232.2</ele>
        <time>2011-02-06T16:16:41Z</time>
      </trkpt>
      <trkpt lat="43.90185" lon="5.18297">
        <ele>233.9</ele>
        <time>2011-02-06T16:16:52Z</time>
      </trkpt>
      <trkpt lat="43.90179" lon="5.18305">
        <ele>234.8</ele>
        <time>2011-02-06T16:17:01Z</time>
      </trkpt>
      <trkpt lat="43.90173" lon="5.18314">
        <ele>236.9</ele>
        <time>2011-02-06T16:17:12Z</time>
      </trkpt>
      <trkpt lat="43.9017" lon="5.18324">
        <ele>237.6</ele>
        <time>2011-02-06T16:17:19Z</time>
      </trkpt>
      <trkpt lat="43.90164" lon="5.18334">
        <ele>238.9</ele>
        <time>2011-02-06T16:17:30Z</time>
      </trkpt>
      <trkpt lat="43.90164" lon="5.18335">
        <ele>238.9</ele>
        <time>2011-02-06T16:17:31Z</time>
      </trkpt>
      <trkpt lat="43.90161" lon="5.18357">
        <ele>240.8</ele>
        <time>2011-02-06T16:17:52Z</time>
      </trkpt>
      <trkpt lat="43.90157" lon="5.18368">
        <ele>240.5</ele>
        <time>2011-02-06T16:18:07Z</time>
      </trkpt>
      <trkpt lat="43.90159" lon="5.18379">
        <ele>243</ele>
        <time>2011-02-06T16:18:47Z</time>
      </trkpt>
      <trkpt lat="43.90159" lon="5.1838">
        <ele>242.9</ele>
        <time>2011-02-06T16:18:48Z</time>
      </trkpt>
      <trkpt lat="43.90158" lon="5.18401">
        <ele>244.7</ele>
        <time>2011-02-06T16:18:59Z</time>
      </trkpt>
      <trkpt lat="43.90157" lon="5.18412">
        <ele>245.7</ele>
        <time>2011-02-06T16:19:04Z</time>
      </trkpt>
      <trkpt lat="43.90156" lon="5.18424">
        <ele>247</ele>
        <time>2011-02-06T16:19:09Z</time>
      </trkpt>
      <trkpt lat="43.90157" lon="5.18436">
        <ele>247.6</ele>
        <time>2011-02-06T16:19:15Z</time>
      </trkpt>
      <trkpt lat="43.90157" lon="5.18447">
        <ele>247.9</ele>
        <time>2011-02-06T16:19:21Z</time>
      </trkpt>
      <trkpt lat="43.90154" lon="5.18459">
        <ele>248.8</ele>
        <time>2011-02-06T16:19:28Z</time>
      </trkpt>
      <trkpt lat="43.90153" lon="5.18471">
        <ele>249</ele>
        <time>2011-02-06T16:19:33Z</time>
      </trkpt>
      <trkpt lat="43.90153" lon="5.18482">
        <ele>250.2</ele>
        <time>2011-02-06T16:19:38Z</time>
      </trkpt>
      <trkpt lat="43.90155" lon="5.18493">
        <ele>251.8</ele>
        <time>2011-02-06T16:19:43Z</time>
      </trkpt>
      <trkpt lat="43.90159" lon="5.18503">
        <ele>252.5</ele>
        <time>2011-02-06T16:19:48Z</time>
      </trkpt>
      <trkpt lat="43.90159" lon="5.18505">
        <ele>252.6</ele>
        <time>2011-02-06T16:19:49Z</time>
      </trkpt>
      <trkpt lat="43.90167" lon="5.18523">
        <ele>254.3</ele>
        <time>2011-02-06T16:19:59Z</time>
      </trkpt>
      <trkpt lat="43.90174" lon="5.1853">
        <ele>255.7</ele>
        <time>2011-02-06T16:20:05Z</time>
      </trkpt>
      <trkpt lat="43.90179" lon="5.18538">
        <ele>256.4</ele>
        <time>2011-02-06T16:20:11Z</time>
      </trkpt>
      <trkpt lat="43.90183" lon="5.18548">
        <ele>257.6</ele>
        <time>2011-02-06T16:20:16Z</time>
      </trkpt>
      <trkpt lat="43.90187" lon="5.18559">
        <ele>258.3</ele>
        <time>2011-02-06T16:20:22Z</time>
      </trkpt>
      <trkpt lat="43.9019" lon="5.1857">
        <ele>259.5</ele>
        <time>2011-02-06T16:20:28Z</time>
      </trkpt>
      <trkpt lat="43.90191" lon="5.18582">
        <ele>259.4</ele>
        <time>2011-02-06T16:20:34Z</time>
      </trkpt>
      <trkpt lat="43.90193" lon="5.18593">
        <ele>260.7</ele>
        <time>2011-02-06T16:20:40Z</time>
      </trkpt>
      <trkpt lat="43.90193" lon="5.18603">
        <ele>260.4</ele>
        <time>2011-02-06T16:20:45Z</time>
      </trkpt>
      <trkpt lat="43.90194" lon="5.18615">
        <ele>261.2</ele>
        <time>2011-02-06T16:20:51Z</time>
      </trkpt>
      <trkpt lat="43.90193" lon="5.18617">
        <ele>261.3</ele>
        <time>2011-02-06T16:20:52Z</time>
      </trkpt>
      <trkpt lat="43.90195" lon="5.18639">
        <ele>262.7</ele>
        <time>2011-02-06T16:21:03Z</time>
      </trkpt>
      <trkpt lat="43.90199" lon="5.18649">
        <ele>263.3</ele>
        <time>2011-02-06T16:21:08Z</time>
      </trkpt>
      <trkpt lat="43.90202" lon="5.18658">
        <ele>264.3</ele>
        <time>2011-02-06T16:21:12Z</time>
      </trkpt>
      <trkpt lat="43.90205" lon="5.18668">
        <ele>264.8</ele>
        <time>2011-02-06T16:21:17Z</time>
      </trkpt>
      <trkpt lat="43.90206" lon="5.18678">
        <ele>264.4</ele>
        <time>2011-02-06T16:21:22Z</time>
      </trkpt>
      <trkpt lat="43.90205" lon="5.18689">
        <ele>265</ele>
        <time>2011-02-06T16:21:27Z</time>
      </trkpt>
      <trkpt lat="43.90202" lon="5.18698">
        <ele>265.2</ele>
        <time>2011-02-06T16:21:32Z</time>
      </trkpt>
      <trkpt lat="43.90198" lon="5.18709">
        <ele>265.6</ele>
        <time>2011-02-06T16:21:37Z</time>
      </trkpt>
      <trkpt lat="43.90197" lon="5.18721">
        <ele>265.6</ele>
        <time>2011-02-06T16:21:43Z</time>
      </trkpt>
      <trkpt lat="43.90197" lon="5.18731">
        <ele>265.7</ele>
        <time>2011-02-06T16:21:48Z</time>
      </trkpt>
      <trkpt lat="43.90198" lon="5.18743">
        <ele>265.7</ele>
        <time>2011-02-06T16:21:53Z</time>
      </trkpt>
      <trkpt lat="43.90198" lon="5.18745">
        <ele>265.5</ele>
        <time>2011-02-06T16:21:54Z</time>
      </trkpt>
      <trkpt lat="43.90196" lon="5.18764">
        <ele>266.3</ele>
        <time>2011-02-06T16:22:01Z</time>
      </trkpt>
      <trkpt lat="43.90196" lon="5.18775">
        <ele>266.9</ele>
        <time>2011-02-06T16:22:07Z</time>
      </trkpt>
      <trkpt lat="43.90199" lon="5.18785">
        <ele>266.8</ele>
        <time>2011-02-06T16:22:14Z</time>
      </trkpt>
      <trkpt lat="43.902" lon="5.18796">
        <ele>267.8</ele>
        <time>2011-02-06T16:22:19Z</time>
      </trkpt>
      <trkpt lat="43.90198" lon="5.18806">
        <ele>268</ele>
        <time>2011-02-06T16:22:24Z</time>
      </trkpt>
      <trkpt lat="43.90194" lon="5.18816">
        <ele>267.6</ele>
        <time>2011-02-06T16:22:30Z</time>
      </trkpt>
      <trkpt lat="43.90192" lon="5.18826">
        <ele>268.9</ele>
        <time>2011-02-06T16:22:36Z</time>
      </trkpt>
      <trkpt lat="43.9019" lon="5.18837">
        <ele>268.9</ele>
        <time>2011-02-06T16:22:41Z</time>
      </trkpt>
      <trkpt lat="43.90187" lon="5.18849">
        <ele>269</ele>
        <time>2011-02-06T16:22:47Z</time>
      </trkpt>
      <trkpt lat="43.90184" lon="5.18859">
        <ele>268.6</ele>
        <time>2011-02-06T16:22:52Z</time>
      </trkpt>
      <trkpt lat="43.90182" lon="5.18869">
        <ele>268.7</ele>
        <time>2011-02-06T16:22:57Z</time>
      </trkpt>
      <trkpt lat="43.90182" lon="5.18871">
        <ele>268.7</ele>
        <time>2011-02-06T16:22:58Z</time>
      </trkpt>
      <trkpt lat="43.90179" lon="5.18892">
        <ele>269</ele>
        <time>2011-02-06T16:23:08Z</time>
      </trkpt>
      <trkpt lat="43.90177" lon="5.18904">
        <ele>269.2</ele>
        <time>2011-02-06T16:23:14Z</time>
      </trkpt>
      <trkpt lat="43.90175" lon="5.18915">
        <ele>268.9</ele>
        <time>2011-02-06T16:23:20Z</time>
      </trkpt>
      <trkpt lat="43.90174" lon="5.18927">
        <ele>269.5</ele>
        <time>2011-02-06T16:23:26Z</time>
      </trkpt>
      <trkpt lat="43.90174" lon="5.18938">
        <ele>268.9</ele>
        <time>2011-02-06T16:23:31Z</time>
      </trkpt>
      <trkpt lat="43.90175" lon="5.18951">
        <ele>267.8</ele>
        <time>2011-02-06T16:23:37Z</time>
      </trkpt>
      <trkpt lat="43.90175" lon="5.18961">
        <ele>267.5</ele>
        <time>2011-02-06T16:23:42Z</time>
      </trkpt>
      <trkpt lat="43.90175" lon="5.18972">
        <ele>267.1</ele>
        <time>2011-02-06T16:23:49Z</time>
      </trkpt>
      <trkpt lat="43.90174" lon="5.18984">
        <ele>266.2</ele>
        <time>2011-02-06T16:23:54Z</time>
      </trkpt>
      <trkpt lat="43.90175" lon="5.18994">
        <ele>266</ele>
        <time>2011-02-06T16:23:58Z</time>
      </trkpt>
      <trkpt lat="43.90175" lon="5.18997">
        <ele>265.9</ele>
        <time>2011-02-06T16:23:59Z</time>
      </trkpt>
      <trkpt lat="43.90181" lon="5.19015">
        <ele>265.6</ele>
        <time>2011-02-06T16:24:08Z</time>
      </trkpt>
      <trkpt lat="43.9018" lon="5.19028">
        <ele>266.5</ele>
        <time>2011-02-06T16:24:14Z</time>
      </trkpt>
      <trkpt lat="43.90177" lon="5.19039">
        <ele>265.9</ele>
        <time>2011-02-06T16:24:21Z</time>
      </trkpt>
      <trkpt lat="43.9017" lon="5.19046">
        <ele>266.2</ele>
        <time>2011-02-06T16:24:26Z</time>
      </trkpt>
      <trkpt lat="43.90162" lon="5.19052">
        <ele>267.4</ele>
        <time>2011-02-06T16:24:30Z</time>
      </trkpt>
      <trkpt lat="43.90157" lon="5.19062">
        <ele>268.3</ele>
        <time>2011-02-06T16:24:34Z</time>
      </trkpt>
      <trkpt lat="43.90156" lon="5.1907">
        <ele>268.7</ele>
        <time>2011-02-06T16:24:36Z</time>
      </trkpt>
      <trkpt lat="43.90154" lon="5.19081">
        <ele>269.9</ele>
        <time>2011-02-06T16:24:39Z</time>
      </trkpt>
      <trkpt lat="43.90156" lon="5.1909">
        <ele>270.8</ele>
        <time>2011-02-06T16:24:41Z</time>
      </trkpt>
      <trkpt lat="43.90159" lon="5.191">
        <ele>271.8</ele>
        <time>2011-02-06T16:24:43Z</time>
      </trkpt>
      <trkpt lat="43.90163" lon="5.19109">
        <ele>272.3</ele>
        <time>2011-02-06T16:24:45Z</time>
      </trkpt>
      <trkpt lat="43.90167" lon="5.19118">
        <ele>273.6</ele>
        <time>2011-02-06T16:24:48Z</time>
      </trkpt>
      <trkpt lat="43.90171" lon="5.19129">
        <ele>274.4</ele>
        <time>2011-02-06T16:24:50Z</time>
      </trkpt>
      <trkpt lat="43.90173" lon="5.19139">
        <ele>275</ele>
        <time>2011-02-06T16:24:52Z</time>
      </trkpt>
      <trkpt lat="43.90171" lon="5.1915">
        <ele>275.5</ele>
        <time>2011-02-06T16:24:55Z</time>
      </trkpt>
      <trkpt lat="43.90168" lon="5.1916">
        <ele>275.8</ele>
        <time>2011-02-06T16:24:58Z</time>
      </trkpt>
      <trkpt lat="43.90165" lon="5.1917">
        <ele>276.5</ele>
        <time>2011-02-06T16:25:02Z</time>
      </trkpt>
      <trkpt lat="43.90165" lon="5.19173">
        <ele>276.5</ele>
        <time>2011-02-06T16:25:03Z</time>
      </trkpt>
      <trkpt lat="43.9016" lon="5.1919">
        <ele>276.5</ele>
        <time>2011-02-06T16:25:11Z</time>
      </trkpt>
      <trkpt lat="43.90158" lon="5.19202">
        <ele>277.9</ele>
        <time>2011-02-06T16:25:17Z</time>
      </trkpt>
      <trkpt lat="43.90156" lon="5.19213">
        <ele>278.5</ele>
        <time>2011-02-06T16:25:22Z</time>
      </trkpt>
      <trkpt lat="43.90155" lon="5.19224">
        <ele>278.7</ele>
        <time>2011-02-06T16:25:27Z</time>
      </trkpt>
      <trkpt lat="43.90154" lon="5.19234">
        <ele>279.3</ele>
        <time>2011-02-06T16:25:32Z</time>
      </trkpt>
      <trkpt lat="43.90149" lon="5.19244">
        <ele>279.5</ele>
        <time>2011-02-06T16:25:38Z</time>
      </trkpt>
      <trkpt lat="43.90144" lon="5.19253">
        <ele>280</ele>
        <time>2011-02-06T16:26:13Z</time>
      </trkpt>
      <trkpt lat="43.90143" lon="5.19254">
        <ele>280.6</ele>
        <time>2011-02-06T16:26:14Z</time>
      </trkpt>
      <trkpt lat="43.90141" lon="5.19264">
        <ele>280.3</ele>
        <time>2011-02-06T16:26:20Z</time>
      </trkpt>
    </trkseg>
  </trk>
</gpx>